<?xml version="1.0" encoding="UTF-8" standalone="no" ?>
<gpx xmlns="http://www.topografix.com/GPX/1/1" xmlns:xsi="http://www.w3.org/2001/XMLSchema-instance" xsi:schemaLocation="http://www.topografix.com/GPX/1/1 http://www.topografix.com/GPX/1/1/gpx.xsd" version="1.1" creator="VisuGPX - https://www.visugpx.com">
  <metadata>
    <name>Montflanquin Gravel</name>
    <desc><![CDATA[Hors asphalte gravel OK (testé avec Diverge 4, pneus 50mm)]]></desc>
  </metadata>
  <wpt lat="44.5662" lon="0.73317">
    <ele>120.6</ele>
    <name><![CDATA[David haut/bas]]></name>
  </wpt>
  <wpt lat="44.55013" lon="0.85946">
    <ele>126.4</ele>
  </wpt>
  <trk>
    <name><![CDATA[Lac du Brayssou (étonnant)]]></name>
    <extensions>
      <line xmlns="http://www.topografix.com/GPX/gpx_style/0/2">
        <color>0000FF</color>
        <opacity>1</opacity>
        <width>4</width>
      </line>
    </extensions>
    <trkseg>
      <trkpt lat="44.67563" lon="0.86937">
        <ele>199.2</ele>
        <time>2026-08-15T06:48:52Z</time>
      </trkpt>
      <trkpt lat="44.6749" lon="0.86801">
        <ele>201.4</ele>
        <time>2026-08-15T06:49:24Z</time>
      </trkpt>
      <trkpt lat="44.67442" lon="0.86698">
        <ele>204.2</ele>
        <time>2026-08-15T06:49:48Z</time>
      </trkpt>
      <trkpt lat="44.67409" lon="0.86566">
        <ele>204.6</ele>
        <time>2026-08-15T06:50:12Z</time>
      </trkpt>
      <trkpt lat="44.67401" lon="0.86546">
        <ele>204.6</ele>
        <time>2026-08-15T06:50:16Z</time>
      </trkpt>
      <trkpt lat="44.67388" lon="0.86532">
        <ele>204.8</ele>
        <time>2026-08-15T06:50:20Z</time>
      </trkpt>
      <trkpt lat="44.67328" lon="0.865">
        <ele>206</ele>
        <time>2026-08-15T06:50:36Z</time>
      </trkpt>
      <trkpt lat="44.67315" lon="0.8649">
        <ele>206</ele>
        <time>2026-08-15T06:50:40Z</time>
      </trkpt>
      <trkpt lat="44.67295" lon="0.86457">
        <ele>205.4</ele>
        <time>2026-08-15T06:50:48Z</time>
      </trkpt>
      <trkpt lat="44.67268" lon="0.86367">
        <ele>201.8</ele>
        <time>2026-08-15T06:51:04Z</time>
      </trkpt>
      <trkpt lat="44.67233" lon="0.86272">
        <ele>199.6</ele>
        <time>2026-08-15T06:51:20Z</time>
      </trkpt>
      <trkpt lat="44.67141" lon="0.86075">
        <ele>198</ele>
        <time>2026-08-15T06:51:52Z</time>
      </trkpt>
      <trkpt lat="44.67111" lon="0.86034">
        <ele>198.2</ele>
        <time>2026-08-15T06:52:00Z</time>
      </trkpt>
      <trkpt lat="44.67034" lon="0.85954">
        <ele>196.8</ele>
        <time>2026-08-15T06:52:16Z</time>
      </trkpt>
      <trkpt lat="44.66952" lon="0.8589">
        <ele>195.8</ele>
        <time>2026-08-15T06:52:32Z</time>
      </trkpt>
      <trkpt lat="44.66946" lon="0.85874">
        <ele>197</ele>
        <time>2026-08-15T06:52:36Z</time>
      </trkpt>
      <trkpt lat="44.66948" lon="0.85814">
        <ele>202.6</ele>
        <time>2026-08-15T06:52:52Z</time>
      </trkpt>
      <trkpt lat="44.66914" lon="0.8559">
        <ele>199.8</ele>
        <time>2026-08-15T06:53:24Z</time>
      </trkpt>
      <trkpt lat="44.66888" lon="0.85286">
        <ele>198.6</ele>
        <time>2026-08-15T06:54:04Z</time>
      </trkpt>
      <trkpt lat="44.66878" lon="0.85226">
        <ele>203.6</ele>
        <time>2026-08-15T06:54:20Z</time>
      </trkpt>
      <trkpt lat="44.66825" lon="0.85141">
        <ele>208.6</ele>
        <time>2026-08-15T06:54:48Z</time>
      </trkpt>
      <trkpt lat="44.66824" lon="0.85127">
        <ele>208.8</ele>
        <time>2026-08-15T06:54:52Z</time>
      </trkpt>
      <trkpt lat="44.66831" lon="0.85126">
        <ele>209</ele>
        <time>2026-08-15T06:54:56Z</time>
      </trkpt>
      <trkpt lat="44.66852" lon="0.85138">
        <ele>208.6</ele>
        <time>2026-08-15T06:55:02Z</time>
      </trkpt>
      <trkpt lat="44.66857" lon="0.85133">
        <ele>208.4</ele>
        <time>2026-08-15T06:55:04Z</time>
      </trkpt>
      <trkpt lat="44.66862" lon="0.85097">
        <ele>208.2</ele>
        <time>2026-08-15T06:55:12Z</time>
      </trkpt>
      <trkpt lat="44.66883" lon="0.8507">
        <ele>207.4</ele>
        <time>2026-08-15T06:55:20Z</time>
      </trkpt>
      <trkpt lat="44.66897" lon="0.85063">
        <ele>206.8</ele>
        <time>2026-08-15T06:55:24Z</time>
      </trkpt>
      <trkpt lat="44.66916" lon="0.85061">
        <ele>206.2</ele>
        <time>2026-08-15T06:55:28Z</time>
      </trkpt>
      <trkpt lat="44.66956" lon="0.85043">
        <ele>204.4</ele>
        <time>2026-08-15T06:55:36Z</time>
      </trkpt>
      <trkpt lat="44.66974" lon="0.85045">
        <ele>203</ele>
        <time>2026-08-15T06:55:40Z</time>
      </trkpt>
      <trkpt lat="44.66991" lon="0.85037">
        <ele>202.2</ele>
        <time>2026-08-15T06:55:44Z</time>
      </trkpt>
      <trkpt lat="44.67011" lon="0.85014">
        <ele>201.6</ele>
        <time>2026-08-15T06:55:52Z</time>
      </trkpt>
      <trkpt lat="44.67064" lon="0.85014">
        <ele>203.6</ele>
        <time>2026-08-15T06:56:08Z</time>
      </trkpt>
      <trkpt lat="44.67101" lon="0.84987">
        <ele>205.6</ele>
        <time>2026-08-15T06:56:20Z</time>
      </trkpt>
      <trkpt lat="44.67159" lon="0.8499">
        <ele>208.4</ele>
        <time>2026-08-15T06:56:36Z</time>
      </trkpt>
      <trkpt lat="44.67233" lon="0.84975">
        <ele>212.8</ele>
        <time>2026-08-15T06:57:00Z</time>
      </trkpt>
      <trkpt lat="44.67243" lon="0.8497">
        <ele>213.6</ele>
        <time>2026-08-15T06:57:04Z</time>
      </trkpt>
      <trkpt lat="44.67265" lon="0.8489">
        <ele>215.6</ele>
        <time>2026-08-15T06:57:24Z</time>
      </trkpt>
      <trkpt lat="44.67285" lon="0.84874">
        <ele>216.8</ele>
        <time>2026-08-15T06:57:32Z</time>
      </trkpt>
      <trkpt lat="44.67318" lon="0.84823">
        <ele>219.6</ele>
        <time>2026-08-15T06:57:48Z</time>
      </trkpt>
      <trkpt lat="44.67355" lon="0.84742">
        <ele>219.6</ele>
        <time>2026-08-15T06:58:08Z</time>
      </trkpt>
      <trkpt lat="44.67348" lon="0.84726">
        <ele>219.4</ele>
        <time>2026-08-15T06:58:12Z</time>
      </trkpt>
      <trkpt lat="44.67341" lon="0.84718">
        <ele>218.6</ele>
        <time>2026-08-15T06:58:14Z</time>
      </trkpt>
      <trkpt lat="44.67276" lon="0.84699">
        <ele>213.8</ele>
        <time>2026-08-15T06:58:26Z</time>
      </trkpt>
      <trkpt lat="44.67256" lon="0.84687">
        <ele>212.8</ele>
        <time>2026-08-15T06:58:30Z</time>
      </trkpt>
      <trkpt lat="44.67238" lon="0.84658">
        <ele>210.6</ele>
        <time>2026-08-15T06:58:36Z</time>
      </trkpt>
      <trkpt lat="44.67197" lon="0.84635">
        <ele>206.8</ele>
        <time>2026-08-15T06:58:44Z</time>
      </trkpt>
      <trkpt lat="44.67113" lon="0.84572">
        <ele>196.6</ele>
        <time>2026-08-15T06:59:08Z</time>
      </trkpt>
      <trkpt lat="44.67101" lon="0.84556">
        <ele>194.8</ele>
        <time>2026-08-15T06:59:16Z</time>
      </trkpt>
      <trkpt lat="44.67086" lon="0.84517">
        <ele>193.4</ele>
        <time>2026-08-15T06:59:24Z</time>
      </trkpt>
      <trkpt lat="44.67067" lon="0.84497">
        <ele>191.4</ele>
        <time>2026-08-15T06:59:32Z</time>
      </trkpt>
      <trkpt lat="44.67045" lon="0.84482">
        <ele>189.6</ele>
        <time>2026-08-15T06:59:40Z</time>
      </trkpt>
      <trkpt lat="44.67036" lon="0.84472">
        <ele>188.4</ele>
        <time>2026-08-15T06:59:44Z</time>
      </trkpt>
      <trkpt lat="44.67019" lon="0.84376">
        <ele>183.2</ele>
        <time>2026-08-15T07:00:04Z</time>
      </trkpt>
      <trkpt lat="44.67023" lon="0.8436">
        <ele>182.4</ele>
        <time>2026-08-15T07:00:08Z</time>
      </trkpt>
      <trkpt lat="44.6704" lon="0.84332">
        <ele>183.2</ele>
        <time>2026-08-15T07:00:16Z</time>
      </trkpt>
      <trkpt lat="44.67071" lon="0.84246">
        <ele>183.4</ele>
        <time>2026-08-15T07:00:36Z</time>
      </trkpt>
      <trkpt lat="44.67077" lon="0.84203">
        <ele>183</ele>
        <time>2026-08-15T07:00:44Z</time>
      </trkpt>
      <trkpt lat="44.67094" lon="0.84165">
        <ele>182.2</ele>
        <time>2026-08-15T07:00:52Z</time>
      </trkpt>
      <trkpt lat="44.67115" lon="0.8408">
        <ele>181.8</ele>
        <time>2026-08-15T07:01:08Z</time>
      </trkpt>
      <trkpt lat="44.67152" lon="0.83992">
        <ele>179.8</ele>
        <time>2026-08-15T07:01:24Z</time>
      </trkpt>
      <trkpt lat="44.67154" lon="0.8395">
        <ele>180.4</ele>
        <time>2026-08-15T07:01:32Z</time>
      </trkpt>
      <trkpt lat="44.67151" lon="0.83915">
        <ele>180.6</ele>
        <time>2026-08-15T07:01:40Z</time>
      </trkpt>
      <trkpt lat="44.6717" lon="0.8384">
        <ele>181.6</ele>
        <time>2026-08-15T07:01:56Z</time>
      </trkpt>
      <trkpt lat="44.67192" lon="0.83772">
        <ele>184.4</ele>
        <time>2026-08-15T07:02:12Z</time>
      </trkpt>
      <trkpt lat="44.67187" lon="0.83725">
        <ele>183.2</ele>
        <time>2026-08-15T07:02:28Z</time>
      </trkpt>
      <trkpt lat="44.67201" lon="0.8369">
        <ele>181.6</ele>
        <time>2026-08-15T07:02:36Z</time>
      </trkpt>
      <trkpt lat="44.67244" lon="0.8352">
        <ele>181.4</ele>
        <time>2026-08-15T07:03:08Z</time>
      </trkpt>
      <trkpt lat="44.67303" lon="0.83317">
        <ele>179.6</ele>
        <time>2026-08-15T07:03:40Z</time>
      </trkpt>
      <trkpt lat="44.6731" lon="0.83282">
        <ele>180.6</ele>
        <time>2026-08-15T07:03:48Z</time>
      </trkpt>
      <trkpt lat="44.6734" lon="0.83206">
        <ele>181.6</ele>
        <time>2026-08-15T07:04:04Z</time>
      </trkpt>
      <trkpt lat="44.67353" lon="0.8319">
        <ele>181.6</ele>
        <time>2026-08-15T07:04:08Z</time>
      </trkpt>
      <trkpt lat="44.67413" lon="0.83143">
        <ele>182.4</ele>
        <time>2026-08-15T07:04:24Z</time>
      </trkpt>
      <trkpt lat="44.67442" lon="0.8313">
        <ele>181.6</ele>
        <time>2026-08-15T07:04:32Z</time>
      </trkpt>
      <trkpt lat="44.67438" lon="0.83112">
        <ele>179.6</ele>
        <time>2026-08-15T07:04:40Z</time>
      </trkpt>
      <trkpt lat="44.67431" lon="0.83104">
        <ele>177.6</ele>
        <time>2026-08-15T07:04:44Z</time>
      </trkpt>
      <trkpt lat="44.67417" lon="0.83097">
        <ele>175.6</ele>
        <time>2026-08-15T07:04:48Z</time>
      </trkpt>
      <trkpt lat="44.67393" lon="0.83019">
        <ele>165.2</ele>
        <time>2026-08-15T07:05:04Z</time>
      </trkpt>
      <trkpt lat="44.67381" lon="0.82987">
        <ele>162.4</ele>
        <time>2026-08-15T07:05:12Z</time>
      </trkpt>
      <trkpt lat="44.6737" lon="0.82985">
        <ele>160.6</ele>
        <time>2026-08-15T07:05:16Z</time>
      </trkpt>
      <trkpt lat="44.6734" lon="0.82994">
        <ele>157.6</ele>
        <time>2026-08-15T07:05:22Z</time>
      </trkpt>
      <trkpt lat="44.67303" lon="0.82969">
        <ele>153.4</ele>
        <time>2026-08-15T07:05:30Z</time>
      </trkpt>
      <trkpt lat="44.67293" lon="0.82968">
        <ele>152.6</ele>
        <time>2026-08-15T07:05:32Z</time>
      </trkpt>
      <trkpt lat="44.67276" lon="0.82983">
        <ele>151.2</ele>
        <time>2026-08-15T07:05:36Z</time>
      </trkpt>
      <trkpt lat="44.67249" lon="0.83022">
        <ele>147.6</ele>
        <time>2026-08-15T07:05:44Z</time>
      </trkpt>
      <trkpt lat="44.67235" lon="0.83032">
        <ele>146.2</ele>
        <time>2026-08-15T07:05:48Z</time>
      </trkpt>
      <trkpt lat="44.67229" lon="0.83028">
        <ele>145.2</ele>
        <time>2026-08-15T07:05:50Z</time>
      </trkpt>
      <trkpt lat="44.67202" lon="0.82921">
        <ele>138.8</ele>
        <time>2026-08-15T07:06:06Z</time>
      </trkpt>
      <trkpt lat="44.67187" lon="0.82877">
        <ele>138.8</ele>
        <time>2026-08-15T07:06:14Z</time>
      </trkpt>
      <trkpt lat="44.67151" lon="0.82807">
        <ele>141.2</ele>
        <time>2026-08-15T07:06:30Z</time>
      </trkpt>
      <trkpt lat="44.67114" lon="0.82771">
        <ele>147.2</ele>
        <time>2026-08-15T07:06:50Z</time>
      </trkpt>
      <trkpt lat="44.67101" lon="0.82732">
        <ele>148.4</ele>
        <time>2026-08-15T07:07:02Z</time>
      </trkpt>
      <trkpt lat="44.67108" lon="0.82714">
        <ele>148.8</ele>
        <time>2026-08-15T07:07:10Z</time>
      </trkpt>
      <trkpt lat="44.67104" lon="0.82717">
        <ele>149</ele>
        <time>2026-08-15T07:07:14Z</time>
      </trkpt>
      <trkpt lat="44.67094" lon="0.82714">
        <ele>149</ele>
        <time>2026-08-15T07:07:18Z</time>
      </trkpt>
      <trkpt lat="44.67056" lon="0.82622">
        <ele>146.6</ele>
        <time>2026-08-15T07:07:34Z</time>
      </trkpt>
      <trkpt lat="44.67035" lon="0.8258">
        <ele>145</ele>
        <time>2026-08-15T07:07:42Z</time>
      </trkpt>
      <trkpt lat="44.67029" lon="0.82557">
        <ele>144.4</ele>
        <time>2026-08-15T07:07:46Z</time>
      </trkpt>
      <trkpt lat="44.67028" lon="0.8251">
        <ele>144.4</ele>
        <time>2026-08-15T07:07:54Z</time>
      </trkpt>
      <trkpt lat="44.67024" lon="0.82488">
        <ele>144.6</ele>
        <time>2026-08-15T07:07:58Z</time>
      </trkpt>
      <trkpt lat="44.67005" lon="0.82448">
        <ele>145</ele>
        <time>2026-08-15T07:08:06Z</time>
      </trkpt>
      <trkpt lat="44.67003" lon="0.82436">
        <ele>145</ele>
        <time>2026-08-15T07:08:08Z</time>
      </trkpt>
      <trkpt lat="44.67036" lon="0.82347">
        <ele>144.2</ele>
        <time>2026-08-15T07:08:24Z</time>
      </trkpt>
      <trkpt lat="44.67062" lon="0.82298">
        <ele>140.6</ele>
        <time>2026-08-15T07:08:32Z</time>
      </trkpt>
      <trkpt lat="44.67136" lon="0.82092">
        <ele>124.6</ele>
        <time>2026-08-15T07:09:00Z</time>
      </trkpt>
      <trkpt lat="44.67135" lon="0.82061">
        <ele>121.4</ele>
        <time>2026-08-15T07:09:08Z</time>
      </trkpt>
      <trkpt lat="44.67176" lon="0.82068">
        <ele>120.4</ele>
        <time>2026-08-15T07:09:20Z</time>
      </trkpt>
      <trkpt lat="44.67183" lon="0.82066">
        <ele>120.6</ele>
        <time>2026-08-15T07:09:22Z</time>
      </trkpt>
      <trkpt lat="44.67186" lon="0.82049">
        <ele>120.6</ele>
        <time>2026-08-15T07:09:26Z</time>
      </trkpt>
      <trkpt lat="44.67148" lon="0.81869">
        <ele>121.6</ele>
        <time>2026-08-15T07:09:58Z</time>
      </trkpt>
      <trkpt lat="44.67125" lon="0.81786">
        <ele>121.8</ele>
        <time>2026-08-15T07:10:14Z</time>
      </trkpt>
      <trkpt lat="44.67117" lon="0.81688">
        <ele>121</ele>
        <time>2026-08-15T07:10:30Z</time>
      </trkpt>
      <trkpt lat="44.67119" lon="0.8159">
        <ele>120.6</ele>
        <time>2026-08-15T07:10:46Z</time>
      </trkpt>
      <trkpt lat="44.67131" lon="0.81514">
        <ele>123.4</ele>
        <time>2026-08-15T07:11:02Z</time>
      </trkpt>
      <trkpt lat="44.6713" lon="0.81469">
        <ele>123</ele>
        <time>2026-08-15T07:11:10Z</time>
      </trkpt>
      <trkpt lat="44.67115" lon="0.81369">
        <ele>121</ele>
        <time>2026-08-15T07:11:26Z</time>
      </trkpt>
      <trkpt lat="44.67115" lon="0.81245">
        <ele>125.2</ele>
        <time>2026-08-15T07:11:50Z</time>
      </trkpt>
      <trkpt lat="44.67107" lon="0.81184">
        <ele>122.6</ele>
        <time>2026-08-15T07:11:58Z</time>
      </trkpt>
      <trkpt lat="44.67112" lon="0.81151">
        <ele>121.8</ele>
        <time>2026-08-15T07:12:02Z</time>
      </trkpt>
      <trkpt lat="44.67122" lon="0.81133">
        <ele>121.6</ele>
        <time>2026-08-15T07:12:06Z</time>
      </trkpt>
      <trkpt lat="44.67134" lon="0.81123">
        <ele>122.2</ele>
        <time>2026-08-15T07:12:10Z</time>
      </trkpt>
      <trkpt lat="44.67141" lon="0.81107">
        <ele>123</ele>
        <time>2026-08-15T07:12:14Z</time>
      </trkpt>
      <trkpt lat="44.6715" lon="0.81041">
        <ele>120.6</ele>
        <time>2026-08-15T07:12:53Z</time>
      </trkpt>
      <trkpt lat="44.67168" lon="0.81019">
        <ele>121</ele>
        <time>2026-08-15T07:13:01Z</time>
      </trkpt>
      <trkpt lat="44.67192" lon="0.81001">
        <ele>121.2</ele>
        <time>2026-08-15T07:13:09Z</time>
      </trkpt>
      <trkpt lat="44.67206" lon="0.81">
        <ele>121.2</ele>
        <time>2026-08-15T07:13:13Z</time>
      </trkpt>
      <trkpt lat="44.67249" lon="0.81033">
        <ele>120.8</ele>
        <time>2026-08-15T07:13:25Z</time>
      </trkpt>
      <trkpt lat="44.67283" lon="0.81044">
        <ele>120.4</ele>
        <time>2026-08-15T07:13:33Z</time>
      </trkpt>
      <trkpt lat="44.67317" lon="0.81042">
        <ele>120.6</ele>
        <time>2026-08-15T07:13:41Z</time>
      </trkpt>
      <trkpt lat="44.67334" lon="0.81034">
        <ele>120.6</ele>
        <time>2026-08-15T07:13:45Z</time>
      </trkpt>
      <trkpt lat="44.67363" lon="0.81008">
        <ele>120.6</ele>
        <time>2026-08-15T07:13:53Z</time>
      </trkpt>
      <trkpt lat="44.67377" lon="0.81001">
        <ele>121.2</ele>
        <time>2026-08-15T07:13:57Z</time>
      </trkpt>
      <trkpt lat="44.67428" lon="0.8102">
        <ele>124.2</ele>
        <time>2026-08-15T07:14:13Z</time>
      </trkpt>
      <trkpt lat="44.67488" lon="0.81003">
        <ele>122</ele>
        <time>2026-08-15T07:14:25Z</time>
      </trkpt>
      <trkpt lat="44.67534" lon="0.81003">
        <ele>120.8</ele>
        <time>2026-08-15T07:14:33Z</time>
      </trkpt>
      <trkpt lat="44.67595" lon="0.81016">
        <ele>121</ele>
        <time>2026-08-15T07:14:49Z</time>
      </trkpt>
      <trkpt lat="44.67604" lon="0.81">
        <ele>120.8</ele>
        <time>2026-08-15T07:14:53Z</time>
      </trkpt>
      <trkpt lat="44.67602" lon="0.80978">
        <ele>120.6</ele>
        <time>2026-08-15T07:14:57Z</time>
      </trkpt>
      <trkpt lat="44.67583" lon="0.80938">
        <ele>120.6</ele>
        <time>2026-08-15T07:15:05Z</time>
      </trkpt>
      <trkpt lat="44.6756" lon="0.80906">
        <ele>120.4</ele>
        <time>2026-08-15T07:15:13Z</time>
      </trkpt>
      <trkpt lat="44.67531" lon="0.80886">
        <ele>120.2</ele>
        <time>2026-08-15T07:15:21Z</time>
      </trkpt>
      <trkpt lat="44.6747" lon="0.80856">
        <ele>120.6</ele>
        <time>2026-08-15T07:15:37Z</time>
      </trkpt>
      <trkpt lat="44.6738" lon="0.80832">
        <ele>121.4</ele>
        <time>2026-08-15T07:16:01Z</time>
      </trkpt>
      <trkpt lat="44.67344" lon="0.80814">
        <ele>122</ele>
        <time>2026-08-15T07:16:13Z</time>
      </trkpt>
      <trkpt lat="44.67331" lon="0.80802">
        <ele>122.6</ele>
        <time>2026-08-15T07:16:17Z</time>
      </trkpt>
      <trkpt lat="44.67324" lon="0.80782">
        <ele>122.8</ele>
        <time>2026-08-15T07:16:21Z</time>
      </trkpt>
      <trkpt lat="44.6733" lon="0.80734">
        <ele>123</ele>
        <time>2026-08-15T07:16:29Z</time>
      </trkpt>
      <trkpt lat="44.67362" lon="0.80628">
        <ele>120</ele>
        <time>2026-08-15T07:16:45Z</time>
      </trkpt>
      <trkpt lat="44.67353" lon="0.80583">
        <ele>120</ele>
        <time>2026-08-15T07:16:53Z</time>
      </trkpt>
      <trkpt lat="44.67352" lon="0.80559">
        <ele>120</ele>
        <time>2026-08-15T07:16:57Z</time>
      </trkpt>
      <trkpt lat="44.67372" lon="0.80515">
        <ele>124.8</ele>
        <time>2026-08-15T07:17:13Z</time>
      </trkpt>
      <trkpt lat="44.6738" lon="0.80472">
        <ele>129.2</ele>
        <time>2026-08-15T07:17:29Z</time>
      </trkpt>
      <trkpt lat="44.6739" lon="0.80457">
        <ele>129.6</ele>
        <time>2026-08-15T07:18:02Z</time>
      </trkpt>
      <trkpt lat="44.67437" lon="0.80442">
        <ele>132.4</ele>
        <time>2026-08-15T07:18:18Z</time>
      </trkpt>
      <trkpt lat="44.67531" lon="0.80423">
        <ele>135.4</ele>
        <time>2026-08-15T07:18:46Z</time>
      </trkpt>
      <trkpt lat="44.67546" lon="0.80411">
        <ele>135</ele>
        <time>2026-08-15T07:18:50Z</time>
      </trkpt>
      <trkpt lat="44.67554" lon="0.80385">
        <ele>134</ele>
        <time>2026-08-15T07:18:54Z</time>
      </trkpt>
      <trkpt lat="44.67554" lon="0.80347">
        <ele>132.6</ele>
        <time>2026-08-15T07:18:58Z</time>
      </trkpt>
      <trkpt lat="44.67543" lon="0.80311">
        <ele>131.2</ele>
        <time>2026-08-15T07:19:02Z</time>
      </trkpt>
      <trkpt lat="44.67509" lon="0.80263">
        <ele>127.6</ele>
        <time>2026-08-15T07:19:10Z</time>
      </trkpt>
      <trkpt lat="44.67486" lon="0.80209">
        <ele>122.8</ele>
        <time>2026-08-15T07:19:18Z</time>
      </trkpt>
      <trkpt lat="44.67484" lon="0.80152">
        <ele>120.6</ele>
        <time>2026-08-15T07:19:26Z</time>
      </trkpt>
      <trkpt lat="44.67458" lon="0.80129">
        <ele>120.4</ele>
        <time>2026-08-15T07:19:34Z</time>
      </trkpt>
      <trkpt lat="44.67408" lon="0.80096">
        <ele>121</ele>
        <time>2026-08-15T07:19:53Z</time>
      </trkpt>
      <trkpt lat="44.67399" lon="0.80085">
        <ele>120.8</ele>
        <time>2026-08-15T07:20:17Z</time>
      </trkpt>
      <trkpt lat="44.67353" lon="0.79995">
        <ele>121.4</ele>
        <time>2026-08-15T07:20:37Z</time>
      </trkpt>
      <trkpt lat="44.67349" lon="0.79975">
        <ele>122</ele>
        <time>2026-08-15T07:20:41Z</time>
      </trkpt>
      <trkpt lat="44.67353" lon="0.79953">
        <ele>122.4</ele>
        <time>2026-08-15T07:20:45Z</time>
      </trkpt>
      <trkpt lat="44.67364" lon="0.79934">
        <ele>122.4</ele>
        <time>2026-08-15T07:20:49Z</time>
      </trkpt>
      <trkpt lat="44.67395" lon="0.79905">
        <ele>121.4</ele>
        <time>2026-08-15T07:20:57Z</time>
      </trkpt>
      <trkpt lat="44.67403" lon="0.79882">
        <ele>121</ele>
        <time>2026-08-15T07:21:01Z</time>
      </trkpt>
      <trkpt lat="44.67403" lon="0.7987">
        <ele>121</ele>
        <time>2026-08-15T07:21:03Z</time>
      </trkpt>
      <trkpt lat="44.67375" lon="0.79838">
        <ele>121</ele>
        <time>2026-08-15T07:21:11Z</time>
      </trkpt>
      <trkpt lat="44.67359" lon="0.7983">
        <ele>120.8</ele>
        <time>2026-08-15T07:21:15Z</time>
      </trkpt>
      <trkpt lat="44.67329" lon="0.79837">
        <ele>120.2</ele>
        <time>2026-08-15T07:21:48Z</time>
      </trkpt>
      <trkpt lat="44.67305" lon="0.79815">
        <ele>120.2</ele>
        <time>2026-08-15T07:21:56Z</time>
      </trkpt>
      <trkpt lat="44.67284" lon="0.7978">
        <ele>120.6</ele>
        <time>2026-08-15T07:22:04Z</time>
      </trkpt>
      <trkpt lat="44.67269" lon="0.79739">
        <ele>120.4</ele>
        <time>2026-08-15T07:22:12Z</time>
      </trkpt>
      <trkpt lat="44.67265" lon="0.7971">
        <ele>119.6</ele>
        <time>2026-08-15T07:22:20Z</time>
      </trkpt>
      <trkpt lat="44.67232" lon="0.79641">
        <ele>120.2</ele>
        <time>2026-08-15T07:22:36Z</time>
      </trkpt>
      <trkpt lat="44.67198" lon="0.79606">
        <ele>121</ele>
        <time>2026-08-15T07:22:48Z</time>
      </trkpt>
      <trkpt lat="44.67188" lon="0.79576">
        <ele>124</ele>
        <time>2026-08-15T07:23:37Z</time>
        <extensions>
          <visugpx:TrkExtension xmlns:visugpx="https://www.visugpx.com/editgpx/">
            <visugpx:node>1</visugpx:node>
            </visugpx:TrkExtension>
        </extensions>
      </trkpt>
    </trkseg>
  </trk>
  <trk>
    <name><![CDATA[Pistes]]></name>
    <extensions>
      <line xmlns="http://www.topografix.com/GPX/gpx_style/0/2">
        <color>0000FF</color>
        <opacity>1</opacity>
        <width>4</width>
      </line>
    </extensions>
    <trkseg>
      <trkpt lat="44.6014" lon="0.89303">
        <ele>168.1</ele>
      </trkpt>
      <trkpt lat="44.60168" lon="0.89301">
        <ele>167.3</ele>
      </trkpt>
      <trkpt lat="44.6018" lon="0.89281">
        <ele>168.2</ele>
      </trkpt>
      <trkpt lat="44.60206" lon="0.89261">
        <ele>168.9</ele>
      </trkpt>
      <trkpt lat="44.60235" lon="0.89243">
        <ele>171.1</ele>
      </trkpt>
      <trkpt lat="44.6029" lon="0.89221">
        <ele>168.9</ele>
      </trkpt>
      <trkpt lat="44.60333" lon="0.89163">
        <ele>171.1</ele>
      </trkpt>
      <trkpt lat="44.604" lon="0.89116">
        <ele>175.1</ele>
      </trkpt>
      <trkpt lat="44.60463" lon="0.89065">
        <ele>178.5</ele>
      </trkpt>
      <trkpt lat="44.60583" lon="0.89005">
        <ele>179.7</ele>
      </trkpt>
      <trkpt lat="44.60625" lon="0.88998">
        <ele>180.6</ele>
      </trkpt>
      <trkpt lat="44.60712" lon="0.88961">
        <ele>182.8</ele>
      </trkpt>
      <trkpt lat="44.60764" lon="0.88933">
        <ele>180.4</ele>
      </trkpt>
      <trkpt lat="44.60932" lon="0.88819">
        <ele>180.1</ele>
      </trkpt>
      <trkpt lat="44.61018" lon="0.88744">
        <ele>181</ele>
      </trkpt>
      <trkpt lat="44.61031" lon="0.88723">
        <ele>180.2</ele>
      </trkpt>
      <trkpt lat="44.61039" lon="0.88573">
        <ele>189.2</ele>
      </trkpt>
      <trkpt lat="44.61105" lon="0.88647">
        <ele>187</ele>
      </trkpt>
      <trkpt lat="44.61161" lon="0.88694">
        <ele>187</ele>
      </trkpt>
      <trkpt lat="44.61234" lon="0.88777">
        <ele>186.5</ele>
      </trkpt>
      <trkpt lat="44.61319" lon="0.88841">
        <ele>184.3</ele>
      </trkpt>
      <trkpt lat="44.61343" lon="0.88865">
        <ele>184.6</ele>
      </trkpt>
      <trkpt lat="44.61367" lon="0.889">
        <ele>184.7</ele>
      </trkpt>
      <trkpt lat="44.61468" lon="0.88969">
        <ele>187</ele>
      </trkpt>
      <trkpt lat="44.61526" lon="0.89031">
        <ele>189.1</ele>
      </trkpt>
      <trkpt lat="44.61541" lon="0.89072">
        <ele>189.8</ele>
      </trkpt>
      <trkpt lat="44.61566" lon="0.89216">
        <ele>192.8</ele>
      </trkpt>
      <trkpt lat="44.6158" lon="0.89279">
        <ele>191</ele>
      </trkpt>
      <trkpt lat="44.61603" lon="0.89342">
        <ele>192.6</ele>
      </trkpt>
      <trkpt lat="44.61616" lon="0.89408">
        <ele>193.3</ele>
      </trkpt>
      <trkpt lat="44.61619" lon="0.89475">
        <ele>194.5</ele>
      </trkpt>
      <trkpt lat="44.61614" lon="0.89521">
        <ele>195</ele>
      </trkpt>
      <trkpt lat="44.61601" lon="0.89568">
        <ele>196.6</ele>
      </trkpt>
      <trkpt lat="44.61593" lon="0.89631">
        <ele>197.4</ele>
      </trkpt>
      <trkpt lat="44.61595" lon="0.89671">
        <ele>197.6</ele>
      </trkpt>
      <trkpt lat="44.61608" lon="0.89728">
        <ele>198.3</ele>
      </trkpt>
      <trkpt lat="44.61646" lon="0.89817">
        <ele>200</ele>
      </trkpt>
      <trkpt lat="44.61671" lon="0.89853">
        <ele>201.4</ele>
      </trkpt>
      <trkpt lat="44.61691" lon="0.89914">
        <ele>202.1</ele>
      </trkpt>
      <trkpt lat="44.61763" lon="0.90095">
        <ele>206.5</ele>
      </trkpt>
      <trkpt lat="44.61815" lon="0.90216">
        <ele>208.6</ele>
      </trkpt>
      <trkpt lat="44.61852" lon="0.90275">
        <ele>213.3</ele>
      </trkpt>
      <trkpt lat="44.61875" lon="0.903">
        <ele>215.4</ele>
      </trkpt>
      <trkpt lat="44.61939" lon="0.90342">
        <ele>219</ele>
      </trkpt>
      <trkpt lat="44.61985" lon="0.9038">
        <ele>219.9</ele>
      </trkpt>
      <trkpt lat="44.62017" lon="0.90431">
        <ele>220</ele>
      </trkpt>
      <trkpt lat="44.62088" lon="0.90503">
        <ele>223.4</ele>
      </trkpt>
      <trkpt lat="44.62119" lon="0.90547">
        <ele>227.3</ele>
      </trkpt>
      <trkpt lat="44.62168" lon="0.90636">
        <ele>233.1</ele>
      </trkpt>
      <trkpt lat="44.6218" lon="0.90711">
        <ele>235.7</ele>
      </trkpt>
      <trkpt lat="44.62235" lon="0.90977">
        <ele>233.5</ele>
      </trkpt>
      <trkpt lat="44.62249" lon="0.91025">
        <ele>233.1</ele>
      </trkpt>
      <trkpt lat="44.6235" lon="0.91178">
        <ele>232.8</ele>
      </trkpt>
      <trkpt lat="44.62445" lon="0.91376">
        <ele>237.6</ele>
      </trkpt>
      <trkpt lat="44.62482" lon="0.91478">
        <ele>238.6</ele>
      </trkpt>
      <trkpt lat="44.6249" lon="0.91523">
        <ele>238.9</ele>
      </trkpt>
      <trkpt lat="44.62591" lon="0.91766">
        <ele>240</ele>
      </trkpt>
      <trkpt lat="44.62642" lon="0.91912">
        <ele>242.5</ele>
      </trkpt>
      <trkpt lat="44.62681" lon="0.9198">
        <ele>243.6</ele>
      </trkpt>
      <trkpt lat="44.62712" lon="0.92016">
        <ele>243.5</ele>
      </trkpt>
      <trkpt lat="44.62771" lon="0.92134">
        <ele>241.8</ele>
      </trkpt>
      <trkpt lat="44.62844" lon="0.92111">
        <ele>239.4</ele>
      </trkpt>
      <trkpt lat="44.62862" lon="0.92129">
        <ele>240.7</ele>
      </trkpt>
      <trkpt lat="44.62973" lon="0.92203">
        <ele>251.7</ele>
      </trkpt>
      <trkpt lat="44.63025" lon="0.92224">
        <ele>256.9</ele>
      </trkpt>
      <trkpt lat="44.63042" lon="0.92236">
        <ele>258</ele>
      </trkpt>
      <trkpt lat="44.6313" lon="0.92322">
        <ele>260.8</ele>
      </trkpt>
      <trkpt lat="44.63189" lon="0.92361">
        <ele>260.6</ele>
      </trkpt>
      <trkpt lat="44.63214" lon="0.92393">
        <ele>261.6</ele>
        <extensions>
          <visugpx:TrkExtension xmlns:visugpx="https://www.visugpx.com/editgpx/">
            <visugpx:node>1</visugpx:node>
            </visugpx:TrkExtension>
        </extensions>
      </trkpt>
    </trkseg>
  </trk>
  <trk>
    <name><![CDATA[Classique]]></name>
    <extensions>
      <line xmlns="http://www.topografix.com/GPX/gpx_style/0/2">
        <color>FF0000</color>
        <opacity>1</opacity>
        <width>4</width>
      </line>
    </extensions>
    <trkseg>
      <trkpt lat="44.61149" lon="0.8865">
        <ele>189</ele>
      </trkpt>
      <trkpt lat="44.6132" lon="0.88527">
        <ele>197.1</ele>
      </trkpt>
      <trkpt lat="44.6135" lon="0.88512">
        <ele>199.4</ele>
      </trkpt>
      <trkpt lat="44.61493" lon="0.88465">
        <ele>207</ele>
      </trkpt>
      <trkpt lat="44.6154" lon="0.88455">
        <ele>206.7</ele>
      </trkpt>
      <trkpt lat="44.61591" lon="0.88454">
        <ele>207.1</ele>
      </trkpt>
      <trkpt lat="44.6164" lon="0.88447">
        <ele>208</ele>
      </trkpt>
      <trkpt lat="44.6166" lon="0.8845">
        <ele>208.6</ele>
      </trkpt>
      <trkpt lat="44.61694" lon="0.88469">
        <ele>207.9</ele>
      </trkpt>
      <trkpt lat="44.61729" lon="0.88449">
        <ele>201.8</ele>
      </trkpt>
      <trkpt lat="44.61745" lon="0.88446">
        <ele>199.8</ele>
      </trkpt>
      <trkpt lat="44.61753" lon="0.88437">
        <ele>197.7</ele>
      </trkpt>
      <trkpt lat="44.61768" lon="0.88431">
        <ele>195.4</ele>
      </trkpt>
      <trkpt lat="44.61775" lon="0.88421">
        <ele>193.1</ele>
      </trkpt>
      <trkpt lat="44.61802" lon="0.88415">
        <ele>190.1</ele>
      </trkpt>
      <trkpt lat="44.61866" lon="0.88342">
        <ele>182.7</ele>
      </trkpt>
      <trkpt lat="44.61908" lon="0.88319">
        <ele>181</ele>
      </trkpt>
      <trkpt lat="44.62046" lon="0.88274">
        <ele>170.2</ele>
      </trkpt>
      <trkpt lat="44.62078" lon="0.88268">
        <ele>169</ele>
      </trkpt>
      <trkpt lat="44.62115" lon="0.88242">
        <ele>166.7</ele>
      </trkpt>
      <trkpt lat="44.62122" lon="0.88247">
        <ele>166.2</ele>
      </trkpt>
      <trkpt lat="44.6213" lon="0.88285">
        <ele>165.8</ele>
      </trkpt>
      <trkpt lat="44.62148" lon="0.88313">
        <ele>166.8</ele>
      </trkpt>
      <trkpt lat="44.62166" lon="0.88321">
        <ele>166.7</ele>
      </trkpt>
      <trkpt lat="44.62223" lon="0.88318">
        <ele>167.9</ele>
      </trkpt>
      <trkpt lat="44.62236" lon="0.88321">
        <ele>168.3</ele>
      </trkpt>
      <trkpt lat="44.62276" lon="0.88296">
        <ele>166.1</ele>
      </trkpt>
      <trkpt lat="44.62341" lon="0.8829">
        <ele>168.2</ele>
      </trkpt>
      <trkpt lat="44.62352" lon="0.88276">
        <ele>169</ele>
      </trkpt>
      <trkpt lat="44.62396" lon="0.88196">
        <ele>172.5</ele>
      </trkpt>
      <trkpt lat="44.624" lon="0.88192">
        <ele>173</ele>
      </trkpt>
      <trkpt lat="44.62412" lon="0.88221">
        <ele>173</ele>
      </trkpt>
      <trkpt lat="44.62427" lon="0.88236">
        <ele>173</ele>
      </trkpt>
      <trkpt lat="44.62444" lon="0.88242">
        <ele>173</ele>
      </trkpt>
      <trkpt lat="44.62452" lon="0.88237">
        <ele>174</ele>
      </trkpt>
      <trkpt lat="44.62473" lon="0.88203">
        <ele>175.5</ele>
      </trkpt>
      <trkpt lat="44.62487" lon="0.882">
        <ele>177.7</ele>
      </trkpt>
      <trkpt lat="44.62532" lon="0.88226">
        <ele>183</ele>
      </trkpt>
      <trkpt lat="44.6254" lon="0.88228">
        <ele>183.2</ele>
      </trkpt>
      <trkpt lat="44.62619" lon="0.88182">
        <ele>188.7</ele>
      </trkpt>
      <trkpt lat="44.62651" lon="0.88149">
        <ele>192.8</ele>
      </trkpt>
      <trkpt lat="44.62665" lon="0.88119">
        <ele>194.7</ele>
      </trkpt>
      <trkpt lat="44.62683" lon="0.88056">
        <ele>193.5</ele>
      </trkpt>
      <trkpt lat="44.62776" lon="0.87947">
        <ele>189.3</ele>
      </trkpt>
      <trkpt lat="44.62825" lon="0.87881">
        <ele>194.7</ele>
      </trkpt>
      <trkpt lat="44.62832" lon="0.87879">
        <ele>195.5</ele>
      </trkpt>
      <trkpt lat="44.62875" lon="0.87905">
        <ele>199.7</ele>
      </trkpt>
      <trkpt lat="44.62948" lon="0.87855">
        <ele>200.8</ele>
      </trkpt>
      <trkpt lat="44.62977" lon="0.87728">
        <ele>200.3</ele>
      </trkpt>
      <trkpt lat="44.6298" lon="0.87701">
        <ele>201.1</ele>
      </trkpt>
      <trkpt lat="44.62977" lon="0.8768">
        <ele>201.8</ele>
      </trkpt>
      <trkpt lat="44.62986" lon="0.87678">
        <ele>202.7</ele>
      </trkpt>
      <trkpt lat="44.63084" lon="0.87737">
        <ele>208</ele>
      </trkpt>
      <trkpt lat="44.63236" lon="0.87819">
        <ele>204</ele>
      </trkpt>
      <trkpt lat="44.63248" lon="0.87823">
        <ele>204.1</ele>
      </trkpt>
      <trkpt lat="44.63491" lon="0.87839">
        <ele>200.2</ele>
      </trkpt>
      <trkpt lat="44.63495" lon="0.8782">
        <ele>199.6</ele>
      </trkpt>
      <trkpt lat="44.63571" lon="0.87901">
        <ele>205.7</ele>
      </trkpt>
      <trkpt lat="44.63621" lon="0.87949">
        <ele>210.2</ele>
      </trkpt>
      <trkpt lat="44.63631" lon="0.87959">
        <ele>210.7</ele>
      </trkpt>
      <trkpt lat="44.63819" lon="0.8806">
        <ele>200.4</ele>
      </trkpt>
      <trkpt lat="44.64015" lon="0.88127">
        <ele>190.6</ele>
      </trkpt>
      <trkpt lat="44.64066" lon="0.88155">
        <ele>188.7</ele>
      </trkpt>
      <trkpt lat="44.64125" lon="0.88198">
        <ele>189.1</ele>
      </trkpt>
      <trkpt lat="44.64269" lon="0.88268">
        <ele>200</ele>
      </trkpt>
      <trkpt lat="44.64371" lon="0.88342">
        <ele>206.6</ele>
      </trkpt>
      <trkpt lat="44.64431" lon="0.8838">
        <ele>204.8</ele>
      </trkpt>
      <trkpt lat="44.6447" lon="0.88411">
        <ele>205.8</ele>
      </trkpt>
      <trkpt lat="44.64528" lon="0.88481">
        <ele>203</ele>
      </trkpt>
      <trkpt lat="44.64553" lon="0.88501">
        <ele>202.2</ele>
      </trkpt>
      <trkpt lat="44.64605" lon="0.88517">
        <ele>201.1</ele>
      </trkpt>
      <trkpt lat="44.64826" lon="0.88558">
        <ele>184.4</ele>
      </trkpt>
      <trkpt lat="44.64911" lon="0.88542">
        <ele>177.5</ele>
        <extensions>
          <visugpx:TrkExtension xmlns:visugpx="https://www.visugpx.com/editgpx/">
            <visugpx:node>1</visugpx:node>
            </visugpx:TrkExtension>
        </extensions>
      </trkpt>
    </trkseg>
  </trk>
  <trk>
    <name><![CDATA[Gravel 4]]></name>
    <extensions>
      <line xmlns="http://www.topografix.com/GPX/gpx_style/0/2">
        <color>00FFFF</color>
        <opacity>1</opacity>
        <width>4</width>
      </line>
    </extensions>
    <trkseg>
      <trkpt lat="44.68206" lon="0.89149">
        <ele>180.4</ele>
      </trkpt>
      <trkpt lat="44.68186" lon="0.89028">
        <ele>172</ele>
      </trkpt>
      <trkpt lat="44.68153" lon="0.8877">
        <ele>189.9</ele>
      </trkpt>
      <trkpt lat="44.68142" lon="0.88736">
        <ele>193.8</ele>
      </trkpt>
    </trkseg>
  </trk>
  <trk>
    <name><![CDATA[Montflanquin Gravel_5]]></name>
    <extensions>
      <line xmlns="http://www.topografix.com/GPX/gpx_style/0/2">
        <color>FFFF00</color>
        <opacity>1</opacity>
        <width>4</width>
      </line>
    </extensions>
    <trkseg>
      <trkpt lat="44.63483" lon="0.77571">
        <ele>116.4</ele>
        <time>2026-08-15T07:42:02Z</time>
      </trkpt>
      <trkpt lat="44.63479" lon="0.77571">
        <ele>116.4</ele>
        <time>2026-08-15T07:42:03Z</time>
      </trkpt>
      <trkpt lat="44.63476" lon="0.7757">
        <ele>116.4</ele>
        <time>2026-08-15T07:42:04Z</time>
      </trkpt>
      <trkpt lat="44.63472" lon="0.77568">
        <ele>116.6</ele>
        <time>2026-08-15T07:42:05Z</time>
      </trkpt>
      <trkpt lat="44.63468" lon="0.77567">
        <ele>116.6</ele>
        <time>2026-08-15T07:42:06Z</time>
      </trkpt>
      <trkpt lat="44.63465" lon="0.77566">
        <ele>116.6</ele>
        <time>2026-08-15T07:42:07Z</time>
      </trkpt>
      <trkpt lat="44.63461" lon="0.77565">
        <ele>116.6</ele>
        <time>2026-08-15T07:42:08Z</time>
      </trkpt>
      <trkpt lat="44.63457" lon="0.77563">
        <ele>116.6</ele>
        <time>2026-08-15T07:42:09Z</time>
      </trkpt>
      <trkpt lat="44.63452" lon="0.77562">
        <ele>116.6</ele>
        <time>2026-08-15T07:42:10Z</time>
      </trkpt>
      <trkpt lat="44.63447" lon="0.7756">
        <ele>116.4</ele>
        <time>2026-08-15T07:42:11Z</time>
      </trkpt>
      <trkpt lat="44.63442" lon="0.77559">
        <ele>116.4</ele>
        <time>2026-08-15T07:42:12Z</time>
      </trkpt>
      <trkpt lat="44.63437" lon="0.77557">
        <ele>116.2</ele>
        <time>2026-08-15T07:42:13Z</time>
      </trkpt>
      <trkpt lat="44.63432" lon="0.77555">
        <ele>116</ele>
        <time>2026-08-15T07:42:14Z</time>
      </trkpt>
      <trkpt lat="44.63426" lon="0.77552">
        <ele>116</ele>
        <time>2026-08-15T07:42:15Z</time>
      </trkpt>
      <trkpt lat="44.63419" lon="0.7755">
        <ele>115.8</ele>
        <time>2026-08-15T07:42:16Z</time>
      </trkpt>
      <trkpt lat="44.63416" lon="0.77548">
        <ele>115.6</ele>
        <time>2026-08-15T07:42:17Z</time>
      </trkpt>
      <trkpt lat="44.63411" lon="0.77546">
        <ele>115.6</ele>
        <time>2026-08-15T07:42:18Z</time>
      </trkpt>
      <trkpt lat="44.63406" lon="0.77544">
        <ele>115.6</ele>
        <time>2026-08-15T07:42:19Z</time>
      </trkpt>
      <trkpt lat="44.63402" lon="0.77542">
        <ele>115.4</ele>
        <time>2026-08-15T07:42:20Z</time>
      </trkpt>
      <trkpt lat="44.63397" lon="0.7754">
        <ele>115.4</ele>
        <time>2026-08-15T07:42:21Z</time>
      </trkpt>
      <trkpt lat="44.63393" lon="0.77538">
        <ele>115.4</ele>
        <time>2026-08-15T07:42:22Z</time>
      </trkpt>
      <trkpt lat="44.63389" lon="0.77536">
        <ele>115.2</ele>
        <time>2026-08-15T07:42:23Z</time>
      </trkpt>
      <trkpt lat="44.63384" lon="0.77534">
        <ele>115</ele>
        <time>2026-08-15T07:42:24Z</time>
      </trkpt>
      <trkpt lat="44.6338" lon="0.77532">
        <ele>115</ele>
        <time>2026-08-15T07:42:25Z</time>
      </trkpt>
      <trkpt lat="44.63375" lon="0.7753">
        <ele>114.8</ele>
        <time>2026-08-15T07:42:26Z</time>
      </trkpt>
      <trkpt lat="44.6337" lon="0.77528">
        <ele>114.6</ele>
        <time>2026-08-15T07:42:27Z</time>
      </trkpt>
      <trkpt lat="44.63365" lon="0.77525">
        <ele>114.4</ele>
        <time>2026-08-15T07:42:28Z</time>
      </trkpt>
      <trkpt lat="44.63359" lon="0.77523">
        <ele>114.2</ele>
        <time>2026-08-15T07:42:29Z</time>
      </trkpt>
      <trkpt lat="44.63354" lon="0.7752">
        <ele>114</ele>
        <time>2026-08-15T07:42:30Z</time>
      </trkpt>
      <trkpt lat="44.63346" lon="0.77517">
        <ele>113.8</ele>
        <time>2026-08-15T07:42:31Z</time>
      </trkpt>
      <trkpt lat="44.6334" lon="0.77515">
        <ele>113.6</ele>
        <time>2026-08-15T07:42:32Z</time>
      </trkpt>
      <trkpt lat="44.63334" lon="0.77512">
        <ele>113.6</ele>
        <time>2026-08-15T07:42:33Z</time>
      </trkpt>
      <trkpt lat="44.63327" lon="0.77509">
        <ele>113.4</ele>
        <time>2026-08-15T07:42:34Z</time>
      </trkpt>
      <trkpt lat="44.63321" lon="0.77506">
        <ele>112.8</ele>
        <time>2026-08-15T07:42:35Z</time>
      </trkpt>
      <trkpt lat="44.63315" lon="0.77501">
        <ele>112.4</ele>
        <time>2026-08-15T07:42:36Z</time>
      </trkpt>
      <trkpt lat="44.63309" lon="0.77497">
        <ele>112</ele>
        <time>2026-08-15T07:42:37Z</time>
      </trkpt>
      <trkpt lat="44.63303" lon="0.77492">
        <ele>111.6</ele>
        <time>2026-08-15T07:42:38Z</time>
      </trkpt>
      <trkpt lat="44.63297" lon="0.77486">
        <ele>111.4</ele>
        <time>2026-08-15T07:42:39Z</time>
      </trkpt>
      <trkpt lat="44.63291" lon="0.77481">
        <ele>111.2</ele>
        <time>2026-08-15T07:42:40Z</time>
      </trkpt>
      <trkpt lat="44.63285" lon="0.77475">
        <ele>111</ele>
        <time>2026-08-15T07:42:41Z</time>
      </trkpt>
      <trkpt lat="44.63279" lon="0.7747">
        <ele>110.6</ele>
        <time>2026-08-15T07:42:42Z</time>
      </trkpt>
      <trkpt lat="44.63274" lon="0.77465">
        <ele>110.4</ele>
        <time>2026-08-15T07:42:43Z</time>
      </trkpt>
      <trkpt lat="44.63268" lon="0.7746">
        <ele>110</ele>
        <time>2026-08-15T07:42:44Z</time>
      </trkpt>
      <trkpt lat="44.63263" lon="0.77455">
        <ele>109.6</ele>
        <time>2026-08-15T07:42:45Z</time>
      </trkpt>
      <trkpt lat="44.63257" lon="0.77451">
        <ele>109.4</ele>
        <time>2026-08-15T07:42:46Z</time>
      </trkpt>
      <trkpt lat="44.63252" lon="0.77446">
        <ele>109.4</ele>
        <time>2026-08-15T07:42:47Z</time>
      </trkpt>
      <trkpt lat="44.63246" lon="0.77442">
        <ele>109.4</ele>
        <time>2026-08-15T07:42:48Z</time>
      </trkpt>
      <trkpt lat="44.63241" lon="0.77437">
        <ele>109.4</ele>
        <time>2026-08-15T07:42:49Z</time>
      </trkpt>
      <trkpt lat="44.63236" lon="0.77433">
        <ele>109</ele>
        <time>2026-08-15T07:42:50Z</time>
      </trkpt>
      <trkpt lat="44.6323" lon="0.7743">
        <ele>109</ele>
        <time>2026-08-15T07:42:51Z</time>
      </trkpt>
      <trkpt lat="44.63225" lon="0.77426">
        <ele>108.8</ele>
        <time>2026-08-15T07:42:52Z</time>
      </trkpt>
      <trkpt lat="44.6322" lon="0.77422">
        <ele>108.8</ele>
        <time>2026-08-15T07:42:53Z</time>
      </trkpt>
      <trkpt lat="44.63215" lon="0.77418">
        <ele>108.6</ele>
        <time>2026-08-15T07:42:54Z</time>
      </trkpt>
      <trkpt lat="44.6321" lon="0.77414">
        <ele>108.6</ele>
        <time>2026-08-15T07:42:55Z</time>
      </trkpt>
      <trkpt lat="44.63206" lon="0.7741">
        <ele>108.4</ele>
        <time>2026-08-15T07:42:56Z</time>
      </trkpt>
      <trkpt lat="44.63201" lon="0.77406">
        <ele>108.4</ele>
        <time>2026-08-15T07:42:57Z</time>
      </trkpt>
      <trkpt lat="44.63197" lon="0.77402">
        <ele>108.4</ele>
        <time>2026-08-15T07:42:58Z</time>
      </trkpt>
      <trkpt lat="44.63192" lon="0.77398">
        <ele>108.2</ele>
        <time>2026-08-15T07:42:59Z</time>
      </trkpt>
      <trkpt lat="44.63187" lon="0.77395">
        <ele>108.2</ele>
        <time>2026-08-15T07:43:00Z</time>
      </trkpt>
      <trkpt lat="44.63183" lon="0.77391">
        <ele>108</ele>
        <time>2026-08-15T07:43:01Z</time>
      </trkpt>
      <trkpt lat="44.63178" lon="0.77387">
        <ele>108</ele>
        <time>2026-08-15T07:43:02Z</time>
      </trkpt>
      <trkpt lat="44.63173" lon="0.77383">
        <ele>108</ele>
        <time>2026-08-15T07:43:03Z</time>
      </trkpt>
      <trkpt lat="44.63169" lon="0.7738">
        <ele>108</ele>
        <time>2026-08-15T07:43:04Z</time>
      </trkpt>
      <trkpt lat="44.63165" lon="0.77377">
        <ele>108</ele>
        <time>2026-08-15T07:43:05Z</time>
      </trkpt>
      <trkpt lat="44.63161" lon="0.77373">
        <ele>107.8</ele>
        <time>2026-08-15T07:43:06Z</time>
      </trkpt>
      <trkpt lat="44.63156" lon="0.7737">
        <ele>107.6</ele>
        <time>2026-08-15T07:43:07Z</time>
      </trkpt>
      <trkpt lat="44.63152" lon="0.77366">
        <ele>107.6</ele>
        <time>2026-08-15T07:43:08Z</time>
      </trkpt>
      <trkpt lat="44.63145" lon="0.7736">
        <ele>107.6</ele>
        <time>2026-08-15T07:43:09Z</time>
      </trkpt>
      <trkpt lat="44.6314" lon="0.77356">
        <ele>107.4</ele>
        <time>2026-08-15T07:43:10Z</time>
      </trkpt>
      <trkpt lat="44.63135" lon="0.77352">
        <ele>107.4</ele>
        <time>2026-08-15T07:43:11Z</time>
      </trkpt>
      <trkpt lat="44.63131" lon="0.77349">
        <ele>107.2</ele>
        <time>2026-08-15T07:43:12Z</time>
      </trkpt>
      <trkpt lat="44.63126" lon="0.77345">
        <ele>107.2</ele>
        <time>2026-08-15T07:43:13Z</time>
      </trkpt>
      <trkpt lat="44.63121" lon="0.77342">
        <ele>107</ele>
        <time>2026-08-15T07:43:14Z</time>
      </trkpt>
      <trkpt lat="44.63118" lon="0.77341">
        <ele>107</ele>
        <time>2026-08-15T07:43:15Z</time>
      </trkpt>
      <trkpt lat="44.63113" lon="0.7734">
        <ele>107</ele>
        <time>2026-08-15T07:43:16Z</time>
      </trkpt>
      <trkpt lat="44.63109" lon="0.77339">
        <ele>107</ele>
        <time>2026-08-15T07:43:17Z</time>
      </trkpt>
      <trkpt lat="44.63104" lon="0.77339">
        <ele>107</ele>
        <time>2026-08-15T07:43:18Z</time>
      </trkpt>
      <trkpt lat="44.63098" lon="0.77339">
        <ele>107</ele>
        <time>2026-08-15T07:43:19Z</time>
      </trkpt>
      <trkpt lat="44.63093" lon="0.77339">
        <ele>107.2</ele>
        <time>2026-08-15T07:43:20Z</time>
      </trkpt>
      <trkpt lat="44.63088" lon="0.77339">
        <ele>107.2</ele>
        <time>2026-08-15T07:43:21Z</time>
      </trkpt>
      <trkpt lat="44.63083" lon="0.77339">
        <ele>107.4</ele>
        <time>2026-08-15T07:43:22Z</time>
      </trkpt>
      <trkpt lat="44.63078" lon="0.7734">
        <ele>107.4</ele>
        <time>2026-08-15T07:43:23Z</time>
      </trkpt>
      <trkpt lat="44.63073" lon="0.7734">
        <ele>107.4</ele>
        <time>2026-08-15T07:43:24Z</time>
      </trkpt>
      <trkpt lat="44.63068" lon="0.7734">
        <ele>107.6</ele>
        <time>2026-08-15T07:43:25Z</time>
      </trkpt>
      <trkpt lat="44.63064" lon="0.7734">
        <ele>107.6</ele>
        <time>2026-08-15T07:43:26Z</time>
      </trkpt>
      <trkpt lat="44.63059" lon="0.77341">
        <ele>107.6</ele>
        <time>2026-08-15T07:43:27Z</time>
      </trkpt>
      <trkpt lat="44.63054" lon="0.77341">
        <ele>107.6</ele>
        <time>2026-08-15T07:43:28Z</time>
      </trkpt>
      <trkpt lat="44.63049" lon="0.77342">
        <ele>107.6</ele>
        <time>2026-08-15T07:43:29Z</time>
      </trkpt>
      <trkpt lat="44.63044" lon="0.77343">
        <ele>107.8</ele>
        <time>2026-08-15T07:43:30Z</time>
      </trkpt>
      <trkpt lat="44.6304" lon="0.77344">
        <ele>108</ele>
        <time>2026-08-15T07:43:31Z</time>
      </trkpt>
      <trkpt lat="44.63035" lon="0.77345">
        <ele>108</ele>
        <time>2026-08-15T07:43:32Z</time>
      </trkpt>
      <trkpt lat="44.63031" lon="0.77346">
        <ele>108</ele>
        <time>2026-08-15T07:43:33Z</time>
      </trkpt>
      <trkpt lat="44.63026" lon="0.77346">
        <ele>108.4</ele>
        <time>2026-08-15T07:43:34Z</time>
      </trkpt>
      <trkpt lat="44.63022" lon="0.77346">
        <ele>108.4</ele>
        <time>2026-08-15T07:43:35Z</time>
      </trkpt>
      <trkpt lat="44.63017" lon="0.77346">
        <ele>108.6</ele>
        <time>2026-08-15T07:43:36Z</time>
      </trkpt>
      <trkpt lat="44.63012" lon="0.77345">
        <ele>108.6</ele>
        <time>2026-08-15T07:43:37Z</time>
      </trkpt>
      <trkpt lat="44.63008" lon="0.77344">
        <ele>108.8</ele>
        <time>2026-08-15T07:43:38Z</time>
      </trkpt>
      <trkpt lat="44.63003" lon="0.77344">
        <ele>109</ele>
        <time>2026-08-15T07:43:39Z</time>
      </trkpt>
      <trkpt lat="44.62999" lon="0.77343">
        <ele>109</ele>
        <time>2026-08-15T07:43:40Z</time>
      </trkpt>
      <trkpt lat="44.62995" lon="0.77342">
        <ele>109.4</ele>
        <time>2026-08-15T07:43:41Z</time>
      </trkpt>
      <trkpt lat="44.62991" lon="0.77341">
        <ele>109.4</ele>
        <time>2026-08-15T07:43:42Z</time>
      </trkpt>
      <trkpt lat="44.62986" lon="0.7734">
        <ele>109.6</ele>
        <time>2026-08-15T07:43:43Z</time>
      </trkpt>
      <trkpt lat="44.62982" lon="0.77339">
        <ele>109.6</ele>
        <time>2026-08-15T07:43:44Z</time>
      </trkpt>
      <trkpt lat="44.62978" lon="0.77338">
        <ele>109.8</ele>
        <time>2026-08-15T07:43:45Z</time>
      </trkpt>
      <trkpt lat="44.62974" lon="0.77337">
        <ele>110</ele>
        <time>2026-08-15T07:43:46Z</time>
      </trkpt>
      <trkpt lat="44.6297" lon="0.77336">
        <ele>110.4</ele>
        <time>2026-08-15T07:43:47Z</time>
      </trkpt>
      <trkpt lat="44.62966" lon="0.77336">
        <ele>110.6</ele>
        <time>2026-08-15T07:43:48Z</time>
      </trkpt>
      <trkpt lat="44.62962" lon="0.77335">
        <ele>111</ele>
        <time>2026-08-15T07:43:49Z</time>
      </trkpt>
      <trkpt lat="44.62959" lon="0.77334">
        <ele>111</ele>
        <time>2026-08-15T07:43:50Z</time>
      </trkpt>
      <trkpt lat="44.62955" lon="0.77334">
        <ele>111.4</ele>
        <time>2026-08-15T07:43:51Z</time>
      </trkpt>
      <trkpt lat="44.62951" lon="0.77334">
        <ele>111.4</ele>
        <time>2026-08-15T07:43:52Z</time>
      </trkpt>
      <trkpt lat="44.62947" lon="0.77334">
        <ele>111.6</ele>
        <time>2026-08-15T07:43:53Z</time>
      </trkpt>
      <trkpt lat="44.62943" lon="0.77334">
        <ele>112</ele>
        <time>2026-08-15T07:43:54Z</time>
      </trkpt>
      <trkpt lat="44.62939" lon="0.77335">
        <ele>112.2</ele>
        <time>2026-08-15T07:43:55Z</time>
      </trkpt>
      <trkpt lat="44.62935" lon="0.77336">
        <ele>112.4</ele>
        <time>2026-08-15T07:43:56Z</time>
      </trkpt>
      <trkpt lat="44.62931" lon="0.77337">
        <ele>112.6</ele>
        <time>2026-08-15T07:43:57Z</time>
      </trkpt>
      <trkpt lat="44.62927" lon="0.77338">
        <ele>112.8</ele>
        <time>2026-08-15T07:43:58Z</time>
      </trkpt>
      <trkpt lat="44.62923" lon="0.7734">
        <ele>113</ele>
        <time>2026-08-15T07:43:59Z</time>
      </trkpt>
      <trkpt lat="44.62919" lon="0.77341">
        <ele>113</ele>
        <time>2026-08-15T07:44:00Z</time>
      </trkpt>
      <trkpt lat="44.62915" lon="0.77342">
        <ele>113.4</ele>
        <time>2026-08-15T07:44:01Z</time>
      </trkpt>
      <trkpt lat="44.6291" lon="0.77343">
        <ele>113.4</ele>
        <time>2026-08-15T07:44:02Z</time>
      </trkpt>
      <trkpt lat="44.62906" lon="0.77345">
        <ele>113.4</ele>
        <time>2026-08-15T07:44:03Z</time>
      </trkpt>
      <trkpt lat="44.62901" lon="0.77345">
        <ele>113.6</ele>
        <time>2026-08-15T07:44:04Z</time>
      </trkpt>
      <trkpt lat="44.62897" lon="0.77346">
        <ele>113.4</ele>
        <time>2026-08-15T07:44:05Z</time>
      </trkpt>
    </trkseg>
  </trk>
  <trk>
    <name><![CDATA[Superbe sous bois]]></name>
    <extensions>
      <line xmlns="http://www.topografix.com/GPX/gpx_style/0/2">
        <color>FF00FF</color>
        <opacity>1</opacity>
        <width>4</width>
      </line>
    </extensions>
    <trkseg>
      <trkpt lat="44.61485" lon="0.77202">
        <ele>158.2</ele>
        <time>2026-08-15T07:51:06Z</time>
      </trkpt>
      <trkpt lat="44.61482" lon="0.77202">
        <ele>158.6</ele>
        <time>2026-08-15T07:51:07Z</time>
      </trkpt>
      <trkpt lat="44.61479" lon="0.77202">
        <ele>158.8</ele>
        <time>2026-08-15T07:51:08Z</time>
      </trkpt>
      <trkpt lat="44.61476" lon="0.77202">
        <ele>159.4</ele>
        <time>2026-08-15T07:51:09Z</time>
      </trkpt>
      <trkpt lat="44.61472" lon="0.77203">
        <ele>159.6</ele>
        <time>2026-08-15T07:51:10Z</time>
      </trkpt>
      <trkpt lat="44.61469" lon="0.77203">
        <ele>159.8</ele>
        <time>2026-08-15T07:51:11Z</time>
      </trkpt>
      <trkpt lat="44.61466" lon="0.77204">
        <ele>160.2</ele>
        <time>2026-08-15T07:51:12Z</time>
      </trkpt>
      <trkpt lat="44.61463" lon="0.77205">
        <ele>160.6</ele>
        <time>2026-08-15T07:51:13Z</time>
      </trkpt>
      <trkpt lat="44.6146" lon="0.77205">
        <ele>160.8</ele>
        <time>2026-08-15T07:51:14Z</time>
      </trkpt>
      <trkpt lat="44.61457" lon="0.77205">
        <ele>161.2</ele>
        <time>2026-08-15T07:51:15Z</time>
      </trkpt>
      <trkpt lat="44.61454" lon="0.77205">
        <ele>161.4</ele>
        <time>2026-08-15T07:51:16Z</time>
      </trkpt>
      <trkpt lat="44.61451" lon="0.77204">
        <ele>161.6</ele>
        <time>2026-08-15T07:51:17Z</time>
      </trkpt>
      <trkpt lat="44.61448" lon="0.77204">
        <ele>161.6</ele>
        <time>2026-08-15T07:51:18Z</time>
      </trkpt>
      <trkpt lat="44.61445" lon="0.77203">
        <ele>161.8</ele>
        <time>2026-08-15T07:51:19Z</time>
      </trkpt>
      <trkpt lat="44.61442" lon="0.77203">
        <ele>162</ele>
        <time>2026-08-15T07:51:20Z</time>
      </trkpt>
      <trkpt lat="44.61439" lon="0.77203">
        <ele>162.2</ele>
        <time>2026-08-15T07:51:21Z</time>
      </trkpt>
      <trkpt lat="44.61436" lon="0.77203">
        <ele>162.4</ele>
        <time>2026-08-15T07:51:22Z</time>
      </trkpt>
      <trkpt lat="44.61434" lon="0.77203">
        <ele>162.6</ele>
        <time>2026-08-15T07:51:23Z</time>
      </trkpt>
      <trkpt lat="44.61431" lon="0.77203">
        <ele>162.8</ele>
        <time>2026-08-15T07:51:24Z</time>
      </trkpt>
      <trkpt lat="44.6143" lon="0.77203">
        <ele>163</ele>
        <time>2026-08-15T07:51:25Z</time>
      </trkpt>
      <trkpt lat="44.61428" lon="0.77203">
        <ele>163.2</ele>
        <time>2026-08-15T07:51:26Z</time>
      </trkpt>
      <trkpt lat="44.61426" lon="0.77202">
        <ele>163.6</ele>
        <time>2026-08-15T07:51:27Z</time>
      </trkpt>
      <trkpt lat="44.61424" lon="0.77202">
        <ele>163.8</ele>
        <time>2026-08-15T07:51:28Z</time>
      </trkpt>
      <trkpt lat="44.61421" lon="0.77202">
        <ele>164</ele>
        <time>2026-08-15T07:51:29Z</time>
      </trkpt>
      <trkpt lat="44.61419" lon="0.77201">
        <ele>164.2</ele>
        <time>2026-08-15T07:51:30Z</time>
      </trkpt>
      <trkpt lat="44.61416" lon="0.77201">
        <ele>164.4</ele>
        <time>2026-08-15T07:51:31Z</time>
      </trkpt>
      <trkpt lat="44.61414" lon="0.77201">
        <ele>164.6</ele>
        <time>2026-08-15T07:51:32Z</time>
      </trkpt>
      <trkpt lat="44.61411" lon="0.77201">
        <ele>164.6</ele>
        <time>2026-08-15T07:51:33Z</time>
      </trkpt>
      <trkpt lat="44.61409" lon="0.772">
        <ele>164.8</ele>
        <time>2026-08-15T07:51:34Z</time>
      </trkpt>
      <trkpt lat="44.61406" lon="0.772">
        <ele>165</ele>
        <time>2026-08-15T07:51:35Z</time>
      </trkpt>
      <trkpt lat="44.61404" lon="0.772">
        <ele>165.2</ele>
        <time>2026-08-15T07:51:36Z</time>
      </trkpt>
      <trkpt lat="44.61401" lon="0.77199">
        <ele>165.4</ele>
        <time>2026-08-15T07:51:37Z</time>
      </trkpt>
      <trkpt lat="44.61399" lon="0.77199">
        <ele>165.6</ele>
        <time>2026-08-15T07:51:38Z</time>
      </trkpt>
      <trkpt lat="44.61396" lon="0.77199">
        <ele>165.6</ele>
        <time>2026-08-15T07:51:39Z</time>
      </trkpt>
      <trkpt lat="44.61393" lon="0.77199">
        <ele>165.8</ele>
        <time>2026-08-15T07:51:40Z</time>
      </trkpt>
      <trkpt lat="44.61391" lon="0.77198">
        <ele>166.2</ele>
        <time>2026-08-15T07:51:41Z</time>
      </trkpt>
      <trkpt lat="44.61388" lon="0.77198">
        <ele>166.2</ele>
        <time>2026-08-15T07:51:42Z</time>
      </trkpt>
      <trkpt lat="44.61386" lon="0.77198">
        <ele>166.4</ele>
        <time>2026-08-15T07:51:43Z</time>
      </trkpt>
      <trkpt lat="44.61384" lon="0.77197">
        <ele>166.6</ele>
        <time>2026-08-15T07:51:44Z</time>
      </trkpt>
      <trkpt lat="44.61381" lon="0.77197">
        <ele>166.6</ele>
        <time>2026-08-15T07:51:45Z</time>
      </trkpt>
      <trkpt lat="44.61379" lon="0.77197">
        <ele>166.8</ele>
        <time>2026-08-15T07:51:46Z</time>
      </trkpt>
      <trkpt lat="44.61376" lon="0.77197">
        <ele>167.2</ele>
        <time>2026-08-15T07:51:47Z</time>
      </trkpt>
      <trkpt lat="44.61374" lon="0.77197">
        <ele>167.4</ele>
        <time>2026-08-15T07:51:48Z</time>
      </trkpt>
      <trkpt lat="44.61371" lon="0.77196">
        <ele>167.6</ele>
        <time>2026-08-15T07:51:49Z</time>
      </trkpt>
      <trkpt lat="44.61369" lon="0.77196">
        <ele>167.6</ele>
        <time>2026-08-15T07:51:50Z</time>
      </trkpt>
      <trkpt lat="44.61366" lon="0.77196">
        <ele>167.8</ele>
        <time>2026-08-15T07:51:51Z</time>
      </trkpt>
      <trkpt lat="44.61364" lon="0.77196">
        <ele>168.2</ele>
        <time>2026-08-15T07:51:52Z</time>
      </trkpt>
      <trkpt lat="44.61361" lon="0.77196">
        <ele>168.4</ele>
        <time>2026-08-15T07:51:53Z</time>
      </trkpt>
      <trkpt lat="44.61359" lon="0.77195">
        <ele>168.6</ele>
        <time>2026-08-15T07:51:54Z</time>
      </trkpt>
      <trkpt lat="44.61356" lon="0.77195">
        <ele>168.6</ele>
        <time>2026-08-15T07:51:55Z</time>
      </trkpt>
      <trkpt lat="44.61354" lon="0.77195">
        <ele>168.8</ele>
        <time>2026-08-15T07:51:56Z</time>
      </trkpt>
      <trkpt lat="44.61351" lon="0.77194">
        <ele>169.2</ele>
        <time>2026-08-15T07:51:57Z</time>
      </trkpt>
      <trkpt lat="44.61349" lon="0.77194">
        <ele>169.4</ele>
        <time>2026-08-15T07:51:58Z</time>
      </trkpt>
      <trkpt lat="44.61346" lon="0.77193">
        <ele>169.6</ele>
        <time>2026-08-15T07:51:59Z</time>
      </trkpt>
      <trkpt lat="44.61343" lon="0.77193">
        <ele>169.8</ele>
        <time>2026-08-15T07:52:00Z</time>
      </trkpt>
      <trkpt lat="44.61341" lon="0.77192">
        <ele>169.8</ele>
        <time>2026-08-15T07:52:01Z</time>
      </trkpt>
      <trkpt lat="44.61338" lon="0.77192">
        <ele>170.2</ele>
        <time>2026-08-15T07:52:02Z</time>
      </trkpt>
      <trkpt lat="44.61336" lon="0.77191">
        <ele>170.4</ele>
        <time>2026-08-15T07:52:03Z</time>
      </trkpt>
      <trkpt lat="44.61333" lon="0.7719">
        <ele>170.6</ele>
        <time>2026-08-15T07:52:04Z</time>
      </trkpt>
      <trkpt lat="44.6133" lon="0.77189">
        <ele>170.8</ele>
        <time>2026-08-15T07:52:05Z</time>
      </trkpt>
      <trkpt lat="44.61326" lon="0.77188">
        <ele>171</ele>
        <time>2026-08-15T07:52:06Z</time>
      </trkpt>
      <trkpt lat="44.61324" lon="0.77188">
        <ele>171.2</ele>
        <time>2026-08-15T07:52:07Z</time>
      </trkpt>
      <trkpt lat="44.61322" lon="0.77187">
        <ele>171.2</ele>
        <time>2026-08-15T07:52:08Z</time>
      </trkpt>
      <trkpt lat="44.6132" lon="0.77186">
        <ele>171.4</ele>
        <time>2026-08-15T07:52:09Z</time>
      </trkpt>
      <trkpt lat="44.61317" lon="0.77185">
        <ele>171.6</ele>
        <time>2026-08-15T07:52:10Z</time>
      </trkpt>
      <trkpt lat="44.61315" lon="0.77184">
        <ele>171.6</ele>
        <time>2026-08-15T07:52:11Z</time>
      </trkpt>
      <trkpt lat="44.61312" lon="0.77183">
        <ele>171.8</ele>
        <time>2026-08-15T07:52:12Z</time>
      </trkpt>
      <trkpt lat="44.6131" lon="0.77182">
        <ele>172.2</ele>
        <time>2026-08-15T07:52:13Z</time>
      </trkpt>
      <trkpt lat="44.61307" lon="0.77181">
        <ele>172.4</ele>
        <time>2026-08-15T07:52:14Z</time>
      </trkpt>
      <trkpt lat="44.61305" lon="0.7718">
        <ele>172.6</ele>
        <time>2026-08-15T07:52:15Z</time>
      </trkpt>
      <trkpt lat="44.61302" lon="0.77179">
        <ele>172.8</ele>
        <time>2026-08-15T07:52:16Z</time>
      </trkpt>
      <trkpt lat="44.613" lon="0.77177">
        <ele>173.2</ele>
        <time>2026-08-15T07:52:17Z</time>
      </trkpt>
      <trkpt lat="44.61298" lon="0.77176">
        <ele>173.4</ele>
        <time>2026-08-15T07:52:18Z</time>
      </trkpt>
      <trkpt lat="44.61295" lon="0.77175">
        <ele>173.4</ele>
        <time>2026-08-15T07:52:19Z</time>
      </trkpt>
      <trkpt lat="44.61293" lon="0.77174">
        <ele>173.6</ele>
        <time>2026-08-15T07:52:20Z</time>
      </trkpt>
      <trkpt lat="44.61291" lon="0.77172">
        <ele>173.6</ele>
        <time>2026-08-15T07:52:21Z</time>
      </trkpt>
      <trkpt lat="44.61288" lon="0.77171">
        <ele>173.8</ele>
        <time>2026-08-15T07:52:22Z</time>
      </trkpt>
      <trkpt lat="44.61284" lon="0.77168">
        <ele>174</ele>
        <time>2026-08-15T07:52:23Z</time>
      </trkpt>
      <trkpt lat="44.61281" lon="0.77166">
        <ele>174.2</ele>
        <time>2026-08-15T07:52:24Z</time>
      </trkpt>
      <trkpt lat="44.61278" lon="0.77164">
        <ele>174.4</ele>
        <time>2026-08-15T07:52:25Z</time>
      </trkpt>
      <trkpt lat="44.61275" lon="0.77162">
        <ele>174.6</ele>
        <time>2026-08-15T07:52:26Z</time>
      </trkpt>
      <trkpt lat="44.61273" lon="0.7716">
        <ele>174.8</ele>
        <time>2026-08-15T07:52:27Z</time>
      </trkpt>
      <trkpt lat="44.6127" lon="0.77159">
        <ele>175</ele>
        <time>2026-08-15T07:52:28Z</time>
      </trkpt>
      <trkpt lat="44.61268" lon="0.77157">
        <ele>175.2</ele>
        <time>2026-08-15T07:52:29Z</time>
      </trkpt>
      <trkpt lat="44.61266" lon="0.77155">
        <ele>175.4</ele>
        <time>2026-08-15T07:52:30Z</time>
      </trkpt>
      <trkpt lat="44.61263" lon="0.77153">
        <ele>175.6</ele>
        <time>2026-08-15T07:52:31Z</time>
      </trkpt>
      <trkpt lat="44.61261" lon="0.77151">
        <ele>175.6</ele>
        <time>2026-08-15T07:52:32Z</time>
      </trkpt>
      <trkpt lat="44.61258" lon="0.77149">
        <ele>175.8</ele>
        <time>2026-08-15T07:52:33Z</time>
      </trkpt>
      <trkpt lat="44.61256" lon="0.77146">
        <ele>175.8</ele>
        <time>2026-08-15T07:52:34Z</time>
      </trkpt>
      <trkpt lat="44.61253" lon="0.77144">
        <ele>176.2</ele>
        <time>2026-08-15T07:52:35Z</time>
      </trkpt>
      <trkpt lat="44.6125" lon="0.77141">
        <ele>176.4</ele>
        <time>2026-08-15T07:52:36Z</time>
      </trkpt>
      <trkpt lat="44.61248" lon="0.77138">
        <ele>176.4</ele>
        <time>2026-08-15T07:52:37Z</time>
      </trkpt>
      <trkpt lat="44.61245" lon="0.77136">
        <ele>176.6</ele>
        <time>2026-08-15T07:52:38Z</time>
      </trkpt>
      <trkpt lat="44.61243" lon="0.77133">
        <ele>176.6</ele>
        <time>2026-08-15T07:52:39Z</time>
      </trkpt>
      <trkpt lat="44.6124" lon="0.77131">
        <ele>176.6</ele>
        <time>2026-08-15T07:52:40Z</time>
      </trkpt>
      <trkpt lat="44.61237" lon="0.77128">
        <ele>176.8</ele>
        <time>2026-08-15T07:52:41Z</time>
      </trkpt>
      <trkpt lat="44.61235" lon="0.77126">
        <ele>176.8</ele>
        <time>2026-08-15T07:52:42Z</time>
      </trkpt>
      <trkpt lat="44.61232" lon="0.77124">
        <ele>176.8</ele>
        <time>2026-08-15T07:52:43Z</time>
      </trkpt>
      <trkpt lat="44.61229" lon="0.77121">
        <ele>176.8</ele>
        <time>2026-08-15T07:52:44Z</time>
      </trkpt>
      <trkpt lat="44.61227" lon="0.77119">
        <ele>176.8</ele>
        <time>2026-08-15T07:52:45Z</time>
      </trkpt>
      <trkpt lat="44.61224" lon="0.77116">
        <ele>177</ele>
        <time>2026-08-15T07:52:46Z</time>
      </trkpt>
      <trkpt lat="44.61221" lon="0.77113">
        <ele>177</ele>
        <time>2026-08-15T07:52:47Z</time>
      </trkpt>
      <trkpt lat="44.61219" lon="0.77111">
        <ele>177</ele>
        <time>2026-08-15T07:52:48Z</time>
      </trkpt>
      <trkpt lat="44.61216" lon="0.77108">
        <ele>177.2</ele>
        <time>2026-08-15T07:52:49Z</time>
      </trkpt>
      <trkpt lat="44.61214" lon="0.77105">
        <ele>177.2</ele>
        <time>2026-08-15T07:52:50Z</time>
      </trkpt>
      <trkpt lat="44.61211" lon="0.77102">
        <ele>177.2</ele>
        <time>2026-08-15T07:52:51Z</time>
      </trkpt>
      <trkpt lat="44.61208" lon="0.77099">
        <ele>177.4</ele>
        <time>2026-08-15T07:52:52Z</time>
      </trkpt>
      <trkpt lat="44.61205" lon="0.77096">
        <ele>177.2</ele>
        <time>2026-08-15T07:52:53Z</time>
      </trkpt>
      <trkpt lat="44.61202" lon="0.77093">
        <ele>177.2</ele>
        <time>2026-08-15T07:52:54Z</time>
      </trkpt>
      <trkpt lat="44.61199" lon="0.77089">
        <ele>177</ele>
        <time>2026-08-15T07:52:55Z</time>
      </trkpt>
      <trkpt lat="44.61195" lon="0.77086">
        <ele>176.8</ele>
        <time>2026-08-15T07:52:56Z</time>
      </trkpt>
      <trkpt lat="44.61192" lon="0.77083">
        <ele>176.8</ele>
        <time>2026-08-15T07:52:57Z</time>
      </trkpt>
      <trkpt lat="44.61188" lon="0.77079">
        <ele>176.6</ele>
        <time>2026-08-15T07:52:58Z</time>
      </trkpt>
      <trkpt lat="44.61185" lon="0.77076">
        <ele>176.6</ele>
        <time>2026-08-15T07:52:59Z</time>
      </trkpt>
      <trkpt lat="44.61182" lon="0.77072">
        <ele>176.4</ele>
        <time>2026-08-15T07:53:00Z</time>
      </trkpt>
      <trkpt lat="44.61178" lon="0.77069">
        <ele>176.2</ele>
        <time>2026-08-15T07:53:01Z</time>
      </trkpt>
      <trkpt lat="44.61174" lon="0.77065">
        <ele>175.8</ele>
        <time>2026-08-15T07:53:02Z</time>
      </trkpt>
      <trkpt lat="44.61171" lon="0.77062">
        <ele>175.8</ele>
        <time>2026-08-15T07:53:03Z</time>
      </trkpt>
      <trkpt lat="44.61167" lon="0.77059">
        <ele>175.6</ele>
        <time>2026-08-15T07:53:04Z</time>
      </trkpt>
      <trkpt lat="44.61162" lon="0.77055">
        <ele>175.6</ele>
        <time>2026-08-15T07:53:05Z</time>
      </trkpt>
      <trkpt lat="44.61158" lon="0.77052">
        <ele>175.4</ele>
        <time>2026-08-15T07:53:06Z</time>
      </trkpt>
      <trkpt lat="44.61154" lon="0.77049">
        <ele>175</ele>
        <time>2026-08-15T07:53:07Z</time>
      </trkpt>
      <trkpt lat="44.61149" lon="0.77046">
        <ele>174.8</ele>
        <time>2026-08-15T07:53:08Z</time>
      </trkpt>
      <trkpt lat="44.61144" lon="0.77043">
        <ele>174.6</ele>
        <time>2026-08-15T07:53:09Z</time>
      </trkpt>
      <trkpt lat="44.61139" lon="0.7704">
        <ele>174.2</ele>
        <time>2026-08-15T07:53:10Z</time>
      </trkpt>
      <trkpt lat="44.61132" lon="0.77036">
        <ele>174</ele>
        <time>2026-08-15T07:53:11Z</time>
      </trkpt>
      <trkpt lat="44.61127" lon="0.77033">
        <ele>173.8</ele>
        <time>2026-08-15T07:53:12Z</time>
      </trkpt>
      <trkpt lat="44.61122" lon="0.7703">
        <ele>173.8</ele>
        <time>2026-08-15T07:53:13Z</time>
      </trkpt>
      <trkpt lat="44.61117" lon="0.77027">
        <ele>173.6</ele>
        <time>2026-08-15T07:53:14Z</time>
      </trkpt>
      <trkpt lat="44.61114" lon="0.77026">
        <ele>173.4</ele>
        <time>2026-08-15T07:53:15Z</time>
      </trkpt>
      <trkpt lat="44.6111" lon="0.77024">
        <ele>173</ele>
        <time>2026-08-15T07:53:16Z</time>
      </trkpt>
      <trkpt lat="44.61105" lon="0.77023">
        <ele>172.8</ele>
        <time>2026-08-15T07:53:17Z</time>
      </trkpt>
      <trkpt lat="44.61101" lon="0.77023">
        <ele>172.6</ele>
        <time>2026-08-15T07:53:18Z</time>
      </trkpt>
      <trkpt lat="44.61097" lon="0.77025">
        <ele>172.4</ele>
        <time>2026-08-15T07:53:19Z</time>
      </trkpt>
      <trkpt lat="44.61094" lon="0.77027">
        <ele>172.2</ele>
        <time>2026-08-15T07:53:20Z</time>
      </trkpt>
      <trkpt lat="44.61091" lon="0.7703">
        <ele>172.2</ele>
        <time>2026-08-15T07:53:21Z</time>
      </trkpt>
      <trkpt lat="44.61088" lon="0.77034">
        <ele>172</ele>
        <time>2026-08-15T07:53:22Z</time>
      </trkpt>
      <trkpt lat="44.61085" lon="0.77037">
        <ele>171.8</ele>
        <time>2026-08-15T07:53:23Z</time>
      </trkpt>
      <trkpt lat="44.61083" lon="0.77041">
        <ele>171.8</ele>
        <time>2026-08-15T07:53:24Z</time>
      </trkpt>
      <trkpt lat="44.6108" lon="0.77045">
        <ele>171.8</ele>
        <time>2026-08-15T07:53:25Z</time>
      </trkpt>
      <trkpt lat="44.61077" lon="0.77049">
        <ele>171.8</ele>
        <time>2026-08-15T07:53:26Z</time>
      </trkpt>
      <trkpt lat="44.61074" lon="0.77054">
        <ele>171.8</ele>
        <time>2026-08-15T07:53:27Z</time>
      </trkpt>
      <trkpt lat="44.61071" lon="0.77058">
        <ele>171.8</ele>
        <time>2026-08-15T07:53:28Z</time>
      </trkpt>
      <trkpt lat="44.61069" lon="0.77063">
        <ele>171.8</ele>
        <time>2026-08-15T07:53:29Z</time>
      </trkpt>
      <trkpt lat="44.61066" lon="0.77068">
        <ele>171.8</ele>
        <time>2026-08-15T07:53:30Z</time>
      </trkpt>
      <trkpt lat="44.61064" lon="0.77073">
        <ele>171.8</ele>
        <time>2026-08-15T07:53:31Z</time>
      </trkpt>
      <trkpt lat="44.61061" lon="0.77078">
        <ele>171.8</ele>
        <time>2026-08-15T07:53:32Z</time>
      </trkpt>
      <trkpt lat="44.61059" lon="0.77083">
        <ele>171.8</ele>
        <time>2026-08-15T07:53:33Z</time>
      </trkpt>
      <trkpt lat="44.61056" lon="0.77088">
        <ele>171.8</ele>
        <time>2026-08-15T07:53:34Z</time>
      </trkpt>
      <trkpt lat="44.61054" lon="0.77093">
        <ele>171.8</ele>
        <time>2026-08-15T07:53:35Z</time>
      </trkpt>
      <trkpt lat="44.61052" lon="0.77098">
        <ele>171.8</ele>
        <time>2026-08-15T07:53:36Z</time>
      </trkpt>
      <trkpt lat="44.61049" lon="0.77103">
        <ele>172</ele>
        <time>2026-08-15T07:53:37Z</time>
      </trkpt>
      <trkpt lat="44.61047" lon="0.77108">
        <ele>172.2</ele>
        <time>2026-08-15T07:53:38Z</time>
      </trkpt>
      <trkpt lat="44.61045" lon="0.77113">
        <ele>172.2</ele>
        <time>2026-08-15T07:53:39Z</time>
      </trkpt>
      <trkpt lat="44.61044" lon="0.77118">
        <ele>172.4</ele>
        <time>2026-08-15T07:53:40Z</time>
      </trkpt>
      <trkpt lat="44.61042" lon="0.77122">
        <ele>172.4</ele>
        <time>2026-08-15T07:53:41Z</time>
      </trkpt>
      <trkpt lat="44.61041" lon="0.77127">
        <ele>172.6</ele>
        <time>2026-08-15T07:53:42Z</time>
      </trkpt>
      <trkpt lat="44.6104" lon="0.77133">
        <ele>172.6</ele>
        <time>2026-08-15T07:53:43Z</time>
      </trkpt>
      <trkpt lat="44.61038" lon="0.77139">
        <ele>172.6</ele>
        <time>2026-08-15T07:53:44Z</time>
      </trkpt>
      <trkpt lat="44.61037" lon="0.77144">
        <ele>172.6</ele>
        <time>2026-08-15T07:53:45Z</time>
      </trkpt>
      <trkpt lat="44.61035" lon="0.7715">
        <ele>172.8</ele>
        <time>2026-08-15T07:53:46Z</time>
      </trkpt>
      <trkpt lat="44.61034" lon="0.77156">
        <ele>172.8</ele>
        <time>2026-08-15T07:53:47Z</time>
      </trkpt>
      <trkpt lat="44.61032" lon="0.77162">
        <ele>172.6</ele>
        <time>2026-08-15T07:53:48Z</time>
      </trkpt>
      <trkpt lat="44.6103" lon="0.77168">
        <ele>172.6</ele>
        <time>2026-08-15T07:53:49Z</time>
      </trkpt>
      <trkpt lat="44.61028" lon="0.77175">
        <ele>172.6</ele>
        <time>2026-08-15T07:53:50Z</time>
      </trkpt>
      <trkpt lat="44.61027" lon="0.77181">
        <ele>172.6</ele>
        <time>2026-08-15T07:53:51Z</time>
      </trkpt>
      <trkpt lat="44.61025" lon="0.77187">
        <ele>172.6</ele>
        <time>2026-08-15T07:53:52Z</time>
      </trkpt>
      <trkpt lat="44.61024" lon="0.77193">
        <ele>172.6</ele>
        <time>2026-08-15T07:53:53Z</time>
      </trkpt>
      <trkpt lat="44.61023" lon="0.77199">
        <ele>172.6</ele>
        <time>2026-08-15T07:53:54Z</time>
      </trkpt>
      <trkpt lat="44.61022" lon="0.77205">
        <ele>172.6</ele>
        <time>2026-08-15T07:53:55Z</time>
      </trkpt>
      <trkpt lat="44.61021" lon="0.77211">
        <ele>172.6</ele>
        <time>2026-08-15T07:53:56Z</time>
      </trkpt>
      <trkpt lat="44.61021" lon="0.77217">
        <ele>172.6</ele>
        <time>2026-08-15T07:53:57Z</time>
      </trkpt>
      <trkpt lat="44.6102" lon="0.77223">
        <ele>172.6</ele>
        <time>2026-08-15T07:53:58Z</time>
      </trkpt>
      <trkpt lat="44.61019" lon="0.77229">
        <ele>172.6</ele>
        <time>2026-08-15T07:53:59Z</time>
      </trkpt>
      <trkpt lat="44.61019" lon="0.77235">
        <ele>172.6</ele>
        <time>2026-08-15T07:54:00Z</time>
      </trkpt>
      <trkpt lat="44.61018" lon="0.77241">
        <ele>172.6</ele>
        <time>2026-08-15T07:54:01Z</time>
      </trkpt>
      <trkpt lat="44.61018" lon="0.77247">
        <ele>172.8</ele>
        <time>2026-08-15T07:54:02Z</time>
      </trkpt>
      <trkpt lat="44.61017" lon="0.77252">
        <ele>172.8</ele>
        <time>2026-08-15T07:54:03Z</time>
      </trkpt>
      <trkpt lat="44.61017" lon="0.77258">
        <ele>172.8</ele>
        <time>2026-08-15T07:54:04Z</time>
      </trkpt>
      <trkpt lat="44.61017" lon="0.77263">
        <ele>173.2</ele>
        <time>2026-08-15T07:54:05Z</time>
      </trkpt>
      <trkpt lat="44.61018" lon="0.77269">
        <ele>173.2</ele>
        <time>2026-08-15T07:54:06Z</time>
      </trkpt>
      <trkpt lat="44.61018" lon="0.77274">
        <ele>173.6</ele>
        <time>2026-08-15T07:54:07Z</time>
      </trkpt>
      <trkpt lat="44.61018" lon="0.77279">
        <ele>173.6</ele>
        <time>2026-08-15T07:54:08Z</time>
      </trkpt>
      <trkpt lat="44.61018" lon="0.77284">
        <ele>173.8</ele>
        <time>2026-08-15T07:54:09Z</time>
      </trkpt>
      <trkpt lat="44.61017" lon="0.77289">
        <ele>174.2</ele>
        <time>2026-08-15T07:54:10Z</time>
      </trkpt>
      <trkpt lat="44.61017" lon="0.77294">
        <ele>174.4</ele>
        <time>2026-08-15T07:54:11Z</time>
      </trkpt>
      <trkpt lat="44.61017" lon="0.77299">
        <ele>174.4</ele>
        <time>2026-08-15T07:54:12Z</time>
      </trkpt>
      <trkpt lat="44.61017" lon="0.77304">
        <ele>174.6</ele>
        <time>2026-08-15T07:54:13Z</time>
      </trkpt>
      <trkpt lat="44.61017" lon="0.77309">
        <ele>174.6</ele>
        <time>2026-08-15T07:54:14Z</time>
      </trkpt>
      <trkpt lat="44.61017" lon="0.77313">
        <ele>174.6</ele>
        <time>2026-08-15T07:54:15Z</time>
      </trkpt>
      <trkpt lat="44.61018" lon="0.77318">
        <ele>174.6</ele>
        <time>2026-08-15T07:54:16Z</time>
      </trkpt>
      <trkpt lat="44.61018" lon="0.77323">
        <ele>174.8</ele>
        <time>2026-08-15T07:54:17Z</time>
      </trkpt>
      <trkpt lat="44.61018" lon="0.77327">
        <ele>175.2</ele>
        <time>2026-08-15T07:54:18Z</time>
      </trkpt>
      <trkpt lat="44.61019" lon="0.77332">
        <ele>175.6</ele>
        <time>2026-08-15T07:54:19Z</time>
      </trkpt>
      <trkpt lat="44.61019" lon="0.77336">
        <ele>175.8</ele>
        <time>2026-08-15T07:54:20Z</time>
      </trkpt>
      <trkpt lat="44.61019" lon="0.77341">
        <ele>176</ele>
        <time>2026-08-15T07:54:21Z</time>
      </trkpt>
      <trkpt lat="44.6102" lon="0.77345">
        <ele>176.4</ele>
        <time>2026-08-15T07:54:22Z</time>
      </trkpt>
      <trkpt lat="44.6102" lon="0.7735">
        <ele>176.6</ele>
        <time>2026-08-15T07:54:23Z</time>
      </trkpt>
      <trkpt lat="44.61021" lon="0.77354">
        <ele>176.6</ele>
        <time>2026-08-15T07:54:24Z</time>
      </trkpt>
      <trkpt lat="44.61021" lon="0.77358">
        <ele>176.8</ele>
        <time>2026-08-15T07:54:25Z</time>
      </trkpt>
      <trkpt lat="44.61022" lon="0.77363">
        <ele>177.2</ele>
        <time>2026-08-15T07:54:26Z</time>
      </trkpt>
      <trkpt lat="44.61023" lon="0.77367">
        <ele>177.2</ele>
        <time>2026-08-15T07:54:27Z</time>
      </trkpt>
      <trkpt lat="44.61023" lon="0.77372">
        <ele>177.4</ele>
        <time>2026-08-15T07:54:28Z</time>
      </trkpt>
      <trkpt lat="44.61024" lon="0.77376">
        <ele>177.6</ele>
        <time>2026-08-15T07:54:29Z</time>
      </trkpt>
      <trkpt lat="44.61024" lon="0.77381">
        <ele>177.8</ele>
        <time>2026-08-15T07:54:30Z</time>
      </trkpt>
      <trkpt lat="44.61025" lon="0.77385">
        <ele>178</ele>
        <time>2026-08-15T07:54:31Z</time>
      </trkpt>
      <trkpt lat="44.61025" lon="0.77389">
        <ele>178.4</ele>
        <time>2026-08-15T07:54:32Z</time>
      </trkpt>
      <trkpt lat="44.61025" lon="0.77393">
        <ele>178.6</ele>
        <time>2026-08-15T07:54:33Z</time>
      </trkpt>
      <trkpt lat="44.61025" lon="0.77398">
        <ele>178.8</ele>
        <time>2026-08-15T07:54:34Z</time>
      </trkpt>
      <trkpt lat="44.61025" lon="0.77402">
        <ele>179.2</ele>
        <time>2026-08-15T07:54:35Z</time>
      </trkpt>
      <trkpt lat="44.61025" lon="0.77406">
        <ele>179.4</ele>
        <time>2026-08-15T07:54:36Z</time>
      </trkpt>
      <trkpt lat="44.61025" lon="0.7741">
        <ele>179.6</ele>
        <time>2026-08-15T07:54:37Z</time>
      </trkpt>
      <trkpt lat="44.61025" lon="0.77414">
        <ele>180</ele>
        <time>2026-08-15T07:54:38Z</time>
      </trkpt>
      <trkpt lat="44.61024" lon="0.77418">
        <ele>180.2</ele>
        <time>2026-08-15T07:54:39Z</time>
      </trkpt>
      <trkpt lat="44.61023" lon="0.77422">
        <ele>180.4</ele>
        <time>2026-08-15T07:54:40Z</time>
      </trkpt>
      <trkpt lat="44.61023" lon="0.77426">
        <ele>180.6</ele>
        <time>2026-08-15T07:54:41Z</time>
      </trkpt>
      <trkpt lat="44.61022" lon="0.7743">
        <ele>180.6</ele>
        <time>2026-08-15T07:54:42Z</time>
      </trkpt>
      <trkpt lat="44.6102" lon="0.77434">
        <ele>180.8</ele>
        <time>2026-08-15T07:54:43Z</time>
      </trkpt>
      <trkpt lat="44.61019" lon="0.77438">
        <ele>181.2</ele>
        <time>2026-08-15T07:54:44Z</time>
      </trkpt>
      <trkpt lat="44.61018" lon="0.77442">
        <ele>181.4</ele>
        <time>2026-08-15T07:54:45Z</time>
      </trkpt>
      <trkpt lat="44.61016" lon="0.77446">
        <ele>181.4</ele>
        <time>2026-08-15T07:54:46Z</time>
      </trkpt>
      <trkpt lat="44.61015" lon="0.77449">
        <ele>181.6</ele>
        <time>2026-08-15T07:54:47Z</time>
      </trkpt>
      <trkpt lat="44.61013" lon="0.77452">
        <ele>181.8</ele>
        <time>2026-08-15T07:54:48Z</time>
      </trkpt>
      <trkpt lat="44.61012" lon="0.77456">
        <ele>181.8</ele>
        <time>2026-08-15T07:54:49Z</time>
      </trkpt>
      <trkpt lat="44.6101" lon="0.7746">
        <ele>182</ele>
        <time>2026-08-15T07:54:50Z</time>
      </trkpt>
      <trkpt lat="44.61009" lon="0.77463">
        <ele>182</ele>
        <time>2026-08-15T07:54:51Z</time>
      </trkpt>
      <trkpt lat="44.61007" lon="0.77467">
        <ele>182.2</ele>
        <time>2026-08-15T07:54:52Z</time>
      </trkpt>
      <trkpt lat="44.61005" lon="0.77471">
        <ele>182.2</ele>
        <time>2026-08-15T07:54:53Z</time>
      </trkpt>
      <trkpt lat="44.61003" lon="0.77476">
        <ele>182.2</ele>
        <time>2026-08-15T07:54:54Z</time>
      </trkpt>
      <trkpt lat="44.61" lon="0.7748">
        <ele>182</ele>
        <time>2026-08-15T07:54:55Z</time>
      </trkpt>
      <trkpt lat="44.60997" lon="0.77485">
        <ele>182</ele>
        <time>2026-08-15T07:54:56Z</time>
      </trkpt>
      <trkpt lat="44.60995" lon="0.7749">
        <ele>181.8</ele>
        <time>2026-08-15T07:54:57Z</time>
      </trkpt>
      <trkpt lat="44.60992" lon="0.77495">
        <ele>181.8</ele>
        <time>2026-08-15T07:54:58Z</time>
      </trkpt>
      <trkpt lat="44.60989" lon="0.775">
        <ele>181.6</ele>
        <time>2026-08-15T07:54:59Z</time>
      </trkpt>
      <trkpt lat="44.60986" lon="0.77505">
        <ele>181.6</ele>
        <time>2026-08-15T07:55:00Z</time>
      </trkpt>
      <trkpt lat="44.60983" lon="0.7751">
        <ele>181.6</ele>
        <time>2026-08-15T07:55:01Z</time>
      </trkpt>
      <trkpt lat="44.6098" lon="0.77515">
        <ele>181.4</ele>
        <time>2026-08-15T07:55:02Z</time>
      </trkpt>
      <trkpt lat="44.60977" lon="0.77519">
        <ele>181.2</ele>
        <time>2026-08-15T07:55:03Z</time>
      </trkpt>
      <trkpt lat="44.60973" lon="0.77524">
        <ele>181</ele>
        <time>2026-08-15T07:55:04Z</time>
      </trkpt>
      <trkpt lat="44.60969" lon="0.77527">
        <ele>180.8</ele>
        <time>2026-08-15T07:55:05Z</time>
      </trkpt>
      <trkpt lat="44.60965" lon="0.7753">
        <ele>180.6</ele>
        <time>2026-08-15T07:55:06Z</time>
      </trkpt>
      <trkpt lat="44.60961" lon="0.77531">
        <ele>180.6</ele>
        <time>2026-08-15T07:55:07Z</time>
      </trkpt>
      <trkpt lat="44.60956" lon="0.77532">
        <ele>180.6</ele>
        <time>2026-08-15T07:55:08Z</time>
      </trkpt>
      <trkpt lat="44.60952" lon="0.77534">
        <ele>180.4</ele>
        <time>2026-08-15T07:55:09Z</time>
      </trkpt>
      <trkpt lat="44.60947" lon="0.77535">
        <ele>180.4</ele>
        <time>2026-08-15T07:55:10Z</time>
      </trkpt>
      <trkpt lat="44.60942" lon="0.77536">
        <ele>180.2</ele>
        <time>2026-08-15T07:55:11Z</time>
      </trkpt>
      <trkpt lat="44.60937" lon="0.77537">
        <ele>180</ele>
        <time>2026-08-15T07:55:12Z</time>
      </trkpt>
      <trkpt lat="44.60932" lon="0.77538">
        <ele>179.8</ele>
        <time>2026-08-15T07:55:13Z</time>
      </trkpt>
      <trkpt lat="44.60927" lon="0.7754">
        <ele>179.8</ele>
        <time>2026-08-15T07:55:14Z</time>
      </trkpt>
      <trkpt lat="44.6092" lon="0.77542">
        <ele>179.6</ele>
        <time>2026-08-15T07:55:15Z</time>
      </trkpt>
      <trkpt lat="44.60914" lon="0.77543">
        <ele>179.2</ele>
        <time>2026-08-15T07:55:16Z</time>
      </trkpt>
      <trkpt lat="44.60908" lon="0.77543">
        <ele>178.6</ele>
        <time>2026-08-15T07:55:17Z</time>
      </trkpt>
      <trkpt lat="44.60902" lon="0.77542">
        <ele>178.6</ele>
        <time>2026-08-15T07:55:18Z</time>
      </trkpt>
      <trkpt lat="44.60896" lon="0.77541">
        <ele>178.4</ele>
        <time>2026-08-15T07:55:19Z</time>
      </trkpt>
      <trkpt lat="44.6089" lon="0.77541">
        <ele>178.2</ele>
        <time>2026-08-15T07:55:20Z</time>
      </trkpt>
      <trkpt lat="44.60884" lon="0.77541">
        <ele>178.2</ele>
        <time>2026-08-15T07:55:21Z</time>
      </trkpt>
      <trkpt lat="44.60879" lon="0.77543">
        <ele>178.2</ele>
        <time>2026-08-15T07:55:22Z</time>
      </trkpt>
      <trkpt lat="44.60874" lon="0.77546">
        <ele>178</ele>
        <time>2026-08-15T07:55:23Z</time>
      </trkpt>
      <trkpt lat="44.60869" lon="0.77548">
        <ele>178</ele>
        <time>2026-08-15T07:55:24Z</time>
      </trkpt>
      <trkpt lat="44.60865" lon="0.7755">
        <ele>177.8</ele>
        <time>2026-08-15T07:55:25Z</time>
      </trkpt>
      <trkpt lat="44.60862" lon="0.77552">
        <ele>177.8</ele>
        <time>2026-08-15T07:55:26Z</time>
      </trkpt>
      <trkpt lat="44.60858" lon="0.77555">
        <ele>177.8</ele>
        <time>2026-08-15T07:55:27Z</time>
      </trkpt>
      <trkpt lat="44.60854" lon="0.77558">
        <ele>177.8</ele>
        <time>2026-08-15T07:55:28Z</time>
      </trkpt>
      <trkpt lat="44.60849" lon="0.77561">
        <ele>177.8</ele>
        <time>2026-08-15T07:55:29Z</time>
      </trkpt>
      <trkpt lat="44.60845" lon="0.77563">
        <ele>178</ele>
        <time>2026-08-15T07:55:30Z</time>
      </trkpt>
      <trkpt lat="44.60841" lon="0.77566">
        <ele>178.2</ele>
        <time>2026-08-15T07:55:31Z</time>
      </trkpt>
      <trkpt lat="44.60837" lon="0.77568">
        <ele>178.2</ele>
        <time>2026-08-15T07:55:32Z</time>
      </trkpt>
      <trkpt lat="44.60833" lon="0.77571">
        <ele>178.4</ele>
        <time>2026-08-15T07:55:33Z</time>
      </trkpt>
      <trkpt lat="44.60829" lon="0.77573">
        <ele>178.4</ele>
        <time>2026-08-15T07:55:34Z</time>
      </trkpt>
      <trkpt lat="44.60825" lon="0.77575">
        <ele>178.6</ele>
        <time>2026-08-15T07:55:35Z</time>
      </trkpt>
      <trkpt lat="44.60821" lon="0.77578">
        <ele>178.6</ele>
        <time>2026-08-15T07:55:36Z</time>
      </trkpt>
      <trkpt lat="44.60818" lon="0.7758">
        <ele>178.6</ele>
        <time>2026-08-15T07:55:37Z</time>
      </trkpt>
      <trkpt lat="44.60814" lon="0.77583">
        <ele>178.8</ele>
        <time>2026-08-15T07:55:38Z</time>
      </trkpt>
      <trkpt lat="44.60811" lon="0.77586">
        <ele>179</ele>
        <time>2026-08-15T07:55:39Z</time>
      </trkpt>
      <trkpt lat="44.60808" lon="0.77588">
        <ele>179</ele>
        <time>2026-08-15T07:55:40Z</time>
      </trkpt>
      <trkpt lat="44.60804" lon="0.7759">
        <ele>179.2</ele>
        <time>2026-08-15T07:55:41Z</time>
      </trkpt>
      <trkpt lat="44.60801" lon="0.77593">
        <ele>179.2</ele>
        <time>2026-08-15T07:55:42Z</time>
      </trkpt>
      <trkpt lat="44.60797" lon="0.77595">
        <ele>179.2</ele>
        <time>2026-08-15T07:55:43Z</time>
      </trkpt>
      <trkpt lat="44.60793" lon="0.77598">
        <ele>179.4</ele>
        <time>2026-08-15T07:55:44Z</time>
      </trkpt>
      <trkpt lat="44.60789" lon="0.776">
        <ele>179.4</ele>
        <time>2026-08-15T07:55:45Z</time>
      </trkpt>
      <trkpt lat="44.60786" lon="0.77602">
        <ele>179.6</ele>
        <time>2026-08-15T07:55:46Z</time>
      </trkpt>
      <trkpt lat="44.60782" lon="0.77605">
        <ele>179.6</ele>
        <time>2026-08-15T07:55:47Z</time>
      </trkpt>
      <trkpt lat="44.60778" lon="0.77607">
        <ele>179.6</ele>
        <time>2026-08-15T07:55:48Z</time>
      </trkpt>
      <trkpt lat="44.60775" lon="0.7761">
        <ele>180</ele>
        <time>2026-08-15T07:55:49Z</time>
      </trkpt>
      <trkpt lat="44.60771" lon="0.77612">
        <ele>180.4</ele>
        <time>2026-08-15T07:55:50Z</time>
      </trkpt>
      <trkpt lat="44.60768" lon="0.77615">
        <ele>180.6</ele>
        <time>2026-08-15T07:55:51Z</time>
      </trkpt>
      <trkpt lat="44.60764" lon="0.77617">
        <ele>180.8</ele>
        <time>2026-08-15T07:55:52Z</time>
      </trkpt>
      <trkpt lat="44.60761" lon="0.7762">
        <ele>181.2</ele>
        <time>2026-08-15T07:55:53Z</time>
      </trkpt>
      <trkpt lat="44.60758" lon="0.77623">
        <ele>181.6</ele>
        <time>2026-08-15T07:55:54Z</time>
      </trkpt>
      <trkpt lat="44.60755" lon="0.77625">
        <ele>181.6</ele>
        <time>2026-08-15T07:55:55Z</time>
      </trkpt>
      <trkpt lat="44.60752" lon="0.77628">
        <ele>182</ele>
        <time>2026-08-15T07:55:56Z</time>
      </trkpt>
      <trkpt lat="44.60749" lon="0.7763">
        <ele>182.4</ele>
        <time>2026-08-15T07:55:57Z</time>
      </trkpt>
      <trkpt lat="44.60747" lon="0.77633">
        <ele>182.6</ele>
        <time>2026-08-15T07:55:58Z</time>
      </trkpt>
      <trkpt lat="44.60744" lon="0.77636">
        <ele>182.8</ele>
        <time>2026-08-15T07:55:59Z</time>
      </trkpt>
      <trkpt lat="44.60741" lon="0.77639">
        <ele>183</ele>
        <time>2026-08-15T07:56:00Z</time>
      </trkpt>
      <trkpt lat="44.60738" lon="0.77642">
        <ele>183.4</ele>
        <time>2026-08-15T07:56:01Z</time>
      </trkpt>
      <trkpt lat="44.60735" lon="0.77645">
        <ele>183.6</ele>
        <time>2026-08-15T07:56:02Z</time>
      </trkpt>
      <trkpt lat="44.60733" lon="0.77649">
        <ele>183.6</ele>
        <time>2026-08-15T07:56:03Z</time>
      </trkpt>
      <trkpt lat="44.6073" lon="0.77652">
        <ele>183.8</ele>
        <time>2026-08-15T07:56:04Z</time>
      </trkpt>
      <trkpt lat="44.60727" lon="0.77655">
        <ele>184.2</ele>
        <time>2026-08-15T07:56:05Z</time>
      </trkpt>
      <trkpt lat="44.60724" lon="0.77658">
        <ele>184.2</ele>
        <time>2026-08-15T07:56:06Z</time>
      </trkpt>
      <trkpt lat="44.60722" lon="0.77661">
        <ele>184.4</ele>
        <time>2026-08-15T07:56:07Z</time>
      </trkpt>
      <trkpt lat="44.60719" lon="0.77664">
        <ele>184.6</ele>
        <time>2026-08-15T07:56:08Z</time>
      </trkpt>
      <trkpt lat="44.60716" lon="0.77667">
        <ele>184.6</ele>
        <time>2026-08-15T07:56:09Z</time>
      </trkpt>
      <trkpt lat="44.60713" lon="0.77671">
        <ele>184.6</ele>
        <time>2026-08-15T07:56:10Z</time>
      </trkpt>
      <trkpt lat="44.60709" lon="0.77674">
        <ele>184.6</ele>
        <time>2026-08-15T07:56:11Z</time>
      </trkpt>
      <trkpt lat="44.60706" lon="0.77678">
        <ele>184.6</ele>
        <time>2026-08-15T07:56:12Z</time>
      </trkpt>
      <trkpt lat="44.60702" lon="0.77682">
        <ele>184.6</ele>
        <time>2026-08-15T07:56:13Z</time>
      </trkpt>
      <trkpt lat="44.60699" lon="0.77686">
        <ele>184.6</ele>
        <time>2026-08-15T07:56:14Z</time>
      </trkpt>
      <trkpt lat="44.60695" lon="0.77689">
        <ele>184.4</ele>
        <time>2026-08-15T07:56:15Z</time>
      </trkpt>
      <trkpt lat="44.60691" lon="0.77693">
        <ele>184.4</ele>
        <time>2026-08-15T07:56:16Z</time>
      </trkpt>
      <trkpt lat="44.60688" lon="0.77696">
        <ele>184.4</ele>
        <time>2026-08-15T07:56:17Z</time>
      </trkpt>
      <trkpt lat="44.60685" lon="0.777">
        <ele>184.2</ele>
        <time>2026-08-15T07:56:18Z</time>
      </trkpt>
      <trkpt lat="44.60682" lon="0.77702">
        <ele>184.2</ele>
        <time>2026-08-15T07:56:19Z</time>
      </trkpt>
      <trkpt lat="44.60681" lon="0.77704">
        <ele>184.2</ele>
        <time>2026-08-15T07:56:20Z</time>
      </trkpt>
      <trkpt lat="44.60681" lon="0.77704">
        <ele>184.2</ele>
        <time>2026-08-15T07:56:21Z</time>
      </trkpt>
      <trkpt lat="44.60681" lon="0.77704">
        <ele>184</ele>
        <time>2026-08-15T07:56:22Z</time>
      </trkpt>
      <trkpt lat="44.60681" lon="0.77704">
        <ele>184</ele>
        <time>2026-08-15T07:56:23Z</time>
      </trkpt>
      <trkpt lat="44.60679" lon="0.77706">
        <ele>184</ele>
        <time>2026-08-15T07:56:35Z</time>
      </trkpt>
      <trkpt lat="44.60678" lon="0.77708">
        <ele>183.8</ele>
        <time>2026-08-15T07:56:36Z</time>
      </trkpt>
      <trkpt lat="44.60677" lon="0.7771">
        <ele>183.8</ele>
        <time>2026-08-15T07:56:37Z</time>
      </trkpt>
      <trkpt lat="44.60675" lon="0.77713">
        <ele>183.8</ele>
        <time>2026-08-15T07:56:38Z</time>
      </trkpt>
      <trkpt lat="44.60673" lon="0.77716">
        <ele>184</ele>
        <time>2026-08-15T07:56:39Z</time>
      </trkpt>
      <trkpt lat="44.6067" lon="0.7772">
        <ele>184</ele>
        <time>2026-08-15T07:56:40Z</time>
      </trkpt>
      <trkpt lat="44.60667" lon="0.77726">
        <ele>184</ele>
        <time>2026-08-15T07:56:41Z</time>
      </trkpt>
      <trkpt lat="44.60664" lon="0.7773">
        <ele>184.2</ele>
        <time>2026-08-15T07:56:42Z</time>
      </trkpt>
      <trkpt lat="44.60661" lon="0.77734">
        <ele>184.2</ele>
        <time>2026-08-15T07:56:43Z</time>
      </trkpt>
      <trkpt lat="44.60658" lon="0.77738">
        <ele>184.2</ele>
        <time>2026-08-15T07:56:44Z</time>
      </trkpt>
      <trkpt lat="44.60656" lon="0.77742">
        <ele>184.2</ele>
        <time>2026-08-15T07:56:45Z</time>
      </trkpt>
      <trkpt lat="44.60653" lon="0.77746">
        <ele>184.4</ele>
        <time>2026-08-15T07:56:46Z</time>
      </trkpt>
      <trkpt lat="44.6065" lon="0.77751">
        <ele>184.4</ele>
        <time>2026-08-15T07:56:47Z</time>
      </trkpt>
      <trkpt lat="44.60647" lon="0.77755">
        <ele>184.4</ele>
        <time>2026-08-15T07:56:48Z</time>
      </trkpt>
      <trkpt lat="44.60644" lon="0.77759">
        <ele>184.6</ele>
        <time>2026-08-15T07:56:49Z</time>
      </trkpt>
      <trkpt lat="44.60642" lon="0.77763">
        <ele>184.6</ele>
        <time>2026-08-15T07:56:50Z</time>
      </trkpt>
      <trkpt lat="44.60639" lon="0.77768">
        <ele>184.6</ele>
        <time>2026-08-15T07:56:51Z</time>
      </trkpt>
      <trkpt lat="44.60636" lon="0.77772">
        <ele>184.8</ele>
        <time>2026-08-15T07:56:52Z</time>
      </trkpt>
      <trkpt lat="44.60634" lon="0.77776">
        <ele>185</ele>
        <time>2026-08-15T07:56:53Z</time>
      </trkpt>
      <trkpt lat="44.60631" lon="0.77779">
        <ele>185.2</ele>
        <time>2026-08-15T07:56:54Z</time>
      </trkpt>
      <trkpt lat="44.60629" lon="0.77783">
        <ele>185.2</ele>
        <time>2026-08-15T07:56:55Z</time>
      </trkpt>
      <trkpt lat="44.60626" lon="0.77787">
        <ele>185.4</ele>
        <time>2026-08-15T07:56:56Z</time>
      </trkpt>
      <trkpt lat="44.60624" lon="0.7779">
        <ele>185.6</ele>
        <time>2026-08-15T07:56:57Z</time>
      </trkpt>
      <trkpt lat="44.60621" lon="0.77793">
        <ele>185.6</ele>
        <time>2026-08-15T07:56:58Z</time>
      </trkpt>
      <trkpt lat="44.60619" lon="0.77796">
        <ele>186</ele>
        <time>2026-08-15T07:56:59Z</time>
      </trkpt>
      <trkpt lat="44.60616" lon="0.77799">
        <ele>186.2</ele>
        <time>2026-08-15T07:57:00Z</time>
      </trkpt>
      <trkpt lat="44.60613" lon="0.77802">
        <ele>186.6</ele>
        <time>2026-08-15T07:57:01Z</time>
      </trkpt>
      <trkpt lat="44.60611" lon="0.77805">
        <ele>186.6</ele>
        <time>2026-08-15T07:57:02Z</time>
      </trkpt>
      <trkpt lat="44.60608" lon="0.77807">
        <ele>186.8</ele>
        <time>2026-08-15T07:57:03Z</time>
      </trkpt>
      <trkpt lat="44.60604" lon="0.7781">
        <ele>187</ele>
        <time>2026-08-15T07:57:04Z</time>
      </trkpt>
      <trkpt lat="44.60601" lon="0.77811">
        <ele>187.2</ele>
        <time>2026-08-15T07:57:05Z</time>
      </trkpt>
      <trkpt lat="44.60598" lon="0.77813">
        <ele>187.2</ele>
        <time>2026-08-15T07:57:06Z</time>
      </trkpt>
      <trkpt lat="44.60594" lon="0.77814">
        <ele>187.2</ele>
        <time>2026-08-15T07:57:07Z</time>
      </trkpt>
      <trkpt lat="44.60591" lon="0.77814">
        <ele>187.4</ele>
        <time>2026-08-15T07:57:08Z</time>
      </trkpt>
      <trkpt lat="44.60587" lon="0.77814">
        <ele>187.6</ele>
        <time>2026-08-15T07:57:09Z</time>
      </trkpt>
      <trkpt lat="44.60583" lon="0.77814">
        <ele>187.6</ele>
        <time>2026-08-15T07:57:10Z</time>
      </trkpt>
      <trkpt lat="44.6058" lon="0.77813">
        <ele>187.6</ele>
        <time>2026-08-15T07:57:11Z</time>
      </trkpt>
      <trkpt lat="44.60576" lon="0.77812">
        <ele>187.8</ele>
        <time>2026-08-15T07:57:12Z</time>
      </trkpt>
      <trkpt lat="44.60573" lon="0.77811">
        <ele>187.8</ele>
        <time>2026-08-15T07:57:13Z</time>
      </trkpt>
      <trkpt lat="44.6057" lon="0.77809">
        <ele>187.8</ele>
        <time>2026-08-15T07:57:14Z</time>
      </trkpt>
      <trkpt lat="44.60566" lon="0.77807">
        <ele>187.8</ele>
        <time>2026-08-15T07:57:15Z</time>
      </trkpt>
      <trkpt lat="44.60563" lon="0.77805">
        <ele>187.8</ele>
        <time>2026-08-15T07:57:16Z</time>
      </trkpt>
      <trkpt lat="44.6056" lon="0.77803">
        <ele>188</ele>
        <time>2026-08-15T07:57:17Z</time>
      </trkpt>
      <trkpt lat="44.60557" lon="0.77801">
        <ele>188</ele>
        <time>2026-08-15T07:57:18Z</time>
      </trkpt>
      <trkpt lat="44.60554" lon="0.77798">
        <ele>188.2</ele>
        <time>2026-08-15T07:57:19Z</time>
      </trkpt>
      <trkpt lat="44.60551" lon="0.77796">
        <ele>188.2</ele>
        <time>2026-08-15T07:57:20Z</time>
      </trkpt>
      <trkpt lat="44.60549" lon="0.77793">
        <ele>188</ele>
        <time>2026-08-15T07:57:21Z</time>
      </trkpt>
      <trkpt lat="44.60545" lon="0.7779">
        <ele>188</ele>
        <time>2026-08-15T07:57:22Z</time>
      </trkpt>
      <trkpt lat="44.60542" lon="0.77787">
        <ele>187.8</ele>
        <time>2026-08-15T07:57:23Z</time>
      </trkpt>
      <trkpt lat="44.60539" lon="0.77783">
        <ele>187.6</ele>
        <time>2026-08-15T07:57:24Z</time>
      </trkpt>
      <trkpt lat="44.60535" lon="0.7778">
        <ele>187.6</ele>
        <time>2026-08-15T07:57:25Z</time>
      </trkpt>
      <trkpt lat="44.60531" lon="0.77776">
        <ele>187.6</ele>
        <time>2026-08-15T07:57:26Z</time>
      </trkpt>
      <trkpt lat="44.60527" lon="0.77772">
        <ele>187.4</ele>
        <time>2026-08-15T07:57:27Z</time>
      </trkpt>
      <trkpt lat="44.60523" lon="0.77768">
        <ele>187.2</ele>
        <time>2026-08-15T07:57:28Z</time>
      </trkpt>
      <trkpt lat="44.60519" lon="0.77764">
        <ele>186.8</ele>
        <time>2026-08-15T07:57:29Z</time>
      </trkpt>
      <trkpt lat="44.60514" lon="0.77759">
        <ele>186.6</ele>
        <time>2026-08-15T07:57:30Z</time>
      </trkpt>
      <trkpt lat="44.60508" lon="0.77754">
        <ele>186.4</ele>
        <time>2026-08-15T07:57:31Z</time>
      </trkpt>
      <trkpt lat="44.60503" lon="0.7775">
        <ele>186</ele>
        <time>2026-08-15T07:57:32Z</time>
      </trkpt>
      <trkpt lat="44.60498" lon="0.77747">
        <ele>185.8</ele>
        <time>2026-08-15T07:57:33Z</time>
      </trkpt>
      <trkpt lat="44.60493" lon="0.77744">
        <ele>185.6</ele>
        <time>2026-08-15T07:57:34Z</time>
      </trkpt>
      <trkpt lat="44.60488" lon="0.77741">
        <ele>185.6</ele>
        <time>2026-08-15T07:57:35Z</time>
      </trkpt>
      <trkpt lat="44.60482" lon="0.77738">
        <ele>185.6</ele>
        <time>2026-08-15T07:57:36Z</time>
      </trkpt>
      <trkpt lat="44.60478" lon="0.77736">
        <ele>185.4</ele>
        <time>2026-08-15T07:57:37Z</time>
      </trkpt>
      <trkpt lat="44.60474" lon="0.77734">
        <ele>185.4</ele>
        <time>2026-08-15T07:57:38Z</time>
      </trkpt>
      <trkpt lat="44.6047" lon="0.77731">
        <ele>185.4</ele>
        <time>2026-08-15T07:57:39Z</time>
      </trkpt>
      <trkpt lat="44.60465" lon="0.77729">
        <ele>185.4</ele>
        <time>2026-08-15T07:57:40Z</time>
      </trkpt>
      <trkpt lat="44.60459" lon="0.77726">
        <ele>185.2</ele>
        <time>2026-08-15T07:57:41Z</time>
      </trkpt>
      <trkpt lat="44.60453" lon="0.77723">
        <ele>185.2</ele>
        <time>2026-08-15T07:57:42Z</time>
      </trkpt>
      <trkpt lat="44.60447" lon="0.7772">
        <ele>185.2</ele>
        <time>2026-08-15T07:57:43Z</time>
      </trkpt>
      <trkpt lat="44.60442" lon="0.77719">
        <ele>185</ele>
        <time>2026-08-15T07:57:44Z</time>
      </trkpt>
      <trkpt lat="44.60438" lon="0.77717">
        <ele>184.8</ele>
        <time>2026-08-15T07:57:45Z</time>
      </trkpt>
      <trkpt lat="44.60434" lon="0.77715">
        <ele>184.8</ele>
        <time>2026-08-15T07:57:46Z</time>
      </trkpt>
      <trkpt lat="44.60429" lon="0.77713">
        <ele>184.6</ele>
        <time>2026-08-15T07:57:47Z</time>
      </trkpt>
      <trkpt lat="44.60424" lon="0.77711">
        <ele>184.6</ele>
        <time>2026-08-15T07:57:48Z</time>
      </trkpt>
      <trkpt lat="44.60419" lon="0.77709">
        <ele>184.6</ele>
        <time>2026-08-15T07:57:49Z</time>
      </trkpt>
      <trkpt lat="44.60414" lon="0.77706">
        <ele>184.6</ele>
        <time>2026-08-15T07:57:50Z</time>
      </trkpt>
      <trkpt lat="44.60409" lon="0.77704">
        <ele>184.6</ele>
        <time>2026-08-15T07:57:51Z</time>
      </trkpt>
      <trkpt lat="44.60404" lon="0.77702">
        <ele>184.4</ele>
        <time>2026-08-15T07:57:52Z</time>
      </trkpt>
      <trkpt lat="44.60399" lon="0.777">
        <ele>184.4</ele>
        <time>2026-08-15T07:57:53Z</time>
      </trkpt>
      <trkpt lat="44.60394" lon="0.77698">
        <ele>184.4</ele>
        <time>2026-08-15T07:57:54Z</time>
      </trkpt>
      <trkpt lat="44.60389" lon="0.77696">
        <ele>184.4</ele>
        <time>2026-08-15T07:57:55Z</time>
      </trkpt>
      <trkpt lat="44.60384" lon="0.77694">
        <ele>184.4</ele>
        <time>2026-08-15T07:57:56Z</time>
      </trkpt>
      <trkpt lat="44.60379" lon="0.77692">
        <ele>184.4</ele>
        <time>2026-08-15T07:57:57Z</time>
      </trkpt>
      <trkpt lat="44.60375" lon="0.77689">
        <ele>184.4</ele>
        <time>2026-08-15T07:57:58Z</time>
      </trkpt>
      <trkpt lat="44.60371" lon="0.77687">
        <ele>184.4</ele>
        <time>2026-08-15T07:57:59Z</time>
      </trkpt>
      <trkpt lat="44.60367" lon="0.77683">
        <ele>184.4</ele>
        <time>2026-08-15T07:58:00Z</time>
      </trkpt>
      <trkpt lat="44.60365" lon="0.77679">
        <ele>184.4</ele>
        <time>2026-08-15T07:58:01Z</time>
      </trkpt>
      <trkpt lat="44.60363" lon="0.77673">
        <ele>184.4</ele>
        <time>2026-08-15T07:58:02Z</time>
      </trkpt>
      <trkpt lat="44.60361" lon="0.77668">
        <ele>184.2</ele>
        <time>2026-08-15T07:58:03Z</time>
      </trkpt>
      <trkpt lat="44.6036" lon="0.77662">
        <ele>184.2</ele>
        <time>2026-08-15T07:58:04Z</time>
      </trkpt>
      <trkpt lat="44.60359" lon="0.77656">
        <ele>184.2</ele>
        <time>2026-08-15T07:58:05Z</time>
      </trkpt>
      <trkpt lat="44.60357" lon="0.7765">
        <ele>184.2</ele>
        <time>2026-08-15T07:58:06Z</time>
      </trkpt>
      <trkpt lat="44.60356" lon="0.77643">
        <ele>184</ele>
        <time>2026-08-15T07:58:07Z</time>
      </trkpt>
      <trkpt lat="44.60354" lon="0.77636">
        <ele>183.8</ele>
        <time>2026-08-15T07:58:08Z</time>
      </trkpt>
      <trkpt lat="44.60353" lon="0.77629">
        <ele>183.8</ele>
        <time>2026-08-15T07:58:09Z</time>
      </trkpt>
      <trkpt lat="44.60351" lon="0.77622">
        <ele>183.6</ele>
        <time>2026-08-15T07:58:10Z</time>
      </trkpt>
      <trkpt lat="44.6035" lon="0.77615">
        <ele>183.6</ele>
        <time>2026-08-15T07:58:11Z</time>
      </trkpt>
      <trkpt lat="44.60348" lon="0.77607">
        <ele>183.2</ele>
        <time>2026-08-15T07:58:12Z</time>
      </trkpt>
      <trkpt lat="44.60346" lon="0.77597">
        <ele>182.6</ele>
        <time>2026-08-15T07:58:13Z</time>
      </trkpt>
      <trkpt lat="44.60344" lon="0.77588">
        <ele>182</ele>
        <time>2026-08-15T07:58:14Z</time>
      </trkpt>
      <trkpt lat="44.60342" lon="0.77579">
        <ele>181.4</ele>
        <time>2026-08-15T07:58:15Z</time>
      </trkpt>
      <trkpt lat="44.6034" lon="0.7757">
        <ele>181</ele>
        <time>2026-08-15T07:58:16Z</time>
      </trkpt>
      <trkpt lat="44.60337" lon="0.77561">
        <ele>180.6</ele>
        <time>2026-08-15T07:58:17Z</time>
      </trkpt>
      <trkpt lat="44.60335" lon="0.77552">
        <ele>180.2</ele>
        <time>2026-08-15T07:58:18Z</time>
      </trkpt>
      <trkpt lat="44.60333" lon="0.77544">
        <ele>179.4</ele>
        <time>2026-08-15T07:58:19Z</time>
      </trkpt>
      <trkpt lat="44.60331" lon="0.77535">
        <ele>179</ele>
        <time>2026-08-15T07:58:20Z</time>
      </trkpt>
      <trkpt lat="44.60329" lon="0.77527">
        <ele>178.6</ele>
        <time>2026-08-15T07:58:21Z</time>
      </trkpt>
      <trkpt lat="44.60326" lon="0.77518">
        <ele>178.2</ele>
        <time>2026-08-15T07:58:22Z</time>
      </trkpt>
      <trkpt lat="44.60324" lon="0.7751">
        <ele>177.6</ele>
        <time>2026-08-15T07:58:23Z</time>
      </trkpt>
      <trkpt lat="44.60322" lon="0.77502">
        <ele>177.4</ele>
        <time>2026-08-15T07:58:24Z</time>
      </trkpt>
      <trkpt lat="44.60319" lon="0.77494">
        <ele>177.2</ele>
        <time>2026-08-15T07:58:25Z</time>
      </trkpt>
      <trkpt lat="44.60317" lon="0.77488">
        <ele>176.8</ele>
        <time>2026-08-15T07:58:26Z</time>
      </trkpt>
      <trkpt lat="44.60316" lon="0.77484">
        <ele>176.6</ele>
        <time>2026-08-15T07:58:27Z</time>
      </trkpt>
      <trkpt lat="44.60315" lon="0.77479">
        <ele>176.2</ele>
        <time>2026-08-15T07:58:28Z</time>
      </trkpt>
      <trkpt lat="44.60314" lon="0.77474">
        <ele>175.6</ele>
        <time>2026-08-15T07:58:29Z</time>
      </trkpt>
      <trkpt lat="44.60313" lon="0.77469">
        <ele>175.4</ele>
        <time>2026-08-15T07:58:30Z</time>
      </trkpt>
      <trkpt lat="44.60312" lon="0.77465">
        <ele>175</ele>
        <time>2026-08-15T07:58:31Z</time>
      </trkpt>
      <trkpt lat="44.60311" lon="0.77461">
        <ele>174.6</ele>
        <time>2026-08-15T07:58:32Z</time>
      </trkpt>
      <trkpt lat="44.60309" lon="0.77457">
        <ele>174.4</ele>
        <time>2026-08-15T07:58:33Z</time>
      </trkpt>
      <trkpt lat="44.60308" lon="0.77452">
        <ele>173.8</ele>
        <time>2026-08-15T07:58:34Z</time>
      </trkpt>
      <trkpt lat="44.60307" lon="0.77448">
        <ele>173.6</ele>
        <time>2026-08-15T07:58:35Z</time>
      </trkpt>
      <trkpt lat="44.60306" lon="0.77444">
        <ele>173.2</ele>
        <time>2026-08-15T07:58:36Z</time>
      </trkpt>
      <trkpt lat="44.60305" lon="0.7744">
        <ele>173</ele>
        <time>2026-08-15T07:58:37Z</time>
      </trkpt>
      <trkpt lat="44.60305" lon="0.77439">
        <ele>172.8</ele>
        <time>2026-08-15T07:58:38Z</time>
      </trkpt>
      <trkpt lat="44.60304" lon="0.77436">
        <ele>172.6</ele>
        <time>2026-08-15T07:58:39Z</time>
      </trkpt>
      <trkpt lat="44.60303" lon="0.77433">
        <ele>172.6</ele>
        <time>2026-08-15T07:58:40Z</time>
      </trkpt>
      <trkpt lat="44.60302" lon="0.7743">
        <ele>172.4</ele>
        <time>2026-08-15T07:58:41Z</time>
      </trkpt>
      <trkpt lat="44.60301" lon="0.77424">
        <ele>172.2</ele>
        <time>2026-08-15T07:58:42Z</time>
      </trkpt>
      <trkpt lat="44.603" lon="0.77419">
        <ele>171.8</ele>
        <time>2026-08-15T07:58:43Z</time>
      </trkpt>
      <trkpt lat="44.60299" lon="0.77415">
        <ele>171.6</ele>
        <time>2026-08-15T07:58:44Z</time>
      </trkpt>
      <trkpt lat="44.60299" lon="0.77412">
        <ele>171.6</ele>
        <time>2026-08-15T07:58:45Z</time>
      </trkpt>
      <trkpt lat="44.60298" lon="0.7741">
        <ele>171.4</ele>
        <time>2026-08-15T07:58:46Z</time>
      </trkpt>
      <trkpt lat="44.60297" lon="0.77407">
        <ele>171.2</ele>
        <time>2026-08-15T07:58:47Z</time>
      </trkpt>
      <trkpt lat="44.60296" lon="0.77401">
        <ele>170.8</ele>
        <time>2026-08-15T07:58:48Z</time>
      </trkpt>
      <trkpt lat="44.60295" lon="0.77397">
        <ele>170.6</ele>
        <time>2026-08-15T07:58:49Z</time>
      </trkpt>
      <trkpt lat="44.60294" lon="0.77392">
        <ele>170.2</ele>
        <time>2026-08-15T07:58:50Z</time>
      </trkpt>
      <trkpt lat="44.60293" lon="0.77388">
        <ele>169.8</ele>
        <time>2026-08-15T07:58:51Z</time>
      </trkpt>
      <trkpt lat="44.60292" lon="0.77384">
        <ele>169.6</ele>
        <time>2026-08-15T07:58:52Z</time>
      </trkpt>
      <trkpt lat="44.60291" lon="0.77381">
        <ele>169.4</ele>
        <time>2026-08-15T07:58:53Z</time>
      </trkpt>
      <trkpt lat="44.60291" lon="0.77379">
        <ele>169.2</ele>
        <time>2026-08-15T07:58:54Z</time>
      </trkpt>
      <trkpt lat="44.6029" lon="0.77377">
        <ele>169</ele>
        <time>2026-08-15T07:58:55Z</time>
      </trkpt>
      <trkpt lat="44.6029" lon="0.77374">
        <ele>168.8</ele>
        <time>2026-08-15T07:58:56Z</time>
      </trkpt>
      <trkpt lat="44.60289" lon="0.7737">
        <ele>168.6</ele>
        <time>2026-08-15T07:58:57Z</time>
      </trkpt>
      <trkpt lat="44.60289" lon="0.77367">
        <ele>168.6</ele>
        <time>2026-08-15T07:58:58Z</time>
      </trkpt>
      <trkpt lat="44.60288" lon="0.7736">
        <ele>168.4</ele>
        <time>2026-08-15T07:58:59Z</time>
      </trkpt>
      <trkpt lat="44.60287" lon="0.77355">
        <ele>168.2</ele>
        <time>2026-08-15T07:59:00Z</time>
      </trkpt>
      <trkpt lat="44.60286" lon="0.7735">
        <ele>168</ele>
        <time>2026-08-15T07:59:01Z</time>
      </trkpt>
      <trkpt lat="44.60286" lon="0.77344">
        <ele>167.8</ele>
        <time>2026-08-15T07:59:02Z</time>
      </trkpt>
      <trkpt lat="44.60285" lon="0.77338">
        <ele>167.6</ele>
        <time>2026-08-15T07:59:03Z</time>
      </trkpt>
      <trkpt lat="44.60284" lon="0.77332">
        <ele>167.6</ele>
        <time>2026-08-15T07:59:04Z</time>
      </trkpt>
      <trkpt lat="44.60284" lon="0.77327">
        <ele>167.6</ele>
        <time>2026-08-15T07:59:05Z</time>
      </trkpt>
      <trkpt lat="44.60283" lon="0.77321">
        <ele>167.4</ele>
        <time>2026-08-15T07:59:06Z</time>
      </trkpt>
      <trkpt lat="44.60282" lon="0.77315">
        <ele>167.4</ele>
        <time>2026-08-15T07:59:07Z</time>
      </trkpt>
      <trkpt lat="44.60281" lon="0.7731">
        <ele>167.4</ele>
        <time>2026-08-15T07:59:08Z</time>
      </trkpt>
      <trkpt lat="44.60279" lon="0.77304">
        <ele>167.4</ele>
        <time>2026-08-15T07:59:09Z</time>
      </trkpt>
      <trkpt lat="44.60278" lon="0.77298">
        <ele>167.4</ele>
        <time>2026-08-15T07:59:10Z</time>
      </trkpt>
      <trkpt lat="44.60276" lon="0.77292">
        <ele>167.4</ele>
        <time>2026-08-15T07:59:11Z</time>
      </trkpt>
      <trkpt lat="44.60275" lon="0.77287">
        <ele>167.4</ele>
        <time>2026-08-15T07:59:12Z</time>
      </trkpt>
      <trkpt lat="44.60274" lon="0.77281">
        <ele>167.4</ele>
        <time>2026-08-15T07:59:13Z</time>
      </trkpt>
      <trkpt lat="44.60273" lon="0.77276">
        <ele>167.6</ele>
        <time>2026-08-15T07:59:14Z</time>
      </trkpt>
      <trkpt lat="44.60272" lon="0.77271">
        <ele>167.6</ele>
        <time>2026-08-15T07:59:15Z</time>
      </trkpt>
      <trkpt lat="44.60271" lon="0.77266">
        <ele>167.8</ele>
        <time>2026-08-15T07:59:16Z</time>
      </trkpt>
      <trkpt lat="44.6027" lon="0.77262">
        <ele>168</ele>
        <time>2026-08-15T07:59:17Z</time>
      </trkpt>
      <trkpt lat="44.60269" lon="0.77257">
        <ele>168.2</ele>
        <time>2026-08-15T07:59:18Z</time>
      </trkpt>
      <trkpt lat="44.60268" lon="0.77253">
        <ele>168.4</ele>
        <time>2026-08-15T07:59:19Z</time>
      </trkpt>
      <trkpt lat="44.60266" lon="0.77248">
        <ele>168.6</ele>
        <time>2026-08-15T07:59:20Z</time>
      </trkpt>
      <trkpt lat="44.60265" lon="0.77244">
        <ele>168.8</ele>
        <time>2026-08-15T07:59:21Z</time>
      </trkpt>
      <trkpt lat="44.60264" lon="0.7724">
        <ele>169.2</ele>
        <time>2026-08-15T07:59:22Z</time>
      </trkpt>
      <trkpt lat="44.60262" lon="0.77236">
        <ele>169.4</ele>
        <time>2026-08-15T07:59:23Z</time>
      </trkpt>
      <trkpt lat="44.60261" lon="0.77233">
        <ele>169.6</ele>
        <time>2026-08-15T07:59:24Z</time>
      </trkpt>
      <trkpt lat="44.60259" lon="0.77229">
        <ele>169.8</ele>
        <time>2026-08-15T07:59:25Z</time>
      </trkpt>
      <trkpt lat="44.60258" lon="0.77226">
        <ele>170.2</ele>
        <time>2026-08-15T07:59:26Z</time>
      </trkpt>
      <trkpt lat="44.60256" lon="0.77222">
        <ele>170.6</ele>
        <time>2026-08-15T07:59:27Z</time>
      </trkpt>
      <trkpt lat="44.60255" lon="0.77219">
        <ele>171</ele>
        <time>2026-08-15T07:59:28Z</time>
      </trkpt>
      <trkpt lat="44.60253" lon="0.77216">
        <ele>171.4</ele>
        <time>2026-08-15T07:59:29Z</time>
      </trkpt>
      <trkpt lat="44.60251" lon="0.77214">
        <ele>171.6</ele>
        <time>2026-08-15T07:59:30Z</time>
      </trkpt>
      <trkpt lat="44.60249" lon="0.77211">
        <ele>172</ele>
        <time>2026-08-15T07:59:31Z</time>
      </trkpt>
      <trkpt lat="44.60247" lon="0.77208">
        <ele>172.2</ele>
        <time>2026-08-15T07:59:32Z</time>
      </trkpt>
      <trkpt lat="44.60245" lon="0.77205">
        <ele>172.6</ele>
        <time>2026-08-15T07:59:33Z</time>
      </trkpt>
      <trkpt lat="44.60243" lon="0.77202">
        <ele>172.6</ele>
        <time>2026-08-15T07:59:34Z</time>
      </trkpt>
      <trkpt lat="44.60241" lon="0.77199">
        <ele>172.6</ele>
        <time>2026-08-15T07:59:35Z</time>
      </trkpt>
      <trkpt lat="44.60239" lon="0.77195">
        <ele>172.8</ele>
        <time>2026-08-15T07:59:36Z</time>
      </trkpt>
      <trkpt lat="44.60238" lon="0.77191">
        <ele>172.6</ele>
        <time>2026-08-15T07:59:37Z</time>
      </trkpt>
      <trkpt lat="44.60237" lon="0.77185">
        <ele>172.6</ele>
        <time>2026-08-15T07:59:38Z</time>
      </trkpt>
      <trkpt lat="44.60236" lon="0.77178">
        <ele>172.6</ele>
        <time>2026-08-15T07:59:39Z</time>
      </trkpt>
      <trkpt lat="44.60235" lon="0.77171">
        <ele>172.4</ele>
        <time>2026-08-15T07:59:40Z</time>
      </trkpt>
      <trkpt lat="44.60235" lon="0.77165">
        <ele>172</ele>
        <time>2026-08-15T07:59:41Z</time>
      </trkpt>
      <trkpt lat="44.60235" lon="0.77158">
        <ele>171.6</ele>
        <time>2026-08-15T07:59:42Z</time>
      </trkpt>
      <trkpt lat="44.60234" lon="0.77152">
        <ele>171.2</ele>
        <time>2026-08-15T07:59:43Z</time>
      </trkpt>
      <trkpt lat="44.60233" lon="0.77145">
        <ele>170.8</ele>
        <time>2026-08-15T07:59:44Z</time>
      </trkpt>
      <trkpt lat="44.60231" lon="0.77139">
        <ele>170.6</ele>
        <time>2026-08-15T07:59:45Z</time>
      </trkpt>
      <trkpt lat="44.60229" lon="0.77132">
        <ele>170.2</ele>
        <time>2026-08-15T07:59:46Z</time>
      </trkpt>
      <trkpt lat="44.60227" lon="0.77126">
        <ele>169.8</ele>
        <time>2026-08-15T07:59:47Z</time>
      </trkpt>
      <trkpt lat="44.60224" lon="0.77119">
        <ele>169.6</ele>
        <time>2026-08-15T07:59:48Z</time>
      </trkpt>
      <trkpt lat="44.6022" lon="0.7711">
        <ele>169.4</ele>
        <time>2026-08-15T07:59:49Z</time>
      </trkpt>
      <trkpt lat="44.60217" lon="0.77104">
        <ele>169.4</ele>
        <time>2026-08-15T07:59:50Z</time>
      </trkpt>
      <trkpt lat="44.60214" lon="0.77097">
        <ele>169.2</ele>
        <time>2026-08-15T07:59:51Z</time>
      </trkpt>
      <trkpt lat="44.60212" lon="0.77093">
        <ele>169</ele>
        <time>2026-08-15T07:59:52Z</time>
      </trkpt>
      <trkpt lat="44.60209" lon="0.77088">
        <ele>168.8</ele>
        <time>2026-08-15T07:59:53Z</time>
      </trkpt>
      <trkpt lat="44.60206" lon="0.77081">
        <ele>168.8</ele>
        <time>2026-08-15T07:59:54Z</time>
      </trkpt>
      <trkpt lat="44.60204" lon="0.77075">
        <ele>168.6</ele>
        <time>2026-08-15T07:59:55Z</time>
      </trkpt>
      <trkpt lat="44.60202" lon="0.77068">
        <ele>168.6</ele>
        <time>2026-08-15T07:59:56Z</time>
      </trkpt>
      <trkpt lat="44.602" lon="0.77062">
        <ele>168.6</ele>
        <time>2026-08-15T07:59:57Z</time>
      </trkpt>
      <trkpt lat="44.60198" lon="0.77055">
        <ele>168.4</ele>
        <time>2026-08-15T07:59:58Z</time>
      </trkpt>
      <trkpt lat="44.60198" lon="0.77048">
        <ele>168.4</ele>
        <time>2026-08-15T07:59:59Z</time>
      </trkpt>
      <trkpt lat="44.60197" lon="0.77042">
        <ele>168.2</ele>
        <time>2026-08-15T08:00:00Z</time>
      </trkpt>
      <trkpt lat="44.60197" lon="0.77036">
        <ele>168.2</ele>
        <time>2026-08-15T08:00:01Z</time>
      </trkpt>
      <trkpt lat="44.60197" lon="0.7703">
        <ele>168.2</ele>
        <time>2026-08-15T08:00:02Z</time>
      </trkpt>
      <trkpt lat="44.60197" lon="0.77024">
        <ele>168.2</ele>
        <time>2026-08-15T08:00:03Z</time>
      </trkpt>
      <trkpt lat="44.60197" lon="0.77018">
        <ele>168.2</ele>
        <time>2026-08-15T08:00:04Z</time>
      </trkpt>
      <trkpt lat="44.60197" lon="0.77012">
        <ele>168.2</ele>
        <time>2026-08-15T08:00:05Z</time>
      </trkpt>
      <trkpt lat="44.60197" lon="0.77006">
        <ele>168.2</ele>
        <time>2026-08-15T08:00:06Z</time>
      </trkpt>
      <trkpt lat="44.60196" lon="0.77">
        <ele>168.2</ele>
        <time>2026-08-15T08:00:07Z</time>
      </trkpt>
      <trkpt lat="44.60196" lon="0.76994">
        <ele>168.4</ele>
        <time>2026-08-15T08:00:08Z</time>
      </trkpt>
      <trkpt lat="44.60194" lon="0.76988">
        <ele>168.4</ele>
        <time>2026-08-15T08:00:09Z</time>
      </trkpt>
      <trkpt lat="44.60193" lon="0.76983">
        <ele>168.6</ele>
        <time>2026-08-15T08:00:10Z</time>
      </trkpt>
      <trkpt lat="44.60191" lon="0.76978">
        <ele>168.8</ele>
        <time>2026-08-15T08:00:11Z</time>
      </trkpt>
      <trkpt lat="44.6019" lon="0.76972">
        <ele>169</ele>
        <time>2026-08-15T08:00:12Z</time>
      </trkpt>
      <trkpt lat="44.60188" lon="0.76967">
        <ele>169.2</ele>
        <time>2026-08-15T08:00:13Z</time>
      </trkpt>
      <trkpt lat="44.60187" lon="0.76962">
        <ele>169.4</ele>
        <time>2026-08-15T08:00:14Z</time>
      </trkpt>
      <trkpt lat="44.60185" lon="0.76957">
        <ele>169.6</ele>
        <time>2026-08-15T08:00:15Z</time>
      </trkpt>
      <trkpt lat="44.60184" lon="0.76952">
        <ele>169.8</ele>
        <time>2026-08-15T08:00:16Z</time>
      </trkpt>
      <trkpt lat="44.60183" lon="0.76947">
        <ele>170</ele>
        <time>2026-08-15T08:00:17Z</time>
      </trkpt>
      <trkpt lat="44.60181" lon="0.76942">
        <ele>170.2</ele>
        <time>2026-08-15T08:00:18Z</time>
      </trkpt>
      <trkpt lat="44.6018" lon="0.76937">
        <ele>170.4</ele>
        <time>2026-08-15T08:00:19Z</time>
      </trkpt>
      <trkpt lat="44.60178" lon="0.76932">
        <ele>170.6</ele>
        <time>2026-08-15T08:00:20Z</time>
      </trkpt>
      <trkpt lat="44.60177" lon="0.76927">
        <ele>170.8</ele>
        <time>2026-08-15T08:00:21Z</time>
      </trkpt>
      <trkpt lat="44.60176" lon="0.76923">
        <ele>171.2</ele>
        <time>2026-08-15T08:00:22Z</time>
      </trkpt>
      <trkpt lat="44.60174" lon="0.76919">
        <ele>171.4</ele>
        <time>2026-08-15T08:00:23Z</time>
      </trkpt>
      <trkpt lat="44.60172" lon="0.76915">
        <ele>171.4</ele>
        <time>2026-08-15T08:00:24Z</time>
      </trkpt>
      <trkpt lat="44.6017" lon="0.76912">
        <ele>171.6</ele>
        <time>2026-08-15T08:00:25Z</time>
      </trkpt>
      <trkpt lat="44.60168" lon="0.76909">
        <ele>171.6</ele>
        <time>2026-08-15T08:00:26Z</time>
      </trkpt>
      <trkpt lat="44.60166" lon="0.76907">
        <ele>171.8</ele>
        <time>2026-08-15T08:00:27Z</time>
      </trkpt>
      <trkpt lat="44.60163" lon="0.76906">
        <ele>171.8</ele>
        <time>2026-08-15T08:00:28Z</time>
      </trkpt>
      <trkpt lat="44.6016" lon="0.76906">
        <ele>172</ele>
        <time>2026-08-15T08:00:29Z</time>
      </trkpt>
      <trkpt lat="44.60157" lon="0.76906">
        <ele>172.2</ele>
        <time>2026-08-15T08:00:30Z</time>
      </trkpt>
      <trkpt lat="44.60153" lon="0.76906">
        <ele>172.2</ele>
        <time>2026-08-15T08:00:31Z</time>
      </trkpt>
      <trkpt lat="44.60149" lon="0.76907">
        <ele>172.4</ele>
        <time>2026-08-15T08:00:32Z</time>
      </trkpt>
      <trkpt lat="44.60146" lon="0.76907">
        <ele>172.6</ele>
        <time>2026-08-15T08:00:33Z</time>
      </trkpt>
      <trkpt lat="44.60142" lon="0.76907">
        <ele>172.6</ele>
        <time>2026-08-15T08:00:34Z</time>
      </trkpt>
      <trkpt lat="44.60138" lon="0.76907">
        <ele>172.6</ele>
        <time>2026-08-15T08:00:35Z</time>
      </trkpt>
      <trkpt lat="44.60134" lon="0.76908">
        <ele>172.6</ele>
        <time>2026-08-15T08:00:36Z</time>
      </trkpt>
      <trkpt lat="44.60131" lon="0.76908">
        <ele>172.6</ele>
        <time>2026-08-15T08:00:37Z</time>
      </trkpt>
      <trkpt lat="44.60127" lon="0.76908">
        <ele>172.6</ele>
        <time>2026-08-15T08:00:38Z</time>
      </trkpt>
      <trkpt lat="44.60123" lon="0.76908">
        <ele>172.6</ele>
        <time>2026-08-15T08:00:39Z</time>
      </trkpt>
      <trkpt lat="44.60119" lon="0.76908">
        <ele>172.6</ele>
        <time>2026-08-15T08:00:40Z</time>
      </trkpt>
      <trkpt lat="44.60115" lon="0.76907">
        <ele>172.8</ele>
        <time>2026-08-15T08:00:41Z</time>
      </trkpt>
      <trkpt lat="44.60111" lon="0.76907">
        <ele>172.8</ele>
        <time>2026-08-15T08:00:42Z</time>
      </trkpt>
      <trkpt lat="44.60107" lon="0.76906">
        <ele>173.2</ele>
        <time>2026-08-15T08:00:43Z</time>
      </trkpt>
      <trkpt lat="44.60103" lon="0.76905">
        <ele>173.2</ele>
        <time>2026-08-15T08:00:44Z</time>
      </trkpt>
      <trkpt lat="44.60099" lon="0.76904">
        <ele>173.2</ele>
        <time>2026-08-15T08:00:45Z</time>
      </trkpt>
      <trkpt lat="44.60095" lon="0.76902">
        <ele>173.4</ele>
        <time>2026-08-15T08:00:46Z</time>
      </trkpt>
      <trkpt lat="44.60091" lon="0.76901">
        <ele>173.4</ele>
        <time>2026-08-15T08:00:47Z</time>
      </trkpt>
      <trkpt lat="44.60088" lon="0.76899">
        <ele>173.4</ele>
        <time>2026-08-15T08:00:48Z</time>
      </trkpt>
      <trkpt lat="44.60084" lon="0.76897">
        <ele>173.6</ele>
        <time>2026-08-15T08:00:49Z</time>
      </trkpt>
      <trkpt lat="44.6008" lon="0.76895">
        <ele>173.6</ele>
        <time>2026-08-15T08:00:50Z</time>
      </trkpt>
      <trkpt lat="44.60077" lon="0.76894">
        <ele>173.6</ele>
        <time>2026-08-15T08:00:51Z</time>
      </trkpt>
      <trkpt lat="44.60073" lon="0.76892">
        <ele>173.8</ele>
        <time>2026-08-15T08:00:52Z</time>
      </trkpt>
      <trkpt lat="44.6007" lon="0.7689">
        <ele>173.8</ele>
        <time>2026-08-15T08:00:53Z</time>
      </trkpt>
      <trkpt lat="44.60066" lon="0.76889">
        <ele>174</ele>
        <time>2026-08-15T08:00:54Z</time>
      </trkpt>
      <trkpt lat="44.60062" lon="0.76887">
        <ele>174.2</ele>
        <time>2026-08-15T08:00:55Z</time>
      </trkpt>
      <trkpt lat="44.60059" lon="0.76885">
        <ele>174.2</ele>
        <time>2026-08-15T08:00:56Z</time>
      </trkpt>
      <trkpt lat="44.60055" lon="0.76884">
        <ele>174.4</ele>
        <time>2026-08-15T08:00:57Z</time>
      </trkpt>
      <trkpt lat="44.60052" lon="0.76883">
        <ele>174.4</ele>
        <time>2026-08-15T08:00:58Z</time>
      </trkpt>
      <trkpt lat="44.60048" lon="0.76881">
        <ele>174.6</ele>
        <time>2026-08-15T08:00:59Z</time>
      </trkpt>
      <trkpt lat="44.60044" lon="0.7688">
        <ele>174.6</ele>
        <time>2026-08-15T08:01:00Z</time>
      </trkpt>
      <trkpt lat="44.6004" lon="0.76879">
        <ele>174.8</ele>
        <time>2026-08-15T08:01:01Z</time>
      </trkpt>
      <trkpt lat="44.60037" lon="0.76878">
        <ele>175</ele>
        <time>2026-08-15T08:01:02Z</time>
      </trkpt>
      <trkpt lat="44.60033" lon="0.76877">
        <ele>175.2</ele>
        <time>2026-08-15T08:01:03Z</time>
      </trkpt>
      <trkpt lat="44.60029" lon="0.76877">
        <ele>175.2</ele>
        <time>2026-08-15T08:01:04Z</time>
      </trkpt>
      <trkpt lat="44.60025" lon="0.76876">
        <ele>175.4</ele>
        <time>2026-08-15T08:01:05Z</time>
      </trkpt>
      <trkpt lat="44.60021" lon="0.76876">
        <ele>175.4</ele>
        <time>2026-08-15T08:01:06Z</time>
      </trkpt>
      <trkpt lat="44.60018" lon="0.76876">
        <ele>175.4</ele>
        <time>2026-08-15T08:01:07Z</time>
      </trkpt>
      <trkpt lat="44.60014" lon="0.76875">
        <ele>175.4</ele>
        <time>2026-08-15T08:01:08Z</time>
      </trkpt>
      <trkpt lat="44.6001" lon="0.76875">
        <ele>175.4</ele>
        <time>2026-08-15T08:01:09Z</time>
      </trkpt>
      <trkpt lat="44.60006" lon="0.76875">
        <ele>175.4</ele>
        <time>2026-08-15T08:01:10Z</time>
      </trkpt>
      <trkpt lat="44.60001" lon="0.76875">
        <ele>175.4</ele>
        <time>2026-08-15T08:01:11Z</time>
      </trkpt>
      <trkpt lat="44.59997" lon="0.76875">
        <ele>175.4</ele>
        <time>2026-08-15T08:01:12Z</time>
      </trkpt>
      <trkpt lat="44.59992" lon="0.76875">
        <ele>175.2</ele>
        <time>2026-08-15T08:01:13Z</time>
      </trkpt>
      <trkpt lat="44.59987" lon="0.76875">
        <ele>175</ele>
        <time>2026-08-15T08:01:14Z</time>
      </trkpt>
      <trkpt lat="44.59983" lon="0.76874">
        <ele>174.8</ele>
        <time>2026-08-15T08:01:15Z</time>
      </trkpt>
      <trkpt lat="44.59979" lon="0.76874">
        <ele>174.6</ele>
        <time>2026-08-15T08:01:16Z</time>
      </trkpt>
      <trkpt lat="44.59975" lon="0.76874">
        <ele>174.6</ele>
        <time>2026-08-15T08:01:17Z</time>
      </trkpt>
      <trkpt lat="44.5997" lon="0.76873">
        <ele>174.4</ele>
        <time>2026-08-15T08:01:18Z</time>
      </trkpt>
      <trkpt lat="44.59966" lon="0.76873">
        <ele>174</ele>
        <time>2026-08-15T08:01:19Z</time>
      </trkpt>
      <trkpt lat="44.59962" lon="0.76873">
        <ele>173.6</ele>
        <time>2026-08-15T08:01:20Z</time>
      </trkpt>
      <trkpt lat="44.59958" lon="0.76874">
        <ele>173.4</ele>
        <time>2026-08-15T08:01:21Z</time>
      </trkpt>
      <trkpt lat="44.59956" lon="0.76874">
        <ele>172.8</ele>
        <time>2026-08-15T08:01:22Z</time>
      </trkpt>
      <trkpt lat="44.59954" lon="0.76874">
        <ele>172.6</ele>
        <time>2026-08-15T08:01:23Z</time>
      </trkpt>
      <trkpt lat="44.59952" lon="0.76873">
        <ele>172.4</ele>
        <time>2026-08-15T08:01:24Z</time>
      </trkpt>
      <trkpt lat="44.59951" lon="0.76873">
        <ele>172.4</ele>
        <time>2026-08-15T08:01:25Z</time>
      </trkpt>
      <trkpt lat="44.5995" lon="0.76873">
        <ele>172.2</ele>
        <time>2026-08-15T08:01:26Z</time>
      </trkpt>
      <trkpt lat="44.59949" lon="0.76873">
        <ele>172</ele>
        <time>2026-08-15T08:01:27Z</time>
      </trkpt>
      <trkpt lat="44.59948" lon="0.76873">
        <ele>171.8</ele>
        <time>2026-08-15T08:01:28Z</time>
      </trkpt>
      <trkpt lat="44.59946" lon="0.76873">
        <ele>171.8</ele>
        <time>2026-08-15T08:01:29Z</time>
      </trkpt>
      <trkpt lat="44.59943" lon="0.76873">
        <ele>171.8</ele>
        <time>2026-08-15T08:01:30Z</time>
      </trkpt>
      <trkpt lat="44.5994" lon="0.76873">
        <ele>171.6</ele>
        <time>2026-08-15T08:01:31Z</time>
      </trkpt>
      <trkpt lat="44.59935" lon="0.76873">
        <ele>171.4</ele>
        <time>2026-08-15T08:01:32Z</time>
      </trkpt>
      <trkpt lat="44.59931" lon="0.76872">
        <ele>171.2</ele>
        <time>2026-08-15T08:01:33Z</time>
      </trkpt>
      <trkpt lat="44.59927" lon="0.76872">
        <ele>171</ele>
        <time>2026-08-15T08:01:34Z</time>
      </trkpt>
      <trkpt lat="44.59923" lon="0.76872">
        <ele>170.8</ele>
        <time>2026-08-15T08:01:35Z</time>
      </trkpt>
      <trkpt lat="44.59918" lon="0.76872">
        <ele>170.6</ele>
        <time>2026-08-15T08:01:36Z</time>
      </trkpt>
      <trkpt lat="44.59914" lon="0.76872">
        <ele>170.4</ele>
        <time>2026-08-15T08:01:37Z</time>
      </trkpt>
      <trkpt lat="44.59909" lon="0.76872">
        <ele>170.2</ele>
        <time>2026-08-15T08:01:38Z</time>
      </trkpt>
      <trkpt lat="44.59904" lon="0.76872">
        <ele>169.8</ele>
        <time>2026-08-15T08:01:39Z</time>
      </trkpt>
      <trkpt lat="44.59899" lon="0.76872">
        <ele>169.6</ele>
        <time>2026-08-15T08:01:40Z</time>
      </trkpt>
      <trkpt lat="44.59893" lon="0.76872">
        <ele>169.6</ele>
        <time>2026-08-15T08:01:41Z</time>
      </trkpt>
      <trkpt lat="44.59888" lon="0.76873">
        <ele>169.2</ele>
        <time>2026-08-15T08:01:42Z</time>
      </trkpt>
      <trkpt lat="44.5988" lon="0.76874">
        <ele>168.8</ele>
        <time>2026-08-15T08:01:43Z</time>
      </trkpt>
      <trkpt lat="44.59875" lon="0.76876">
        <ele>168.6</ele>
        <time>2026-08-15T08:01:44Z</time>
      </trkpt>
      <trkpt lat="44.59869" lon="0.76877">
        <ele>168.4</ele>
        <time>2026-08-15T08:01:45Z</time>
      </trkpt>
      <trkpt lat="44.59864" lon="0.76877">
        <ele>168.4</ele>
        <time>2026-08-15T08:01:46Z</time>
      </trkpt>
      <trkpt lat="44.59861" lon="0.76877">
        <ele>168.2</ele>
        <time>2026-08-15T08:01:47Z</time>
      </trkpt>
      <trkpt lat="44.59857" lon="0.76877">
        <ele>168.2</ele>
        <time>2026-08-15T08:01:48Z</time>
      </trkpt>
      <trkpt lat="44.59853" lon="0.76877">
        <ele>168.2</ele>
        <time>2026-08-15T08:01:49Z</time>
      </trkpt>
      <trkpt lat="44.59849" lon="0.76876">
        <ele>168.4</ele>
        <time>2026-08-15T08:01:50Z</time>
      </trkpt>
      <trkpt lat="44.59845" lon="0.76876">
        <ele>168.4</ele>
        <time>2026-08-15T08:01:51Z</time>
      </trkpt>
      <trkpt lat="44.59842" lon="0.76876">
        <ele>168.6</ele>
        <time>2026-08-15T08:01:52Z</time>
      </trkpt>
      <trkpt lat="44.59837" lon="0.76876">
        <ele>168.6</ele>
        <time>2026-08-15T08:01:53Z</time>
      </trkpt>
      <trkpt lat="44.59833" lon="0.76876">
        <ele>168.6</ele>
        <time>2026-08-15T08:01:54Z</time>
      </trkpt>
      <trkpt lat="44.59829" lon="0.76876">
        <ele>168.8</ele>
        <time>2026-08-15T08:01:55Z</time>
      </trkpt>
      <trkpt lat="44.59824" lon="0.76877">
        <ele>168.8</ele>
        <time>2026-08-15T08:01:56Z</time>
      </trkpt>
      <trkpt lat="44.5982" lon="0.76877">
        <ele>169</ele>
        <time>2026-08-15T08:01:57Z</time>
      </trkpt>
      <trkpt lat="44.59816" lon="0.76877">
        <ele>169.2</ele>
        <time>2026-08-15T08:01:58Z</time>
      </trkpt>
      <trkpt lat="44.59811" lon="0.76877">
        <ele>169.4</ele>
        <time>2026-08-15T08:01:59Z</time>
      </trkpt>
      <trkpt lat="44.59807" lon="0.76877">
        <ele>169.4</ele>
        <time>2026-08-15T08:02:00Z</time>
      </trkpt>
      <trkpt lat="44.59803" lon="0.76877">
        <ele>169.6</ele>
        <time>2026-08-15T08:02:01Z</time>
      </trkpt>
      <trkpt lat="44.59798" lon="0.76877">
        <ele>169.8</ele>
        <time>2026-08-15T08:02:02Z</time>
      </trkpt>
      <trkpt lat="44.59794" lon="0.76877">
        <ele>170</ele>
        <time>2026-08-15T08:02:03Z</time>
      </trkpt>
      <trkpt lat="44.5979" lon="0.76876">
        <ele>170.2</ele>
        <time>2026-08-15T08:02:04Z</time>
      </trkpt>
      <trkpt lat="44.59787" lon="0.76875">
        <ele>170.4</ele>
        <time>2026-08-15T08:02:05Z</time>
      </trkpt>
      <trkpt lat="44.59783" lon="0.76874">
        <ele>170.6</ele>
        <time>2026-08-15T08:02:06Z</time>
      </trkpt>
      <trkpt lat="44.5978" lon="0.76872">
        <ele>170.6</ele>
        <time>2026-08-15T08:02:07Z</time>
      </trkpt>
      <trkpt lat="44.59776" lon="0.76871">
        <ele>170.8</ele>
        <time>2026-08-15T08:02:08Z</time>
      </trkpt>
      <trkpt lat="44.59773" lon="0.76869">
        <ele>171.2</ele>
        <time>2026-08-15T08:02:09Z</time>
      </trkpt>
      <trkpt lat="44.5977" lon="0.76867">
        <ele>171.6</ele>
        <time>2026-08-15T08:02:10Z</time>
      </trkpt>
      <trkpt lat="44.59766" lon="0.76865">
        <ele>171.6</ele>
        <time>2026-08-15T08:02:11Z</time>
      </trkpt>
      <trkpt lat="44.59763" lon="0.76863">
        <ele>171.8</ele>
        <time>2026-08-15T08:02:12Z</time>
      </trkpt>
      <trkpt lat="44.59761" lon="0.76861">
        <ele>171.8</ele>
        <time>2026-08-15T08:02:13Z</time>
      </trkpt>
      <trkpt lat="44.59758" lon="0.76859">
        <ele>172</ele>
        <time>2026-08-15T08:02:14Z</time>
      </trkpt>
      <trkpt lat="44.59755" lon="0.76857">
        <ele>172</ele>
        <time>2026-08-15T08:02:15Z</time>
      </trkpt>
      <trkpt lat="44.59751" lon="0.76854">
        <ele>172.2</ele>
        <time>2026-08-15T08:02:16Z</time>
      </trkpt>
      <trkpt lat="44.59748" lon="0.76852">
        <ele>172.2</ele>
        <time>2026-08-15T08:02:17Z</time>
      </trkpt>
      <trkpt lat="44.59744" lon="0.76849">
        <ele>172.2</ele>
        <time>2026-08-15T08:02:18Z</time>
      </trkpt>
      <trkpt lat="44.5974" lon="0.76846">
        <ele>172</ele>
        <time>2026-08-15T08:02:19Z</time>
      </trkpt>
      <trkpt lat="44.59736" lon="0.76843">
        <ele>172</ele>
        <time>2026-08-15T08:02:20Z</time>
      </trkpt>
      <trkpt lat="44.59732" lon="0.7684">
        <ele>171.8</ele>
        <time>2026-08-15T08:02:21Z</time>
      </trkpt>
      <trkpt lat="44.59728" lon="0.76837">
        <ele>171.6</ele>
        <time>2026-08-15T08:02:22Z</time>
      </trkpt>
      <trkpt lat="44.59723" lon="0.76834">
        <ele>171.4</ele>
        <time>2026-08-15T08:02:23Z</time>
      </trkpt>
      <trkpt lat="44.59718" lon="0.76831">
        <ele>171.2</ele>
        <time>2026-08-15T08:02:24Z</time>
      </trkpt>
      <trkpt lat="44.59711" lon="0.76828">
        <ele>170.6</ele>
        <time>2026-08-15T08:02:25Z</time>
      </trkpt>
      <trkpt lat="44.59705" lon="0.76825">
        <ele>170.4</ele>
        <time>2026-08-15T08:02:26Z</time>
      </trkpt>
      <trkpt lat="44.597" lon="0.76823">
        <ele>170</ele>
        <time>2026-08-15T08:02:27Z</time>
      </trkpt>
      <trkpt lat="44.59695" lon="0.76821">
        <ele>169.6</ele>
        <time>2026-08-15T08:02:28Z</time>
      </trkpt>
      <trkpt lat="44.59692" lon="0.76819">
        <ele>169.2</ele>
        <time>2026-08-15T08:02:29Z</time>
      </trkpt>
      <trkpt lat="44.59687" lon="0.76818">
        <ele>168.6</ele>
        <time>2026-08-15T08:02:30Z</time>
      </trkpt>
      <trkpt lat="44.59683" lon="0.76816">
        <ele>168.2</ele>
        <time>2026-08-15T08:02:31Z</time>
      </trkpt>
      <trkpt lat="44.59678" lon="0.76814">
        <ele>167.6</ele>
        <time>2026-08-15T08:02:32Z</time>
      </trkpt>
      <trkpt lat="44.59674" lon="0.76812">
        <ele>167</ele>
        <time>2026-08-15T08:02:33Z</time>
      </trkpt>
      <trkpt lat="44.59672" lon="0.7681">
        <ele>166.6</ele>
        <time>2026-08-15T08:02:34Z</time>
      </trkpt>
      <trkpt lat="44.59669" lon="0.76809">
        <ele>165</ele>
        <time>2026-08-15T08:02:49Z</time>
      </trkpt>
      <trkpt lat="44.59667" lon="0.76808">
        <ele>165</ele>
        <time>2026-08-15T08:02:50Z</time>
      </trkpt>
      <trkpt lat="44.59665" lon="0.76807">
        <ele>165</ele>
        <time>2026-08-15T08:02:51Z</time>
      </trkpt>
      <trkpt lat="44.5966" lon="0.76805">
        <ele>164.8</ele>
        <time>2026-08-15T08:02:52Z</time>
      </trkpt>
      <trkpt lat="44.59658" lon="0.76804">
        <ele>164.8</ele>
        <time>2026-08-15T08:02:53Z</time>
      </trkpt>
      <trkpt lat="44.59654" lon="0.76802">
        <ele>164.6</ele>
        <time>2026-08-15T08:02:54Z</time>
      </trkpt>
      <trkpt lat="44.59648" lon="0.76799">
        <ele>164.4</ele>
        <time>2026-08-15T08:02:55Z</time>
      </trkpt>
      <trkpt lat="44.59643" lon="0.76797">
        <ele>164.4</ele>
        <time>2026-08-15T08:02:56Z</time>
      </trkpt>
      <trkpt lat="44.59639" lon="0.76795">
        <ele>163.8</ele>
        <time>2026-08-15T08:02:57Z</time>
      </trkpt>
      <trkpt lat="44.59635" lon="0.76793">
        <ele>163.6</ele>
        <time>2026-08-15T08:02:58Z</time>
      </trkpt>
      <trkpt lat="44.59631" lon="0.76791">
        <ele>163.2</ele>
        <time>2026-08-15T08:02:59Z</time>
      </trkpt>
      <trkpt lat="44.59627" lon="0.7679">
        <ele>162.8</ele>
        <time>2026-08-15T08:03:00Z</time>
      </trkpt>
      <trkpt lat="44.59624" lon="0.76788">
        <ele>162.6</ele>
        <time>2026-08-15T08:03:01Z</time>
      </trkpt>
      <trkpt lat="44.59619" lon="0.76787">
        <ele>162.4</ele>
        <time>2026-08-15T08:03:02Z</time>
      </trkpt>
      <trkpt lat="44.59615" lon="0.76785">
        <ele>162.4</ele>
        <time>2026-08-15T08:03:03Z</time>
      </trkpt>
      <trkpt lat="44.59611" lon="0.76784">
        <ele>162</ele>
        <time>2026-08-15T08:03:04Z</time>
      </trkpt>
      <trkpt lat="44.59606" lon="0.76782">
        <ele>161.8</ele>
        <time>2026-08-15T08:03:05Z</time>
      </trkpt>
      <trkpt lat="44.59602" lon="0.7678">
        <ele>161.6</ele>
        <time>2026-08-15T08:03:06Z</time>
      </trkpt>
      <trkpt lat="44.59597" lon="0.76778">
        <ele>161.6</ele>
        <time>2026-08-15T08:03:07Z</time>
      </trkpt>
      <trkpt lat="44.59592" lon="0.76777">
        <ele>161.4</ele>
        <time>2026-08-15T08:03:08Z</time>
      </trkpt>
      <trkpt lat="44.59587" lon="0.76777">
        <ele>161.4</ele>
        <time>2026-08-15T08:03:09Z</time>
      </trkpt>
      <trkpt lat="44.59583" lon="0.76777">
        <ele>161.2</ele>
        <time>2026-08-15T08:03:10Z</time>
      </trkpt>
      <trkpt lat="44.59578" lon="0.76778">
        <ele>161.2</ele>
        <time>2026-08-15T08:03:11Z</time>
      </trkpt>
      <trkpt lat="44.59574" lon="0.76778">
        <ele>160.8</ele>
        <time>2026-08-15T08:03:12Z</time>
      </trkpt>
      <trkpt lat="44.5957" lon="0.76778">
        <ele>160.8</ele>
        <time>2026-08-15T08:03:13Z</time>
      </trkpt>
      <trkpt lat="44.59566" lon="0.76777">
        <ele>160.6</ele>
        <time>2026-08-15T08:03:14Z</time>
      </trkpt>
      <trkpt lat="44.59562" lon="0.76777">
        <ele>160.6</ele>
        <time>2026-08-15T08:03:15Z</time>
      </trkpt>
      <trkpt lat="44.59558" lon="0.76776">
        <ele>160.6</ele>
        <time>2026-08-15T08:03:16Z</time>
      </trkpt>
      <trkpt lat="44.59554" lon="0.76775">
        <ele>160.6</ele>
        <time>2026-08-15T08:03:17Z</time>
      </trkpt>
      <trkpt lat="44.5955" lon="0.76775">
        <ele>160.4</ele>
        <time>2026-08-15T08:03:18Z</time>
      </trkpt>
      <trkpt lat="44.59546" lon="0.76775">
        <ele>160.4</ele>
        <time>2026-08-15T08:03:19Z</time>
      </trkpt>
      <trkpt lat="44.59542" lon="0.76775">
        <ele>160.4</ele>
        <time>2026-08-15T08:03:20Z</time>
      </trkpt>
      <trkpt lat="44.59538" lon="0.76777">
        <ele>160.4</ele>
        <time>2026-08-15T08:03:21Z</time>
      </trkpt>
      <trkpt lat="44.59534" lon="0.76778">
        <ele>160.4</ele>
        <time>2026-08-15T08:03:22Z</time>
      </trkpt>
      <trkpt lat="44.59529" lon="0.76781">
        <ele>160.4</ele>
        <time>2026-08-15T08:03:23Z</time>
      </trkpt>
      <trkpt lat="44.59525" lon="0.76783">
        <ele>160.4</ele>
        <time>2026-08-15T08:03:24Z</time>
      </trkpt>
      <trkpt lat="44.5952" lon="0.76785">
        <ele>160</ele>
        <time>2026-08-15T08:03:25Z</time>
      </trkpt>
      <trkpt lat="44.59515" lon="0.76787">
        <ele>159.8</ele>
        <time>2026-08-15T08:03:26Z</time>
      </trkpt>
      <trkpt lat="44.5951" lon="0.76788">
        <ele>159.6</ele>
        <time>2026-08-15T08:03:27Z</time>
      </trkpt>
      <trkpt lat="44.59504" lon="0.76789">
        <ele>159.4</ele>
        <time>2026-08-15T08:03:28Z</time>
      </trkpt>
      <trkpt lat="44.59499" lon="0.76789">
        <ele>159.2</ele>
        <time>2026-08-15T08:03:29Z</time>
      </trkpt>
      <trkpt lat="44.59493" lon="0.76788">
        <ele>159</ele>
        <time>2026-08-15T08:03:30Z</time>
      </trkpt>
      <trkpt lat="44.59486" lon="0.76787">
        <ele>158.8</ele>
        <time>2026-08-15T08:03:31Z</time>
      </trkpt>
      <trkpt lat="44.59481" lon="0.76786">
        <ele>158.8</ele>
        <time>2026-08-15T08:03:32Z</time>
      </trkpt>
      <trkpt lat="44.59476" lon="0.76784">
        <ele>158.6</ele>
        <time>2026-08-15T08:03:33Z</time>
      </trkpt>
      <trkpt lat="44.59472" lon="0.76782">
        <ele>158.6</ele>
        <time>2026-08-15T08:03:34Z</time>
      </trkpt>
      <trkpt lat="44.59468" lon="0.7678">
        <ele>158.6</ele>
        <time>2026-08-15T08:03:35Z</time>
      </trkpt>
      <trkpt lat="44.59464" lon="0.76779">
        <ele>158.6</ele>
        <time>2026-08-15T08:03:36Z</time>
      </trkpt>
      <trkpt lat="44.59459" lon="0.76778">
        <ele>158.6</ele>
        <time>2026-08-15T08:03:37Z</time>
      </trkpt>
      <trkpt lat="44.59455" lon="0.76777">
        <ele>158.6</ele>
        <time>2026-08-15T08:03:38Z</time>
      </trkpt>
      <trkpt lat="44.59451" lon="0.76775">
        <ele>158.6</ele>
        <time>2026-08-15T08:03:39Z</time>
      </trkpt>
      <trkpt lat="44.59447" lon="0.76774">
        <ele>158.4</ele>
        <time>2026-08-15T08:03:40Z</time>
      </trkpt>
      <trkpt lat="44.59443" lon="0.76773">
        <ele>158.4</ele>
        <time>2026-08-15T08:03:41Z</time>
      </trkpt>
      <trkpt lat="44.59439" lon="0.76772">
        <ele>158.6</ele>
        <time>2026-08-15T08:03:42Z</time>
      </trkpt>
      <trkpt lat="44.59434" lon="0.7677">
        <ele>158.6</ele>
        <time>2026-08-15T08:03:43Z</time>
      </trkpt>
      <trkpt lat="44.5943" lon="0.76769">
        <ele>158.8</ele>
        <time>2026-08-15T08:03:44Z</time>
      </trkpt>
      <trkpt lat="44.59427" lon="0.76768">
        <ele>158.8</ele>
        <time>2026-08-15T08:03:45Z</time>
      </trkpt>
      <trkpt lat="44.59423" lon="0.76767">
        <ele>159.2</ele>
        <time>2026-08-15T08:03:46Z</time>
      </trkpt>
      <trkpt lat="44.59419" lon="0.76765">
        <ele>159.2</ele>
        <time>2026-08-15T08:03:47Z</time>
      </trkpt>
      <trkpt lat="44.59416" lon="0.76764">
        <ele>159.4</ele>
        <time>2026-08-15T08:03:48Z</time>
      </trkpt>
      <trkpt lat="44.59412" lon="0.76762">
        <ele>159.6</ele>
        <time>2026-08-15T08:03:49Z</time>
      </trkpt>
      <trkpt lat="44.59409" lon="0.76761">
        <ele>159.8</ele>
        <time>2026-08-15T08:03:50Z</time>
      </trkpt>
      <trkpt lat="44.59405" lon="0.76759">
        <ele>160</ele>
        <time>2026-08-15T08:03:51Z</time>
      </trkpt>
      <trkpt lat="44.59402" lon="0.76757">
        <ele>160.2</ele>
        <time>2026-08-15T08:03:52Z</time>
      </trkpt>
      <trkpt lat="44.59398" lon="0.76755">
        <ele>160.4</ele>
        <time>2026-08-15T08:03:53Z</time>
      </trkpt>
      <trkpt lat="44.59395" lon="0.76753">
        <ele>160.6</ele>
        <time>2026-08-15T08:03:54Z</time>
      </trkpt>
      <trkpt lat="44.59392" lon="0.7675">
        <ele>160.6</ele>
        <time>2026-08-15T08:03:55Z</time>
      </trkpt>
      <trkpt lat="44.5939" lon="0.76747">
        <ele>160.6</ele>
        <time>2026-08-15T08:03:56Z</time>
      </trkpt>
      <trkpt lat="44.59388" lon="0.76744">
        <ele>160.6</ele>
        <time>2026-08-15T08:03:57Z</time>
      </trkpt>
      <trkpt lat="44.59385" lon="0.76741">
        <ele>160.6</ele>
        <time>2026-08-15T08:03:58Z</time>
      </trkpt>
      <trkpt lat="44.59383" lon="0.76739">
        <ele>160.6</ele>
        <time>2026-08-15T08:03:59Z</time>
      </trkpt>
      <trkpt lat="44.59381" lon="0.76738">
        <ele>160.6</ele>
        <time>2026-08-15T08:04:00Z</time>
      </trkpt>
      <trkpt lat="44.59378" lon="0.76736">
        <ele>160.4</ele>
        <time>2026-08-15T08:04:01Z</time>
      </trkpt>
      <trkpt lat="44.59376" lon="0.76735">
        <ele>160.4</ele>
        <time>2026-08-15T08:04:02Z</time>
      </trkpt>
      <trkpt lat="44.59373" lon="0.76733">
        <ele>160.2</ele>
        <time>2026-08-15T08:04:03Z</time>
      </trkpt>
      <trkpt lat="44.5937" lon="0.76731">
        <ele>160.2</ele>
        <time>2026-08-15T08:04:04Z</time>
      </trkpt>
      <trkpt lat="44.59367" lon="0.76728">
        <ele>160</ele>
        <time>2026-08-15T08:04:05Z</time>
      </trkpt>
      <trkpt lat="44.59365" lon="0.76726">
        <ele>160</ele>
        <time>2026-08-15T08:04:06Z</time>
      </trkpt>
      <trkpt lat="44.59363" lon="0.76723">
        <ele>159.8</ele>
        <time>2026-08-15T08:04:07Z</time>
      </trkpt>
      <trkpt lat="44.59361" lon="0.76719">
        <ele>159.8</ele>
        <time>2026-08-15T08:04:08Z</time>
      </trkpt>
      <trkpt lat="44.59359" lon="0.76716">
        <ele>159.8</ele>
        <time>2026-08-15T08:04:09Z</time>
      </trkpt>
      <trkpt lat="44.59358" lon="0.76712">
        <ele>159.8</ele>
        <time>2026-08-15T08:04:10Z</time>
      </trkpt>
      <trkpt lat="44.59356" lon="0.76708">
        <ele>159.8</ele>
        <time>2026-08-15T08:04:11Z</time>
      </trkpt>
      <trkpt lat="44.59353" lon="0.76705">
        <ele>159.8</ele>
        <time>2026-08-15T08:04:12Z</time>
      </trkpt>
      <trkpt lat="44.59351" lon="0.76701">
        <ele>159.8</ele>
        <time>2026-08-15T08:04:13Z</time>
      </trkpt>
      <trkpt lat="44.59348" lon="0.76697">
        <ele>159.8</ele>
        <time>2026-08-15T08:04:14Z</time>
      </trkpt>
      <trkpt lat="44.59344" lon="0.76693">
        <ele>159.8</ele>
        <time>2026-08-15T08:04:15Z</time>
      </trkpt>
      <trkpt lat="44.59342" lon="0.76689">
        <ele>159.8</ele>
        <time>2026-08-15T08:04:16Z</time>
      </trkpt>
      <trkpt lat="44.59339" lon="0.76685">
        <ele>159.8</ele>
        <time>2026-08-15T08:04:17Z</time>
      </trkpt>
      <trkpt lat="44.59336" lon="0.76681">
        <ele>159.8</ele>
        <time>2026-08-15T08:04:18Z</time>
      </trkpt>
      <trkpt lat="44.59334" lon="0.76677">
        <ele>159.8</ele>
        <time>2026-08-15T08:04:19Z</time>
      </trkpt>
      <trkpt lat="44.59331" lon="0.76674">
        <ele>159.8</ele>
        <time>2026-08-15T08:04:20Z</time>
      </trkpt>
      <trkpt lat="44.59328" lon="0.7667">
        <ele>159.8</ele>
        <time>2026-08-15T08:04:21Z</time>
      </trkpt>
      <trkpt lat="44.59325" lon="0.76668">
        <ele>159.8</ele>
        <time>2026-08-15T08:04:22Z</time>
      </trkpt>
      <trkpt lat="44.59322" lon="0.76666">
        <ele>159.8</ele>
        <time>2026-08-15T08:04:23Z</time>
      </trkpt>
      <trkpt lat="44.59319" lon="0.76664">
        <ele>159.6</ele>
        <time>2026-08-15T08:04:24Z</time>
      </trkpt>
      <trkpt lat="44.59317" lon="0.76663">
        <ele>159.6</ele>
        <time>2026-08-15T08:04:25Z</time>
      </trkpt>
      <trkpt lat="44.59316" lon="0.76662">
        <ele>159.6</ele>
        <time>2026-08-15T08:04:26Z</time>
      </trkpt>
      <trkpt lat="44.59314" lon="0.76661">
        <ele>159.6</ele>
        <time>2026-08-15T08:04:27Z</time>
      </trkpt>
      <trkpt lat="44.59312" lon="0.76661">
        <ele>159.6</ele>
        <time>2026-08-15T08:04:28Z</time>
      </trkpt>
      <trkpt lat="44.5931" lon="0.76661">
        <ele>159.6</ele>
        <time>2026-08-15T08:04:29Z</time>
      </trkpt>
      <trkpt lat="44.59307" lon="0.7666">
        <ele>159.6</ele>
        <time>2026-08-15T08:04:30Z</time>
      </trkpt>
      <trkpt lat="44.59302" lon="0.7666">
        <ele>159.6</ele>
        <time>2026-08-15T08:04:31Z</time>
      </trkpt>
      <trkpt lat="44.59298" lon="0.7666">
        <ele>159.6</ele>
        <time>2026-08-15T08:04:32Z</time>
      </trkpt>
      <trkpt lat="44.59295" lon="0.7666">
        <ele>159.6</ele>
        <time>2026-08-15T08:04:33Z</time>
      </trkpt>
      <trkpt lat="44.59291" lon="0.76661">
        <ele>159.6</ele>
        <time>2026-08-15T08:04:34Z</time>
      </trkpt>
      <trkpt lat="44.59287" lon="0.76661">
        <ele>159.6</ele>
        <time>2026-08-15T08:04:35Z</time>
      </trkpt>
      <trkpt lat="44.59283" lon="0.76662">
        <ele>159.6</ele>
        <time>2026-08-15T08:04:36Z</time>
      </trkpt>
      <trkpt lat="44.5928" lon="0.76662">
        <ele>159.8</ele>
        <time>2026-08-15T08:04:37Z</time>
      </trkpt>
      <trkpt lat="44.59276" lon="0.76661">
        <ele>159.8</ele>
        <time>2026-08-15T08:04:38Z</time>
      </trkpt>
      <trkpt lat="44.59273" lon="0.7666">
        <ele>159.8</ele>
        <time>2026-08-15T08:04:39Z</time>
      </trkpt>
      <trkpt lat="44.5927" lon="0.76658">
        <ele>159.8</ele>
        <time>2026-08-15T08:04:40Z</time>
      </trkpt>
      <trkpt lat="44.59267" lon="0.76656">
        <ele>159.8</ele>
        <time>2026-08-15T08:04:41Z</time>
      </trkpt>
      <trkpt lat="44.59264" lon="0.76652">
        <ele>160</ele>
        <time>2026-08-15T08:04:42Z</time>
      </trkpt>
      <trkpt lat="44.59262" lon="0.76649">
        <ele>160</ele>
        <time>2026-08-15T08:04:43Z</time>
      </trkpt>
      <trkpt lat="44.59259" lon="0.76645">
        <ele>160.2</ele>
        <time>2026-08-15T08:04:44Z</time>
      </trkpt>
      <trkpt lat="44.59257" lon="0.76641">
        <ele>160.2</ele>
        <time>2026-08-15T08:04:45Z</time>
      </trkpt>
      <trkpt lat="44.59254" lon="0.76638">
        <ele>160.2</ele>
        <time>2026-08-15T08:04:46Z</time>
      </trkpt>
      <trkpt lat="44.59252" lon="0.76634">
        <ele>160.4</ele>
        <time>2026-08-15T08:04:47Z</time>
      </trkpt>
      <trkpt lat="44.59249" lon="0.7663">
        <ele>160.6</ele>
        <time>2026-08-15T08:04:48Z</time>
      </trkpt>
      <trkpt lat="44.59247" lon="0.76627">
        <ele>160.4</ele>
        <time>2026-08-15T08:04:49Z</time>
      </trkpt>
      <trkpt lat="44.59244" lon="0.76623">
        <ele>160.4</ele>
        <time>2026-08-15T08:04:50Z</time>
      </trkpt>
      <trkpt lat="44.59242" lon="0.76619">
        <ele>160.6</ele>
        <time>2026-08-15T08:04:51Z</time>
      </trkpt>
      <trkpt lat="44.59239" lon="0.76616">
        <ele>160.6</ele>
        <time>2026-08-15T08:04:52Z</time>
      </trkpt>
      <trkpt lat="44.59237" lon="0.76612">
        <ele>160.6</ele>
        <time>2026-08-15T08:04:53Z</time>
      </trkpt>
      <trkpt lat="44.59235" lon="0.76608">
        <ele>160.6</ele>
        <time>2026-08-15T08:04:54Z</time>
      </trkpt>
      <trkpt lat="44.59232" lon="0.76604">
        <ele>160.6</ele>
        <time>2026-08-15T08:04:55Z</time>
      </trkpt>
      <trkpt lat="44.5923" lon="0.766">
        <ele>160.8</ele>
        <time>2026-08-15T08:04:56Z</time>
      </trkpt>
      <trkpt lat="44.59228" lon="0.76597">
        <ele>160.8</ele>
        <time>2026-08-15T08:04:57Z</time>
      </trkpt>
      <trkpt lat="44.59225" lon="0.76593">
        <ele>161</ele>
        <time>2026-08-15T08:04:58Z</time>
      </trkpt>
      <trkpt lat="44.59223" lon="0.76589">
        <ele>161.2</ele>
        <time>2026-08-15T08:04:59Z</time>
      </trkpt>
      <trkpt lat="44.5922" lon="0.76585">
        <ele>161.4</ele>
        <time>2026-08-15T08:05:00Z</time>
      </trkpt>
      <trkpt lat="44.59217" lon="0.76581">
        <ele>161.6</ele>
        <time>2026-08-15T08:05:01Z</time>
      </trkpt>
      <trkpt lat="44.59214" lon="0.76578">
        <ele>161.8</ele>
        <time>2026-08-15T08:05:02Z</time>
      </trkpt>
      <trkpt lat="44.59212" lon="0.76574">
        <ele>161.8</ele>
        <time>2026-08-15T08:05:03Z</time>
      </trkpt>
      <trkpt lat="44.59209" lon="0.76571">
        <ele>162.2</ele>
        <time>2026-08-15T08:05:04Z</time>
      </trkpt>
      <trkpt lat="44.59207" lon="0.76567">
        <ele>162.4</ele>
        <time>2026-08-15T08:05:05Z</time>
      </trkpt>
      <trkpt lat="44.59204" lon="0.76564">
        <ele>162.6</ele>
        <time>2026-08-15T08:05:06Z</time>
      </trkpt>
      <trkpt lat="44.59201" lon="0.7656">
        <ele>162.6</ele>
        <time>2026-08-15T08:05:07Z</time>
      </trkpt>
      <trkpt lat="44.59199" lon="0.76557">
        <ele>162.8</ele>
        <time>2026-08-15T08:05:08Z</time>
      </trkpt>
      <trkpt lat="44.59196" lon="0.76554">
        <ele>163.4</ele>
        <time>2026-08-15T08:05:09Z</time>
      </trkpt>
      <trkpt lat="44.59194" lon="0.7655">
        <ele>163.6</ele>
        <time>2026-08-15T08:05:10Z</time>
      </trkpt>
      <trkpt lat="44.59191" lon="0.76547">
        <ele>163.6</ele>
        <time>2026-08-15T08:05:11Z</time>
      </trkpt>
      <trkpt lat="44.59189" lon="0.76544">
        <ele>164</ele>
        <time>2026-08-15T08:05:12Z</time>
      </trkpt>
      <trkpt lat="44.59186" lon="0.76541">
        <ele>164.4</ele>
        <time>2026-08-15T08:05:13Z</time>
      </trkpt>
      <trkpt lat="44.59183" lon="0.76538">
        <ele>164.6</ele>
        <time>2026-08-15T08:05:14Z</time>
      </trkpt>
      <trkpt lat="44.59181" lon="0.76535">
        <ele>164.6</ele>
        <time>2026-08-15T08:05:15Z</time>
      </trkpt>
      <trkpt lat="44.59178" lon="0.76532">
        <ele>164.8</ele>
        <time>2026-08-15T08:05:16Z</time>
      </trkpt>
      <trkpt lat="44.59176" lon="0.76529">
        <ele>165</ele>
        <time>2026-08-15T08:05:17Z</time>
      </trkpt>
      <trkpt lat="44.59173" lon="0.76526">
        <ele>165.2</ele>
        <time>2026-08-15T08:05:18Z</time>
      </trkpt>
      <trkpt lat="44.5917" lon="0.76524">
        <ele>165.2</ele>
        <time>2026-08-15T08:05:19Z</time>
      </trkpt>
      <trkpt lat="44.59167" lon="0.76521">
        <ele>165.4</ele>
        <time>2026-08-15T08:05:20Z</time>
      </trkpt>
      <trkpt lat="44.59164" lon="0.76518">
        <ele>165.4</ele>
        <time>2026-08-15T08:05:21Z</time>
      </trkpt>
      <trkpt lat="44.59161" lon="0.76516">
        <ele>165.6</ele>
        <time>2026-08-15T08:05:22Z</time>
      </trkpt>
      <trkpt lat="44.59158" lon="0.76513">
        <ele>165.6</ele>
        <time>2026-08-15T08:05:23Z</time>
      </trkpt>
      <trkpt lat="44.59155" lon="0.7651">
        <ele>165.6</ele>
        <time>2026-08-15T08:05:24Z</time>
      </trkpt>
      <trkpt lat="44.59152" lon="0.76509">
        <ele>165.6</ele>
        <time>2026-08-15T08:05:25Z</time>
      </trkpt>
      <trkpt lat="44.59152" lon="0.76509">
        <ele>165.6</ele>
        <time>2026-08-15T08:05:26Z</time>
      </trkpt>
      <trkpt lat="44.59152" lon="0.76509">
        <ele>165.8</ele>
        <time>2026-08-15T08:05:27Z</time>
      </trkpt>
      <trkpt lat="44.59152" lon="0.76509">
        <ele>165.8</ele>
        <time>2026-08-15T08:05:28Z</time>
      </trkpt>
      <trkpt lat="44.59152" lon="0.76509">
        <ele>165.8</ele>
        <time>2026-08-15T08:05:29Z</time>
      </trkpt>
      <trkpt lat="44.59148" lon="0.76507">
        <ele>166</ele>
        <time>2026-08-15T08:05:42Z</time>
      </trkpt>
      <trkpt lat="44.59146" lon="0.76508">
        <ele>166.2</ele>
        <time>2026-08-15T08:05:43Z</time>
      </trkpt>
      <trkpt lat="44.59145" lon="0.76508">
        <ele>166.2</ele>
        <time>2026-08-15T08:05:44Z</time>
      </trkpt>
      <trkpt lat="44.59143" lon="0.7651">
        <ele>166.2</ele>
        <time>2026-08-15T08:05:45Z</time>
        <extensions>
          <visugpx:TrkExtension xmlns:visugpx="https://www.visugpx.com/editgpx/">
            <visugpx:node>1</visugpx:node>
            </visugpx:TrkExtension>
        </extensions>
      </trkpt>
    </trkseg>
  </trk>
  <trk>
    <name><![CDATA[Belle jonction à travers les champs]]></name>
    <extensions>
      <line xmlns="http://www.topografix.com/GPX/gpx_style/0/2">
        <color>000088</color>
        <opacity>1</opacity>
        <width>4</width>
      </line>
    </extensions>
    <trkseg>
      <trkpt lat="44.5303" lon="0.77042">
        <ele>141.2</ele>
        <time>2026-08-15T08:32:15Z</time>
      </trkpt>
      <trkpt lat="44.53026" lon="0.77042">
        <ele>141.4</ele>
        <time>2026-08-15T08:32:16Z</time>
      </trkpt>
      <trkpt lat="44.53022" lon="0.77044">
        <ele>141.4</ele>
        <time>2026-08-15T08:32:17Z</time>
      </trkpt>
      <trkpt lat="44.53018" lon="0.77048">
        <ele>141.6</ele>
        <time>2026-08-15T08:32:18Z</time>
      </trkpt>
      <trkpt lat="44.53011" lon="0.77055">
        <ele>141.2</ele>
        <time>2026-08-15T08:32:19Z</time>
      </trkpt>
      <trkpt lat="44.53004" lon="0.77061">
        <ele>140.6</ele>
        <time>2026-08-15T08:32:20Z</time>
      </trkpt>
      <trkpt lat="44.52997" lon="0.77068">
        <ele>140</ele>
        <time>2026-08-15T08:32:21Z</time>
      </trkpt>
      <trkpt lat="44.52989" lon="0.77076">
        <ele>139</ele>
        <time>2026-08-15T08:32:22Z</time>
      </trkpt>
      <trkpt lat="44.52981" lon="0.77084">
        <ele>138</ele>
        <time>2026-08-15T08:32:23Z</time>
      </trkpt>
      <trkpt lat="44.52973" lon="0.77095">
        <ele>136.8</ele>
        <time>2026-08-15T08:32:24Z</time>
      </trkpt>
      <trkpt lat="44.52966" lon="0.77106">
        <ele>135.6</ele>
        <time>2026-08-15T08:32:25Z</time>
      </trkpt>
      <trkpt lat="44.5296" lon="0.7712">
        <ele>134.6</ele>
        <time>2026-08-15T08:32:26Z</time>
      </trkpt>
      <trkpt lat="44.52954" lon="0.77135">
        <ele>133.4</ele>
        <time>2026-08-15T08:32:27Z</time>
      </trkpt>
      <trkpt lat="44.52949" lon="0.77152">
        <ele>132</ele>
        <time>2026-08-15T08:32:28Z</time>
      </trkpt>
      <trkpt lat="44.52942" lon="0.77168">
        <ele>130.6</ele>
        <time>2026-08-15T08:32:29Z</time>
      </trkpt>
      <trkpt lat="44.52935" lon="0.77185">
        <ele>128.6</ele>
        <time>2026-08-15T08:32:30Z</time>
      </trkpt>
      <trkpt lat="44.52928" lon="0.77201">
        <ele>126.6</ele>
        <time>2026-08-15T08:32:31Z</time>
      </trkpt>
      <trkpt lat="44.5292" lon="0.77216">
        <ele>125</ele>
        <time>2026-08-15T08:32:32Z</time>
      </trkpt>
      <trkpt lat="44.52912" lon="0.77232">
        <ele>123.6</ele>
        <time>2026-08-15T08:32:33Z</time>
      </trkpt>
      <trkpt lat="44.52906" lon="0.77248">
        <ele>122.6</ele>
        <time>2026-08-15T08:32:34Z</time>
      </trkpt>
      <trkpt lat="44.52903" lon="0.77264">
        <ele>121.6</ele>
        <time>2026-08-15T08:32:35Z</time>
      </trkpt>
      <trkpt lat="44.52902" lon="0.77281">
        <ele>121.2</ele>
        <time>2026-08-15T08:32:36Z</time>
      </trkpt>
      <trkpt lat="44.52901" lon="0.77296">
        <ele>120.8</ele>
        <time>2026-08-15T08:32:37Z</time>
      </trkpt>
      <trkpt lat="44.529" lon="0.7731">
        <ele>120.6</ele>
        <time>2026-08-15T08:32:38Z</time>
      </trkpt>
      <trkpt lat="44.52898" lon="0.77323">
        <ele>120.4</ele>
        <time>2026-08-15T08:32:39Z</time>
      </trkpt>
      <trkpt lat="44.52894" lon="0.77333">
        <ele>120.2</ele>
        <time>2026-08-15T08:32:40Z</time>
      </trkpt>
      <trkpt lat="44.52888" lon="0.77341">
        <ele>120.2</ele>
        <time>2026-08-15T08:32:41Z</time>
      </trkpt>
      <trkpt lat="44.52882" lon="0.77348">
        <ele>120.2</ele>
        <time>2026-08-15T08:32:42Z</time>
      </trkpt>
      <trkpt lat="44.52875" lon="0.77354">
        <ele>120.2</ele>
        <time>2026-08-15T08:32:43Z</time>
      </trkpt>
      <trkpt lat="44.52869" lon="0.7736">
        <ele>120.2</ele>
        <time>2026-08-15T08:32:44Z</time>
      </trkpt>
      <trkpt lat="44.52862" lon="0.77364">
        <ele>120.4</ele>
        <time>2026-08-15T08:32:45Z</time>
      </trkpt>
      <trkpt lat="44.52855" lon="0.77368">
        <ele>120.4</ele>
        <time>2026-08-15T08:32:46Z</time>
      </trkpt>
      <trkpt lat="44.52849" lon="0.77371">
        <ele>120.6</ele>
        <time>2026-08-15T08:32:47Z</time>
      </trkpt>
      <trkpt lat="44.52842" lon="0.77374">
        <ele>120.6</ele>
        <time>2026-08-15T08:32:48Z</time>
      </trkpt>
      <trkpt lat="44.52836" lon="0.77376">
        <ele>120.8</ele>
        <time>2026-08-15T08:32:49Z</time>
      </trkpt>
      <trkpt lat="44.5283" lon="0.77377">
        <ele>121</ele>
        <time>2026-08-15T08:32:50Z</time>
      </trkpt>
      <trkpt lat="44.52824" lon="0.77379">
        <ele>120.8</ele>
        <time>2026-08-15T08:32:51Z</time>
      </trkpt>
      <trkpt lat="44.52818" lon="0.7738">
        <ele>120.8</ele>
        <time>2026-08-15T08:32:52Z</time>
      </trkpt>
      <trkpt lat="44.52813" lon="0.77382">
        <ele>120.6</ele>
        <time>2026-08-15T08:32:53Z</time>
      </trkpt>
      <trkpt lat="44.52808" lon="0.77383">
        <ele>120.6</ele>
        <time>2026-08-15T08:32:54Z</time>
      </trkpt>
      <trkpt lat="44.52806" lon="0.77384">
        <ele>120.4</ele>
        <time>2026-08-15T08:32:55Z</time>
      </trkpt>
      <trkpt lat="44.52803" lon="0.77387">
        <ele>120</ele>
        <time>2026-08-15T08:32:56Z</time>
      </trkpt>
      <trkpt lat="44.528" lon="0.77391">
        <ele>119.8</ele>
        <time>2026-08-15T08:32:57Z</time>
      </trkpt>
      <trkpt lat="44.52798" lon="0.77396">
        <ele>119.2</ele>
        <time>2026-08-15T08:32:58Z</time>
      </trkpt>
      <trkpt lat="44.52795" lon="0.77403">
        <ele>118.8</ele>
        <time>2026-08-15T08:32:59Z</time>
      </trkpt>
      <trkpt lat="44.52791" lon="0.77413">
        <ele>118.4</ele>
        <time>2026-08-15T08:33:00Z</time>
      </trkpt>
      <trkpt lat="44.52787" lon="0.77422">
        <ele>117.6</ele>
        <time>2026-08-15T08:33:01Z</time>
      </trkpt>
      <trkpt lat="44.52783" lon="0.77432">
        <ele>117</ele>
        <time>2026-08-15T08:33:02Z</time>
      </trkpt>
      <trkpt lat="44.52779" lon="0.77441">
        <ele>116.6</ele>
        <time>2026-08-15T08:33:03Z</time>
      </trkpt>
      <trkpt lat="44.52775" lon="0.7745">
        <ele>116</ele>
        <time>2026-08-15T08:33:04Z</time>
      </trkpt>
      <trkpt lat="44.52771" lon="0.77458">
        <ele>115.6</ele>
        <time>2026-08-15T08:33:05Z</time>
      </trkpt>
      <trkpt lat="44.52766" lon="0.77466">
        <ele>115.2</ele>
        <time>2026-08-15T08:33:06Z</time>
      </trkpt>
      <trkpt lat="44.52762" lon="0.77473">
        <ele>114.4</ele>
        <time>2026-08-15T08:33:07Z</time>
      </trkpt>
      <trkpt lat="44.52756" lon="0.7748">
        <ele>113.4</ele>
        <time>2026-08-15T08:33:08Z</time>
      </trkpt>
      <trkpt lat="44.52751" lon="0.77485">
        <ele>112.6</ele>
        <time>2026-08-15T08:33:09Z</time>
      </trkpt>
      <trkpt lat="44.52745" lon="0.77491">
        <ele>112</ele>
        <time>2026-08-15T08:33:10Z</time>
      </trkpt>
      <trkpt lat="44.52739" lon="0.77495">
        <ele>111.4</ele>
        <time>2026-08-15T08:33:11Z</time>
      </trkpt>
      <trkpt lat="44.52734" lon="0.775">
        <ele>110.8</ele>
        <time>2026-08-15T08:33:12Z</time>
      </trkpt>
      <trkpt lat="44.52728" lon="0.77505">
        <ele>110.6</ele>
        <time>2026-08-15T08:33:13Z</time>
      </trkpt>
      <trkpt lat="44.52722" lon="0.7751">
        <ele>110.2</ele>
        <time>2026-08-15T08:33:14Z</time>
      </trkpt>
      <trkpt lat="44.52717" lon="0.77514">
        <ele>110</ele>
        <time>2026-08-15T08:33:15Z</time>
      </trkpt>
      <trkpt lat="44.52711" lon="0.77519">
        <ele>109.6</ele>
        <time>2026-08-15T08:33:16Z</time>
      </trkpt>
      <trkpt lat="44.52705" lon="0.77524">
        <ele>109.2</ele>
        <time>2026-08-15T08:33:17Z</time>
      </trkpt>
      <trkpt lat="44.52699" lon="0.77529">
        <ele>108.6</ele>
        <time>2026-08-15T08:33:18Z</time>
      </trkpt>
      <trkpt lat="44.52694" lon="0.77534">
        <ele>108.4</ele>
        <time>2026-08-15T08:33:19Z</time>
      </trkpt>
      <trkpt lat="44.52688" lon="0.77539">
        <ele>108.2</ele>
        <time>2026-08-15T08:33:20Z</time>
      </trkpt>
      <trkpt lat="44.52682" lon="0.77544">
        <ele>108</ele>
        <time>2026-08-15T08:33:21Z</time>
      </trkpt>
      <trkpt lat="44.52676" lon="0.77549">
        <ele>108</ele>
        <time>2026-08-15T08:33:22Z</time>
      </trkpt>
      <trkpt lat="44.52669" lon="0.77553">
        <ele>108</ele>
        <time>2026-08-15T08:33:23Z</time>
      </trkpt>
      <trkpt lat="44.52663" lon="0.77557">
        <ele>107.8</ele>
        <time>2026-08-15T08:33:24Z</time>
      </trkpt>
      <trkpt lat="44.52657" lon="0.7756">
        <ele>107.6</ele>
        <time>2026-08-15T08:33:25Z</time>
      </trkpt>
      <trkpt lat="44.5265" lon="0.77563">
        <ele>107.4</ele>
        <time>2026-08-15T08:33:26Z</time>
      </trkpt>
      <trkpt lat="44.52644" lon="0.77566">
        <ele>107</ele>
        <time>2026-08-15T08:33:27Z</time>
      </trkpt>
      <trkpt lat="44.52637" lon="0.77568">
        <ele>107</ele>
        <time>2026-08-15T08:33:28Z</time>
      </trkpt>
      <trkpt lat="44.5263" lon="0.77569">
        <ele>107</ele>
        <time>2026-08-15T08:33:29Z</time>
      </trkpt>
      <trkpt lat="44.52623" lon="0.77571">
        <ele>107</ele>
        <time>2026-08-15T08:33:30Z</time>
      </trkpt>
      <trkpt lat="44.52617" lon="0.77571">
        <ele>106.6</ele>
        <time>2026-08-15T08:33:31Z</time>
      </trkpt>
      <trkpt lat="44.5261" lon="0.77571">
        <ele>106</ele>
        <time>2026-08-15T08:33:32Z</time>
      </trkpt>
      <trkpt lat="44.52603" lon="0.77571">
        <ele>106</ele>
        <time>2026-08-15T08:33:33Z</time>
      </trkpt>
      <trkpt lat="44.52596" lon="0.77571">
        <ele>105.6</ele>
        <time>2026-08-15T08:33:34Z</time>
      </trkpt>
      <trkpt lat="44.5259" lon="0.7757">
        <ele>105.6</ele>
        <time>2026-08-15T08:33:35Z</time>
      </trkpt>
      <trkpt lat="44.52584" lon="0.7757">
        <ele>105.4</ele>
        <time>2026-08-15T08:33:36Z</time>
      </trkpt>
      <trkpt lat="44.52578" lon="0.77568">
        <ele>105</ele>
        <time>2026-08-15T08:33:37Z</time>
      </trkpt>
      <trkpt lat="44.52571" lon="0.77568">
        <ele>105</ele>
        <time>2026-08-15T08:33:38Z</time>
      </trkpt>
      <trkpt lat="44.52565" lon="0.77567">
        <ele>105</ele>
        <time>2026-08-15T08:33:39Z</time>
      </trkpt>
      <trkpt lat="44.52558" lon="0.77567">
        <ele>105</ele>
        <time>2026-08-15T08:33:40Z</time>
      </trkpt>
      <trkpt lat="44.52552" lon="0.77567">
        <ele>104.8</ele>
        <time>2026-08-15T08:33:41Z</time>
      </trkpt>
      <trkpt lat="44.52545" lon="0.77568">
        <ele>104.6</ele>
        <time>2026-08-15T08:33:42Z</time>
      </trkpt>
      <trkpt lat="44.52538" lon="0.77569">
        <ele>104.4</ele>
        <time>2026-08-15T08:33:43Z</time>
      </trkpt>
      <trkpt lat="44.52532" lon="0.7757">
        <ele>104.2</ele>
        <time>2026-08-15T08:33:44Z</time>
      </trkpt>
      <trkpt lat="44.52525" lon="0.77571">
        <ele>104</ele>
        <time>2026-08-15T08:33:45Z</time>
      </trkpt>
      <trkpt lat="44.52518" lon="0.77571">
        <ele>104</ele>
        <time>2026-08-15T08:33:46Z</time>
      </trkpt>
      <trkpt lat="44.52511" lon="0.77572">
        <ele>104</ele>
        <time>2026-08-15T08:33:47Z</time>
      </trkpt>
      <trkpt lat="44.52504" lon="0.77573">
        <ele>104</ele>
        <time>2026-08-15T08:33:48Z</time>
      </trkpt>
      <trkpt lat="44.52497" lon="0.77574">
        <ele>103.8</ele>
        <time>2026-08-15T08:33:49Z</time>
      </trkpt>
      <trkpt lat="44.5249" lon="0.77576">
        <ele>103.6</ele>
        <time>2026-08-15T08:33:50Z</time>
      </trkpt>
      <trkpt lat="44.52483" lon="0.77577">
        <ele>103.6</ele>
        <time>2026-08-15T08:33:51Z</time>
      </trkpt>
      <trkpt lat="44.52476" lon="0.77578">
        <ele>103.6</ele>
        <time>2026-08-15T08:33:52Z</time>
      </trkpt>
      <trkpt lat="44.5247" lon="0.77579">
        <ele>103.4</ele>
        <time>2026-08-15T08:33:53Z</time>
      </trkpt>
      <trkpt lat="44.52463" lon="0.77579">
        <ele>103.2</ele>
        <time>2026-08-15T08:33:54Z</time>
      </trkpt>
      <trkpt lat="44.52457" lon="0.7758">
        <ele>103</ele>
        <time>2026-08-15T08:33:55Z</time>
      </trkpt>
      <trkpt lat="44.5245" lon="0.7758">
        <ele>102.8</ele>
        <time>2026-08-15T08:33:56Z</time>
      </trkpt>
      <trkpt lat="44.52443" lon="0.7758">
        <ele>102.6</ele>
        <time>2026-08-15T08:33:57Z</time>
      </trkpt>
      <trkpt lat="44.52437" lon="0.7758">
        <ele>102.6</ele>
        <time>2026-08-15T08:33:58Z</time>
      </trkpt>
      <trkpt lat="44.52431" lon="0.7758">
        <ele>102.6</ele>
        <time>2026-08-15T08:33:59Z</time>
      </trkpt>
      <trkpt lat="44.52425" lon="0.77581">
        <ele>102.6</ele>
        <time>2026-08-15T08:34:00Z</time>
      </trkpt>
      <trkpt lat="44.52419" lon="0.77581">
        <ele>102.6</ele>
        <time>2026-08-15T08:34:01Z</time>
      </trkpt>
      <trkpt lat="44.52413" lon="0.77581">
        <ele>102.6</ele>
        <time>2026-08-15T08:34:02Z</time>
      </trkpt>
      <trkpt lat="44.52407" lon="0.77581">
        <ele>102.6</ele>
        <time>2026-08-15T08:34:03Z</time>
      </trkpt>
      <trkpt lat="44.52401" lon="0.77581">
        <ele>103</ele>
        <time>2026-08-15T08:34:04Z</time>
      </trkpt>
      <trkpt lat="44.52395" lon="0.77581">
        <ele>103</ele>
        <time>2026-08-15T08:34:05Z</time>
      </trkpt>
      <trkpt lat="44.5239" lon="0.7758">
        <ele>103</ele>
        <time>2026-08-15T08:34:06Z</time>
      </trkpt>
      <trkpt lat="44.52384" lon="0.7758">
        <ele>103</ele>
        <time>2026-08-15T08:34:07Z</time>
      </trkpt>
      <trkpt lat="44.52379" lon="0.7758">
        <ele>103</ele>
        <time>2026-08-15T08:34:08Z</time>
      </trkpt>
      <trkpt lat="44.52374" lon="0.77581">
        <ele>103.2</ele>
        <time>2026-08-15T08:34:09Z</time>
      </trkpt>
      <trkpt lat="44.52371" lon="0.77581">
        <ele>103.4</ele>
        <time>2026-08-15T08:34:10Z</time>
      </trkpt>
      <trkpt lat="44.52367" lon="0.77581">
        <ele>103.6</ele>
        <time>2026-08-15T08:34:11Z</time>
      </trkpt>
      <trkpt lat="44.52363" lon="0.77581">
        <ele>104</ele>
        <time>2026-08-15T08:34:12Z</time>
      </trkpt>
      <trkpt lat="44.5236" lon="0.77581">
        <ele>104.4</ele>
        <time>2026-08-15T08:34:13Z</time>
      </trkpt>
      <trkpt lat="44.52356" lon="0.7758">
        <ele>104.6</ele>
        <time>2026-08-15T08:34:14Z</time>
      </trkpt>
      <trkpt lat="44.52353" lon="0.7758">
        <ele>105</ele>
        <time>2026-08-15T08:34:15Z</time>
      </trkpt>
      <trkpt lat="44.5235" lon="0.7758">
        <ele>105</ele>
        <time>2026-08-15T08:34:16Z</time>
      </trkpt>
      <trkpt lat="44.52347" lon="0.7758">
        <ele>105.4</ele>
        <time>2026-08-15T08:34:17Z</time>
      </trkpt>
      <trkpt lat="44.52344" lon="0.7758">
        <ele>105.6</ele>
        <time>2026-08-15T08:34:18Z</time>
      </trkpt>
      <trkpt lat="44.52341" lon="0.7758">
        <ele>106</ele>
        <time>2026-08-15T08:34:19Z</time>
      </trkpt>
      <trkpt lat="44.52338" lon="0.7758">
        <ele>106.4</ele>
        <time>2026-08-15T08:34:20Z</time>
      </trkpt>
      <trkpt lat="44.52335" lon="0.7758">
        <ele>106.6</ele>
        <time>2026-08-15T08:34:21Z</time>
      </trkpt>
      <trkpt lat="44.52332" lon="0.7758">
        <ele>107</ele>
        <time>2026-08-15T08:34:22Z</time>
      </trkpt>
      <trkpt lat="44.52329" lon="0.7758">
        <ele>107.4</ele>
        <time>2026-08-15T08:34:23Z</time>
      </trkpt>
      <trkpt lat="44.52326" lon="0.77579">
        <ele>107.6</ele>
        <time>2026-08-15T08:34:24Z</time>
      </trkpt>
      <trkpt lat="44.52323" lon="0.77579">
        <ele>108</ele>
        <time>2026-08-15T08:34:25Z</time>
      </trkpt>
      <trkpt lat="44.52322" lon="0.77579">
        <ele>108.4</ele>
        <time>2026-08-15T08:34:26Z</time>
      </trkpt>
      <trkpt lat="44.52322" lon="0.77579">
        <ele>108.6</ele>
        <time>2026-08-15T08:34:27Z</time>
      </trkpt>
      <trkpt lat="44.52322" lon="0.77579">
        <ele>108.8</ele>
        <time>2026-08-15T08:34:28Z</time>
      </trkpt>
      <trkpt lat="44.52322" lon="0.77579">
        <ele>109</ele>
        <time>2026-08-15T08:34:29Z</time>
      </trkpt>
      <trkpt lat="44.52318" lon="0.77579">
        <ele>109</ele>
        <time>2026-08-15T08:34:54Z</time>
      </trkpt>
      <trkpt lat="44.52316" lon="0.77578">
        <ele>109.2</ele>
        <time>2026-08-15T08:34:55Z</time>
      </trkpt>
      <trkpt lat="44.52313" lon="0.77578">
        <ele>109.2</ele>
        <time>2026-08-15T08:34:56Z</time>
      </trkpt>
      <trkpt lat="44.5231" lon="0.77578">
        <ele>109.4</ele>
        <time>2026-08-15T08:34:57Z</time>
      </trkpt>
      <trkpt lat="44.52305" lon="0.77578">
        <ele>109.4</ele>
        <time>2026-08-15T08:34:58Z</time>
      </trkpt>
      <trkpt lat="44.52302" lon="0.77578">
        <ele>109.4</ele>
        <time>2026-08-15T08:34:59Z</time>
      </trkpt>
      <trkpt lat="44.52298" lon="0.77578">
        <ele>109.4</ele>
        <time>2026-08-15T08:35:00Z</time>
      </trkpt>
      <trkpt lat="44.52295" lon="0.77578">
        <ele>109.4</ele>
        <time>2026-08-15T08:35:01Z</time>
      </trkpt>
      <trkpt lat="44.52291" lon="0.77578">
        <ele>109.2</ele>
        <time>2026-08-15T08:35:02Z</time>
      </trkpt>
      <trkpt lat="44.52288" lon="0.77578">
        <ele>109.2</ele>
        <time>2026-08-15T08:35:03Z</time>
      </trkpt>
      <trkpt lat="44.52284" lon="0.77578">
        <ele>109.2</ele>
        <time>2026-08-15T08:35:04Z</time>
      </trkpt>
      <trkpt lat="44.5228" lon="0.77578">
        <ele>109</ele>
        <time>2026-08-15T08:35:05Z</time>
      </trkpt>
      <trkpt lat="44.52276" lon="0.77578">
        <ele>109</ele>
        <time>2026-08-15T08:35:06Z</time>
      </trkpt>
      <trkpt lat="44.52272" lon="0.77579">
        <ele>108.8</ele>
        <time>2026-08-15T08:35:07Z</time>
      </trkpt>
      <trkpt lat="44.52267" lon="0.77579">
        <ele>108.6</ele>
        <time>2026-08-15T08:35:08Z</time>
      </trkpt>
      <trkpt lat="44.52263" lon="0.7758">
        <ele>108.6</ele>
        <time>2026-08-15T08:35:09Z</time>
      </trkpt>
      <trkpt lat="44.52258" lon="0.7758">
        <ele>108.4</ele>
        <time>2026-08-15T08:35:10Z</time>
      </trkpt>
      <trkpt lat="44.52253" lon="0.7758">
        <ele>108</ele>
        <time>2026-08-15T08:35:11Z</time>
      </trkpt>
      <trkpt lat="44.52248" lon="0.7758">
        <ele>107.8</ele>
        <time>2026-08-15T08:35:12Z</time>
      </trkpt>
      <trkpt lat="44.52242" lon="0.7758">
        <ele>107.6</ele>
        <time>2026-08-15T08:35:13Z</time>
      </trkpt>
      <trkpt lat="44.52234" lon="0.7758">
        <ele>107.2</ele>
        <time>2026-08-15T08:35:14Z</time>
      </trkpt>
      <trkpt lat="44.52228" lon="0.7758">
        <ele>106.6</ele>
        <time>2026-08-15T08:35:15Z</time>
      </trkpt>
      <trkpt lat="44.52221" lon="0.7758">
        <ele>106</ele>
        <time>2026-08-15T08:35:16Z</time>
      </trkpt>
      <trkpt lat="44.52215" lon="0.77581">
        <ele>105.6</ele>
        <time>2026-08-15T08:35:17Z</time>
      </trkpt>
      <trkpt lat="44.52208" lon="0.77581">
        <ele>105</ele>
        <time>2026-08-15T08:35:18Z</time>
      </trkpt>
      <trkpt lat="44.52202" lon="0.77581">
        <ele>104.6</ele>
        <time>2026-08-15T08:35:19Z</time>
      </trkpt>
      <trkpt lat="44.52195" lon="0.77581">
        <ele>104.4</ele>
        <time>2026-08-15T08:35:20Z</time>
      </trkpt>
      <trkpt lat="44.52188" lon="0.77582">
        <ele>104</ele>
        <time>2026-08-15T08:35:21Z</time>
      </trkpt>
      <trkpt lat="44.52181" lon="0.77582">
        <ele>103.8</ele>
        <time>2026-08-15T08:35:22Z</time>
      </trkpt>
      <trkpt lat="44.52175" lon="0.77582">
        <ele>103.6</ele>
        <time>2026-08-15T08:35:23Z</time>
      </trkpt>
      <trkpt lat="44.52168" lon="0.77582">
        <ele>103.2</ele>
        <time>2026-08-15T08:35:24Z</time>
      </trkpt>
      <trkpt lat="44.52162" lon="0.77582">
        <ele>103</ele>
        <time>2026-08-15T08:35:25Z</time>
      </trkpt>
      <trkpt lat="44.52156" lon="0.77583">
        <ele>102.8</ele>
        <time>2026-08-15T08:35:26Z</time>
      </trkpt>
      <trkpt lat="44.5215" lon="0.77583">
        <ele>102.8</ele>
        <time>2026-08-15T08:35:27Z</time>
      </trkpt>
      <trkpt lat="44.52144" lon="0.77583">
        <ele>102.6</ele>
        <time>2026-08-15T08:35:28Z</time>
      </trkpt>
      <trkpt lat="44.52138" lon="0.77582">
        <ele>102.6</ele>
        <time>2026-08-15T08:35:29Z</time>
      </trkpt>
      <trkpt lat="44.52132" lon="0.77582">
        <ele>102.6</ele>
        <time>2026-08-15T08:35:30Z</time>
      </trkpt>
      <trkpt lat="44.52126" lon="0.77582">
        <ele>102.4</ele>
        <time>2026-08-15T08:35:31Z</time>
      </trkpt>
      <trkpt lat="44.5212" lon="0.77582">
        <ele>102</ele>
        <time>2026-08-15T08:35:32Z</time>
      </trkpt>
      <trkpt lat="44.52114" lon="0.77582">
        <ele>102</ele>
        <time>2026-08-15T08:35:33Z</time>
      </trkpt>
      <trkpt lat="44.52108" lon="0.77582">
        <ele>101.8</ele>
        <time>2026-08-15T08:35:34Z</time>
      </trkpt>
      <trkpt lat="44.52102" lon="0.77582">
        <ele>101.6</ele>
        <time>2026-08-15T08:35:35Z</time>
      </trkpt>
      <trkpt lat="44.52096" lon="0.77582">
        <ele>101.6</ele>
        <time>2026-08-15T08:35:36Z</time>
      </trkpt>
      <trkpt lat="44.52091" lon="0.77585">
        <ele>101.6</ele>
        <time>2026-08-15T08:35:37Z</time>
      </trkpt>
      <trkpt lat="44.52087" lon="0.7759">
        <ele>101.4</ele>
        <time>2026-08-15T08:35:38Z</time>
      </trkpt>
      <trkpt lat="44.52085" lon="0.77597">
        <ele>101.4</ele>
        <time>2026-08-15T08:35:39Z</time>
      </trkpt>
      <trkpt lat="44.52085" lon="0.77605">
        <ele>101.2</ele>
        <time>2026-08-15T08:35:40Z</time>
      </trkpt>
      <trkpt lat="44.52085" lon="0.77613">
        <ele>101</ele>
        <time>2026-08-15T08:35:41Z</time>
      </trkpt>
      <trkpt lat="44.52086" lon="0.77621">
        <ele>101</ele>
        <time>2026-08-15T08:35:42Z</time>
      </trkpt>
      <trkpt lat="44.52086" lon="0.77629">
        <ele>101</ele>
        <time>2026-08-15T08:35:43Z</time>
      </trkpt>
      <trkpt lat="44.52087" lon="0.77637">
        <ele>101.2</ele>
        <time>2026-08-15T08:35:44Z</time>
      </trkpt>
      <trkpt lat="44.52087" lon="0.77644">
        <ele>101.4</ele>
        <time>2026-08-15T08:35:45Z</time>
      </trkpt>
      <trkpt lat="44.52087" lon="0.77652">
        <ele>101.4</ele>
        <time>2026-08-15T08:35:46Z</time>
      </trkpt>
      <trkpt lat="44.52087" lon="0.77657">
        <ele>101.4</ele>
        <time>2026-08-15T08:35:47Z</time>
      </trkpt>
      <trkpt lat="44.52087" lon="0.77663">
        <ele>101.6</ele>
        <time>2026-08-15T08:35:48Z</time>
      </trkpt>
      <trkpt lat="44.52087" lon="0.77669">
        <ele>101.6</ele>
        <time>2026-08-15T08:35:49Z</time>
      </trkpt>
      <trkpt lat="44.52086" lon="0.77675">
        <ele>101.6</ele>
        <time>2026-08-15T08:35:50Z</time>
      </trkpt>
      <trkpt lat="44.52084" lon="0.77681">
        <ele>101.8</ele>
        <time>2026-08-15T08:35:51Z</time>
      </trkpt>
      <trkpt lat="44.52081" lon="0.77684">
        <ele>101.8</ele>
        <time>2026-08-15T08:35:52Z</time>
      </trkpt>
      <trkpt lat="44.52077" lon="0.77686">
        <ele>102</ele>
        <time>2026-08-15T08:35:53Z</time>
      </trkpt>
      <trkpt lat="44.52072" lon="0.77686">
        <ele>102</ele>
        <time>2026-08-15T08:35:54Z</time>
      </trkpt>
      <trkpt lat="44.52066" lon="0.77686">
        <ele>102</ele>
        <time>2026-08-15T08:35:55Z</time>
      </trkpt>
      <trkpt lat="44.5206" lon="0.77685">
        <ele>102</ele>
        <time>2026-08-15T08:35:56Z</time>
      </trkpt>
      <trkpt lat="44.52053" lon="0.77683">
        <ele>102</ele>
        <time>2026-08-15T08:35:57Z</time>
      </trkpt>
      <trkpt lat="44.52047" lon="0.77682">
        <ele>101.6</ele>
        <time>2026-08-15T08:35:58Z</time>
      </trkpt>
      <trkpt lat="44.52041" lon="0.77681">
        <ele>101.6</ele>
        <time>2026-08-15T08:35:59Z</time>
      </trkpt>
      <trkpt lat="44.52035" lon="0.77681">
        <ele>101.6</ele>
        <time>2026-08-15T08:36:00Z</time>
      </trkpt>
      <trkpt lat="44.52029" lon="0.7768">
        <ele>101.2</ele>
        <time>2026-08-15T08:36:01Z</time>
      </trkpt>
      <trkpt lat="44.52024" lon="0.7768">
        <ele>101</ele>
        <time>2026-08-15T08:36:02Z</time>
      </trkpt>
      <trkpt lat="44.52018" lon="0.7768">
        <ele>101</ele>
        <time>2026-08-15T08:36:03Z</time>
      </trkpt>
      <trkpt lat="44.52012" lon="0.7768">
        <ele>100.8</ele>
        <time>2026-08-15T08:36:04Z</time>
      </trkpt>
      <trkpt lat="44.52007" lon="0.7768">
        <ele>100.8</ele>
        <time>2026-08-15T08:36:05Z</time>
      </trkpt>
      <trkpt lat="44.52002" lon="0.77679">
        <ele>100.8</ele>
        <time>2026-08-15T08:36:06Z</time>
      </trkpt>
      <trkpt lat="44.51999" lon="0.77678">
        <ele>100.8</ele>
        <time>2026-08-15T08:36:07Z</time>
      </trkpt>
      <trkpt lat="44.51995" lon="0.77678">
        <ele>100.8</ele>
        <time>2026-08-15T08:36:08Z</time>
      </trkpt>
      <trkpt lat="44.51991" lon="0.77676">
        <ele>101</ele>
        <time>2026-08-15T08:36:09Z</time>
      </trkpt>
      <trkpt lat="44.51987" lon="0.77674">
        <ele>101</ele>
        <time>2026-08-15T08:36:10Z</time>
      </trkpt>
      <trkpt lat="44.51984" lon="0.77672">
        <ele>101</ele>
        <time>2026-08-15T08:36:11Z</time>
      </trkpt>
      <trkpt lat="44.51981" lon="0.77668">
        <ele>101</ele>
        <time>2026-08-15T08:36:12Z</time>
      </trkpt>
      <trkpt lat="44.5198" lon="0.77662">
        <ele>100.6</ele>
        <time>2026-08-15T08:36:13Z</time>
      </trkpt>
      <trkpt lat="44.51978" lon="0.77655">
        <ele>100.2</ele>
        <time>2026-08-15T08:36:14Z</time>
      </trkpt>
      <trkpt lat="44.51977" lon="0.77644">
        <ele>100</ele>
        <time>2026-08-15T08:36:15Z</time>
      </trkpt>
      <trkpt lat="44.51976" lon="0.77635">
        <ele>99.4</ele>
        <time>2026-08-15T08:36:16Z</time>
      </trkpt>
      <trkpt lat="44.51974" lon="0.77626">
        <ele>98.6</ele>
        <time>2026-08-15T08:36:17Z</time>
      </trkpt>
      <trkpt lat="44.51972" lon="0.77619">
        <ele>98.4</ele>
        <time>2026-08-15T08:36:18Z</time>
      </trkpt>
      <trkpt lat="44.5197" lon="0.77614">
        <ele>98</ele>
        <time>2026-08-15T08:36:19Z</time>
      </trkpt>
      <trkpt lat="44.51967" lon="0.77612">
        <ele>97.6</ele>
        <time>2026-08-15T08:36:20Z</time>
      </trkpt>
      <trkpt lat="44.51963" lon="0.7761">
        <ele>97.2</ele>
        <time>2026-08-15T08:36:21Z</time>
      </trkpt>
      <trkpt lat="44.51959" lon="0.7761">
        <ele>97</ele>
        <time>2026-08-15T08:36:22Z</time>
      </trkpt>
      <trkpt lat="44.51954" lon="0.7761">
        <ele>96.6</ele>
        <time>2026-08-15T08:36:23Z</time>
      </trkpt>
      <trkpt lat="44.51948" lon="0.7761">
        <ele>96.4</ele>
        <time>2026-08-15T08:36:24Z</time>
      </trkpt>
      <trkpt lat="44.51943" lon="0.7761">
        <ele>96</ele>
        <time>2026-08-15T08:36:25Z</time>
      </trkpt>
      <trkpt lat="44.51935" lon="0.7761">
        <ele>96</ele>
        <time>2026-08-15T08:36:26Z</time>
      </trkpt>
      <trkpt lat="44.51929" lon="0.7761">
        <ele>95.8</ele>
        <time>2026-08-15T08:36:27Z</time>
      </trkpt>
      <trkpt lat="44.51923" lon="0.77611">
        <ele>95.6</ele>
        <time>2026-08-15T08:36:28Z</time>
      </trkpt>
      <trkpt lat="44.51917" lon="0.77612">
        <ele>95.6</ele>
        <time>2026-08-15T08:36:29Z</time>
      </trkpt>
      <trkpt lat="44.51912" lon="0.77614">
        <ele>95.6</ele>
        <time>2026-08-15T08:36:30Z</time>
      </trkpt>
      <trkpt lat="44.51908" lon="0.77618">
        <ele>95.4</ele>
        <time>2026-08-15T08:36:31Z</time>
      </trkpt>
      <trkpt lat="44.51905" lon="0.77623">
        <ele>95.4</ele>
        <time>2026-08-15T08:36:32Z</time>
      </trkpt>
      <trkpt lat="44.51903" lon="0.77627">
        <ele>95.4</ele>
        <time>2026-08-15T08:36:33Z</time>
      </trkpt>
      <trkpt lat="44.51901" lon="0.77633">
        <ele>95.6</ele>
        <time>2026-08-15T08:36:34Z</time>
      </trkpt>
      <trkpt lat="44.519" lon="0.7764">
        <ele>95.6</ele>
        <time>2026-08-15T08:36:35Z</time>
      </trkpt>
      <trkpt lat="44.51898" lon="0.77647">
        <ele>95.8</ele>
        <time>2026-08-15T08:36:36Z</time>
      </trkpt>
      <trkpt lat="44.51896" lon="0.77654">
        <ele>95.8</ele>
        <time>2026-08-15T08:36:37Z</time>
      </trkpt>
      <trkpt lat="44.51894" lon="0.7766">
        <ele>96</ele>
        <time>2026-08-15T08:36:38Z</time>
      </trkpt>
      <trkpt lat="44.51893" lon="0.77667">
        <ele>96</ele>
        <time>2026-08-15T08:36:39Z</time>
      </trkpt>
      <trkpt lat="44.51891" lon="0.77673">
        <ele>96</ele>
        <time>2026-08-15T08:36:40Z</time>
      </trkpt>
      <trkpt lat="44.51889" lon="0.77679">
        <ele>96.2</ele>
        <time>2026-08-15T08:36:41Z</time>
      </trkpt>
      <trkpt lat="44.51887" lon="0.77685">
        <ele>96.4</ele>
        <time>2026-08-15T08:36:42Z</time>
      </trkpt>
      <trkpt lat="44.51885" lon="0.77691">
        <ele>96.4</ele>
        <time>2026-08-15T08:36:43Z</time>
      </trkpt>
      <trkpt lat="44.51884" lon="0.77697">
        <ele>96.6</ele>
        <time>2026-08-15T08:36:44Z</time>
      </trkpt>
      <trkpt lat="44.51882" lon="0.77702">
        <ele>96.8</ele>
        <time>2026-08-15T08:36:45Z</time>
      </trkpt>
      <trkpt lat="44.5188" lon="0.77707">
        <ele>97</ele>
        <time>2026-08-15T08:36:46Z</time>
      </trkpt>
      <trkpt lat="44.51878" lon="0.77712">
        <ele>97.2</ele>
        <time>2026-08-15T08:36:47Z</time>
      </trkpt>
      <trkpt lat="44.51876" lon="0.77717">
        <ele>97.4</ele>
        <time>2026-08-15T08:36:48Z</time>
      </trkpt>
      <trkpt lat="44.51874" lon="0.77722">
        <ele>97.6</ele>
        <time>2026-08-15T08:36:49Z</time>
      </trkpt>
      <trkpt lat="44.51871" lon="0.77727">
        <ele>97.8</ele>
        <time>2026-08-15T08:36:50Z</time>
      </trkpt>
      <trkpt lat="44.51869" lon="0.77732">
        <ele>98</ele>
        <time>2026-08-15T08:36:51Z</time>
      </trkpt>
      <trkpt lat="44.51866" lon="0.77738">
        <ele>98</ele>
        <time>2026-08-15T08:36:52Z</time>
      </trkpt>
      <trkpt lat="44.51864" lon="0.77743">
        <ele>98.2</ele>
        <time>2026-08-15T08:36:53Z</time>
      </trkpt>
      <trkpt lat="44.51861" lon="0.77748">
        <ele>98.4</ele>
        <time>2026-08-15T08:36:54Z</time>
      </trkpt>
      <trkpt lat="44.51858" lon="0.77753">
        <ele>98.4</ele>
        <time>2026-08-15T08:36:55Z</time>
      </trkpt>
      <trkpt lat="44.51855" lon="0.77759">
        <ele>98.4</ele>
        <time>2026-08-15T08:36:56Z</time>
      </trkpt>
      <trkpt lat="44.51852" lon="0.77764">
        <ele>98.6</ele>
        <time>2026-08-15T08:36:57Z</time>
      </trkpt>
      <trkpt lat="44.51849" lon="0.77769">
        <ele>98.6</ele>
        <time>2026-08-15T08:36:58Z</time>
      </trkpt>
      <trkpt lat="44.51846" lon="0.77774">
        <ele>98.6</ele>
        <time>2026-08-15T08:36:59Z</time>
      </trkpt>
      <trkpt lat="44.51843" lon="0.77778">
        <ele>99</ele>
        <time>2026-08-15T08:37:00Z</time>
      </trkpt>
      <trkpt lat="44.5184" lon="0.77782">
        <ele>99</ele>
        <time>2026-08-15T08:37:01Z</time>
      </trkpt>
      <trkpt lat="44.51838" lon="0.77786">
        <ele>99.4</ele>
        <time>2026-08-15T08:37:02Z</time>
      </trkpt>
      <trkpt lat="44.51835" lon="0.7779">
        <ele>99.6</ele>
        <time>2026-08-15T08:37:03Z</time>
      </trkpt>
      <trkpt lat="44.51833" lon="0.77794">
        <ele>99.6</ele>
        <time>2026-08-15T08:37:04Z</time>
      </trkpt>
      <trkpt lat="44.5183" lon="0.77798">
        <ele>100</ele>
        <time>2026-08-15T08:37:05Z</time>
      </trkpt>
      <trkpt lat="44.51828" lon="0.77801">
        <ele>100.4</ele>
        <time>2026-08-15T08:37:06Z</time>
      </trkpt>
      <trkpt lat="44.51826" lon="0.77805">
        <ele>100.6</ele>
        <time>2026-08-15T08:37:07Z</time>
      </trkpt>
      <trkpt lat="44.51824" lon="0.77808">
        <ele>101</ele>
        <time>2026-08-15T08:37:08Z</time>
      </trkpt>
      <trkpt lat="44.51822" lon="0.77812">
        <ele>101.2</ele>
        <time>2026-08-15T08:37:09Z</time>
      </trkpt>
      <trkpt lat="44.5182" lon="0.77816">
        <ele>101.4</ele>
        <time>2026-08-15T08:37:10Z</time>
      </trkpt>
      <trkpt lat="44.51818" lon="0.7782">
        <ele>101.6</ele>
        <time>2026-08-15T08:37:11Z</time>
      </trkpt>
      <trkpt lat="44.51815" lon="0.77824">
        <ele>102</ele>
        <time>2026-08-15T08:37:12Z</time>
      </trkpt>
      <trkpt lat="44.51813" lon="0.77828">
        <ele>102.4</ele>
        <time>2026-08-15T08:37:13Z</time>
      </trkpt>
      <trkpt lat="44.51811" lon="0.77832">
        <ele>102.6</ele>
        <time>2026-08-15T08:37:14Z</time>
      </trkpt>
      <trkpt lat="44.51808" lon="0.77836">
        <ele>102.6</ele>
        <time>2026-08-15T08:37:15Z</time>
      </trkpt>
      <trkpt lat="44.51806" lon="0.77841">
        <ele>102.6</ele>
        <time>2026-08-15T08:37:16Z</time>
      </trkpt>
      <trkpt lat="44.51804" lon="0.77846">
        <ele>102.6</ele>
        <time>2026-08-15T08:37:17Z</time>
      </trkpt>
      <trkpt lat="44.51801" lon="0.7785">
        <ele>102.8</ele>
        <time>2026-08-15T08:37:18Z</time>
      </trkpt>
      <trkpt lat="44.51799" lon="0.77855">
        <ele>102.8</ele>
        <time>2026-08-15T08:37:19Z</time>
      </trkpt>
      <trkpt lat="44.51796" lon="0.7786">
        <ele>102.8</ele>
        <time>2026-08-15T08:37:20Z</time>
      </trkpt>
      <trkpt lat="44.51794" lon="0.77865">
        <ele>102.8</ele>
        <time>2026-08-15T08:37:21Z</time>
      </trkpt>
      <trkpt lat="44.51791" lon="0.7787">
        <ele>102.8</ele>
        <time>2026-08-15T08:37:22Z</time>
      </trkpt>
      <trkpt lat="44.51788" lon="0.77875">
        <ele>103</ele>
        <time>2026-08-15T08:37:23Z</time>
      </trkpt>
      <trkpt lat="44.51786" lon="0.77879">
        <ele>103</ele>
        <time>2026-08-15T08:37:24Z</time>
      </trkpt>
      <trkpt lat="44.51783" lon="0.77884">
        <ele>103</ele>
        <time>2026-08-15T08:37:25Z</time>
      </trkpt>
      <trkpt lat="44.5178" lon="0.77889">
        <ele>103.4</ele>
        <time>2026-08-15T08:37:26Z</time>
      </trkpt>
      <trkpt lat="44.51777" lon="0.77893">
        <ele>103.4</ele>
        <time>2026-08-15T08:37:27Z</time>
      </trkpt>
      <trkpt lat="44.51773" lon="0.77897">
        <ele>103.4</ele>
        <time>2026-08-15T08:37:28Z</time>
      </trkpt>
      <trkpt lat="44.5177" lon="0.77901">
        <ele>103.4</ele>
        <time>2026-08-15T08:37:29Z</time>
      </trkpt>
      <trkpt lat="44.51767" lon="0.77905">
        <ele>103.6</ele>
        <time>2026-08-15T08:37:30Z</time>
      </trkpt>
      <trkpt lat="44.51763" lon="0.77908">
        <ele>103.6</ele>
        <time>2026-08-15T08:37:31Z</time>
      </trkpt>
      <trkpt lat="44.51759" lon="0.77912">
        <ele>103.6</ele>
        <time>2026-08-15T08:37:32Z</time>
      </trkpt>
      <trkpt lat="44.51756" lon="0.77915">
        <ele>103.6</ele>
        <time>2026-08-15T08:37:33Z</time>
      </trkpt>
      <trkpt lat="44.51752" lon="0.77918">
        <ele>103.6</ele>
        <time>2026-08-15T08:37:34Z</time>
      </trkpt>
      <trkpt lat="44.51748" lon="0.77921">
        <ele>103.6</ele>
        <time>2026-08-15T08:37:35Z</time>
      </trkpt>
      <trkpt lat="44.51744" lon="0.77925">
        <ele>103.6</ele>
        <time>2026-08-15T08:37:36Z</time>
      </trkpt>
      <trkpt lat="44.5174" lon="0.77928">
        <ele>103.6</ele>
        <time>2026-08-15T08:37:37Z</time>
      </trkpt>
      <trkpt lat="44.51736" lon="0.77931">
        <ele>103.6</ele>
        <time>2026-08-15T08:37:38Z</time>
      </trkpt>
      <trkpt lat="44.51733" lon="0.77935">
        <ele>103.6</ele>
        <time>2026-08-15T08:37:39Z</time>
      </trkpt>
      <trkpt lat="44.51729" lon="0.77938">
        <ele>103.6</ele>
        <time>2026-08-15T08:37:40Z</time>
      </trkpt>
      <trkpt lat="44.51725" lon="0.77942">
        <ele>103.6</ele>
        <time>2026-08-15T08:37:41Z</time>
      </trkpt>
      <trkpt lat="44.51721" lon="0.77945">
        <ele>103.8</ele>
        <time>2026-08-15T08:37:42Z</time>
      </trkpt>
      <trkpt lat="44.51717" lon="0.77949">
        <ele>103.8</ele>
        <time>2026-08-15T08:37:43Z</time>
      </trkpt>
      <trkpt lat="44.51713" lon="0.77952">
        <ele>103.8</ele>
        <time>2026-08-15T08:37:44Z</time>
      </trkpt>
      <trkpt lat="44.51709" lon="0.77956">
        <ele>104</ele>
        <time>2026-08-15T08:37:45Z</time>
      </trkpt>
      <trkpt lat="44.51705" lon="0.77959">
        <ele>104</ele>
        <time>2026-08-15T08:37:46Z</time>
      </trkpt>
      <trkpt lat="44.51701" lon="0.77963">
        <ele>104</ele>
        <time>2026-08-15T08:37:47Z</time>
      </trkpt>
      <trkpt lat="44.51697" lon="0.77967">
        <ele>104</ele>
        <time>2026-08-15T08:37:48Z</time>
      </trkpt>
      <trkpt lat="44.51693" lon="0.7797">
        <ele>104.2</ele>
        <time>2026-08-15T08:37:49Z</time>
      </trkpt>
      <trkpt lat="44.51689" lon="0.77974">
        <ele>104.4</ele>
        <time>2026-08-15T08:37:50Z</time>
      </trkpt>
      <trkpt lat="44.51685" lon="0.77977">
        <ele>104.4</ele>
        <time>2026-08-15T08:37:51Z</time>
      </trkpt>
      <trkpt lat="44.51681" lon="0.77981">
        <ele>104.6</ele>
        <time>2026-08-15T08:37:52Z</time>
      </trkpt>
      <trkpt lat="44.51678" lon="0.77985">
        <ele>104.6</ele>
        <time>2026-08-15T08:37:53Z</time>
      </trkpt>
      <trkpt lat="44.51674" lon="0.77989">
        <ele>104.6</ele>
        <time>2026-08-15T08:37:54Z</time>
      </trkpt>
      <trkpt lat="44.5167" lon="0.77992">
        <ele>104.8</ele>
        <time>2026-08-15T08:37:55Z</time>
      </trkpt>
      <trkpt lat="44.51666" lon="0.77996">
        <ele>105</ele>
        <time>2026-08-15T08:37:56Z</time>
      </trkpt>
      <trkpt lat="44.51663" lon="0.78">
        <ele>105</ele>
        <time>2026-08-15T08:37:57Z</time>
      </trkpt>
      <trkpt lat="44.51659" lon="0.78004">
        <ele>105</ele>
        <time>2026-08-15T08:37:58Z</time>
      </trkpt>
      <trkpt lat="44.51655" lon="0.78008">
        <ele>105.2</ele>
        <time>2026-08-15T08:37:59Z</time>
      </trkpt>
      <trkpt lat="44.51652" lon="0.78012">
        <ele>105.4</ele>
        <time>2026-08-15T08:38:00Z</time>
      </trkpt>
      <trkpt lat="44.51648" lon="0.78016">
        <ele>105.4</ele>
        <time>2026-08-15T08:38:01Z</time>
      </trkpt>
      <trkpt lat="44.51645" lon="0.7802">
        <ele>105.4</ele>
        <time>2026-08-15T08:38:02Z</time>
      </trkpt>
      <trkpt lat="44.51641" lon="0.78024">
        <ele>105.4</ele>
        <time>2026-08-15T08:38:03Z</time>
      </trkpt>
      <trkpt lat="44.51638" lon="0.78028">
        <ele>105.6</ele>
        <time>2026-08-15T08:38:04Z</time>
      </trkpt>
      <trkpt lat="44.51634" lon="0.78032">
        <ele>105.6</ele>
        <time>2026-08-15T08:38:05Z</time>
      </trkpt>
      <trkpt lat="44.5163" lon="0.78036">
        <ele>105.6</ele>
        <time>2026-08-15T08:38:06Z</time>
      </trkpt>
      <trkpt lat="44.51627" lon="0.7804">
        <ele>105.8</ele>
        <time>2026-08-15T08:38:07Z</time>
      </trkpt>
      <trkpt lat="44.51623" lon="0.78044">
        <ele>106</ele>
        <time>2026-08-15T08:38:08Z</time>
      </trkpt>
      <trkpt lat="44.5162" lon="0.78049">
        <ele>106</ele>
        <time>2026-08-15T08:38:09Z</time>
      </trkpt>
      <trkpt lat="44.51617" lon="0.78053">
        <ele>106.2</ele>
        <time>2026-08-15T08:38:10Z</time>
      </trkpt>
      <trkpt lat="44.51613" lon="0.78057">
        <ele>106.4</ele>
        <time>2026-08-15T08:38:11Z</time>
      </trkpt>
      <trkpt lat="44.5161" lon="0.78061">
        <ele>106.6</ele>
        <time>2026-08-15T08:38:12Z</time>
      </trkpt>
      <trkpt lat="44.51606" lon="0.78066">
        <ele>106.6</ele>
        <time>2026-08-15T08:38:13Z</time>
      </trkpt>
      <trkpt lat="44.51603" lon="0.7807">
        <ele>107</ele>
        <time>2026-08-15T08:38:14Z</time>
      </trkpt>
      <trkpt lat="44.51599" lon="0.78074">
        <ele>107</ele>
        <time>2026-08-15T08:38:15Z</time>
      </trkpt>
      <trkpt lat="44.51596" lon="0.78079">
        <ele>107.2</ele>
        <time>2026-08-15T08:38:16Z</time>
      </trkpt>
      <trkpt lat="44.51592" lon="0.78083">
        <ele>107.4</ele>
        <time>2026-08-15T08:38:17Z</time>
      </trkpt>
      <trkpt lat="44.51589" lon="0.78087">
        <ele>107.6</ele>
        <time>2026-08-15T08:38:18Z</time>
      </trkpt>
      <trkpt lat="44.51586" lon="0.78091">
        <ele>107.6</ele>
        <time>2026-08-15T08:38:19Z</time>
      </trkpt>
      <trkpt lat="44.51582" lon="0.78096">
        <ele>107.8</ele>
        <time>2026-08-15T08:38:20Z</time>
      </trkpt>
      <trkpt lat="44.51579" lon="0.781">
        <ele>108</ele>
        <time>2026-08-15T08:38:21Z</time>
      </trkpt>
      <trkpt lat="44.51575" lon="0.78105">
        <ele>108</ele>
        <time>2026-08-15T08:38:22Z</time>
      </trkpt>
      <trkpt lat="44.51572" lon="0.78109">
        <ele>108.4</ele>
        <time>2026-08-15T08:38:23Z</time>
      </trkpt>
      <trkpt lat="44.51568" lon="0.78114">
        <ele>108.4</ele>
        <time>2026-08-15T08:38:24Z</time>
      </trkpt>
      <trkpt lat="44.51565" lon="0.78119">
        <ele>108.6</ele>
        <time>2026-08-15T08:38:25Z</time>
      </trkpt>
      <trkpt lat="44.51562" lon="0.78124">
        <ele>108.6</ele>
        <time>2026-08-15T08:38:26Z</time>
      </trkpt>
      <trkpt lat="44.51558" lon="0.78129">
        <ele>108.6</ele>
        <time>2026-08-15T08:38:27Z</time>
      </trkpt>
      <trkpt lat="44.51555" lon="0.78135">
        <ele>108.8</ele>
        <time>2026-08-15T08:38:28Z</time>
      </trkpt>
      <trkpt lat="44.51552" lon="0.7814">
        <ele>109</ele>
        <time>2026-08-15T08:38:29Z</time>
      </trkpt>
      <trkpt lat="44.51549" lon="0.78145">
        <ele>109</ele>
        <time>2026-08-15T08:38:30Z</time>
      </trkpt>
      <trkpt lat="44.51546" lon="0.78151">
        <ele>109</ele>
        <time>2026-08-15T08:38:31Z</time>
      </trkpt>
      <trkpt lat="44.51543" lon="0.78156">
        <ele>109</ele>
        <time>2026-08-15T08:38:32Z</time>
      </trkpt>
      <trkpt lat="44.5154" lon="0.78162">
        <ele>109</ele>
        <time>2026-08-15T08:38:33Z</time>
      </trkpt>
      <trkpt lat="44.51538" lon="0.78167">
        <ele>109.2</ele>
        <time>2026-08-15T08:38:34Z</time>
      </trkpt>
      <trkpt lat="44.51535" lon="0.78172">
        <ele>109.4</ele>
        <time>2026-08-15T08:38:35Z</time>
      </trkpt>
      <trkpt lat="44.51532" lon="0.78178">
        <ele>109.4</ele>
        <time>2026-08-15T08:38:36Z</time>
      </trkpt>
      <trkpt lat="44.51529" lon="0.78183">
        <ele>109.4</ele>
        <time>2026-08-15T08:38:37Z</time>
      </trkpt>
      <trkpt lat="44.51526" lon="0.78188">
        <ele>109.6</ele>
        <time>2026-08-15T08:38:38Z</time>
      </trkpt>
      <trkpt lat="44.51523" lon="0.78194">
        <ele>109.6</ele>
        <time>2026-08-15T08:38:39Z</time>
      </trkpt>
      <trkpt lat="44.5152" lon="0.78199">
        <ele>109.8</ele>
        <time>2026-08-15T08:38:40Z</time>
      </trkpt>
      <trkpt lat="44.51518" lon="0.78204">
        <ele>110</ele>
        <time>2026-08-15T08:38:41Z</time>
      </trkpt>
      <trkpt lat="44.51515" lon="0.78209">
        <ele>110</ele>
        <time>2026-08-15T08:38:42Z</time>
      </trkpt>
      <trkpt lat="44.51512" lon="0.78214">
        <ele>110.4</ele>
        <time>2026-08-15T08:38:43Z</time>
      </trkpt>
      <trkpt lat="44.5151" lon="0.78219">
        <ele>110.4</ele>
        <time>2026-08-15T08:38:44Z</time>
      </trkpt>
      <trkpt lat="44.51507" lon="0.78224">
        <ele>110.6</ele>
        <time>2026-08-15T08:38:45Z</time>
      </trkpt>
      <trkpt lat="44.51504" lon="0.78229">
        <ele>110.8</ele>
        <time>2026-08-15T08:38:46Z</time>
      </trkpt>
      <trkpt lat="44.51502" lon="0.78234">
        <ele>111</ele>
        <time>2026-08-15T08:38:47Z</time>
      </trkpt>
      <trkpt lat="44.51499" lon="0.78239">
        <ele>111</ele>
        <time>2026-08-15T08:38:48Z</time>
      </trkpt>
      <trkpt lat="44.51496" lon="0.78244">
        <ele>111</ele>
        <time>2026-08-15T08:38:49Z</time>
      </trkpt>
      <trkpt lat="44.51494" lon="0.78248">
        <ele>111.2</ele>
        <time>2026-08-15T08:38:50Z</time>
      </trkpt>
      <trkpt lat="44.51491" lon="0.78253">
        <ele>111.4</ele>
        <time>2026-08-15T08:38:51Z</time>
      </trkpt>
      <trkpt lat="44.51489" lon="0.78258">
        <ele>111.6</ele>
        <time>2026-08-15T08:38:52Z</time>
      </trkpt>
      <trkpt lat="44.51486" lon="0.78263">
        <ele>111.6</ele>
        <time>2026-08-15T08:38:53Z</time>
      </trkpt>
      <trkpt lat="44.51484" lon="0.78268">
        <ele>111.6</ele>
        <time>2026-08-15T08:38:54Z</time>
      </trkpt>
      <trkpt lat="44.51481" lon="0.78273">
        <ele>111.8</ele>
        <time>2026-08-15T08:38:55Z</time>
      </trkpt>
      <trkpt lat="44.51479" lon="0.78278">
        <ele>112</ele>
        <time>2026-08-15T08:38:56Z</time>
      </trkpt>
      <trkpt lat="44.51477" lon="0.78282">
        <ele>112</ele>
        <time>2026-08-15T08:38:57Z</time>
      </trkpt>
      <trkpt lat="44.51474" lon="0.78287">
        <ele>112.2</ele>
        <time>2026-08-15T08:38:58Z</time>
      </trkpt>
      <trkpt lat="44.51472" lon="0.78292">
        <ele>112.4</ele>
        <time>2026-08-15T08:38:59Z</time>
      </trkpt>
      <trkpt lat="44.5147" lon="0.78297">
        <ele>112.4</ele>
        <time>2026-08-15T08:39:00Z</time>
      </trkpt>
      <trkpt lat="44.51468" lon="0.78302">
        <ele>112.6</ele>
        <time>2026-08-15T08:39:01Z</time>
      </trkpt>
      <trkpt lat="44.51466" lon="0.78307">
        <ele>112.8</ele>
        <time>2026-08-15T08:39:02Z</time>
      </trkpt>
      <trkpt lat="44.51464" lon="0.78312">
        <ele>113</ele>
        <time>2026-08-15T08:39:03Z</time>
      </trkpt>
      <trkpt lat="44.51463" lon="0.78317">
        <ele>113.4</ele>
        <time>2026-08-15T08:39:04Z</time>
      </trkpt>
      <trkpt lat="44.51461" lon="0.78322">
        <ele>113.6</ele>
        <time>2026-08-15T08:39:05Z</time>
      </trkpt>
      <trkpt lat="44.51459" lon="0.78327">
        <ele>113.6</ele>
        <time>2026-08-15T08:39:06Z</time>
      </trkpt>
      <trkpt lat="44.51458" lon="0.78332">
        <ele>113.8</ele>
        <time>2026-08-15T08:39:07Z</time>
      </trkpt>
      <trkpt lat="44.51457" lon="0.78338">
        <ele>114</ele>
        <time>2026-08-15T08:39:08Z</time>
      </trkpt>
      <trkpt lat="44.51456" lon="0.78343">
        <ele>114.4</ele>
        <time>2026-08-15T08:39:09Z</time>
      </trkpt>
      <trkpt lat="44.51454" lon="0.78349">
        <ele>114.6</ele>
        <time>2026-08-15T08:39:10Z</time>
      </trkpt>
      <trkpt lat="44.51453" lon="0.78354">
        <ele>114.8</ele>
        <time>2026-08-15T08:39:11Z</time>
      </trkpt>
      <trkpt lat="44.51451" lon="0.7836">
        <ele>115</ele>
        <time>2026-08-15T08:39:12Z</time>
      </trkpt>
      <trkpt lat="44.51449" lon="0.78365">
        <ele>115</ele>
        <time>2026-08-15T08:39:13Z</time>
      </trkpt>
      <trkpt lat="44.51447" lon="0.78371">
        <ele>115</ele>
        <time>2026-08-15T08:39:14Z</time>
      </trkpt>
      <trkpt lat="44.51445" lon="0.78376">
        <ele>115.2</ele>
        <time>2026-08-15T08:39:15Z</time>
      </trkpt>
      <trkpt lat="44.51443" lon="0.78381">
        <ele>115.2</ele>
        <time>2026-08-15T08:39:16Z</time>
      </trkpt>
      <trkpt lat="44.51441" lon="0.78387">
        <ele>115.4</ele>
        <time>2026-08-15T08:39:17Z</time>
      </trkpt>
      <trkpt lat="44.5144" lon="0.78393">
        <ele>115.4</ele>
        <time>2026-08-15T08:39:18Z</time>
      </trkpt>
      <trkpt lat="44.51438" lon="0.78399">
        <ele>115.4</ele>
        <time>2026-08-15T08:39:19Z</time>
      </trkpt>
      <trkpt lat="44.51436" lon="0.78404">
        <ele>115.4</ele>
        <time>2026-08-15T08:39:20Z</time>
      </trkpt>
      <trkpt lat="44.51434" lon="0.78411">
        <ele>115.6</ele>
        <time>2026-08-15T08:39:21Z</time>
      </trkpt>
      <trkpt lat="44.51432" lon="0.78417">
        <ele>115.6</ele>
        <time>2026-08-15T08:39:22Z</time>
      </trkpt>
      <trkpt lat="44.5143" lon="0.78423">
        <ele>115.6</ele>
        <time>2026-08-15T08:39:23Z</time>
      </trkpt>
      <trkpt lat="44.51428" lon="0.78429">
        <ele>115.8</ele>
        <time>2026-08-15T08:39:24Z</time>
      </trkpt>
      <trkpt lat="44.51426" lon="0.78436">
        <ele>115.8</ele>
        <time>2026-08-15T08:39:25Z</time>
      </trkpt>
      <trkpt lat="44.51424" lon="0.78442">
        <ele>116</ele>
        <time>2026-08-15T08:39:26Z</time>
      </trkpt>
      <trkpt lat="44.51422" lon="0.78448">
        <ele>116</ele>
        <time>2026-08-15T08:39:27Z</time>
      </trkpt>
      <trkpt lat="44.5142" lon="0.78454">
        <ele>116</ele>
        <time>2026-08-15T08:39:28Z</time>
      </trkpt>
      <trkpt lat="44.51418" lon="0.7846">
        <ele>116</ele>
        <time>2026-08-15T08:39:29Z</time>
      </trkpt>
      <trkpt lat="44.51416" lon="0.78467">
        <ele>116</ele>
        <time>2026-08-15T08:39:30Z</time>
      </trkpt>
      <trkpt lat="44.51414" lon="0.78473">
        <ele>115.8</ele>
        <time>2026-08-15T08:39:31Z</time>
      </trkpt>
      <trkpt lat="44.51412" lon="0.7848">
        <ele>115.8</ele>
        <time>2026-08-15T08:39:32Z</time>
      </trkpt>
      <trkpt lat="44.5141" lon="0.78487">
        <ele>115.6</ele>
        <time>2026-08-15T08:39:33Z</time>
      </trkpt>
      <trkpt lat="44.51408" lon="0.78494">
        <ele>115.6</ele>
        <time>2026-08-15T08:39:34Z</time>
      </trkpt>
      <trkpt lat="44.51406" lon="0.78501">
        <ele>115.6</ele>
        <time>2026-08-15T08:39:35Z</time>
      </trkpt>
      <trkpt lat="44.51405" lon="0.78507">
        <ele>115.6</ele>
        <time>2026-08-15T08:39:36Z</time>
      </trkpt>
      <trkpt lat="44.51403" lon="0.78514">
        <ele>115.6</ele>
        <time>2026-08-15T08:39:37Z</time>
      </trkpt>
      <trkpt lat="44.51401" lon="0.78521">
        <ele>115.6</ele>
        <time>2026-08-15T08:39:38Z</time>
      </trkpt>
      <trkpt lat="44.51399" lon="0.78527">
        <ele>115.6</ele>
        <time>2026-08-15T08:39:39Z</time>
      </trkpt>
      <trkpt lat="44.51397" lon="0.78534">
        <ele>115.6</ele>
        <time>2026-08-15T08:39:40Z</time>
      </trkpt>
      <trkpt lat="44.51396" lon="0.7854">
        <ele>115.6</ele>
        <time>2026-08-15T08:39:41Z</time>
      </trkpt>
      <trkpt lat="44.51394" lon="0.78546">
        <ele>115.6</ele>
        <time>2026-08-15T08:39:42Z</time>
      </trkpt>
      <trkpt lat="44.51392" lon="0.78552">
        <ele>115.6</ele>
        <time>2026-08-15T08:39:43Z</time>
      </trkpt>
      <trkpt lat="44.5139" lon="0.78558">
        <ele>115.6</ele>
        <time>2026-08-15T08:39:44Z</time>
      </trkpt>
      <trkpt lat="44.51387" lon="0.78564">
        <ele>115.6</ele>
        <time>2026-08-15T08:39:45Z</time>
      </trkpt>
      <trkpt lat="44.51385" lon="0.7857">
        <ele>115.4</ele>
        <time>2026-08-15T08:39:46Z</time>
      </trkpt>
      <trkpt lat="44.51382" lon="0.78576">
        <ele>115.4</ele>
        <time>2026-08-15T08:39:47Z</time>
      </trkpt>
      <trkpt lat="44.51379" lon="0.78582">
        <ele>115.4</ele>
        <time>2026-08-15T08:39:48Z</time>
      </trkpt>
      <trkpt lat="44.51376" lon="0.78589">
        <ele>115.4</ele>
        <time>2026-08-15T08:39:49Z</time>
      </trkpt>
      <trkpt lat="44.51374" lon="0.78595">
        <ele>115.4</ele>
        <time>2026-08-15T08:39:50Z</time>
      </trkpt>
      <trkpt lat="44.51371" lon="0.78601">
        <ele>115.4</ele>
        <time>2026-08-15T08:39:51Z</time>
      </trkpt>
      <trkpt lat="44.51369" lon="0.78608">
        <ele>115.4</ele>
        <time>2026-08-15T08:39:52Z</time>
      </trkpt>
      <trkpt lat="44.51366" lon="0.78614">
        <ele>115.4</ele>
        <time>2026-08-15T08:39:53Z</time>
      </trkpt>
      <trkpt lat="44.51363" lon="0.7862">
        <ele>115.4</ele>
        <time>2026-08-15T08:39:54Z</time>
      </trkpt>
      <trkpt lat="44.5136" lon="0.78626">
        <ele>115.4</ele>
        <time>2026-08-15T08:39:55Z</time>
      </trkpt>
      <trkpt lat="44.51357" lon="0.78632">
        <ele>115.4</ele>
        <time>2026-08-15T08:39:56Z</time>
      </trkpt>
      <trkpt lat="44.51354" lon="0.78638">
        <ele>115.4</ele>
        <time>2026-08-15T08:39:57Z</time>
      </trkpt>
      <trkpt lat="44.51351" lon="0.78644">
        <ele>115.4</ele>
        <time>2026-08-15T08:39:58Z</time>
      </trkpt>
      <trkpt lat="44.51347" lon="0.7865">
        <ele>115.2</ele>
        <time>2026-08-15T08:39:59Z</time>
      </trkpt>
      <trkpt lat="44.51344" lon="0.78655">
        <ele>115</ele>
        <time>2026-08-15T08:40:00Z</time>
      </trkpt>
      <trkpt lat="44.51341" lon="0.78661">
        <ele>115</ele>
        <time>2026-08-15T08:40:01Z</time>
      </trkpt>
      <trkpt lat="44.51338" lon="0.78666">
        <ele>114.8</ele>
        <time>2026-08-15T08:40:02Z</time>
      </trkpt>
      <trkpt lat="44.51334" lon="0.78671">
        <ele>114.8</ele>
        <time>2026-08-15T08:40:03Z</time>
      </trkpt>
      <trkpt lat="44.5133" lon="0.78676">
        <ele>114.6</ele>
        <time>2026-08-15T08:40:04Z</time>
      </trkpt>
      <trkpt lat="44.51327" lon="0.78681">
        <ele>114.6</ele>
        <time>2026-08-15T08:40:05Z</time>
      </trkpt>
      <trkpt lat="44.51323" lon="0.78686">
        <ele>114.6</ele>
        <time>2026-08-15T08:40:06Z</time>
      </trkpt>
      <trkpt lat="44.5132" lon="0.78691">
        <ele>114.6</ele>
        <time>2026-08-15T08:40:07Z</time>
      </trkpt>
      <trkpt lat="44.51317" lon="0.78696">
        <ele>114.6</ele>
        <time>2026-08-15T08:40:08Z</time>
      </trkpt>
      <trkpt lat="44.51314" lon="0.78701">
        <ele>114.6</ele>
        <time>2026-08-15T08:40:09Z</time>
      </trkpt>
      <trkpt lat="44.51311" lon="0.78706">
        <ele>114.6</ele>
        <time>2026-08-15T08:40:10Z</time>
      </trkpt>
      <trkpt lat="44.51308" lon="0.78711">
        <ele>114.6</ele>
        <time>2026-08-15T08:40:11Z</time>
      </trkpt>
      <trkpt lat="44.51305" lon="0.78716">
        <ele>114.6</ele>
        <time>2026-08-15T08:40:12Z</time>
      </trkpt>
      <trkpt lat="44.51302" lon="0.7872">
        <ele>114.6</ele>
        <time>2026-08-15T08:40:13Z</time>
      </trkpt>
      <trkpt lat="44.51299" lon="0.78725">
        <ele>114.8</ele>
        <time>2026-08-15T08:40:14Z</time>
      </trkpt>
      <trkpt lat="44.51296" lon="0.7873">
        <ele>115</ele>
        <time>2026-08-15T08:40:15Z</time>
      </trkpt>
      <trkpt lat="44.51293" lon="0.78734">
        <ele>115</ele>
        <time>2026-08-15T08:40:16Z</time>
      </trkpt>
      <trkpt lat="44.5129" lon="0.78739">
        <ele>115</ele>
        <time>2026-08-15T08:40:17Z</time>
      </trkpt>
      <trkpt lat="44.51287" lon="0.78743">
        <ele>115</ele>
        <time>2026-08-15T08:40:18Z</time>
      </trkpt>
      <trkpt lat="44.51284" lon="0.78747">
        <ele>115</ele>
        <time>2026-08-15T08:40:19Z</time>
      </trkpt>
      <trkpt lat="44.51281" lon="0.78751">
        <ele>115.2</ele>
        <time>2026-08-15T08:40:20Z</time>
      </trkpt>
      <trkpt lat="44.51277" lon="0.78754">
        <ele>115.4</ele>
        <time>2026-08-15T08:40:21Z</time>
      </trkpt>
      <trkpt lat="44.51273" lon="0.78757">
        <ele>115.6</ele>
        <time>2026-08-15T08:40:22Z</time>
      </trkpt>
      <trkpt lat="44.5127" lon="0.7876">
        <ele>115.8</ele>
        <time>2026-08-15T08:40:23Z</time>
      </trkpt>
      <trkpt lat="44.51266" lon="0.78763">
        <ele>116</ele>
        <time>2026-08-15T08:40:24Z</time>
      </trkpt>
      <trkpt lat="44.51263" lon="0.78766">
        <ele>116</ele>
        <time>2026-08-15T08:40:25Z</time>
      </trkpt>
      <trkpt lat="44.5126" lon="0.78768">
        <ele>116.4</ele>
        <time>2026-08-15T08:40:26Z</time>
      </trkpt>
      <trkpt lat="44.51256" lon="0.78771">
        <ele>116.6</ele>
        <time>2026-08-15T08:40:27Z</time>
      </trkpt>
      <trkpt lat="44.51253" lon="0.78773">
        <ele>116.6</ele>
        <time>2026-08-15T08:40:28Z</time>
      </trkpt>
      <trkpt lat="44.5125" lon="0.78776">
        <ele>116.8</ele>
        <time>2026-08-15T08:40:29Z</time>
      </trkpt>
      <trkpt lat="44.51247" lon="0.78778">
        <ele>117</ele>
        <time>2026-08-15T08:40:30Z</time>
      </trkpt>
      <trkpt lat="44.51244" lon="0.7878">
        <ele>117.4</ele>
        <time>2026-08-15T08:40:31Z</time>
      </trkpt>
      <trkpt lat="44.51241" lon="0.78783">
        <ele>117.6</ele>
        <time>2026-08-15T08:40:32Z</time>
      </trkpt>
      <trkpt lat="44.51238" lon="0.78784">
        <ele>117.6</ele>
        <time>2026-08-15T08:40:33Z</time>
      </trkpt>
      <trkpt lat="44.51235" lon="0.78786">
        <ele>118</ele>
        <time>2026-08-15T08:40:34Z</time>
      </trkpt>
      <trkpt lat="44.51232" lon="0.78788">
        <ele>118</ele>
        <time>2026-08-15T08:40:35Z</time>
      </trkpt>
      <trkpt lat="44.51228" lon="0.7879">
        <ele>118.4</ele>
        <time>2026-08-15T08:40:36Z</time>
      </trkpt>
      <trkpt lat="44.51225" lon="0.78792">
        <ele>118.4</ele>
        <time>2026-08-15T08:40:37Z</time>
      </trkpt>
      <trkpt lat="44.51222" lon="0.78794">
        <ele>118.6</ele>
        <time>2026-08-15T08:40:38Z</time>
      </trkpt>
      <trkpt lat="44.51219" lon="0.78796">
        <ele>118.6</ele>
        <time>2026-08-15T08:40:39Z</time>
      </trkpt>
      <trkpt lat="44.51216" lon="0.78798">
        <ele>119</ele>
        <time>2026-08-15T08:40:40Z</time>
      </trkpt>
      <trkpt lat="44.51212" lon="0.78801">
        <ele>119</ele>
        <time>2026-08-15T08:40:41Z</time>
      </trkpt>
      <trkpt lat="44.51209" lon="0.78803">
        <ele>119</ele>
        <time>2026-08-15T08:40:42Z</time>
      </trkpt>
      <trkpt lat="44.51206" lon="0.78805">
        <ele>119.4</ele>
        <time>2026-08-15T08:40:43Z</time>
      </trkpt>
      <trkpt lat="44.51203" lon="0.78808">
        <ele>119.6</ele>
        <time>2026-08-15T08:40:44Z</time>
      </trkpt>
      <trkpt lat="44.512" lon="0.78811">
        <ele>119.6</ele>
        <time>2026-08-15T08:40:45Z</time>
      </trkpt>
      <trkpt lat="44.51197" lon="0.78814">
        <ele>120</ele>
        <time>2026-08-15T08:40:46Z</time>
      </trkpt>
      <trkpt lat="44.51194" lon="0.78817">
        <ele>120</ele>
        <time>2026-08-15T08:40:47Z</time>
      </trkpt>
      <trkpt lat="44.51191" lon="0.7882">
        <ele>120.4</ele>
        <time>2026-08-15T08:40:48Z</time>
      </trkpt>
      <trkpt lat="44.51188" lon="0.78823">
        <ele>120.4</ele>
        <time>2026-08-15T08:40:49Z</time>
      </trkpt>
      <trkpt lat="44.51185" lon="0.78827">
        <ele>120.6</ele>
        <time>2026-08-15T08:40:50Z</time>
      </trkpt>
      <trkpt lat="44.51182" lon="0.7883">
        <ele>120.6</ele>
        <time>2026-08-15T08:40:51Z</time>
      </trkpt>
      <trkpt lat="44.5118" lon="0.78833">
        <ele>121</ele>
        <time>2026-08-15T08:40:52Z</time>
      </trkpt>
      <trkpt lat="44.51177" lon="0.78837">
        <ele>121.2</ele>
        <time>2026-08-15T08:40:53Z</time>
      </trkpt>
      <trkpt lat="44.51175" lon="0.7884">
        <ele>121.4</ele>
        <time>2026-08-15T08:40:54Z</time>
      </trkpt>
      <trkpt lat="44.51172" lon="0.78844">
        <ele>121.6</ele>
        <time>2026-08-15T08:40:55Z</time>
      </trkpt>
      <trkpt lat="44.5117" lon="0.78848">
        <ele>121.8</ele>
        <time>2026-08-15T08:40:56Z</time>
      </trkpt>
      <trkpt lat="44.51168" lon="0.78851">
        <ele>122</ele>
        <time>2026-08-15T08:40:57Z</time>
      </trkpt>
      <trkpt lat="44.51165" lon="0.78855">
        <ele>122</ele>
        <time>2026-08-15T08:40:58Z</time>
      </trkpt>
      <trkpt lat="44.51163" lon="0.78858">
        <ele>122.2</ele>
        <time>2026-08-15T08:40:59Z</time>
      </trkpt>
      <trkpt lat="44.51161" lon="0.78862">
        <ele>122.4</ele>
        <time>2026-08-15T08:41:00Z</time>
      </trkpt>
      <trkpt lat="44.51159" lon="0.78865">
        <ele>122.6</ele>
        <time>2026-08-15T08:41:01Z</time>
      </trkpt>
      <trkpt lat="44.51157" lon="0.78869">
        <ele>122.6</ele>
        <time>2026-08-15T08:41:02Z</time>
      </trkpt>
      <trkpt lat="44.51155" lon="0.78873">
        <ele>123</ele>
        <time>2026-08-15T08:41:03Z</time>
      </trkpt>
      <trkpt lat="44.51152" lon="0.78877">
        <ele>123</ele>
        <time>2026-08-15T08:41:04Z</time>
      </trkpt>
      <trkpt lat="44.5115" lon="0.78881">
        <ele>123.4</ele>
        <time>2026-08-15T08:41:05Z</time>
      </trkpt>
      <trkpt lat="44.51148" lon="0.78884">
        <ele>123.4</ele>
        <time>2026-08-15T08:41:06Z</time>
      </trkpt>
      <trkpt lat="44.51146" lon="0.78888">
        <ele>123.6</ele>
        <time>2026-08-15T08:41:07Z</time>
      </trkpt>
      <trkpt lat="44.51144" lon="0.78891">
        <ele>123.6</ele>
        <time>2026-08-15T08:41:08Z</time>
      </trkpt>
      <trkpt lat="44.51143" lon="0.78895">
        <ele>123.6</ele>
        <time>2026-08-15T08:41:09Z</time>
      </trkpt>
      <trkpt lat="44.51141" lon="0.78899">
        <ele>123.8</ele>
        <time>2026-08-15T08:41:10Z</time>
      </trkpt>
      <trkpt lat="44.51139" lon="0.78903">
        <ele>124</ele>
        <time>2026-08-15T08:41:11Z</time>
      </trkpt>
      <trkpt lat="44.51137" lon="0.78907">
        <ele>124</ele>
        <time>2026-08-15T08:41:12Z</time>
      </trkpt>
      <trkpt lat="44.51135" lon="0.78911">
        <ele>124</ele>
        <time>2026-08-15T08:41:13Z</time>
      </trkpt>
      <trkpt lat="44.51133" lon="0.78916">
        <ele>124.2</ele>
        <time>2026-08-15T08:41:14Z</time>
      </trkpt>
      <trkpt lat="44.51131" lon="0.7892">
        <ele>124.4</ele>
        <time>2026-08-15T08:41:15Z</time>
      </trkpt>
      <trkpt lat="44.51129" lon="0.78924">
        <ele>124.4</ele>
        <time>2026-08-15T08:41:16Z</time>
      </trkpt>
      <trkpt lat="44.51127" lon="0.78928">
        <ele>124.6</ele>
        <time>2026-08-15T08:41:17Z</time>
      </trkpt>
      <trkpt lat="44.51125" lon="0.78932">
        <ele>124.6</ele>
        <time>2026-08-15T08:41:18Z</time>
      </trkpt>
      <trkpt lat="44.51123" lon="0.78936">
        <ele>124.6</ele>
        <time>2026-08-15T08:41:19Z</time>
      </trkpt>
      <trkpt lat="44.51121" lon="0.7894">
        <ele>125</ele>
        <time>2026-08-15T08:41:20Z</time>
      </trkpt>
      <trkpt lat="44.51119" lon="0.78944">
        <ele>125</ele>
        <time>2026-08-15T08:41:21Z</time>
      </trkpt>
      <trkpt lat="44.51117" lon="0.78948">
        <ele>125</ele>
        <time>2026-08-15T08:41:22Z</time>
      </trkpt>
      <trkpt lat="44.51115" lon="0.78952">
        <ele>125.4</ele>
        <time>2026-08-15T08:41:23Z</time>
      </trkpt>
      <trkpt lat="44.51113" lon="0.78957">
        <ele>125.4</ele>
        <time>2026-08-15T08:41:24Z</time>
      </trkpt>
      <trkpt lat="44.51111" lon="0.78961">
        <ele>125.4</ele>
        <time>2026-08-15T08:41:25Z</time>
      </trkpt>
      <trkpt lat="44.51109" lon="0.78965">
        <ele>125.6</ele>
        <time>2026-08-15T08:41:26Z</time>
      </trkpt>
      <trkpt lat="44.51107" lon="0.7897">
        <ele>125.6</ele>
        <time>2026-08-15T08:41:27Z</time>
      </trkpt>
      <trkpt lat="44.51105" lon="0.78974">
        <ele>125.6</ele>
        <time>2026-08-15T08:41:28Z</time>
      </trkpt>
      <trkpt lat="44.51103" lon="0.78978">
        <ele>125.6</ele>
        <time>2026-08-15T08:41:29Z</time>
      </trkpt>
      <trkpt lat="44.511" lon="0.78983">
        <ele>125.6</ele>
        <time>2026-08-15T08:41:30Z</time>
      </trkpt>
      <trkpt lat="44.51098" lon="0.78987">
        <ele>126</ele>
        <time>2026-08-15T08:41:31Z</time>
      </trkpt>
      <trkpt lat="44.51096" lon="0.78991">
        <ele>126</ele>
        <time>2026-08-15T08:41:32Z</time>
      </trkpt>
      <trkpt lat="44.51094" lon="0.78995">
        <ele>126.2</ele>
        <time>2026-08-15T08:41:33Z</time>
      </trkpt>
      <trkpt lat="44.51092" lon="0.79">
        <ele>126.4</ele>
        <time>2026-08-15T08:41:34Z</time>
      </trkpt>
      <trkpt lat="44.5109" lon="0.79004">
        <ele>126.6</ele>
        <time>2026-08-15T08:41:35Z</time>
      </trkpt>
      <trkpt lat="44.51088" lon="0.79008">
        <ele>126.6</ele>
        <time>2026-08-15T08:41:36Z</time>
      </trkpt>
      <trkpt lat="44.51086" lon="0.79013">
        <ele>126.6</ele>
        <time>2026-08-15T08:41:37Z</time>
      </trkpt>
      <trkpt lat="44.51084" lon="0.79017">
        <ele>126.6</ele>
        <time>2026-08-15T08:41:38Z</time>
      </trkpt>
      <trkpt lat="44.51082" lon="0.79021">
        <ele>126.6</ele>
        <time>2026-08-15T08:41:39Z</time>
      </trkpt>
      <trkpt lat="44.5108" lon="0.79025">
        <ele>126.6</ele>
        <time>2026-08-15T08:41:40Z</time>
      </trkpt>
      <trkpt lat="44.51079" lon="0.7903">
        <ele>126.8</ele>
        <time>2026-08-15T08:41:41Z</time>
      </trkpt>
      <trkpt lat="44.51077" lon="0.79034">
        <ele>127.2</ele>
        <time>2026-08-15T08:41:42Z</time>
      </trkpt>
      <trkpt lat="44.51075" lon="0.79038">
        <ele>127.4</ele>
        <time>2026-08-15T08:41:43Z</time>
      </trkpt>
      <trkpt lat="44.51073" lon="0.79043">
        <ele>127.6</ele>
        <time>2026-08-15T08:41:44Z</time>
      </trkpt>
      <trkpt lat="44.51071" lon="0.79047">
        <ele>127.6</ele>
        <time>2026-08-15T08:41:45Z</time>
      </trkpt>
      <trkpt lat="44.51069" lon="0.79051">
        <ele>127.8</ele>
        <time>2026-08-15T08:41:46Z</time>
      </trkpt>
      <trkpt lat="44.51067" lon="0.79056">
        <ele>128</ele>
        <time>2026-08-15T08:41:47Z</time>
      </trkpt>
      <trkpt lat="44.51065" lon="0.7906">
        <ele>128</ele>
        <time>2026-08-15T08:41:48Z</time>
      </trkpt>
      <trkpt lat="44.51063" lon="0.79065">
        <ele>128</ele>
        <time>2026-08-15T08:41:49Z</time>
      </trkpt>
      <trkpt lat="44.51061" lon="0.79069">
        <ele>128.2</ele>
        <time>2026-08-15T08:41:50Z</time>
      </trkpt>
      <trkpt lat="44.51059" lon="0.79073">
        <ele>128.2</ele>
        <time>2026-08-15T08:41:51Z</time>
      </trkpt>
      <trkpt lat="44.51057" lon="0.79077">
        <ele>128.4</ele>
        <time>2026-08-15T08:41:52Z</time>
      </trkpt>
      <trkpt lat="44.51055" lon="0.79081">
        <ele>128.6</ele>
        <time>2026-08-15T08:41:53Z</time>
      </trkpt>
      <trkpt lat="44.51053" lon="0.79086">
        <ele>128.6</ele>
        <time>2026-08-15T08:41:54Z</time>
      </trkpt>
      <trkpt lat="44.51051" lon="0.7909">
        <ele>128.8</ele>
        <time>2026-08-15T08:41:55Z</time>
      </trkpt>
      <trkpt lat="44.51049" lon="0.79094">
        <ele>129.2</ele>
        <time>2026-08-15T08:41:56Z</time>
      </trkpt>
      <trkpt lat="44.51047" lon="0.79098">
        <ele>129.2</ele>
        <time>2026-08-15T08:41:57Z</time>
      </trkpt>
      <trkpt lat="44.51045" lon="0.79102">
        <ele>129.4</ele>
        <time>2026-08-15T08:41:58Z</time>
      </trkpt>
      <trkpt lat="44.51044" lon="0.79105">
        <ele>129.6</ele>
        <time>2026-08-15T08:41:59Z</time>
      </trkpt>
      <trkpt lat="44.51042" lon="0.79109">
        <ele>130.2</ele>
        <time>2026-08-15T08:42:00Z</time>
      </trkpt>
      <trkpt lat="44.5104" lon="0.79112">
        <ele>130.4</ele>
        <time>2026-08-15T08:42:01Z</time>
      </trkpt>
      <trkpt lat="44.51038" lon="0.79116">
        <ele>130.6</ele>
        <time>2026-08-15T08:42:02Z</time>
      </trkpt>
      <trkpt lat="44.51037" lon="0.79119">
        <ele>130.8</ele>
        <time>2026-08-15T08:42:03Z</time>
      </trkpt>
      <trkpt lat="44.51035" lon="0.79122">
        <ele>131.2</ele>
        <time>2026-08-15T08:42:04Z</time>
      </trkpt>
      <trkpt lat="44.51033" lon="0.79126">
        <ele>131.6</ele>
        <time>2026-08-15T08:42:05Z</time>
      </trkpt>
      <trkpt lat="44.51031" lon="0.79129">
        <ele>131.6</ele>
        <time>2026-08-15T08:42:06Z</time>
      </trkpt>
      <trkpt lat="44.51029" lon="0.79132">
        <ele>132</ele>
        <time>2026-08-15T08:42:07Z</time>
      </trkpt>
      <trkpt lat="44.51028" lon="0.79136">
        <ele>132.2</ele>
        <time>2026-08-15T08:42:08Z</time>
      </trkpt>
      <trkpt lat="44.51026" lon="0.79139">
        <ele>132.4</ele>
        <time>2026-08-15T08:42:09Z</time>
      </trkpt>
      <trkpt lat="44.51024" lon="0.79142">
        <ele>132.6</ele>
        <time>2026-08-15T08:42:10Z</time>
      </trkpt>
      <trkpt lat="44.51022" lon="0.79145">
        <ele>132.8</ele>
        <time>2026-08-15T08:42:11Z</time>
      </trkpt>
      <trkpt lat="44.51021" lon="0.79148">
        <ele>133</ele>
        <time>2026-08-15T08:42:12Z</time>
      </trkpt>
      <trkpt lat="44.51019" lon="0.79151">
        <ele>133.2</ele>
        <time>2026-08-15T08:42:13Z</time>
      </trkpt>
      <trkpt lat="44.51017" lon="0.79154">
        <ele>133.4</ele>
        <time>2026-08-15T08:42:14Z</time>
      </trkpt>
      <trkpt lat="44.51016" lon="0.79157">
        <ele>133.6</ele>
        <time>2026-08-15T08:42:15Z</time>
      </trkpt>
      <trkpt lat="44.51014" lon="0.7916">
        <ele>134</ele>
        <time>2026-08-15T08:42:16Z</time>
      </trkpt>
      <trkpt lat="44.51012" lon="0.79163">
        <ele>134.4</ele>
        <time>2026-08-15T08:42:17Z</time>
      </trkpt>
      <trkpt lat="44.5101" lon="0.79166">
        <ele>134.6</ele>
        <time>2026-08-15T08:42:18Z</time>
      </trkpt>
      <trkpt lat="44.51009" lon="0.79168">
        <ele>135.2</ele>
        <time>2026-08-15T08:42:19Z</time>
      </trkpt>
      <trkpt lat="44.51008" lon="0.7917">
        <ele>135.4</ele>
        <time>2026-08-15T08:42:20Z</time>
      </trkpt>
      <trkpt lat="44.51007" lon="0.79173">
        <ele>135.6</ele>
        <time>2026-08-15T08:42:21Z</time>
      </trkpt>
      <trkpt lat="44.51005" lon="0.79176">
        <ele>135.8</ele>
        <time>2026-08-15T08:42:22Z</time>
      </trkpt>
      <trkpt lat="44.51003" lon="0.79181">
        <ele>136.2</ele>
        <time>2026-08-15T08:42:23Z</time>
      </trkpt>
      <trkpt lat="44.51001" lon="0.79184">
        <ele>136.4</ele>
        <time>2026-08-15T08:42:24Z</time>
      </trkpt>
      <trkpt lat="44.50999" lon="0.79187">
        <ele>136.6</ele>
        <time>2026-08-15T08:42:25Z</time>
      </trkpt>
      <trkpt lat="44.50998" lon="0.79189">
        <ele>136.6</ele>
        <time>2026-08-15T08:42:26Z</time>
      </trkpt>
      <trkpt lat="44.50997" lon="0.79191">
        <ele>136.8</ele>
        <time>2026-08-15T08:42:27Z</time>
      </trkpt>
      <trkpt lat="44.50995" lon="0.79196">
        <ele>137.2</ele>
        <time>2026-08-15T08:42:28Z</time>
      </trkpt>
      <trkpt lat="44.50993" lon="0.79199">
        <ele>137.6</ele>
        <time>2026-08-15T08:42:29Z</time>
      </trkpt>
      <trkpt lat="44.50991" lon="0.79202">
        <ele>137.6</ele>
        <time>2026-08-15T08:42:30Z</time>
      </trkpt>
      <trkpt lat="44.50989" lon="0.79206">
        <ele>137.8</ele>
        <time>2026-08-15T08:42:31Z</time>
      </trkpt>
      <trkpt lat="44.50988" lon="0.79209">
        <ele>138</ele>
        <time>2026-08-15T08:42:32Z</time>
      </trkpt>
      <trkpt lat="44.50986" lon="0.79212">
        <ele>138.4</ele>
        <time>2026-08-15T08:42:33Z</time>
      </trkpt>
      <trkpt lat="44.50985" lon="0.79215">
        <ele>138.6</ele>
        <time>2026-08-15T08:42:34Z</time>
      </trkpt>
      <trkpt lat="44.50983" lon="0.79218">
        <ele>138.8</ele>
        <time>2026-08-15T08:42:35Z</time>
      </trkpt>
      <trkpt lat="44.50981" lon="0.79221">
        <ele>139</ele>
        <time>2026-08-15T08:42:36Z</time>
      </trkpt>
      <trkpt lat="44.5098" lon="0.79225">
        <ele>139.2</ele>
        <time>2026-08-15T08:42:37Z</time>
      </trkpt>
      <trkpt lat="44.50978" lon="0.79228">
        <ele>139.6</ele>
        <time>2026-08-15T08:42:38Z</time>
      </trkpt>
      <trkpt lat="44.50976" lon="0.79231">
        <ele>139.6</ele>
        <time>2026-08-15T08:42:39Z</time>
      </trkpt>
      <trkpt lat="44.50975" lon="0.79234">
        <ele>140</ele>
        <time>2026-08-15T08:42:40Z</time>
      </trkpt>
      <trkpt lat="44.50973" lon="0.79237">
        <ele>140.2</ele>
        <time>2026-08-15T08:42:41Z</time>
      </trkpt>
      <trkpt lat="44.50971" lon="0.7924">
        <ele>140.6</ele>
        <time>2026-08-15T08:42:42Z</time>
      </trkpt>
      <trkpt lat="44.5097" lon="0.79243">
        <ele>140.6</ele>
        <time>2026-08-15T08:42:43Z</time>
      </trkpt>
      <trkpt lat="44.50968" lon="0.79246">
        <ele>141</ele>
        <time>2026-08-15T08:42:44Z</time>
      </trkpt>
      <trkpt lat="44.50966" lon="0.79249">
        <ele>141.4</ele>
        <time>2026-08-15T08:42:45Z</time>
      </trkpt>
      <trkpt lat="44.50964" lon="0.79252">
        <ele>141.6</ele>
        <time>2026-08-15T08:42:46Z</time>
      </trkpt>
      <trkpt lat="44.50961" lon="0.79255">
        <ele>141.6</ele>
        <time>2026-08-15T08:42:47Z</time>
      </trkpt>
      <trkpt lat="44.50959" lon="0.79257">
        <ele>141.8</ele>
        <time>2026-08-15T08:42:48Z</time>
      </trkpt>
      <trkpt lat="44.50957" lon="0.7926">
        <ele>142.2</ele>
        <time>2026-08-15T08:42:49Z</time>
      </trkpt>
      <trkpt lat="44.50954" lon="0.79263">
        <ele>142.4</ele>
        <time>2026-08-15T08:42:50Z</time>
      </trkpt>
      <trkpt lat="44.50952" lon="0.79265">
        <ele>142.4</ele>
        <time>2026-08-15T08:42:51Z</time>
      </trkpt>
      <trkpt lat="44.5095" lon="0.79269">
        <ele>142.6</ele>
        <time>2026-08-15T08:42:52Z</time>
      </trkpt>
      <trkpt lat="44.50949" lon="0.79272">
        <ele>142.6</ele>
        <time>2026-08-15T08:42:53Z</time>
      </trkpt>
      <trkpt lat="44.50948" lon="0.79276">
        <ele>143</ele>
        <time>2026-08-15T08:42:54Z</time>
      </trkpt>
      <trkpt lat="44.50949" lon="0.7928">
        <ele>143.2</ele>
        <time>2026-08-15T08:42:55Z</time>
      </trkpt>
      <trkpt lat="44.5095" lon="0.79284">
        <ele>143.4</ele>
        <time>2026-08-15T08:42:56Z</time>
      </trkpt>
      <trkpt lat="44.50952" lon="0.79287">
        <ele>143.6</ele>
        <time>2026-08-15T08:42:57Z</time>
      </trkpt>
      <trkpt lat="44.50954" lon="0.79291">
        <ele>143.6</ele>
        <time>2026-08-15T08:42:58Z</time>
      </trkpt>
      <trkpt lat="44.50956" lon="0.79295">
        <ele>143.8</ele>
        <time>2026-08-15T08:42:59Z</time>
      </trkpt>
      <trkpt lat="44.50958" lon="0.79298">
        <ele>144</ele>
        <time>2026-08-15T08:43:00Z</time>
      </trkpt>
      <trkpt lat="44.5096" lon="0.79302">
        <ele>144.2</ele>
        <time>2026-08-15T08:43:01Z</time>
      </trkpt>
      <trkpt lat="44.50962" lon="0.79306">
        <ele>144.4</ele>
        <time>2026-08-15T08:43:02Z</time>
      </trkpt>
      <trkpt lat="44.50965" lon="0.7931">
        <ele>144.4</ele>
        <time>2026-08-15T08:43:03Z</time>
      </trkpt>
      <trkpt lat="44.50967" lon="0.79314">
        <ele>144.6</ele>
        <time>2026-08-15T08:43:04Z</time>
      </trkpt>
      <trkpt lat="44.50969" lon="0.79318">
        <ele>144.6</ele>
        <time>2026-08-15T08:43:05Z</time>
      </trkpt>
      <trkpt lat="44.50972" lon="0.79323">
        <ele>144.6</ele>
        <time>2026-08-15T08:43:06Z</time>
      </trkpt>
      <trkpt lat="44.50975" lon="0.79327">
        <ele>144.8</ele>
        <time>2026-08-15T08:43:07Z</time>
      </trkpt>
      <trkpt lat="44.50978" lon="0.79331">
        <ele>144.8</ele>
        <time>2026-08-15T08:43:08Z</time>
      </trkpt>
      <trkpt lat="44.50981" lon="0.79335">
        <ele>144.8</ele>
        <time>2026-08-15T08:43:09Z</time>
      </trkpt>
      <trkpt lat="44.50985" lon="0.79338">
        <ele>144.8</ele>
        <time>2026-08-15T08:43:10Z</time>
      </trkpt>
      <trkpt lat="44.50988" lon="0.79342">
        <ele>145</ele>
        <time>2026-08-15T08:43:11Z</time>
      </trkpt>
      <trkpt lat="44.50992" lon="0.79346">
        <ele>145</ele>
        <time>2026-08-15T08:43:12Z</time>
      </trkpt>
      <trkpt lat="44.50995" lon="0.79349">
        <ele>145</ele>
        <time>2026-08-15T08:43:13Z</time>
      </trkpt>
      <trkpt lat="44.50999" lon="0.79352">
        <ele>145</ele>
        <time>2026-08-15T08:43:14Z</time>
      </trkpt>
      <trkpt lat="44.51002" lon="0.79354">
        <ele>145</ele>
        <time>2026-08-15T08:43:15Z</time>
      </trkpt>
      <trkpt lat="44.51006" lon="0.79357">
        <ele>145</ele>
        <time>2026-08-15T08:43:16Z</time>
      </trkpt>
      <trkpt lat="44.5101" lon="0.79359">
        <ele>145</ele>
        <time>2026-08-15T08:43:17Z</time>
      </trkpt>
      <trkpt lat="44.51013" lon="0.79362">
        <ele>145</ele>
        <time>2026-08-15T08:43:18Z</time>
      </trkpt>
      <trkpt lat="44.51017" lon="0.79364">
        <ele>145</ele>
        <time>2026-08-15T08:43:19Z</time>
      </trkpt>
      <trkpt lat="44.51021" lon="0.79366">
        <ele>144.8</ele>
        <time>2026-08-15T08:43:20Z</time>
      </trkpt>
      <trkpt lat="44.51026" lon="0.79367">
        <ele>144.8</ele>
        <time>2026-08-15T08:43:21Z</time>
      </trkpt>
      <trkpt lat="44.5103" lon="0.79369">
        <ele>144.8</ele>
        <time>2026-08-15T08:43:22Z</time>
      </trkpt>
      <trkpt lat="44.51035" lon="0.79371">
        <ele>144.8</ele>
        <time>2026-08-15T08:43:23Z</time>
      </trkpt>
      <trkpt lat="44.51039" lon="0.79372">
        <ele>144.8</ele>
        <time>2026-08-15T08:43:24Z</time>
      </trkpt>
      <trkpt lat="44.51043" lon="0.79374">
        <ele>144.8</ele>
        <time>2026-08-15T08:43:25Z</time>
      </trkpt>
      <trkpt lat="44.51048" lon="0.79375">
        <ele>144.8</ele>
        <time>2026-08-15T08:43:26Z</time>
      </trkpt>
      <trkpt lat="44.51052" lon="0.79377">
        <ele>145</ele>
        <time>2026-08-15T08:43:27Z</time>
      </trkpt>
      <trkpt lat="44.51057" lon="0.79379">
        <ele>145</ele>
        <time>2026-08-15T08:43:28Z</time>
      </trkpt>
      <trkpt lat="44.51061" lon="0.7938">
        <ele>145</ele>
        <time>2026-08-15T08:43:29Z</time>
      </trkpt>
      <trkpt lat="44.51066" lon="0.79382">
        <ele>145</ele>
        <time>2026-08-15T08:43:30Z</time>
      </trkpt>
      <trkpt lat="44.5107" lon="0.79384">
        <ele>144.8</ele>
        <time>2026-08-15T08:43:31Z</time>
      </trkpt>
      <trkpt lat="44.51075" lon="0.79386">
        <ele>144.8</ele>
        <time>2026-08-15T08:43:32Z</time>
      </trkpt>
      <trkpt lat="44.5108" lon="0.79388">
        <ele>144.8</ele>
        <time>2026-08-15T08:43:33Z</time>
      </trkpt>
      <trkpt lat="44.51084" lon="0.79389">
        <ele>144.8</ele>
        <time>2026-08-15T08:43:34Z</time>
      </trkpt>
      <trkpt lat="44.51089" lon="0.79391">
        <ele>144.8</ele>
        <time>2026-08-15T08:43:35Z</time>
      </trkpt>
      <trkpt lat="44.51094" lon="0.79393">
        <ele>144.8</ele>
        <time>2026-08-15T08:43:36Z</time>
      </trkpt>
      <trkpt lat="44.51099" lon="0.79395">
        <ele>144.8</ele>
        <time>2026-08-15T08:43:37Z</time>
      </trkpt>
      <trkpt lat="44.51104" lon="0.79397">
        <ele>144.8</ele>
        <time>2026-08-15T08:43:38Z</time>
      </trkpt>
      <trkpt lat="44.51109" lon="0.79399">
        <ele>144.8</ele>
        <time>2026-08-15T08:43:39Z</time>
      </trkpt>
      <trkpt lat="44.51114" lon="0.79401">
        <ele>144.8</ele>
        <time>2026-08-15T08:43:40Z</time>
      </trkpt>
      <trkpt lat="44.51119" lon="0.79403">
        <ele>144.8</ele>
        <time>2026-08-15T08:43:41Z</time>
      </trkpt>
      <trkpt lat="44.51123" lon="0.79404">
        <ele>145</ele>
        <time>2026-08-15T08:43:42Z</time>
      </trkpt>
      <trkpt lat="44.51128" lon="0.79406">
        <ele>145</ele>
        <time>2026-08-15T08:43:43Z</time>
      </trkpt>
      <trkpt lat="44.51133" lon="0.79408">
        <ele>145.2</ele>
        <time>2026-08-15T08:43:44Z</time>
      </trkpt>
      <trkpt lat="44.51137" lon="0.7941">
        <ele>145.4</ele>
        <time>2026-08-15T08:43:45Z</time>
      </trkpt>
      <trkpt lat="44.51141" lon="0.79412">
        <ele>145.6</ele>
        <time>2026-08-15T08:43:46Z</time>
      </trkpt>
      <trkpt lat="44.51145" lon="0.79414">
        <ele>145.6</ele>
        <time>2026-08-15T08:43:47Z</time>
      </trkpt>
      <trkpt lat="44.51149" lon="0.79416">
        <ele>145.8</ele>
        <time>2026-08-15T08:43:48Z</time>
      </trkpt>
      <trkpt lat="44.51153" lon="0.79418">
        <ele>146</ele>
        <time>2026-08-15T08:43:49Z</time>
      </trkpt>
      <trkpt lat="44.51157" lon="0.7942">
        <ele>146.2</ele>
        <time>2026-08-15T08:43:50Z</time>
      </trkpt>
      <trkpt lat="44.5116" lon="0.79423">
        <ele>146.4</ele>
        <time>2026-08-15T08:43:51Z</time>
      </trkpt>
      <trkpt lat="44.51164" lon="0.79426">
        <ele>146.6</ele>
        <time>2026-08-15T08:43:52Z</time>
      </trkpt>
      <trkpt lat="44.51167" lon="0.79429">
        <ele>146.6</ele>
        <time>2026-08-15T08:43:53Z</time>
      </trkpt>
      <trkpt lat="44.51171" lon="0.79432">
        <ele>147.2</ele>
        <time>2026-08-15T08:43:54Z</time>
      </trkpt>
      <trkpt lat="44.51174" lon="0.79435">
        <ele>147.4</ele>
        <time>2026-08-15T08:43:55Z</time>
      </trkpt>
      <trkpt lat="44.51177" lon="0.79438">
        <ele>147.6</ele>
        <time>2026-08-15T08:43:56Z</time>
      </trkpt>
      <trkpt lat="44.51181" lon="0.79442">
        <ele>147.8</ele>
        <time>2026-08-15T08:43:57Z</time>
      </trkpt>
      <trkpt lat="44.51184" lon="0.79446">
        <ele>147.8</ele>
        <time>2026-08-15T08:43:58Z</time>
      </trkpt>
      <trkpt lat="44.51187" lon="0.7945">
        <ele>148</ele>
        <time>2026-08-15T08:43:59Z</time>
      </trkpt>
      <trkpt lat="44.5119" lon="0.79454">
        <ele>148.2</ele>
        <time>2026-08-15T08:44:00Z</time>
      </trkpt>
      <trkpt lat="44.51193" lon="0.79459">
        <ele>148.2</ele>
        <time>2026-08-15T08:44:01Z</time>
      </trkpt>
      <trkpt lat="44.51196" lon="0.79464">
        <ele>148.2</ele>
        <time>2026-08-15T08:44:02Z</time>
      </trkpt>
      <trkpt lat="44.51199" lon="0.79469">
        <ele>148.2</ele>
        <time>2026-08-15T08:44:03Z</time>
      </trkpt>
      <trkpt lat="44.51202" lon="0.79474">
        <ele>148.2</ele>
        <time>2026-08-15T08:44:04Z</time>
      </trkpt>
      <trkpt lat="44.51205" lon="0.7948">
        <ele>148.2</ele>
        <time>2026-08-15T08:44:05Z</time>
      </trkpt>
      <trkpt lat="44.51207" lon="0.79487">
        <ele>148.2</ele>
        <time>2026-08-15T08:44:06Z</time>
      </trkpt>
      <trkpt lat="44.5121" lon="0.79494">
        <ele>148.2</ele>
        <time>2026-08-15T08:44:07Z</time>
      </trkpt>
      <trkpt lat="44.51213" lon="0.79503">
        <ele>148</ele>
        <time>2026-08-15T08:44:08Z</time>
      </trkpt>
      <trkpt lat="44.51216" lon="0.79511">
        <ele>147.8</ele>
        <time>2026-08-15T08:44:09Z</time>
      </trkpt>
      <trkpt lat="44.51218" lon="0.79519">
        <ele>147.6</ele>
        <time>2026-08-15T08:44:10Z</time>
      </trkpt>
      <trkpt lat="44.5122" lon="0.79527">
        <ele>147.6</ele>
        <time>2026-08-15T08:44:11Z</time>
      </trkpt>
      <trkpt lat="44.51221" lon="0.79536">
        <ele>147.6</ele>
        <time>2026-08-15T08:44:12Z</time>
      </trkpt>
      <trkpt lat="44.51223" lon="0.79544">
        <ele>147.4</ele>
        <time>2026-08-15T08:44:13Z</time>
      </trkpt>
      <trkpt lat="44.51225" lon="0.79553">
        <ele>147.4</ele>
        <time>2026-08-15T08:44:14Z</time>
      </trkpt>
      <trkpt lat="44.51226" lon="0.79562">
        <ele>147.2</ele>
        <time>2026-08-15T08:44:15Z</time>
      </trkpt>
      <trkpt lat="44.51228" lon="0.79571">
        <ele>147.2</ele>
        <time>2026-08-15T08:44:16Z</time>
      </trkpt>
      <trkpt lat="44.5123" lon="0.7958">
        <ele>147</ele>
        <time>2026-08-15T08:44:17Z</time>
      </trkpt>
      <trkpt lat="44.51231" lon="0.7959">
        <ele>146.8</ele>
        <time>2026-08-15T08:44:18Z</time>
      </trkpt>
      <trkpt lat="44.51233" lon="0.796">
        <ele>146.6</ele>
        <time>2026-08-15T08:44:19Z</time>
      </trkpt>
      <trkpt lat="44.51235" lon="0.7961">
        <ele>146.4</ele>
        <time>2026-08-15T08:44:20Z</time>
      </trkpt>
      <trkpt lat="44.51236" lon="0.7962">
        <ele>146.4</ele>
        <time>2026-08-15T08:44:21Z</time>
      </trkpt>
      <trkpt lat="44.51238" lon="0.7963">
        <ele>146</ele>
        <time>2026-08-15T08:44:22Z</time>
      </trkpt>
      <trkpt lat="44.5124" lon="0.7964">
        <ele>145.8</ele>
        <time>2026-08-15T08:44:23Z</time>
      </trkpt>
      <trkpt lat="44.51242" lon="0.79651">
        <ele>145.6</ele>
        <time>2026-08-15T08:44:24Z</time>
      </trkpt>
      <trkpt lat="44.51244" lon="0.79661">
        <ele>145.4</ele>
        <time>2026-08-15T08:44:25Z</time>
      </trkpt>
      <trkpt lat="44.51245" lon="0.79671">
        <ele>145.4</ele>
        <time>2026-08-15T08:44:26Z</time>
      </trkpt>
      <trkpt lat="44.51247" lon="0.79681">
        <ele>145.2</ele>
        <time>2026-08-15T08:44:27Z</time>
      </trkpt>
      <trkpt lat="44.51248" lon="0.79691">
        <ele>145.2</ele>
        <time>2026-08-15T08:44:28Z</time>
      </trkpt>
      <trkpt lat="44.5125" lon="0.797">
        <ele>145.2</ele>
        <time>2026-08-15T08:44:29Z</time>
      </trkpt>
      <trkpt lat="44.51251" lon="0.79709">
        <ele>145.2</ele>
        <time>2026-08-15T08:44:30Z</time>
      </trkpt>
      <trkpt lat="44.51253" lon="0.79717">
        <ele>145.4</ele>
        <time>2026-08-15T08:44:31Z</time>
      </trkpt>
      <trkpt lat="44.51254" lon="0.79725">
        <ele>145.4</ele>
        <time>2026-08-15T08:44:32Z</time>
      </trkpt>
      <trkpt lat="44.51255" lon="0.79733">
        <ele>145.6</ele>
        <time>2026-08-15T08:44:33Z</time>
      </trkpt>
      <trkpt lat="44.51256" lon="0.7974">
        <ele>145.8</ele>
        <time>2026-08-15T08:44:34Z</time>
      </trkpt>
      <trkpt lat="44.51258" lon="0.79747">
        <ele>145.8</ele>
        <time>2026-08-15T08:44:35Z</time>
      </trkpt>
      <trkpt lat="44.51258" lon="0.79752">
        <ele>146.2</ele>
        <time>2026-08-15T08:44:36Z</time>
      </trkpt>
      <trkpt lat="44.51259" lon="0.79757">
        <ele>146.4</ele>
        <time>2026-08-15T08:44:37Z</time>
      </trkpt>
      <trkpt lat="44.5126" lon="0.79763">
        <ele>146.6</ele>
        <time>2026-08-15T08:44:38Z</time>
      </trkpt>
      <trkpt lat="44.51261" lon="0.79769">
        <ele>146.8</ele>
        <time>2026-08-15T08:44:39Z</time>
      </trkpt>
      <trkpt lat="44.51263" lon="0.79775">
        <ele>147.2</ele>
        <time>2026-08-15T08:44:40Z</time>
      </trkpt>
      <trkpt lat="44.51263" lon="0.7978">
        <ele>147.6</ele>
        <time>2026-08-15T08:44:41Z</time>
      </trkpt>
      <trkpt lat="44.51264" lon="0.79786">
        <ele>147.8</ele>
        <time>2026-08-15T08:44:42Z</time>
      </trkpt>
      <trkpt lat="44.51265" lon="0.79791">
        <ele>148.2</ele>
        <time>2026-08-15T08:44:43Z</time>
      </trkpt>
      <trkpt lat="44.51266" lon="0.79797">
        <ele>148.4</ele>
        <time>2026-08-15T08:44:44Z</time>
      </trkpt>
      <trkpt lat="44.51267" lon="0.79802">
        <ele>148.6</ele>
        <time>2026-08-15T08:44:45Z</time>
      </trkpt>
      <trkpt lat="44.51268" lon="0.79807">
        <ele>148.8</ele>
        <time>2026-08-15T08:44:46Z</time>
      </trkpt>
      <trkpt lat="44.5127" lon="0.79813">
        <ele>149.2</ele>
        <time>2026-08-15T08:44:47Z</time>
      </trkpt>
      <trkpt lat="44.51271" lon="0.79818">
        <ele>149.6</ele>
        <time>2026-08-15T08:44:48Z</time>
      </trkpt>
      <trkpt lat="44.51272" lon="0.79824">
        <ele>149.6</ele>
        <time>2026-08-15T08:44:49Z</time>
      </trkpt>
      <trkpt lat="44.51273" lon="0.79829">
        <ele>150</ele>
        <time>2026-08-15T08:44:50Z</time>
      </trkpt>
      <trkpt lat="44.51274" lon="0.79834">
        <ele>150.4</ele>
        <time>2026-08-15T08:44:51Z</time>
      </trkpt>
      <trkpt lat="44.51275" lon="0.7984">
        <ele>150.6</ele>
        <time>2026-08-15T08:44:52Z</time>
      </trkpt>
      <trkpt lat="44.51277" lon="0.79845">
        <ele>150.8</ele>
        <time>2026-08-15T08:44:53Z</time>
      </trkpt>
      <trkpt lat="44.51278" lon="0.79851">
        <ele>151</ele>
        <time>2026-08-15T08:44:54Z</time>
      </trkpt>
      <trkpt lat="44.5128" lon="0.79857">
        <ele>151.2</ele>
        <time>2026-08-15T08:44:55Z</time>
      </trkpt>
      <trkpt lat="44.51282" lon="0.79862">
        <ele>151.4</ele>
        <time>2026-08-15T08:44:56Z</time>
      </trkpt>
      <trkpt lat="44.51284" lon="0.79869">
        <ele>151.4</ele>
        <time>2026-08-15T08:44:57Z</time>
      </trkpt>
      <trkpt lat="44.51287" lon="0.79875">
        <ele>151.4</ele>
        <time>2026-08-15T08:44:58Z</time>
      </trkpt>
      <trkpt lat="44.51291" lon="0.79881">
        <ele>151.4</ele>
        <time>2026-08-15T08:44:59Z</time>
      </trkpt>
      <trkpt lat="44.51296" lon="0.7989">
        <ele>151.2</ele>
        <time>2026-08-15T08:45:00Z</time>
      </trkpt>
      <trkpt lat="44.513" lon="0.79898">
        <ele>150.8</ele>
        <time>2026-08-15T08:45:01Z</time>
      </trkpt>
      <trkpt lat="44.51305" lon="0.79905">
        <ele>150.6</ele>
        <time>2026-08-15T08:45:02Z</time>
      </trkpt>
      <trkpt lat="44.5131" lon="0.79911">
        <ele>150.2</ele>
        <time>2026-08-15T08:45:03Z</time>
      </trkpt>
      <trkpt lat="44.51316" lon="0.79917">
        <ele>149.6</ele>
        <time>2026-08-15T08:45:04Z</time>
      </trkpt>
      <trkpt lat="44.51322" lon="0.79924">
        <ele>149.2</ele>
        <time>2026-08-15T08:45:05Z</time>
      </trkpt>
      <trkpt lat="44.51329" lon="0.7993">
        <ele>148.6</ele>
        <time>2026-08-15T08:45:06Z</time>
      </trkpt>
      <trkpt lat="44.51335" lon="0.79935">
        <ele>148.4</ele>
        <time>2026-08-15T08:45:07Z</time>
      </trkpt>
      <trkpt lat="44.51342" lon="0.79941">
        <ele>148.2</ele>
        <time>2026-08-15T08:45:08Z</time>
      </trkpt>
      <trkpt lat="44.51349" lon="0.79947">
        <ele>147.8</ele>
        <time>2026-08-15T08:45:09Z</time>
      </trkpt>
      <trkpt lat="44.51356" lon="0.79952">
        <ele>147.6</ele>
        <time>2026-08-15T08:45:10Z</time>
      </trkpt>
      <trkpt lat="44.51363" lon="0.79958">
        <ele>147.6</ele>
        <time>2026-08-15T08:45:11Z</time>
      </trkpt>
      <trkpt lat="44.51371" lon="0.79964">
        <ele>147.4</ele>
        <time>2026-08-15T08:45:12Z</time>
      </trkpt>
      <trkpt lat="44.51378" lon="0.7997">
        <ele>146.8</ele>
        <time>2026-08-15T08:45:13Z</time>
      </trkpt>
      <trkpt lat="44.51385" lon="0.79978">
        <ele>146.6</ele>
        <time>2026-08-15T08:45:14Z</time>
      </trkpt>
      <trkpt lat="44.51391" lon="0.79986">
        <ele>146.2</ele>
        <time>2026-08-15T08:45:15Z</time>
      </trkpt>
      <trkpt lat="44.51397" lon="0.79995">
        <ele>145.8</ele>
        <time>2026-08-15T08:45:16Z</time>
      </trkpt>
      <trkpt lat="44.51402" lon="0.80005">
        <ele>145.6</ele>
        <time>2026-08-15T08:45:17Z</time>
      </trkpt>
      <trkpt lat="44.51406" lon="0.80015">
        <ele>145.4</ele>
        <time>2026-08-15T08:45:18Z</time>
      </trkpt>
      <trkpt lat="44.5141" lon="0.80026">
        <ele>145.2</ele>
        <time>2026-08-15T08:45:19Z</time>
      </trkpt>
      <trkpt lat="44.51413" lon="0.80037">
        <ele>145</ele>
        <time>2026-08-15T08:45:20Z</time>
      </trkpt>
      <trkpt lat="44.51416" lon="0.80048">
        <ele>144.8</ele>
        <time>2026-08-15T08:45:21Z</time>
      </trkpt>
      <trkpt lat="44.5142" lon="0.80058">
        <ele>144.6</ele>
        <time>2026-08-15T08:45:22Z</time>
      </trkpt>
      <trkpt lat="44.51423" lon="0.80069">
        <ele>144.4</ele>
        <time>2026-08-15T08:45:23Z</time>
      </trkpt>
      <trkpt lat="44.51427" lon="0.8008">
        <ele>144.4</ele>
        <time>2026-08-15T08:45:24Z</time>
      </trkpt>
      <trkpt lat="44.5143" lon="0.80091">
        <ele>144.2</ele>
        <time>2026-08-15T08:45:25Z</time>
      </trkpt>
      <trkpt lat="44.51434" lon="0.80101">
        <ele>144.2</ele>
        <time>2026-08-15T08:45:26Z</time>
      </trkpt>
      <trkpt lat="44.51437" lon="0.80112">
        <ele>144</ele>
        <time>2026-08-15T08:45:27Z</time>
      </trkpt>
      <trkpt lat="44.51441" lon="0.80123">
        <ele>143.8</ele>
        <time>2026-08-15T08:45:28Z</time>
      </trkpt>
      <trkpt lat="44.51444" lon="0.80133">
        <ele>143.8</ele>
        <time>2026-08-15T08:45:29Z</time>
      </trkpt>
      <trkpt lat="44.51448" lon="0.80144">
        <ele>143.8</ele>
        <time>2026-08-15T08:45:30Z</time>
      </trkpt>
      <trkpt lat="44.51451" lon="0.80154">
        <ele>143.6</ele>
        <time>2026-08-15T08:45:31Z</time>
      </trkpt>
      <trkpt lat="44.51455" lon="0.80165">
        <ele>143.6</ele>
        <time>2026-08-15T08:45:32Z</time>
      </trkpt>
      <trkpt lat="44.51458" lon="0.80175">
        <ele>143.4</ele>
        <time>2026-08-15T08:45:33Z</time>
      </trkpt>
      <trkpt lat="44.51461" lon="0.80186">
        <ele>143.2</ele>
        <time>2026-08-15T08:45:34Z</time>
      </trkpt>
      <trkpt lat="44.51465" lon="0.80196">
        <ele>142.8</ele>
        <time>2026-08-15T08:45:35Z</time>
      </trkpt>
      <trkpt lat="44.51468" lon="0.80206">
        <ele>142.6</ele>
        <time>2026-08-15T08:45:36Z</time>
      </trkpt>
      <trkpt lat="44.51471" lon="0.80216">
        <ele>142.6</ele>
        <time>2026-08-15T08:45:37Z</time>
      </trkpt>
      <trkpt lat="44.51474" lon="0.80226">
        <ele>142.6</ele>
        <time>2026-08-15T08:45:38Z</time>
      </trkpt>
      <trkpt lat="44.51477" lon="0.80235">
        <ele>142.6</ele>
        <time>2026-08-15T08:45:39Z</time>
      </trkpt>
      <trkpt lat="44.5148" lon="0.80244">
        <ele>142.4</ele>
        <time>2026-08-15T08:45:40Z</time>
      </trkpt>
      <trkpt lat="44.51483" lon="0.80254">
        <ele>142.4</ele>
        <time>2026-08-15T08:45:41Z</time>
      </trkpt>
      <trkpt lat="44.51486" lon="0.80263">
        <ele>142.4</ele>
        <time>2026-08-15T08:45:42Z</time>
      </trkpt>
      <trkpt lat="44.51489" lon="0.80271">
        <ele>142.4</ele>
        <time>2026-08-15T08:45:43Z</time>
      </trkpt>
      <trkpt lat="44.51491" lon="0.8028">
        <ele>142.4</ele>
        <time>2026-08-15T08:45:44Z</time>
      </trkpt>
      <trkpt lat="44.51494" lon="0.80288">
        <ele>142.6</ele>
        <time>2026-08-15T08:45:45Z</time>
      </trkpt>
      <trkpt lat="44.51497" lon="0.80297">
        <ele>142.6</ele>
        <time>2026-08-15T08:45:46Z</time>
      </trkpt>
      <trkpt lat="44.515" lon="0.80305">
        <ele>142.6</ele>
        <time>2026-08-15T08:45:47Z</time>
      </trkpt>
      <trkpt lat="44.51503" lon="0.80313">
        <ele>142.6</ele>
        <time>2026-08-15T08:45:48Z</time>
      </trkpt>
      <trkpt lat="44.51506" lon="0.80321">
        <ele>142.8</ele>
        <time>2026-08-15T08:45:49Z</time>
      </trkpt>
      <trkpt lat="44.51509" lon="0.80329">
        <ele>142.8</ele>
        <time>2026-08-15T08:45:50Z</time>
      </trkpt>
      <trkpt lat="44.51512" lon="0.80336">
        <ele>143</ele>
        <time>2026-08-15T08:45:51Z</time>
      </trkpt>
      <trkpt lat="44.51516" lon="0.80344">
        <ele>143.2</ele>
        <time>2026-08-15T08:45:52Z</time>
      </trkpt>
      <trkpt lat="44.51519" lon="0.80351">
        <ele>143.2</ele>
        <time>2026-08-15T08:45:53Z</time>
      </trkpt>
      <trkpt lat="44.51523" lon="0.80358">
        <ele>143.2</ele>
        <time>2026-08-15T08:45:54Z</time>
      </trkpt>
      <trkpt lat="44.51526" lon="0.80365">
        <ele>143.2</ele>
        <time>2026-08-15T08:45:55Z</time>
      </trkpt>
      <trkpt lat="44.5153" lon="0.80372">
        <ele>143.2</ele>
        <time>2026-08-15T08:45:56Z</time>
      </trkpt>
      <trkpt lat="44.51534" lon="0.80379">
        <ele>143.4</ele>
        <time>2026-08-15T08:45:57Z</time>
      </trkpt>
      <trkpt lat="44.51538" lon="0.80386">
        <ele>143.4</ele>
        <time>2026-08-15T08:45:58Z</time>
      </trkpt>
      <trkpt lat="44.51542" lon="0.80393">
        <ele>143.4</ele>
        <time>2026-08-15T08:45:59Z</time>
      </trkpt>
      <trkpt lat="44.51546" lon="0.804">
        <ele>143.6</ele>
        <time>2026-08-15T08:46:00Z</time>
      </trkpt>
      <trkpt lat="44.51551" lon="0.80406">
        <ele>143.6</ele>
        <time>2026-08-15T08:46:01Z</time>
      </trkpt>
      <trkpt lat="44.51555" lon="0.80413">
        <ele>143.6</ele>
        <time>2026-08-15T08:46:02Z</time>
      </trkpt>
      <trkpt lat="44.51559" lon="0.80419">
        <ele>143.6</ele>
        <time>2026-08-15T08:46:03Z</time>
      </trkpt>
      <trkpt lat="44.51564" lon="0.80425">
        <ele>143.8</ele>
        <time>2026-08-15T08:46:04Z</time>
      </trkpt>
      <trkpt lat="44.51568" lon="0.80431">
        <ele>143.8</ele>
        <time>2026-08-15T08:46:05Z</time>
      </trkpt>
      <trkpt lat="44.51573" lon="0.80437">
        <ele>144.2</ele>
        <time>2026-08-15T08:46:06Z</time>
      </trkpt>
      <trkpt lat="44.51577" lon="0.80443">
        <ele>144.2</ele>
        <time>2026-08-15T08:46:07Z</time>
      </trkpt>
      <trkpt lat="44.51581" lon="0.80449">
        <ele>144.4</ele>
        <time>2026-08-15T08:46:08Z</time>
      </trkpt>
      <trkpt lat="44.51586" lon="0.80455">
        <ele>144.4</ele>
        <time>2026-08-15T08:46:09Z</time>
      </trkpt>
      <trkpt lat="44.5159" lon="0.8046">
        <ele>144.6</ele>
        <time>2026-08-15T08:46:10Z</time>
      </trkpt>
      <trkpt lat="44.51595" lon="0.80465">
        <ele>144.8</ele>
        <time>2026-08-15T08:46:11Z</time>
      </trkpt>
      <trkpt lat="44.51599" lon="0.8047">
        <ele>145</ele>
        <time>2026-08-15T08:46:12Z</time>
      </trkpt>
      <trkpt lat="44.51604" lon="0.80475">
        <ele>145.2</ele>
        <time>2026-08-15T08:46:13Z</time>
      </trkpt>
      <trkpt lat="44.51608" lon="0.8048">
        <ele>145.2</ele>
        <time>2026-08-15T08:46:14Z</time>
      </trkpt>
      <trkpt lat="44.51613" lon="0.80485">
        <ele>145.4</ele>
        <time>2026-08-15T08:46:15Z</time>
      </trkpt>
      <trkpt lat="44.51617" lon="0.80489">
        <ele>145.6</ele>
        <time>2026-08-15T08:46:16Z</time>
      </trkpt>
      <trkpt lat="44.51621" lon="0.80493">
        <ele>145.6</ele>
        <time>2026-08-15T08:46:17Z</time>
      </trkpt>
      <trkpt lat="44.51625" lon="0.80498">
        <ele>145.8</ele>
        <time>2026-08-15T08:46:18Z</time>
      </trkpt>
      <trkpt lat="44.5163" lon="0.80502">
        <ele>146</ele>
        <time>2026-08-15T08:46:19Z</time>
      </trkpt>
      <trkpt lat="44.51633" lon="0.80505">
        <ele>146.2</ele>
        <time>2026-08-15T08:46:20Z</time>
      </trkpt>
      <trkpt lat="44.51636" lon="0.80509">
        <ele>146.4</ele>
        <time>2026-08-15T08:46:21Z</time>
      </trkpt>
      <trkpt lat="44.5164" lon="0.80514">
        <ele>146.6</ele>
        <time>2026-08-15T08:46:22Z</time>
      </trkpt>
      <trkpt lat="44.51644" lon="0.80518">
        <ele>146.6</ele>
        <time>2026-08-15T08:46:23Z</time>
      </trkpt>
      <trkpt lat="44.51647" lon="0.80522">
        <ele>146.8</ele>
        <time>2026-08-15T08:46:24Z</time>
      </trkpt>
      <trkpt lat="44.5165" lon="0.80525">
        <ele>147.2</ele>
        <time>2026-08-15T08:46:25Z</time>
      </trkpt>
      <trkpt lat="44.51653" lon="0.80528">
        <ele>147.4</ele>
        <time>2026-08-15T08:46:26Z</time>
      </trkpt>
      <trkpt lat="44.51656" lon="0.80532">
        <ele>147.6</ele>
        <time>2026-08-15T08:46:27Z</time>
      </trkpt>
      <trkpt lat="44.5166" lon="0.80535">
        <ele>147.6</ele>
        <time>2026-08-15T08:46:28Z</time>
      </trkpt>
      <trkpt lat="44.51664" lon="0.80539">
        <ele>147.8</ele>
        <time>2026-08-15T08:46:29Z</time>
      </trkpt>
      <trkpt lat="44.51668" lon="0.80543">
        <ele>147.8</ele>
        <time>2026-08-15T08:46:30Z</time>
      </trkpt>
      <trkpt lat="44.51672" lon="0.80547">
        <ele>148</ele>
        <time>2026-08-15T08:46:31Z</time>
      </trkpt>
      <trkpt lat="44.51676" lon="0.80552">
        <ele>148.2</ele>
        <time>2026-08-15T08:46:32Z</time>
      </trkpt>
      <trkpt lat="44.51679" lon="0.80556">
        <ele>148.2</ele>
        <time>2026-08-15T08:46:33Z</time>
      </trkpt>
      <trkpt lat="44.51683" lon="0.8056">
        <ele>148.4</ele>
        <time>2026-08-15T08:46:34Z</time>
      </trkpt>
      <trkpt lat="44.51686" lon="0.80564">
        <ele>148.4</ele>
        <time>2026-08-15T08:46:35Z</time>
      </trkpt>
      <trkpt lat="44.51689" lon="0.80569">
        <ele>148.6</ele>
        <time>2026-08-15T08:46:36Z</time>
      </trkpt>
      <trkpt lat="44.51692" lon="0.80573">
        <ele>148.8</ele>
        <time>2026-08-15T08:46:37Z</time>
      </trkpt>
      <trkpt lat="44.51695" lon="0.80578">
        <ele>149.2</ele>
        <time>2026-08-15T08:46:38Z</time>
      </trkpt>
      <trkpt lat="44.51697" lon="0.80583">
        <ele>149.4</ele>
        <time>2026-08-15T08:46:39Z</time>
      </trkpt>
      <trkpt lat="44.51699" lon="0.80588">
        <ele>149.6</ele>
        <time>2026-08-15T08:46:40Z</time>
      </trkpt>
      <trkpt lat="44.51702" lon="0.80594">
        <ele>149.8</ele>
        <time>2026-08-15T08:46:41Z</time>
      </trkpt>
      <trkpt lat="44.51704" lon="0.80599">
        <ele>149.8</ele>
        <time>2026-08-15T08:46:42Z</time>
      </trkpt>
      <trkpt lat="44.51706" lon="0.80605">
        <ele>150.2</ele>
        <time>2026-08-15T08:46:43Z</time>
      </trkpt>
      <trkpt lat="44.51708" lon="0.8061">
        <ele>150.2</ele>
        <time>2026-08-15T08:46:44Z</time>
      </trkpt>
      <trkpt lat="44.51711" lon="0.80616">
        <ele>150.2</ele>
        <time>2026-08-15T08:46:45Z</time>
      </trkpt>
      <trkpt lat="44.51713" lon="0.80622">
        <ele>150.4</ele>
        <time>2026-08-15T08:46:46Z</time>
      </trkpt>
      <trkpt lat="44.51715" lon="0.80628">
        <ele>150.6</ele>
        <time>2026-08-15T08:46:47Z</time>
      </trkpt>
      <trkpt lat="44.51717" lon="0.80634">
        <ele>150.6</ele>
        <time>2026-08-15T08:46:48Z</time>
      </trkpt>
      <trkpt lat="44.5172" lon="0.80639">
        <ele>150.6</ele>
        <time>2026-08-15T08:46:49Z</time>
      </trkpt>
      <trkpt lat="44.51722" lon="0.80645">
        <ele>150.8</ele>
        <time>2026-08-15T08:46:50Z</time>
      </trkpt>
      <trkpt lat="44.51724" lon="0.80651">
        <ele>150.8</ele>
        <time>2026-08-15T08:46:51Z</time>
      </trkpt>
      <trkpt lat="44.51726" lon="0.80657">
        <ele>150.8</ele>
        <time>2026-08-15T08:46:52Z</time>
      </trkpt>
      <trkpt lat="44.51728" lon="0.80662">
        <ele>150.8</ele>
        <time>2026-08-15T08:46:53Z</time>
      </trkpt>
      <trkpt lat="44.5173" lon="0.80668">
        <ele>150.8</ele>
        <time>2026-08-15T08:46:54Z</time>
      </trkpt>
      <trkpt lat="44.51732" lon="0.80675">
        <ele>150.8</ele>
        <time>2026-08-15T08:46:55Z</time>
      </trkpt>
      <trkpt lat="44.51734" lon="0.80681">
        <ele>150.8</ele>
        <time>2026-08-15T08:46:56Z</time>
      </trkpt>
      <trkpt lat="44.51736" lon="0.80687">
        <ele>150.8</ele>
        <time>2026-08-15T08:46:57Z</time>
      </trkpt>
      <trkpt lat="44.51738" lon="0.80693">
        <ele>150.8</ele>
        <time>2026-08-15T08:46:58Z</time>
      </trkpt>
      <trkpt lat="44.5174" lon="0.80699">
        <ele>151</ele>
        <time>2026-08-15T08:46:59Z</time>
      </trkpt>
      <trkpt lat="44.51742" lon="0.80706">
        <ele>150.8</ele>
        <time>2026-08-15T08:47:00Z</time>
      </trkpt>
      <trkpt lat="44.51745" lon="0.80712">
        <ele>150.8</ele>
        <time>2026-08-15T08:47:01Z</time>
      </trkpt>
      <trkpt lat="44.51747" lon="0.80719">
        <ele>150.8</ele>
        <time>2026-08-15T08:47:02Z</time>
      </trkpt>
      <trkpt lat="44.51749" lon="0.80726">
        <ele>150.6</ele>
        <time>2026-08-15T08:47:03Z</time>
      </trkpt>
      <trkpt lat="44.51752" lon="0.80733">
        <ele>150.6</ele>
        <time>2026-08-15T08:47:04Z</time>
      </trkpt>
      <trkpt lat="44.51755" lon="0.80742">
        <ele>150.4</ele>
        <time>2026-08-15T08:47:05Z</time>
      </trkpt>
      <trkpt lat="44.51758" lon="0.8075">
        <ele>150.2</ele>
        <time>2026-08-15T08:47:06Z</time>
      </trkpt>
      <trkpt lat="44.51761" lon="0.80757">
        <ele>149.8</ele>
        <time>2026-08-15T08:47:07Z</time>
      </trkpt>
      <trkpt lat="44.51764" lon="0.80765">
        <ele>149.6</ele>
        <time>2026-08-15T08:47:08Z</time>
      </trkpt>
      <trkpt lat="44.51767" lon="0.80773">
        <ele>149.4</ele>
        <time>2026-08-15T08:47:09Z</time>
      </trkpt>
      <trkpt lat="44.5177" lon="0.80781">
        <ele>149.4</ele>
        <time>2026-08-15T08:47:10Z</time>
      </trkpt>
      <trkpt lat="44.51773" lon="0.80788">
        <ele>149.2</ele>
        <time>2026-08-15T08:47:11Z</time>
      </trkpt>
      <trkpt lat="44.51776" lon="0.80796">
        <ele>149.2</ele>
        <time>2026-08-15T08:47:12Z</time>
      </trkpt>
      <trkpt lat="44.51779" lon="0.80803">
        <ele>149.2</ele>
        <time>2026-08-15T08:47:13Z</time>
      </trkpt>
      <trkpt lat="44.51782" lon="0.8081">
        <ele>149.2</ele>
        <time>2026-08-15T08:47:14Z</time>
      </trkpt>
      <trkpt lat="44.51784" lon="0.80817">
        <ele>149</ele>
        <time>2026-08-15T08:47:15Z</time>
      </trkpt>
      <trkpt lat="44.51787" lon="0.80823">
        <ele>149</ele>
        <time>2026-08-15T08:47:16Z</time>
      </trkpt>
      <trkpt lat="44.51789" lon="0.8083">
        <ele>148.8</ele>
        <time>2026-08-15T08:47:17Z</time>
      </trkpt>
      <trkpt lat="44.51791" lon="0.80834">
        <ele>148.8</ele>
        <time>2026-08-15T08:47:18Z</time>
      </trkpt>
      <trkpt lat="44.51792" lon="0.8084">
        <ele>148.8</ele>
        <time>2026-08-15T08:47:19Z</time>
      </trkpt>
      <trkpt lat="44.51794" lon="0.80846">
        <ele>148.8</ele>
        <time>2026-08-15T08:47:20Z</time>
      </trkpt>
      <trkpt lat="44.51795" lon="0.80852">
        <ele>148.8</ele>
        <time>2026-08-15T08:47:21Z</time>
      </trkpt>
      <trkpt lat="44.51797" lon="0.80858">
        <ele>148.8</ele>
        <time>2026-08-15T08:47:22Z</time>
      </trkpt>
      <trkpt lat="44.51798" lon="0.80864">
        <ele>148.8</ele>
        <time>2026-08-15T08:47:23Z</time>
      </trkpt>
      <trkpt lat="44.51799" lon="0.80871">
        <ele>148.8</ele>
        <time>2026-08-15T08:47:24Z</time>
      </trkpt>
      <trkpt lat="44.518" lon="0.80878">
        <ele>149</ele>
        <time>2026-08-15T08:47:25Z</time>
      </trkpt>
      <trkpt lat="44.51801" lon="0.80884">
        <ele>149</ele>
        <time>2026-08-15T08:47:26Z</time>
      </trkpt>
      <trkpt lat="44.51801" lon="0.80891">
        <ele>149</ele>
        <time>2026-08-15T08:47:27Z</time>
      </trkpt>
      <trkpt lat="44.51802" lon="0.80897">
        <ele>149</ele>
        <time>2026-08-15T08:47:28Z</time>
      </trkpt>
      <trkpt lat="44.51802" lon="0.80903">
        <ele>149</ele>
        <time>2026-08-15T08:47:29Z</time>
      </trkpt>
      <trkpt lat="44.51803" lon="0.80909">
        <ele>149.2</ele>
        <time>2026-08-15T08:47:30Z</time>
      </trkpt>
      <trkpt lat="44.51804" lon="0.80915">
        <ele>149.4</ele>
        <time>2026-08-15T08:47:31Z</time>
      </trkpt>
      <trkpt lat="44.51805" lon="0.8092">
        <ele>149.6</ele>
        <time>2026-08-15T08:47:32Z</time>
      </trkpt>
      <trkpt lat="44.51805" lon="0.80925">
        <ele>149.6</ele>
        <time>2026-08-15T08:47:33Z</time>
      </trkpt>
      <trkpt lat="44.51806" lon="0.8093">
        <ele>150</ele>
        <time>2026-08-15T08:47:34Z</time>
      </trkpt>
      <trkpt lat="44.51806" lon="0.80934">
        <ele>150.2</ele>
        <time>2026-08-15T08:47:35Z</time>
      </trkpt>
      <trkpt lat="44.51807" lon="0.80939">
        <ele>150.4</ele>
        <time>2026-08-15T08:47:36Z</time>
      </trkpt>
      <trkpt lat="44.51808" lon="0.80944">
        <ele>150.6</ele>
        <time>2026-08-15T08:47:37Z</time>
      </trkpt>
      <trkpt lat="44.51809" lon="0.80949">
        <ele>150.6</ele>
        <time>2026-08-15T08:47:38Z</time>
      </trkpt>
      <trkpt lat="44.5181" lon="0.80953">
        <ele>150.6</ele>
        <time>2026-08-15T08:47:39Z</time>
      </trkpt>
      <trkpt lat="44.51811" lon="0.80958">
        <ele>150.8</ele>
        <time>2026-08-15T08:47:40Z</time>
      </trkpt>
      <trkpt lat="44.51812" lon="0.80962">
        <ele>151.2</ele>
        <time>2026-08-15T08:47:41Z</time>
      </trkpt>
      <trkpt lat="44.51814" lon="0.80966">
        <ele>151.6</ele>
        <time>2026-08-15T08:47:42Z</time>
      </trkpt>
      <trkpt lat="44.51815" lon="0.8097">
        <ele>151.8</ele>
        <time>2026-08-15T08:47:43Z</time>
      </trkpt>
      <trkpt lat="44.51816" lon="0.80975">
        <ele>152</ele>
        <time>2026-08-15T08:47:44Z</time>
      </trkpt>
      <trkpt lat="44.51818" lon="0.80979">
        <ele>152.2</ele>
        <time>2026-08-15T08:47:45Z</time>
      </trkpt>
      <trkpt lat="44.51819" lon="0.80983">
        <ele>152.4</ele>
        <time>2026-08-15T08:47:46Z</time>
      </trkpt>
      <trkpt lat="44.5182" lon="0.80988">
        <ele>152.6</ele>
        <time>2026-08-15T08:47:47Z</time>
      </trkpt>
      <trkpt lat="44.51822" lon="0.80993">
        <ele>152.6</ele>
        <time>2026-08-15T08:47:48Z</time>
      </trkpt>
      <trkpt lat="44.51823" lon="0.80998">
        <ele>152.6</ele>
        <time>2026-08-15T08:47:49Z</time>
      </trkpt>
      <trkpt lat="44.51824" lon="0.81003">
        <ele>152.6</ele>
        <time>2026-08-15T08:47:50Z</time>
      </trkpt>
      <trkpt lat="44.51826" lon="0.81009">
        <ele>152.8</ele>
        <time>2026-08-15T08:47:51Z</time>
      </trkpt>
      <trkpt lat="44.51827" lon="0.81014">
        <ele>152.8</ele>
        <time>2026-08-15T08:47:52Z</time>
      </trkpt>
      <trkpt lat="44.51829" lon="0.8102">
        <ele>152.8</ele>
        <time>2026-08-15T08:47:53Z</time>
      </trkpt>
      <trkpt lat="44.51831" lon="0.81026">
        <ele>152.6</ele>
        <time>2026-08-15T08:47:54Z</time>
      </trkpt>
      <trkpt lat="44.51832" lon="0.81032">
        <ele>152.6</ele>
        <time>2026-08-15T08:47:55Z</time>
      </trkpt>
      <trkpt lat="44.51834" lon="0.81038">
        <ele>152.4</ele>
        <time>2026-08-15T08:47:56Z</time>
      </trkpt>
      <trkpt lat="44.51836" lon="0.81044">
        <ele>152.2</ele>
        <time>2026-08-15T08:47:57Z</time>
      </trkpt>
      <trkpt lat="44.51838" lon="0.8105">
        <ele>152.2</ele>
        <time>2026-08-15T08:47:58Z</time>
      </trkpt>
      <trkpt lat="44.5184" lon="0.81056">
        <ele>151.8</ele>
        <time>2026-08-15T08:47:59Z</time>
      </trkpt>
      <trkpt lat="44.51842" lon="0.81061">
        <ele>151.8</ele>
        <time>2026-08-15T08:48:00Z</time>
      </trkpt>
      <trkpt lat="44.51845" lon="0.81067">
        <ele>151.6</ele>
        <time>2026-08-15T08:48:01Z</time>
      </trkpt>
      <trkpt lat="44.51847" lon="0.81072">
        <ele>151.6</ele>
        <time>2026-08-15T08:48:02Z</time>
      </trkpt>
      <trkpt lat="44.51849" lon="0.81077">
        <ele>151.6</ele>
        <time>2026-08-15T08:48:03Z</time>
      </trkpt>
      <trkpt lat="44.51851" lon="0.81081">
        <ele>151.6</ele>
        <time>2026-08-15T08:48:04Z</time>
      </trkpt>
      <trkpt lat="44.51853" lon="0.81086">
        <ele>151.6</ele>
        <time>2026-08-15T08:48:05Z</time>
      </trkpt>
      <trkpt lat="44.51856" lon="0.8109">
        <ele>151.6</ele>
        <time>2026-08-15T08:48:06Z</time>
      </trkpt>
      <trkpt lat="44.51858" lon="0.81094">
        <ele>151.6</ele>
        <time>2026-08-15T08:48:07Z</time>
      </trkpt>
      <trkpt lat="44.5186" lon="0.81098">
        <ele>151.6</ele>
        <time>2026-08-15T08:48:08Z</time>
      </trkpt>
      <trkpt lat="44.51862" lon="0.81103">
        <ele>151.8</ele>
        <time>2026-08-15T08:48:09Z</time>
      </trkpt>
      <trkpt lat="44.51864" lon="0.81107">
        <ele>151.8</ele>
        <time>2026-08-15T08:48:10Z</time>
      </trkpt>
      <trkpt lat="44.51866" lon="0.81111">
        <ele>152.2</ele>
        <time>2026-08-15T08:48:11Z</time>
      </trkpt>
      <trkpt lat="44.51868" lon="0.81115">
        <ele>152.4</ele>
        <time>2026-08-15T08:48:12Z</time>
      </trkpt>
      <trkpt lat="44.5187" lon="0.81119">
        <ele>152.6</ele>
        <time>2026-08-15T08:48:13Z</time>
      </trkpt>
      <trkpt lat="44.51872" lon="0.81123">
        <ele>152.6</ele>
        <time>2026-08-15T08:48:14Z</time>
      </trkpt>
      <trkpt lat="44.51874" lon="0.81127">
        <ele>153</ele>
        <time>2026-08-15T08:48:15Z</time>
      </trkpt>
      <trkpt lat="44.51876" lon="0.81131">
        <ele>153.2</ele>
        <time>2026-08-15T08:48:16Z</time>
      </trkpt>
      <trkpt lat="44.51878" lon="0.81134">
        <ele>153.4</ele>
        <time>2026-08-15T08:48:17Z</time>
      </trkpt>
      <trkpt lat="44.5188" lon="0.81138">
        <ele>153.6</ele>
        <time>2026-08-15T08:48:18Z</time>
      </trkpt>
      <trkpt lat="44.51882" lon="0.81141">
        <ele>153.6</ele>
        <time>2026-08-15T08:48:19Z</time>
      </trkpt>
      <trkpt lat="44.51884" lon="0.81145">
        <ele>153.6</ele>
        <time>2026-08-15T08:48:20Z</time>
      </trkpt>
      <trkpt lat="44.51886" lon="0.81148">
        <ele>153.8</ele>
        <time>2026-08-15T08:48:21Z</time>
      </trkpt>
      <trkpt lat="44.51888" lon="0.81151">
        <ele>153.8</ele>
        <time>2026-08-15T08:48:22Z</time>
      </trkpt>
      <trkpt lat="44.51889" lon="0.81154">
        <ele>154.2</ele>
        <time>2026-08-15T08:48:23Z</time>
      </trkpt>
      <trkpt lat="44.51891" lon="0.81157">
        <ele>154.4</ele>
        <time>2026-08-15T08:48:24Z</time>
      </trkpt>
      <trkpt lat="44.51892" lon="0.81158">
        <ele>154.6</ele>
        <time>2026-08-15T08:48:25Z</time>
      </trkpt>
      <trkpt lat="44.51893" lon="0.81161">
        <ele>154.6</ele>
        <time>2026-08-15T08:48:26Z</time>
      </trkpt>
      <trkpt lat="44.51894" lon="0.81163">
        <ele>154.8</ele>
        <time>2026-08-15T08:48:27Z</time>
      </trkpt>
      <trkpt lat="44.51896" lon="0.81166">
        <ele>155.2</ele>
        <time>2026-08-15T08:48:28Z</time>
      </trkpt>
      <trkpt lat="44.51897" lon="0.81169">
        <ele>155.4</ele>
        <time>2026-08-15T08:48:29Z</time>
      </trkpt>
      <trkpt lat="44.51899" lon="0.81172">
        <ele>155.6</ele>
        <time>2026-08-15T08:48:30Z</time>
      </trkpt>
      <trkpt lat="44.51901" lon="0.81174">
        <ele>156</ele>
        <time>2026-08-15T08:48:31Z</time>
      </trkpt>
      <trkpt lat="44.51902" lon="0.81177">
        <ele>156.4</ele>
        <time>2026-08-15T08:48:32Z</time>
      </trkpt>
      <trkpt lat="44.51904" lon="0.8118">
        <ele>156.6</ele>
        <time>2026-08-15T08:48:33Z</time>
      </trkpt>
      <trkpt lat="44.51905" lon="0.81183">
        <ele>156.6</ele>
        <time>2026-08-15T08:48:34Z</time>
      </trkpt>
      <trkpt lat="44.51907" lon="0.81186">
        <ele>156.8</ele>
        <time>2026-08-15T08:48:35Z</time>
      </trkpt>
      <trkpt lat="44.51908" lon="0.81188">
        <ele>157.2</ele>
        <time>2026-08-15T08:48:36Z</time>
      </trkpt>
      <trkpt lat="44.5191" lon="0.81191">
        <ele>157.4</ele>
        <time>2026-08-15T08:48:37Z</time>
      </trkpt>
      <trkpt lat="44.51912" lon="0.81194">
        <ele>157.6</ele>
        <time>2026-08-15T08:48:38Z</time>
      </trkpt>
      <trkpt lat="44.51913" lon="0.81197">
        <ele>157.6</ele>
        <time>2026-08-15T08:48:39Z</time>
      </trkpt>
      <trkpt lat="44.51915" lon="0.812">
        <ele>157.8</ele>
        <time>2026-08-15T08:48:40Z</time>
      </trkpt>
      <trkpt lat="44.51916" lon="0.81203">
        <ele>158.2</ele>
        <time>2026-08-15T08:48:41Z</time>
      </trkpt>
      <trkpt lat="44.51918" lon="0.81206">
        <ele>158.4</ele>
        <time>2026-08-15T08:48:42Z</time>
      </trkpt>
      <trkpt lat="44.51919" lon="0.81209">
        <ele>158.6</ele>
        <time>2026-08-15T08:48:43Z</time>
      </trkpt>
      <trkpt lat="44.51921" lon="0.81212">
        <ele>158.6</ele>
        <time>2026-08-15T08:48:44Z</time>
      </trkpt>
      <trkpt lat="44.51922" lon="0.81215">
        <ele>158.8</ele>
        <time>2026-08-15T08:48:45Z</time>
      </trkpt>
      <trkpt lat="44.51924" lon="0.81218">
        <ele>159.2</ele>
        <time>2026-08-15T08:48:46Z</time>
      </trkpt>
      <trkpt lat="44.51925" lon="0.8122">
        <ele>159.4</ele>
        <time>2026-08-15T08:48:47Z</time>
      </trkpt>
      <trkpt lat="44.51927" lon="0.81223">
        <ele>159.6</ele>
        <time>2026-08-15T08:48:48Z</time>
      </trkpt>
      <trkpt lat="44.51929" lon="0.81225">
        <ele>159.6</ele>
        <time>2026-08-15T08:48:49Z</time>
      </trkpt>
      <trkpt lat="44.5193" lon="0.81228">
        <ele>160</ele>
        <time>2026-08-15T08:48:50Z</time>
      </trkpt>
      <trkpt lat="44.51932" lon="0.8123">
        <ele>160.4</ele>
        <time>2026-08-15T08:48:51Z</time>
      </trkpt>
      <trkpt lat="44.51933" lon="0.81233">
        <ele>160.6</ele>
        <time>2026-08-15T08:48:52Z</time>
      </trkpt>
      <trkpt lat="44.51935" lon="0.81235">
        <ele>160.6</ele>
        <time>2026-08-15T08:48:53Z</time>
      </trkpt>
      <trkpt lat="44.51936" lon="0.81238">
        <ele>160.8</ele>
        <time>2026-08-15T08:48:54Z</time>
      </trkpt>
      <trkpt lat="44.51938" lon="0.81241">
        <ele>161.2</ele>
        <time>2026-08-15T08:48:55Z</time>
      </trkpt>
      <trkpt lat="44.51939" lon="0.81243">
        <ele>161.4</ele>
        <time>2026-08-15T08:48:56Z</time>
      </trkpt>
      <trkpt lat="44.5194" lon="0.81246">
        <ele>161.6</ele>
        <time>2026-08-15T08:48:57Z</time>
      </trkpt>
      <trkpt lat="44.51942" lon="0.81248">
        <ele>162</ele>
        <time>2026-08-15T08:48:58Z</time>
      </trkpt>
      <trkpt lat="44.51944" lon="0.8125">
        <ele>162.2</ele>
        <time>2026-08-15T08:48:59Z</time>
      </trkpt>
      <trkpt lat="44.51945" lon="0.81253">
        <ele>162.4</ele>
        <time>2026-08-15T08:49:00Z</time>
      </trkpt>
      <trkpt lat="44.51947" lon="0.81255">
        <ele>162.6</ele>
        <time>2026-08-15T08:49:01Z</time>
      </trkpt>
      <trkpt lat="44.51948" lon="0.81257">
        <ele>162.8</ele>
        <time>2026-08-15T08:49:02Z</time>
      </trkpt>
      <trkpt lat="44.5195" lon="0.8126">
        <ele>163.2</ele>
        <time>2026-08-15T08:49:03Z</time>
      </trkpt>
      <trkpt lat="44.51951" lon="0.81262">
        <ele>163.4</ele>
        <time>2026-08-15T08:49:04Z</time>
      </trkpt>
      <trkpt lat="44.51953" lon="0.81264">
        <ele>163.6</ele>
        <time>2026-08-15T08:49:05Z</time>
      </trkpt>
      <trkpt lat="44.51955" lon="0.81267">
        <ele>163.6</ele>
        <time>2026-08-15T08:49:06Z</time>
      </trkpt>
      <trkpt lat="44.51956" lon="0.81269">
        <ele>163.8</ele>
        <time>2026-08-15T08:49:07Z</time>
      </trkpt>
      <trkpt lat="44.51958" lon="0.81272">
        <ele>163.8</ele>
        <time>2026-08-15T08:49:08Z</time>
      </trkpt>
      <trkpt lat="44.5196" lon="0.81274">
        <ele>164</ele>
        <time>2026-08-15T08:49:09Z</time>
      </trkpt>
      <trkpt lat="44.51961" lon="0.81277">
        <ele>164.2</ele>
        <time>2026-08-15T08:49:10Z</time>
      </trkpt>
      <trkpt lat="44.51963" lon="0.81279">
        <ele>164.4</ele>
        <time>2026-08-15T08:49:11Z</time>
      </trkpt>
      <trkpt lat="44.51965" lon="0.81281">
        <ele>164.4</ele>
        <time>2026-08-15T08:49:12Z</time>
      </trkpt>
      <trkpt lat="44.51967" lon="0.81284">
        <ele>164.6</ele>
        <time>2026-08-15T08:49:13Z</time>
      </trkpt>
      <trkpt lat="44.51968" lon="0.81286">
        <ele>164.6</ele>
        <time>2026-08-15T08:49:14Z</time>
      </trkpt>
      <trkpt lat="44.5197" lon="0.81289">
        <ele>164.6</ele>
        <time>2026-08-15T08:49:15Z</time>
      </trkpt>
      <trkpt lat="44.51972" lon="0.81291">
        <ele>164.8</ele>
        <time>2026-08-15T08:49:16Z</time>
      </trkpt>
      <trkpt lat="44.51974" lon="0.81294">
        <ele>164.8</ele>
        <time>2026-08-15T08:49:17Z</time>
      </trkpt>
      <trkpt lat="44.51975" lon="0.81296">
        <ele>165.2</ele>
        <time>2026-08-15T08:49:18Z</time>
      </trkpt>
      <trkpt lat="44.51977" lon="0.81299">
        <ele>165.2</ele>
        <time>2026-08-15T08:49:19Z</time>
      </trkpt>
      <trkpt lat="44.51979" lon="0.81302">
        <ele>165.4</ele>
        <time>2026-08-15T08:49:20Z</time>
      </trkpt>
      <trkpt lat="44.5198" lon="0.81304">
        <ele>165.6</ele>
        <time>2026-08-15T08:49:21Z</time>
      </trkpt>
      <trkpt lat="44.51982" lon="0.81307">
        <ele>165.6</ele>
        <time>2026-08-15T08:49:22Z</time>
      </trkpt>
      <trkpt lat="44.51984" lon="0.8131">
        <ele>165.6</ele>
        <time>2026-08-15T08:49:23Z</time>
      </trkpt>
      <trkpt lat="44.51985" lon="0.81312">
        <ele>165.8</ele>
        <time>2026-08-15T08:49:24Z</time>
      </trkpt>
      <trkpt lat="44.51987" lon="0.81315">
        <ele>165.8</ele>
        <time>2026-08-15T08:49:25Z</time>
      </trkpt>
      <trkpt lat="44.51989" lon="0.81317">
        <ele>166</ele>
        <time>2026-08-15T08:49:26Z</time>
      </trkpt>
      <trkpt lat="44.51991" lon="0.8132">
        <ele>166</ele>
        <time>2026-08-15T08:49:27Z</time>
      </trkpt>
      <trkpt lat="44.51992" lon="0.81323">
        <ele>166.2</ele>
        <time>2026-08-15T08:49:28Z</time>
      </trkpt>
      <trkpt lat="44.51995" lon="0.81328">
        <ele>166.2</ele>
        <time>2026-08-15T08:49:29Z</time>
      </trkpt>
      <trkpt lat="44.51998" lon="0.81332">
        <ele>166.4</ele>
        <time>2026-08-15T08:49:30Z</time>
      </trkpt>
      <trkpt lat="44.52" lon="0.81335">
        <ele>166.4</ele>
        <time>2026-08-15T08:49:31Z</time>
      </trkpt>
      <trkpt lat="44.52001" lon="0.81338">
        <ele>166.6</ele>
        <time>2026-08-15T08:49:32Z</time>
      </trkpt>
      <trkpt lat="44.52003" lon="0.81341">
        <ele>166.6</ele>
        <time>2026-08-15T08:49:33Z</time>
      </trkpt>
      <trkpt lat="44.52005" lon="0.81344">
        <ele>166.8</ele>
        <time>2026-08-15T08:49:34Z</time>
      </trkpt>
      <trkpt lat="44.52007" lon="0.81347">
        <ele>167</ele>
        <time>2026-08-15T08:49:35Z</time>
      </trkpt>
      <trkpt lat="44.52009" lon="0.81351">
        <ele>167.2</ele>
        <time>2026-08-15T08:49:36Z</time>
      </trkpt>
      <trkpt lat="44.5201" lon="0.81354">
        <ele>167.2</ele>
        <time>2026-08-15T08:49:37Z</time>
      </trkpt>
      <trkpt lat="44.52012" lon="0.81358">
        <ele>167.4</ele>
        <time>2026-08-15T08:49:38Z</time>
      </trkpt>
      <trkpt lat="44.52014" lon="0.81361">
        <ele>167.4</ele>
        <time>2026-08-15T08:49:39Z</time>
      </trkpt>
      <trkpt lat="44.52015" lon="0.81365">
        <ele>167.4</ele>
        <time>2026-08-15T08:49:40Z</time>
      </trkpt>
      <trkpt lat="44.52017" lon="0.81368">
        <ele>167.6</ele>
        <time>2026-08-15T08:49:41Z</time>
      </trkpt>
      <trkpt lat="44.52018" lon="0.81372">
        <ele>167.6</ele>
        <time>2026-08-15T08:49:42Z</time>
      </trkpt>
      <trkpt lat="44.5202" lon="0.81375">
        <ele>167.8</ele>
        <time>2026-08-15T08:49:43Z</time>
      </trkpt>
      <trkpt lat="44.52021" lon="0.81379">
        <ele>168</ele>
        <time>2026-08-15T08:49:44Z</time>
      </trkpt>
      <trkpt lat="44.52022" lon="0.81382">
        <ele>168.4</ele>
        <time>2026-08-15T08:49:45Z</time>
      </trkpt>
      <trkpt lat="44.52024" lon="0.81385">
        <ele>168.6</ele>
        <time>2026-08-15T08:49:46Z</time>
      </trkpt>
      <trkpt lat="44.52025" lon="0.81387">
        <ele>168.8</ele>
        <time>2026-08-15T08:49:47Z</time>
      </trkpt>
      <trkpt lat="44.52026" lon="0.81389">
        <ele>169.2</ele>
        <time>2026-08-15T08:49:48Z</time>
      </trkpt>
      <trkpt lat="44.52027" lon="0.81391">
        <ele>169.4</ele>
        <time>2026-08-15T08:49:49Z</time>
      </trkpt>
      <trkpt lat="44.52028" lon="0.81394">
        <ele>169.6</ele>
        <time>2026-08-15T08:49:50Z</time>
      </trkpt>
      <trkpt lat="44.52029" lon="0.81397">
        <ele>170.2</ele>
        <time>2026-08-15T08:49:51Z</time>
      </trkpt>
      <trkpt lat="44.5203" lon="0.814">
        <ele>170.4</ele>
        <time>2026-08-15T08:49:52Z</time>
      </trkpt>
      <trkpt lat="44.52032" lon="0.81403">
        <ele>170.6</ele>
        <time>2026-08-15T08:49:53Z</time>
      </trkpt>
      <trkpt lat="44.52033" lon="0.81406">
        <ele>170.8</ele>
        <time>2026-08-15T08:49:54Z</time>
      </trkpt>
      <trkpt lat="44.52034" lon="0.81409">
        <ele>171.2</ele>
        <time>2026-08-15T08:49:55Z</time>
      </trkpt>
      <trkpt lat="44.52036" lon="0.81412">
        <ele>171.4</ele>
        <time>2026-08-15T08:49:56Z</time>
      </trkpt>
      <trkpt lat="44.52037" lon="0.81416">
        <ele>171.6</ele>
        <time>2026-08-15T08:49:57Z</time>
      </trkpt>
      <trkpt lat="44.52039" lon="0.81421">
        <ele>171.6</ele>
        <time>2026-08-15T08:49:58Z</time>
      </trkpt>
      <trkpt lat="44.52041" lon="0.81425">
        <ele>171.8</ele>
        <time>2026-08-15T08:49:59Z</time>
      </trkpt>
      <trkpt lat="44.52042" lon="0.81429">
        <ele>172</ele>
        <time>2026-08-15T08:50:00Z</time>
      </trkpt>
      <trkpt lat="44.52043" lon="0.81433">
        <ele>172.2</ele>
        <time>2026-08-15T08:50:01Z</time>
      </trkpt>
      <trkpt lat="44.52044" lon="0.81437">
        <ele>172.2</ele>
        <time>2026-08-15T08:50:02Z</time>
      </trkpt>
      <trkpt lat="44.52045" lon="0.81441">
        <ele>172.4</ele>
        <time>2026-08-15T08:50:03Z</time>
      </trkpt>
      <trkpt lat="44.52046" lon="0.81445">
        <ele>172.4</ele>
        <time>2026-08-15T08:50:04Z</time>
      </trkpt>
      <trkpt lat="44.52047" lon="0.81449">
        <ele>172.6</ele>
        <time>2026-08-15T08:50:05Z</time>
      </trkpt>
      <trkpt lat="44.52048" lon="0.81453">
        <ele>172.6</ele>
        <time>2026-08-15T08:50:06Z</time>
      </trkpt>
      <trkpt lat="44.52048" lon="0.81458">
        <ele>172.6</ele>
        <time>2026-08-15T08:50:07Z</time>
      </trkpt>
      <trkpt lat="44.52049" lon="0.81462">
        <ele>172.6</ele>
        <time>2026-08-15T08:50:08Z</time>
      </trkpt>
      <trkpt lat="44.52049" lon="0.81466">
        <ele>172.6</ele>
        <time>2026-08-15T08:50:09Z</time>
      </trkpt>
      <trkpt lat="44.5205" lon="0.81471">
        <ele>172.6</ele>
        <time>2026-08-15T08:50:10Z</time>
      </trkpt>
      <trkpt lat="44.5205" lon="0.81476">
        <ele>172.6</ele>
        <time>2026-08-15T08:50:11Z</time>
      </trkpt>
      <trkpt lat="44.5205" lon="0.81481">
        <ele>172.6</ele>
        <time>2026-08-15T08:50:12Z</time>
      </trkpt>
      <trkpt lat="44.5205" lon="0.81486">
        <ele>172.4</ele>
        <time>2026-08-15T08:50:13Z</time>
      </trkpt>
      <trkpt lat="44.5205" lon="0.81491">
        <ele>172.2</ele>
        <time>2026-08-15T08:50:14Z</time>
      </trkpt>
      <trkpt lat="44.52049" lon="0.81497">
        <ele>171.8</ele>
        <time>2026-08-15T08:50:15Z</time>
      </trkpt>
      <trkpt lat="44.52049" lon="0.81502">
        <ele>171.6</ele>
        <time>2026-08-15T08:50:16Z</time>
      </trkpt>
      <trkpt lat="44.52048" lon="0.81508">
        <ele>171.6</ele>
        <time>2026-08-15T08:50:17Z</time>
      </trkpt>
      <trkpt lat="44.52047" lon="0.81514">
        <ele>171</ele>
        <time>2026-08-15T08:50:18Z</time>
      </trkpt>
      <trkpt lat="44.52047" lon="0.8152">
        <ele>170.6</ele>
        <time>2026-08-15T08:50:19Z</time>
      </trkpt>
      <trkpt lat="44.52047" lon="0.81527">
        <ele>170.2</ele>
        <time>2026-08-15T08:50:20Z</time>
      </trkpt>
      <trkpt lat="44.52048" lon="0.81534">
        <ele>169</ele>
        <time>2026-08-15T08:50:21Z</time>
      </trkpt>
      <trkpt lat="44.52048" lon="0.81542">
        <ele>168.4</ele>
        <time>2026-08-15T08:50:22Z</time>
      </trkpt>
      <trkpt lat="44.5205" lon="0.81554">
        <ele>167.8</ele>
        <time>2026-08-15T08:50:23Z</time>
      </trkpt>
      <trkpt lat="44.52051" lon="0.81563">
        <ele>167</ele>
        <time>2026-08-15T08:50:24Z</time>
      </trkpt>
      <trkpt lat="44.52053" lon="0.81572">
        <ele>166.6</ele>
        <time>2026-08-15T08:50:25Z</time>
      </trkpt>
      <trkpt lat="44.52054" lon="0.81581">
        <ele>166.2</ele>
        <time>2026-08-15T08:50:26Z</time>
      </trkpt>
      <trkpt lat="44.52055" lon="0.81591">
        <ele>165.8</ele>
        <time>2026-08-15T08:50:27Z</time>
      </trkpt>
      <trkpt lat="44.52056" lon="0.816">
        <ele>165.4</ele>
        <time>2026-08-15T08:50:28Z</time>
      </trkpt>
      <trkpt lat="44.52058" lon="0.8161">
        <ele>164.6</ele>
        <time>2026-08-15T08:50:29Z</time>
      </trkpt>
      <trkpt lat="44.52059" lon="0.81619">
        <ele>164.2</ele>
        <time>2026-08-15T08:50:30Z</time>
      </trkpt>
      <trkpt lat="44.52061" lon="0.81628">
        <ele>163.6</ele>
        <time>2026-08-15T08:50:31Z</time>
      </trkpt>
      <trkpt lat="44.52063" lon="0.81637">
        <ele>163.2</ele>
        <time>2026-08-15T08:50:32Z</time>
      </trkpt>
      <trkpt lat="44.52064" lon="0.81644">
        <ele>162.8</ele>
        <time>2026-08-15T08:50:33Z</time>
      </trkpt>
      <trkpt lat="44.52066" lon="0.8165">
        <ele>162.6</ele>
        <time>2026-08-15T08:50:34Z</time>
      </trkpt>
      <trkpt lat="44.52066" lon="0.81653">
        <ele>162.4</ele>
        <time>2026-08-15T08:50:35Z</time>
      </trkpt>
      <trkpt lat="44.52067" lon="0.81655">
        <ele>162.2</ele>
        <time>2026-08-15T08:50:36Z</time>
      </trkpt>
      <trkpt lat="44.52067" lon="0.81655">
        <ele>161.8</ele>
        <time>2026-08-15T08:50:37Z</time>
      </trkpt>
      <trkpt lat="44.52069" lon="0.8166">
        <ele>160.6</ele>
        <time>2026-08-15T08:50:59Z</time>
      </trkpt>
      <trkpt lat="44.52069" lon="0.81662">
        <ele>160.6</ele>
        <time>2026-08-15T08:51:00Z</time>
      </trkpt>
      <trkpt lat="44.5207" lon="0.81664">
        <ele>160.6</ele>
        <time>2026-08-15T08:51:01Z</time>
      </trkpt>
      <trkpt lat="44.5207" lon="0.81666">
        <ele>160.6</ele>
        <time>2026-08-15T08:51:02Z</time>
      </trkpt>
      <trkpt lat="44.52071" lon="0.8167">
        <ele>160.6</ele>
        <time>2026-08-15T08:51:03Z</time>
      </trkpt>
      <trkpt lat="44.52072" lon="0.81674">
        <ele>160.6</ele>
        <time>2026-08-15T08:51:04Z</time>
      </trkpt>
      <trkpt lat="44.52073" lon="0.81677">
        <ele>160.6</ele>
        <time>2026-08-15T08:51:05Z</time>
      </trkpt>
      <trkpt lat="44.52074" lon="0.81684">
        <ele>160.6</ele>
        <time>2026-08-15T08:51:06Z</time>
      </trkpt>
      <trkpt lat="44.52074" lon="0.81689">
        <ele>160.6</ele>
        <time>2026-08-15T08:51:07Z</time>
      </trkpt>
      <trkpt lat="44.52075" lon="0.81693">
        <ele>160.4</ele>
        <time>2026-08-15T08:51:08Z</time>
      </trkpt>
      <trkpt lat="44.52076" lon="0.81698">
        <ele>160.4</ele>
        <time>2026-08-15T08:51:09Z</time>
      </trkpt>
      <trkpt lat="44.52077" lon="0.81702">
        <ele>160.4</ele>
        <time>2026-08-15T08:51:10Z</time>
      </trkpt>
      <trkpt lat="44.52078" lon="0.81707">
        <ele>160.4</ele>
        <time>2026-08-15T08:51:11Z</time>
      </trkpt>
      <trkpt lat="44.5208" lon="0.81712">
        <ele>160.2</ele>
        <time>2026-08-15T08:51:12Z</time>
      </trkpt>
      <trkpt lat="44.52081" lon="0.81716">
        <ele>160.2</ele>
        <time>2026-08-15T08:51:13Z</time>
      </trkpt>
      <trkpt lat="44.52083" lon="0.8172">
        <ele>160.2</ele>
        <time>2026-08-15T08:51:14Z</time>
      </trkpt>
      <trkpt lat="44.52084" lon="0.81722">
        <ele>160.2</ele>
        <time>2026-08-15T08:51:15Z</time>
      </trkpt>
      <trkpt lat="44.52085" lon="0.81723">
        <ele>160.2</ele>
        <time>2026-08-15T08:51:16Z</time>
      </trkpt>
      <trkpt lat="44.52087" lon="0.81723">
        <ele>160</ele>
        <time>2026-08-15T08:51:17Z</time>
      </trkpt>
      <trkpt lat="44.52088" lon="0.81723">
        <ele>159.8</ele>
        <time>2026-08-15T08:51:18Z</time>
      </trkpt>
      <trkpt lat="44.52088" lon="0.81723">
        <ele>159.8</ele>
        <time>2026-08-15T08:51:19Z</time>
      </trkpt>
      <trkpt lat="44.52088" lon="0.81723">
        <ele>159.8</ele>
        <time>2026-08-15T08:51:20Z</time>
      </trkpt>
      <trkpt lat="44.5209" lon="0.81728">
        <ele>159.8</ele>
        <time>2026-08-15T08:51:39Z</time>
      </trkpt>
      <trkpt lat="44.5209" lon="0.8173">
        <ele>159.8</ele>
        <time>2026-08-15T08:51:40Z</time>
      </trkpt>
      <trkpt lat="44.5209" lon="0.81733">
        <ele>160</ele>
        <time>2026-08-15T08:51:41Z</time>
      </trkpt>
      <trkpt lat="44.5209" lon="0.81736">
        <ele>160</ele>
        <time>2026-08-15T08:51:42Z</time>
      </trkpt>
      <trkpt lat="44.5209" lon="0.81739">
        <ele>160</ele>
        <time>2026-08-15T08:51:43Z</time>
      </trkpt>
      <trkpt lat="44.52091" lon="0.81742">
        <ele>160.2</ele>
        <time>2026-08-15T08:51:44Z</time>
      </trkpt>
      <trkpt lat="44.52091" lon="0.81746">
        <ele>160.2</ele>
        <time>2026-08-15T08:51:45Z</time>
      </trkpt>
      <trkpt lat="44.52092" lon="0.81749">
        <ele>160.2</ele>
        <time>2026-08-15T08:51:46Z</time>
      </trkpt>
      <trkpt lat="44.52092" lon="0.81753">
        <ele>160.2</ele>
        <time>2026-08-15T08:51:47Z</time>
      </trkpt>
      <trkpt lat="44.52093" lon="0.81759">
        <ele>160</ele>
        <time>2026-08-15T08:51:48Z</time>
      </trkpt>
      <trkpt lat="44.52094" lon="0.81763">
        <ele>159.8</ele>
        <time>2026-08-15T08:51:49Z</time>
      </trkpt>
      <trkpt lat="44.52095" lon="0.81767">
        <ele>159.8</ele>
        <time>2026-08-15T08:51:50Z</time>
      </trkpt>
      <trkpt lat="44.52096" lon="0.81771">
        <ele>159.8</ele>
        <time>2026-08-15T08:51:51Z</time>
      </trkpt>
      <trkpt lat="44.52097" lon="0.81775">
        <ele>159.6</ele>
        <time>2026-08-15T08:51:52Z</time>
      </trkpt>
      <trkpt lat="44.52098" lon="0.81779">
        <ele>159.6</ele>
        <time>2026-08-15T08:51:53Z</time>
      </trkpt>
      <trkpt lat="44.52098" lon="0.81783">
        <ele>159.6</ele>
        <time>2026-08-15T08:51:54Z</time>
      </trkpt>
      <trkpt lat="44.52099" lon="0.81787">
        <ele>159.6</ele>
        <time>2026-08-15T08:51:55Z</time>
      </trkpt>
      <trkpt lat="44.521" lon="0.81791">
        <ele>159.6</ele>
        <time>2026-08-15T08:51:56Z</time>
      </trkpt>
      <trkpt lat="44.52101" lon="0.81794">
        <ele>159.6</ele>
        <time>2026-08-15T08:51:57Z</time>
      </trkpt>
      <trkpt lat="44.52101" lon="0.81798">
        <ele>159.4</ele>
        <time>2026-08-15T08:51:58Z</time>
      </trkpt>
      <trkpt lat="44.52102" lon="0.81801">
        <ele>159.4</ele>
        <time>2026-08-15T08:51:59Z</time>
      </trkpt>
      <trkpt lat="44.52102" lon="0.81805">
        <ele>159.4</ele>
        <time>2026-08-15T08:52:00Z</time>
      </trkpt>
      <trkpt lat="44.52103" lon="0.81809">
        <ele>159.2</ele>
        <time>2026-08-15T08:52:01Z</time>
      </trkpt>
      <trkpt lat="44.52103" lon="0.81813">
        <ele>159.2</ele>
        <time>2026-08-15T08:52:02Z</time>
      </trkpt>
      <trkpt lat="44.52104" lon="0.81818">
        <ele>159.2</ele>
        <time>2026-08-15T08:52:03Z</time>
      </trkpt>
      <trkpt lat="44.52104" lon="0.81822">
        <ele>159</ele>
        <time>2026-08-15T08:52:04Z</time>
      </trkpt>
      <trkpt lat="44.52105" lon="0.81826">
        <ele>158.8</ele>
        <time>2026-08-15T08:52:05Z</time>
      </trkpt>
      <trkpt lat="44.52105" lon="0.8183">
        <ele>158.6</ele>
        <time>2026-08-15T08:52:06Z</time>
      </trkpt>
      <trkpt lat="44.52106" lon="0.81834">
        <ele>158.6</ele>
        <time>2026-08-15T08:52:07Z</time>
      </trkpt>
      <trkpt lat="44.52107" lon="0.81839">
        <ele>158.6</ele>
        <time>2026-08-15T08:52:08Z</time>
      </trkpt>
      <trkpt lat="44.52108" lon="0.81843">
        <ele>158.6</ele>
        <time>2026-08-15T08:52:09Z</time>
      </trkpt>
      <trkpt lat="44.52109" lon="0.81847">
        <ele>158.6</ele>
        <time>2026-08-15T08:52:10Z</time>
      </trkpt>
      <trkpt lat="44.5211" lon="0.81852">
        <ele>158.4</ele>
        <time>2026-08-15T08:52:11Z</time>
      </trkpt>
      <trkpt lat="44.52111" lon="0.81857">
        <ele>158</ele>
        <time>2026-08-15T08:52:12Z</time>
      </trkpt>
      <trkpt lat="44.52111" lon="0.81862">
        <ele>157.8</ele>
        <time>2026-08-15T08:52:13Z</time>
      </trkpt>
      <trkpt lat="44.52112" lon="0.81867">
        <ele>157.6</ele>
        <time>2026-08-15T08:52:14Z</time>
      </trkpt>
      <trkpt lat="44.52112" lon="0.81871">
        <ele>157.4</ele>
        <time>2026-08-15T08:52:15Z</time>
      </trkpt>
      <trkpt lat="44.52113" lon="0.81876">
        <ele>157.2</ele>
        <time>2026-08-15T08:52:16Z</time>
      </trkpt>
      <trkpt lat="44.52113" lon="0.8188">
        <ele>157.2</ele>
        <time>2026-08-15T08:52:17Z</time>
      </trkpt>
      <trkpt lat="44.52114" lon="0.81884">
        <ele>157</ele>
        <time>2026-08-15T08:52:18Z</time>
      </trkpt>
      <trkpt lat="44.52114" lon="0.81888">
        <ele>157</ele>
        <time>2026-08-15T08:52:19Z</time>
      </trkpt>
      <trkpt lat="44.52115" lon="0.81893">
        <ele>156.8</ele>
        <time>2026-08-15T08:52:20Z</time>
      </trkpt>
      <trkpt lat="44.52115" lon="0.81898">
        <ele>156.6</ele>
        <time>2026-08-15T08:52:21Z</time>
      </trkpt>
      <trkpt lat="44.52115" lon="0.81903">
        <ele>156.4</ele>
        <time>2026-08-15T08:52:22Z</time>
      </trkpt>
      <trkpt lat="44.52115" lon="0.81909">
        <ele>156.2</ele>
        <time>2026-08-15T08:52:23Z</time>
      </trkpt>
      <trkpt lat="44.52115" lon="0.81915">
        <ele>155.8</ele>
        <time>2026-08-15T08:52:24Z</time>
      </trkpt>
      <trkpt lat="44.52115" lon="0.81922">
        <ele>155.6</ele>
        <time>2026-08-15T08:52:25Z</time>
      </trkpt>
      <trkpt lat="44.52114" lon="0.8193">
        <ele>155.2</ele>
        <time>2026-08-15T08:52:26Z</time>
      </trkpt>
      <trkpt lat="44.52113" lon="0.81941">
        <ele>155</ele>
        <time>2026-08-15T08:52:27Z</time>
      </trkpt>
      <trkpt lat="44.52112" lon="0.8195">
        <ele>154.6</ele>
        <time>2026-08-15T08:52:28Z</time>
      </trkpt>
      <trkpt lat="44.52111" lon="0.81959">
        <ele>154.2</ele>
        <time>2026-08-15T08:52:29Z</time>
      </trkpt>
      <trkpt lat="44.5211" lon="0.81969">
        <ele>153.8</ele>
        <time>2026-08-15T08:52:30Z</time>
      </trkpt>
      <trkpt lat="44.52109" lon="0.81978">
        <ele>153.4</ele>
        <time>2026-08-15T08:52:31Z</time>
      </trkpt>
      <trkpt lat="44.52107" lon="0.81988">
        <ele>152.8</ele>
        <time>2026-08-15T08:52:32Z</time>
      </trkpt>
      <trkpt lat="44.52106" lon="0.81996">
        <ele>152.6</ele>
        <time>2026-08-15T08:52:33Z</time>
      </trkpt>
      <trkpt lat="44.52105" lon="0.82003">
        <ele>152.4</ele>
        <time>2026-08-15T08:52:34Z</time>
      </trkpt>
      <trkpt lat="44.52104" lon="0.82009">
        <ele>152.2</ele>
        <time>2026-08-15T08:52:35Z</time>
      </trkpt>
      <trkpt lat="44.52103" lon="0.82013">
        <ele>151.8</ele>
        <time>2026-08-15T08:52:36Z</time>
      </trkpt>
      <trkpt lat="44.52103" lon="0.82017">
        <ele>151.6</ele>
        <time>2026-08-15T08:52:37Z</time>
      </trkpt>
      <trkpt lat="44.52103" lon="0.82021">
        <ele>151.6</ele>
        <time>2026-08-15T08:52:38Z</time>
      </trkpt>
      <trkpt lat="44.52103" lon="0.82026">
        <ele>151.4</ele>
        <time>2026-08-15T08:52:39Z</time>
      </trkpt>
      <trkpt lat="44.52103" lon="0.82029">
        <ele>151.2</ele>
        <time>2026-08-15T08:52:40Z</time>
      </trkpt>
      <trkpt lat="44.52103" lon="0.8203">
        <ele>151</ele>
        <time>2026-08-15T08:52:41Z</time>
      </trkpt>
      <trkpt lat="44.52103" lon="0.8203">
        <ele>150.8</ele>
        <time>2026-08-15T08:52:42Z</time>
      </trkpt>
      <trkpt lat="44.52103" lon="0.8203">
        <ele>150.8</ele>
        <time>2026-08-15T08:52:43Z</time>
      </trkpt>
      <trkpt lat="44.52106" lon="0.82035">
        <ele>150.4</ele>
        <time>2026-08-15T08:52:50Z</time>
      </trkpt>
      <trkpt lat="44.52107" lon="0.82038">
        <ele>150.4</ele>
        <time>2026-08-15T08:52:51Z</time>
      </trkpt>
      <trkpt lat="44.52109" lon="0.82041">
        <ele>150.4</ele>
        <time>2026-08-15T08:52:52Z</time>
      </trkpt>
      <trkpt lat="44.5211" lon="0.82044">
        <ele>150.4</ele>
        <time>2026-08-15T08:52:53Z</time>
      </trkpt>
      <trkpt lat="44.52111" lon="0.82047">
        <ele>150.4</ele>
        <time>2026-08-15T08:52:54Z</time>
      </trkpt>
      <trkpt lat="44.52113" lon="0.82052">
        <ele>150.4</ele>
        <time>2026-08-15T08:52:55Z</time>
      </trkpt>
      <trkpt lat="44.52114" lon="0.82057">
        <ele>150.4</ele>
        <time>2026-08-15T08:52:56Z</time>
      </trkpt>
      <trkpt lat="44.52115" lon="0.8206">
        <ele>150.4</ele>
        <time>2026-08-15T08:52:57Z</time>
      </trkpt>
      <trkpt lat="44.52116" lon="0.82064">
        <ele>150.2</ele>
        <time>2026-08-15T08:52:58Z</time>
      </trkpt>
      <trkpt lat="44.52117" lon="0.82068">
        <ele>150.2</ele>
        <time>2026-08-15T08:52:59Z</time>
      </trkpt>
      <trkpt lat="44.52118" lon="0.82072">
        <ele>150</ele>
        <time>2026-08-15T08:53:00Z</time>
      </trkpt>
      <trkpt lat="44.52119" lon="0.82076">
        <ele>149.8</ele>
        <time>2026-08-15T08:53:01Z</time>
      </trkpt>
      <trkpt lat="44.52121" lon="0.8208">
        <ele>149.8</ele>
        <time>2026-08-15T08:53:02Z</time>
      </trkpt>
      <trkpt lat="44.52122" lon="0.82084">
        <ele>149.6</ele>
        <time>2026-08-15T08:53:03Z</time>
      </trkpt>
      <trkpt lat="44.52124" lon="0.82089">
        <ele>149.6</ele>
        <time>2026-08-15T08:53:04Z</time>
      </trkpt>
      <trkpt lat="44.52125" lon="0.82093">
        <ele>149.6</ele>
        <time>2026-08-15T08:53:05Z</time>
      </trkpt>
      <trkpt lat="44.52126" lon="0.82097">
        <ele>149.6</ele>
        <time>2026-08-15T08:53:06Z</time>
      </trkpt>
      <trkpt lat="44.52127" lon="0.82102">
        <ele>149.6</ele>
        <time>2026-08-15T08:53:07Z</time>
      </trkpt>
      <trkpt lat="44.52128" lon="0.82106">
        <ele>149.4</ele>
        <time>2026-08-15T08:53:08Z</time>
      </trkpt>
      <trkpt lat="44.52129" lon="0.82111">
        <ele>149.2</ele>
        <time>2026-08-15T08:53:09Z</time>
      </trkpt>
      <trkpt lat="44.5213" lon="0.82115">
        <ele>149.2</ele>
        <time>2026-08-15T08:53:10Z</time>
      </trkpt>
      <trkpt lat="44.52132" lon="0.82119">
        <ele>149.2</ele>
        <time>2026-08-15T08:53:11Z</time>
      </trkpt>
      <trkpt lat="44.52133" lon="0.82123">
        <ele>149</ele>
        <time>2026-08-15T08:53:12Z</time>
      </trkpt>
      <trkpt lat="44.52134" lon="0.82127">
        <ele>148.8</ele>
        <time>2026-08-15T08:53:13Z</time>
      </trkpt>
      <trkpt lat="44.52135" lon="0.82132">
        <ele>148.8</ele>
        <time>2026-08-15T08:53:14Z</time>
      </trkpt>
      <trkpt lat="44.52136" lon="0.82136">
        <ele>148.8</ele>
        <time>2026-08-15T08:53:15Z</time>
      </trkpt>
      <trkpt lat="44.52137" lon="0.8214">
        <ele>148.8</ele>
        <time>2026-08-15T08:53:16Z</time>
      </trkpt>
      <trkpt lat="44.52139" lon="0.82145">
        <ele>148.6</ele>
        <time>2026-08-15T08:53:17Z</time>
      </trkpt>
      <trkpt lat="44.52141" lon="0.82149">
        <ele>148.6</ele>
        <time>2026-08-15T08:53:18Z</time>
      </trkpt>
      <trkpt lat="44.52143" lon="0.82153">
        <ele>148.6</ele>
        <time>2026-08-15T08:53:19Z</time>
      </trkpt>
      <trkpt lat="44.52145" lon="0.82156">
        <ele>148.6</ele>
        <time>2026-08-15T08:53:20Z</time>
      </trkpt>
      <trkpt lat="44.52148" lon="0.8216">
        <ele>148.6</ele>
        <time>2026-08-15T08:53:21Z</time>
      </trkpt>
      <trkpt lat="44.5215" lon="0.82163">
        <ele>148.6</ele>
        <time>2026-08-15T08:53:22Z</time>
      </trkpt>
      <trkpt lat="44.52153" lon="0.82166">
        <ele>148.4</ele>
        <time>2026-08-15T08:53:23Z</time>
      </trkpt>
      <trkpt lat="44.52156" lon="0.8217">
        <ele>148.4</ele>
        <time>2026-08-15T08:53:24Z</time>
      </trkpt>
      <trkpt lat="44.52158" lon="0.82173">
        <ele>148.4</ele>
        <time>2026-08-15T08:53:25Z</time>
      </trkpt>
      <trkpt lat="44.52161" lon="0.82176">
        <ele>148.2</ele>
        <time>2026-08-15T08:53:26Z</time>
      </trkpt>
      <trkpt lat="44.52164" lon="0.82178">
        <ele>148.2</ele>
        <time>2026-08-15T08:53:27Z</time>
      </trkpt>
      <trkpt lat="44.52167" lon="0.82181">
        <ele>148.2</ele>
        <time>2026-08-15T08:53:28Z</time>
      </trkpt>
      <trkpt lat="44.52169" lon="0.82183">
        <ele>148.2</ele>
        <time>2026-08-15T08:53:29Z</time>
      </trkpt>
      <trkpt lat="44.52172" lon="0.82185">
        <ele>148.2</ele>
        <time>2026-08-15T08:53:30Z</time>
      </trkpt>
      <trkpt lat="44.52174" lon="0.82187">
        <ele>148</ele>
        <time>2026-08-15T08:53:31Z</time>
      </trkpt>
      <trkpt lat="44.52177" lon="0.82189">
        <ele>148</ele>
        <time>2026-08-15T08:53:32Z</time>
      </trkpt>
      <trkpt lat="44.52179" lon="0.82191">
        <ele>147.8</ele>
        <time>2026-08-15T08:53:33Z</time>
      </trkpt>
      <trkpt lat="44.52182" lon="0.82193">
        <ele>147.8</ele>
        <time>2026-08-15T08:53:34Z</time>
      </trkpt>
      <trkpt lat="44.52184" lon="0.82196">
        <ele>147.8</ele>
        <time>2026-08-15T08:53:35Z</time>
      </trkpt>
      <trkpt lat="44.52185" lon="0.82199">
        <ele>147.8</ele>
        <time>2026-08-15T08:53:36Z</time>
      </trkpt>
      <trkpt lat="44.52186" lon="0.822">
        <ele>147.8</ele>
        <time>2026-08-15T08:53:37Z</time>
      </trkpt>
      <trkpt lat="44.52187" lon="0.82203">
        <ele>147.8</ele>
        <time>2026-08-15T08:53:38Z</time>
      </trkpt>
      <trkpt lat="44.52188" lon="0.82206">
        <ele>147.8</ele>
        <time>2026-08-15T08:53:39Z</time>
      </trkpt>
      <trkpt lat="44.52189" lon="0.82209">
        <ele>148</ele>
        <time>2026-08-15T08:53:40Z</time>
      </trkpt>
      <trkpt lat="44.5219" lon="0.82212">
        <ele>148</ele>
        <time>2026-08-15T08:53:41Z</time>
      </trkpt>
      <trkpt lat="44.52191" lon="0.82216">
        <ele>148.2</ele>
        <time>2026-08-15T08:53:42Z</time>
      </trkpt>
      <trkpt lat="44.52192" lon="0.82219">
        <ele>148.2</ele>
        <time>2026-08-15T08:53:43Z</time>
      </trkpt>
      <trkpt lat="44.52194" lon="0.82222">
        <ele>148.2</ele>
        <time>2026-08-15T08:53:44Z</time>
      </trkpt>
      <trkpt lat="44.52195" lon="0.82225">
        <ele>148.2</ele>
        <time>2026-08-15T08:53:45Z</time>
      </trkpt>
      <trkpt lat="44.52198" lon="0.82231">
        <ele>148.2</ele>
        <time>2026-08-15T08:53:46Z</time>
      </trkpt>
      <trkpt lat="44.522" lon="0.82235">
        <ele>148.2</ele>
        <time>2026-08-15T08:53:47Z</time>
      </trkpt>
      <trkpt lat="44.52202" lon="0.82238">
        <ele>148.2</ele>
        <time>2026-08-15T08:53:48Z</time>
      </trkpt>
      <trkpt lat="44.52204" lon="0.82242">
        <ele>148.2</ele>
        <time>2026-08-15T08:53:49Z</time>
      </trkpt>
      <trkpt lat="44.52206" lon="0.82245">
        <ele>148.2</ele>
        <time>2026-08-15T08:53:50Z</time>
      </trkpt>
      <trkpt lat="44.52208" lon="0.82249">
        <ele>148</ele>
        <time>2026-08-15T08:53:51Z</time>
      </trkpt>
      <trkpt lat="44.52211" lon="0.82253">
        <ele>148</ele>
        <time>2026-08-15T08:53:52Z</time>
      </trkpt>
      <trkpt lat="44.52213" lon="0.82257">
        <ele>147.8</ele>
        <time>2026-08-15T08:53:53Z</time>
      </trkpt>
      <trkpt lat="44.52216" lon="0.8226">
        <ele>147.8</ele>
        <time>2026-08-15T08:53:54Z</time>
      </trkpt>
      <trkpt lat="44.52218" lon="0.82264">
        <ele>147.8</ele>
        <time>2026-08-15T08:53:55Z</time>
      </trkpt>
      <trkpt lat="44.5222" lon="0.82268">
        <ele>147.8</ele>
        <time>2026-08-15T08:53:56Z</time>
      </trkpt>
      <trkpt lat="44.52222" lon="0.82273">
        <ele>147.8</ele>
        <time>2026-08-15T08:53:57Z</time>
      </trkpt>
      <trkpt lat="44.52224" lon="0.82277">
        <ele>148</ele>
        <time>2026-08-15T08:53:58Z</time>
      </trkpt>
      <trkpt lat="44.52225" lon="0.82282">
        <ele>148</ele>
        <time>2026-08-15T08:53:59Z</time>
      </trkpt>
      <trkpt lat="44.52227" lon="0.82286">
        <ele>148</ele>
        <time>2026-08-15T08:54:00Z</time>
      </trkpt>
      <trkpt lat="44.52229" lon="0.82291">
        <ele>147.8</ele>
        <time>2026-08-15T08:54:01Z</time>
      </trkpt>
      <trkpt lat="44.52231" lon="0.82295">
        <ele>147.8</ele>
        <time>2026-08-15T08:54:02Z</time>
      </trkpt>
      <trkpt lat="44.52233" lon="0.823">
        <ele>147.8</ele>
        <time>2026-08-15T08:54:03Z</time>
      </trkpt>
      <trkpt lat="44.52235" lon="0.82305">
        <ele>147.8</ele>
        <time>2026-08-15T08:54:04Z</time>
      </trkpt>
      <trkpt lat="44.52236" lon="0.8231">
        <ele>147.8</ele>
        <time>2026-08-15T08:54:05Z</time>
      </trkpt>
      <trkpt lat="44.52237" lon="0.82315">
        <ele>147.6</ele>
        <time>2026-08-15T08:54:06Z</time>
      </trkpt>
      <trkpt lat="44.52239" lon="0.8232">
        <ele>147.6</ele>
        <time>2026-08-15T08:54:07Z</time>
      </trkpt>
      <trkpt lat="44.5224" lon="0.82324">
        <ele>147.6</ele>
        <time>2026-08-15T08:54:08Z</time>
      </trkpt>
      <trkpt lat="44.52242" lon="0.82329">
        <ele>147.6</ele>
        <time>2026-08-15T08:54:09Z</time>
      </trkpt>
      <trkpt lat="44.52244" lon="0.82333">
        <ele>147.6</ele>
        <time>2026-08-15T08:54:10Z</time>
      </trkpt>
      <trkpt lat="44.52246" lon="0.82337">
        <ele>147.6</ele>
        <time>2026-08-15T08:54:11Z</time>
      </trkpt>
      <trkpt lat="44.52249" lon="0.82341">
        <ele>147.6</ele>
        <time>2026-08-15T08:54:37Z</time>
      </trkpt>
      <trkpt lat="44.5225" lon="0.82343">
        <ele>147.6</ele>
        <time>2026-08-15T08:54:38Z</time>
      </trkpt>
      <trkpt lat="44.52252" lon="0.82346">
        <ele>147.6</ele>
        <time>2026-08-15T08:54:39Z</time>
      </trkpt>
      <trkpt lat="44.52254" lon="0.82349">
        <ele>147.6</ele>
        <time>2026-08-15T08:54:40Z</time>
      </trkpt>
      <trkpt lat="44.52257" lon="0.82354">
        <ele>147.6</ele>
        <time>2026-08-15T08:54:41Z</time>
      </trkpt>
      <trkpt lat="44.5226" lon="0.82357">
        <ele>147.6</ele>
        <time>2026-08-15T08:54:42Z</time>
      </trkpt>
      <trkpt lat="44.52262" lon="0.8236">
        <ele>147.6</ele>
        <time>2026-08-15T08:54:43Z</time>
      </trkpt>
      <trkpt lat="44.52265" lon="0.82364">
        <ele>147.6</ele>
        <time>2026-08-15T08:54:44Z</time>
      </trkpt>
      <trkpt lat="44.52267" lon="0.82367">
        <ele>147.6</ele>
        <time>2026-08-15T08:54:45Z</time>
      </trkpt>
      <trkpt lat="44.5227" lon="0.82371">
        <ele>147.6</ele>
        <time>2026-08-15T08:54:46Z</time>
      </trkpt>
      <trkpt lat="44.52272" lon="0.82375">
        <ele>147.6</ele>
        <time>2026-08-15T08:54:47Z</time>
      </trkpt>
      <trkpt lat="44.52275" lon="0.82379">
        <ele>147.6</ele>
        <time>2026-08-15T08:54:48Z</time>
      </trkpt>
      <trkpt lat="44.52278" lon="0.82383">
        <ele>147.6</ele>
        <time>2026-08-15T08:54:49Z</time>
      </trkpt>
      <trkpt lat="44.52281" lon="0.82387">
        <ele>147.6</ele>
        <time>2026-08-15T08:54:50Z</time>
      </trkpt>
      <trkpt lat="44.52283" lon="0.82391">
        <ele>147.4</ele>
        <time>2026-08-15T08:54:51Z</time>
      </trkpt>
      <trkpt lat="44.52286" lon="0.82395">
        <ele>147.4</ele>
        <time>2026-08-15T08:54:52Z</time>
      </trkpt>
      <trkpt lat="44.52289" lon="0.82399">
        <ele>147.4</ele>
        <time>2026-08-15T08:54:53Z</time>
      </trkpt>
      <trkpt lat="44.52292" lon="0.82403">
        <ele>147.4</ele>
        <time>2026-08-15T08:54:54Z</time>
      </trkpt>
      <trkpt lat="44.52295" lon="0.82407">
        <ele>147.4</ele>
        <time>2026-08-15T08:54:55Z</time>
      </trkpt>
      <trkpt lat="44.52298" lon="0.82411">
        <ele>147.4</ele>
        <time>2026-08-15T08:54:56Z</time>
      </trkpt>
      <trkpt lat="44.52301" lon="0.82416">
        <ele>147.4</ele>
        <time>2026-08-15T08:54:57Z</time>
      </trkpt>
      <trkpt lat="44.52304" lon="0.8242">
        <ele>147.4</ele>
        <time>2026-08-15T08:54:58Z</time>
      </trkpt>
      <trkpt lat="44.52307" lon="0.82424">
        <ele>147.4</ele>
        <time>2026-08-15T08:54:59Z</time>
      </trkpt>
      <trkpt lat="44.5231" lon="0.82428">
        <ele>147.4</ele>
        <time>2026-08-15T08:55:00Z</time>
      </trkpt>
      <trkpt lat="44.52313" lon="0.82433">
        <ele>147.2</ele>
        <time>2026-08-15T08:55:01Z</time>
      </trkpt>
      <trkpt lat="44.52316" lon="0.82437">
        <ele>147.2</ele>
        <time>2026-08-15T08:55:02Z</time>
      </trkpt>
      <trkpt lat="44.52319" lon="0.82441">
        <ele>147.2</ele>
        <time>2026-08-15T08:55:03Z</time>
      </trkpt>
      <trkpt lat="44.52322" lon="0.82445">
        <ele>147</ele>
        <time>2026-08-15T08:55:04Z</time>
      </trkpt>
      <trkpt lat="44.52325" lon="0.82449">
        <ele>146.8</ele>
        <time>2026-08-15T08:55:05Z</time>
      </trkpt>
      <trkpt lat="44.52327" lon="0.82452">
        <ele>146.8</ele>
        <time>2026-08-15T08:55:06Z</time>
      </trkpt>
      <trkpt lat="44.5233" lon="0.82455">
        <ele>146.8</ele>
        <time>2026-08-15T08:55:07Z</time>
      </trkpt>
      <trkpt lat="44.52332" lon="0.82459">
        <ele>146.8</ele>
        <time>2026-08-15T08:55:08Z</time>
      </trkpt>
      <trkpt lat="44.52334" lon="0.82463">
        <ele>146.6</ele>
        <time>2026-08-15T08:55:09Z</time>
      </trkpt>
      <trkpt lat="44.52336" lon="0.82467">
        <ele>146.6</ele>
        <time>2026-08-15T08:55:10Z</time>
      </trkpt>
      <trkpt lat="44.52337" lon="0.82472">
        <ele>146.6</ele>
        <time>2026-08-15T08:55:11Z</time>
      </trkpt>
      <trkpt lat="44.52338" lon="0.82477">
        <ele>146.4</ele>
        <time>2026-08-15T08:55:12Z</time>
      </trkpt>
      <trkpt lat="44.52338" lon="0.82482">
        <ele>146.4</ele>
        <time>2026-08-15T08:55:13Z</time>
      </trkpt>
      <trkpt lat="44.52338" lon="0.82487">
        <ele>146.4</ele>
        <time>2026-08-15T08:55:14Z</time>
      </trkpt>
      <trkpt lat="44.52337" lon="0.82492">
        <ele>146.4</ele>
        <time>2026-08-15T08:55:15Z</time>
      </trkpt>
      <trkpt lat="44.52336" lon="0.82497">
        <ele>146.4</ele>
        <time>2026-08-15T08:55:16Z</time>
      </trkpt>
      <trkpt lat="44.52335" lon="0.82503">
        <ele>146.4</ele>
        <time>2026-08-15T08:55:17Z</time>
      </trkpt>
      <trkpt lat="44.52334" lon="0.82508">
        <ele>146.4</ele>
        <time>2026-08-15T08:55:18Z</time>
      </trkpt>
      <trkpt lat="44.52333" lon="0.82514">
        <ele>146.4</ele>
        <time>2026-08-15T08:55:19Z</time>
      </trkpt>
      <trkpt lat="44.52331" lon="0.8252">
        <ele>146.2</ele>
        <time>2026-08-15T08:55:20Z</time>
      </trkpt>
      <trkpt lat="44.5233" lon="0.82525">
        <ele>146.2</ele>
        <time>2026-08-15T08:55:21Z</time>
      </trkpt>
      <trkpt lat="44.52328" lon="0.82531">
        <ele>146.2</ele>
        <time>2026-08-15T08:55:22Z</time>
      </trkpt>
      <trkpt lat="44.52327" lon="0.82537">
        <ele>146.2</ele>
        <time>2026-08-15T08:55:23Z</time>
      </trkpt>
      <trkpt lat="44.52325" lon="0.82542">
        <ele>146</ele>
        <time>2026-08-15T08:55:24Z</time>
      </trkpt>
      <trkpt lat="44.52324" lon="0.82548">
        <ele>146</ele>
        <time>2026-08-15T08:55:25Z</time>
      </trkpt>
      <trkpt lat="44.52322" lon="0.82553">
        <ele>145.8</ele>
        <time>2026-08-15T08:55:26Z</time>
      </trkpt>
      <trkpt lat="44.52321" lon="0.82559">
        <ele>145.8</ele>
        <time>2026-08-15T08:55:27Z</time>
      </trkpt>
      <trkpt lat="44.5232" lon="0.82565">
        <ele>145.8</ele>
        <time>2026-08-15T08:55:28Z</time>
      </trkpt>
      <trkpt lat="44.52318" lon="0.82571">
        <ele>145.8</ele>
        <time>2026-08-15T08:55:29Z</time>
      </trkpt>
      <trkpt lat="44.52317" lon="0.82577">
        <ele>145.8</ele>
        <time>2026-08-15T08:55:30Z</time>
      </trkpt>
      <trkpt lat="44.52316" lon="0.82583">
        <ele>145.8</ele>
        <time>2026-08-15T08:55:31Z</time>
      </trkpt>
      <trkpt lat="44.52315" lon="0.82588">
        <ele>145.8</ele>
        <time>2026-08-15T08:55:32Z</time>
      </trkpt>
      <trkpt lat="44.52314" lon="0.82594">
        <ele>145.8</ele>
        <time>2026-08-15T08:55:33Z</time>
      </trkpt>
      <trkpt lat="44.52314" lon="0.82599">
        <ele>145.8</ele>
        <time>2026-08-15T08:55:34Z</time>
      </trkpt>
      <trkpt lat="44.52313" lon="0.82604">
        <ele>145.8</ele>
        <time>2026-08-15T08:55:35Z</time>
      </trkpt>
      <trkpt lat="44.52313" lon="0.82609">
        <ele>146</ele>
        <time>2026-08-15T08:55:36Z</time>
      </trkpt>
      <trkpt lat="44.52314" lon="0.82614">
        <ele>146</ele>
        <time>2026-08-15T08:55:37Z</time>
      </trkpt>
      <trkpt lat="44.52314" lon="0.82619">
        <ele>146.2</ele>
        <time>2026-08-15T08:55:38Z</time>
      </trkpt>
      <trkpt lat="44.52314" lon="0.82625">
        <ele>146.2</ele>
        <time>2026-08-15T08:55:39Z</time>
      </trkpt>
      <trkpt lat="44.52314" lon="0.82631">
        <ele>146.2</ele>
        <time>2026-08-15T08:55:40Z</time>
      </trkpt>
      <trkpt lat="44.52313" lon="0.82638">
        <ele>146.2</ele>
        <time>2026-08-15T08:55:41Z</time>
      </trkpt>
      <trkpt lat="44.52313" lon="0.82645">
        <ele>146.2</ele>
        <time>2026-08-15T08:55:42Z</time>
      </trkpt>
      <trkpt lat="44.52313" lon="0.82651">
        <ele>146</ele>
        <time>2026-08-15T08:55:43Z</time>
      </trkpt>
      <trkpt lat="44.52312" lon="0.82658">
        <ele>146</ele>
        <time>2026-08-15T08:55:44Z</time>
      </trkpt>
      <trkpt lat="44.52312" lon="0.82665">
        <ele>146</ele>
        <time>2026-08-15T08:55:45Z</time>
      </trkpt>
      <trkpt lat="44.52312" lon="0.82672">
        <ele>145.8</ele>
        <time>2026-08-15T08:55:46Z</time>
      </trkpt>
      <trkpt lat="44.52311" lon="0.82679">
        <ele>145.8</ele>
        <time>2026-08-15T08:55:47Z</time>
      </trkpt>
      <trkpt lat="44.52311" lon="0.82686">
        <ele>145.8</ele>
        <time>2026-08-15T08:55:48Z</time>
      </trkpt>
      <trkpt lat="44.5231" lon="0.82692">
        <ele>146</ele>
        <time>2026-08-15T08:55:49Z</time>
      </trkpt>
      <trkpt lat="44.5231" lon="0.82699">
        <ele>145.8</ele>
        <time>2026-08-15T08:55:50Z</time>
      </trkpt>
      <trkpt lat="44.5231" lon="0.82706">
        <ele>145.8</ele>
        <time>2026-08-15T08:55:51Z</time>
      </trkpt>
      <trkpt lat="44.5231" lon="0.82713">
        <ele>145.8</ele>
        <time>2026-08-15T08:55:52Z</time>
      </trkpt>
      <trkpt lat="44.52309" lon="0.8272">
        <ele>145.8</ele>
        <time>2026-08-15T08:55:53Z</time>
      </trkpt>
      <trkpt lat="44.52309" lon="0.82727">
        <ele>145.8</ele>
        <time>2026-08-15T08:55:54Z</time>
      </trkpt>
      <trkpt lat="44.52308" lon="0.82734">
        <ele>145.8</ele>
        <time>2026-08-15T08:55:55Z</time>
      </trkpt>
      <trkpt lat="44.52308" lon="0.82741">
        <ele>145.8</ele>
        <time>2026-08-15T08:55:56Z</time>
      </trkpt>
      <trkpt lat="44.52308" lon="0.82748">
        <ele>146</ele>
        <time>2026-08-15T08:55:57Z</time>
      </trkpt>
      <trkpt lat="44.52307" lon="0.82755">
        <ele>146</ele>
        <time>2026-08-15T08:55:58Z</time>
      </trkpt>
      <trkpt lat="44.52307" lon="0.82761">
        <ele>146</ele>
        <time>2026-08-15T08:55:59Z</time>
      </trkpt>
      <trkpt lat="44.52307" lon="0.82768">
        <ele>146</ele>
        <time>2026-08-15T08:56:00Z</time>
      </trkpt>
      <trkpt lat="44.52306" lon="0.82775">
        <ele>146.2</ele>
        <time>2026-08-15T08:56:01Z</time>
      </trkpt>
      <trkpt lat="44.52306" lon="0.82781">
        <ele>146.2</ele>
        <time>2026-08-15T08:56:02Z</time>
      </trkpt>
      <trkpt lat="44.52306" lon="0.82788">
        <ele>146.4</ele>
        <time>2026-08-15T08:56:03Z</time>
      </trkpt>
      <trkpt lat="44.52306" lon="0.82795">
        <ele>146.4</ele>
        <time>2026-08-15T08:56:04Z</time>
      </trkpt>
      <trkpt lat="44.52305" lon="0.82801">
        <ele>146.6</ele>
        <time>2026-08-15T08:56:05Z</time>
      </trkpt>
      <trkpt lat="44.52305" lon="0.82808">
        <ele>146.6</ele>
        <time>2026-08-15T08:56:06Z</time>
      </trkpt>
      <trkpt lat="44.52305" lon="0.82814">
        <ele>146.6</ele>
        <time>2026-08-15T08:56:07Z</time>
      </trkpt>
      <trkpt lat="44.52304" lon="0.82821">
        <ele>146.8</ele>
        <time>2026-08-15T08:56:08Z</time>
      </trkpt>
      <trkpt lat="44.52304" lon="0.82827">
        <ele>147.2</ele>
        <time>2026-08-15T08:56:09Z</time>
      </trkpt>
      <trkpt lat="44.52304" lon="0.82833">
        <ele>147.2</ele>
        <time>2026-08-15T08:56:10Z</time>
      </trkpt>
      <trkpt lat="44.52304" lon="0.82839">
        <ele>147.4</ele>
        <time>2026-08-15T08:56:11Z</time>
      </trkpt>
      <trkpt lat="44.52303" lon="0.82845">
        <ele>147.4</ele>
        <time>2026-08-15T08:56:12Z</time>
      </trkpt>
      <trkpt lat="44.52303" lon="0.8285">
        <ele>147.6</ele>
        <time>2026-08-15T08:56:13Z</time>
      </trkpt>
      <trkpt lat="44.52303" lon="0.82856">
        <ele>147.8</ele>
        <time>2026-08-15T08:56:14Z</time>
      </trkpt>
      <trkpt lat="44.52303" lon="0.82861">
        <ele>148</ele>
        <time>2026-08-15T08:56:15Z</time>
      </trkpt>
      <trkpt lat="44.52303" lon="0.82866">
        <ele>148.2</ele>
        <time>2026-08-15T08:56:16Z</time>
      </trkpt>
      <trkpt lat="44.52303" lon="0.82872">
        <ele>148.4</ele>
        <time>2026-08-15T08:56:17Z</time>
      </trkpt>
      <trkpt lat="44.52302" lon="0.82877">
        <ele>148.6</ele>
        <time>2026-08-15T08:56:18Z</time>
      </trkpt>
      <trkpt lat="44.52302" lon="0.82882">
        <ele>148.8</ele>
        <time>2026-08-15T08:56:19Z</time>
      </trkpt>
      <trkpt lat="44.52301" lon="0.82887">
        <ele>149</ele>
        <time>2026-08-15T08:56:20Z</time>
      </trkpt>
      <trkpt lat="44.52301" lon="0.82892">
        <ele>149.2</ele>
        <time>2026-08-15T08:56:21Z</time>
      </trkpt>
      <trkpt lat="44.523" lon="0.82897">
        <ele>149.4</ele>
        <time>2026-08-15T08:56:22Z</time>
      </trkpt>
      <trkpt lat="44.523" lon="0.82901">
        <ele>149.6</ele>
        <time>2026-08-15T08:56:23Z</time>
      </trkpt>
      <trkpt lat="44.52299" lon="0.82906">
        <ele>149.8</ele>
        <time>2026-08-15T08:56:24Z</time>
      </trkpt>
      <trkpt lat="44.52299" lon="0.82911">
        <ele>150</ele>
        <time>2026-08-15T08:56:25Z</time>
      </trkpt>
      <trkpt lat="44.52298" lon="0.82915">
        <ele>150.2</ele>
        <time>2026-08-15T08:56:26Z</time>
      </trkpt>
      <trkpt lat="44.52298" lon="0.8292">
        <ele>150.4</ele>
        <time>2026-08-15T08:56:27Z</time>
      </trkpt>
      <trkpt lat="44.52297" lon="0.82925">
        <ele>150.4</ele>
        <time>2026-08-15T08:56:28Z</time>
      </trkpt>
      <trkpt lat="44.52297" lon="0.82929">
        <ele>150.6</ele>
        <time>2026-08-15T08:56:29Z</time>
      </trkpt>
      <trkpt lat="44.52296" lon="0.82934">
        <ele>150.6</ele>
        <time>2026-08-15T08:56:30Z</time>
      </trkpt>
      <trkpt lat="44.52295" lon="0.82939">
        <ele>150.6</ele>
        <time>2026-08-15T08:56:31Z</time>
      </trkpt>
      <trkpt lat="44.52295" lon="0.82944">
        <ele>150.6</ele>
        <time>2026-08-15T08:56:32Z</time>
      </trkpt>
      <trkpt lat="44.52294" lon="0.82949">
        <ele>150.8</ele>
        <time>2026-08-15T08:56:33Z</time>
      </trkpt>
      <trkpt lat="44.52294" lon="0.82954">
        <ele>150.8</ele>
        <time>2026-08-15T08:56:34Z</time>
      </trkpt>
      <trkpt lat="44.52294" lon="0.82959">
        <ele>151</ele>
        <time>2026-08-15T08:56:35Z</time>
      </trkpt>
      <trkpt lat="44.52293" lon="0.82964">
        <ele>151.2</ele>
        <time>2026-08-15T08:56:36Z</time>
      </trkpt>
      <trkpt lat="44.52292" lon="0.82969">
        <ele>151.4</ele>
        <time>2026-08-15T08:56:37Z</time>
      </trkpt>
      <trkpt lat="44.52292" lon="0.82974">
        <ele>151.4</ele>
        <time>2026-08-15T08:56:38Z</time>
      </trkpt>
      <trkpt lat="44.52291" lon="0.82979">
        <ele>151.4</ele>
        <time>2026-08-15T08:56:39Z</time>
      </trkpt>
      <trkpt lat="44.5229" lon="0.82984">
        <ele>151.6</ele>
        <time>2026-08-15T08:56:40Z</time>
      </trkpt>
      <trkpt lat="44.52289" lon="0.8299">
        <ele>151.6</ele>
        <time>2026-08-15T08:56:41Z</time>
      </trkpt>
      <trkpt lat="44.52288" lon="0.82995">
        <ele>151.6</ele>
        <time>2026-08-15T08:56:42Z</time>
      </trkpt>
      <trkpt lat="44.52287" lon="0.83">
        <ele>151.6</ele>
        <time>2026-08-15T08:56:43Z</time>
      </trkpt>
      <trkpt lat="44.52286" lon="0.83005">
        <ele>151.6</ele>
        <time>2026-08-15T08:56:44Z</time>
      </trkpt>
      <trkpt lat="44.52285" lon="0.83011">
        <ele>151.6</ele>
        <time>2026-08-15T08:56:45Z</time>
      </trkpt>
      <trkpt lat="44.52284" lon="0.83016">
        <ele>151.6</ele>
        <time>2026-08-15T08:56:46Z</time>
      </trkpt>
      <trkpt lat="44.52283" lon="0.83021">
        <ele>151.6</ele>
        <time>2026-08-15T08:56:47Z</time>
      </trkpt>
      <trkpt lat="44.52282" lon="0.83027">
        <ele>151.6</ele>
        <time>2026-08-15T08:56:48Z</time>
      </trkpt>
      <trkpt lat="44.5228" lon="0.83032">
        <ele>151.6</ele>
        <time>2026-08-15T08:56:49Z</time>
      </trkpt>
      <trkpt lat="44.52279" lon="0.83037">
        <ele>151.6</ele>
        <time>2026-08-15T08:56:50Z</time>
      </trkpt>
      <trkpt lat="44.52278" lon="0.83042">
        <ele>151.8</ele>
        <time>2026-08-15T08:56:51Z</time>
      </trkpt>
      <trkpt lat="44.52276" lon="0.83047">
        <ele>151.8</ele>
        <time>2026-08-15T08:56:52Z</time>
      </trkpt>
      <trkpt lat="44.52274" lon="0.83051">
        <ele>151.8</ele>
        <time>2026-08-15T08:56:53Z</time>
      </trkpt>
      <trkpt lat="44.52272" lon="0.83056">
        <ele>151.8</ele>
        <time>2026-08-15T08:56:54Z</time>
      </trkpt>
      <trkpt lat="44.5227" lon="0.83061">
        <ele>151.8</ele>
        <time>2026-08-15T08:56:55Z</time>
      </trkpt>
      <trkpt lat="44.52268" lon="0.83065">
        <ele>151.8</ele>
        <time>2026-08-15T08:56:56Z</time>
      </trkpt>
      <trkpt lat="44.52266" lon="0.8307">
        <ele>151.8</ele>
        <time>2026-08-15T08:56:57Z</time>
      </trkpt>
      <trkpt lat="44.52264" lon="0.83075">
        <ele>152</ele>
        <time>2026-08-15T08:56:58Z</time>
      </trkpt>
      <trkpt lat="44.52262" lon="0.83079">
        <ele>152.2</ele>
        <time>2026-08-15T08:56:59Z</time>
      </trkpt>
      <trkpt lat="44.5226" lon="0.83083">
        <ele>152.4</ele>
        <time>2026-08-15T08:57:00Z</time>
      </trkpt>
      <trkpt lat="44.52258" lon="0.83088">
        <ele>152.6</ele>
        <time>2026-08-15T08:57:01Z</time>
      </trkpt>
      <trkpt lat="44.52256" lon="0.83092">
        <ele>152.6</ele>
        <time>2026-08-15T08:57:02Z</time>
      </trkpt>
      <trkpt lat="44.52254" lon="0.83097">
        <ele>152.6</ele>
        <time>2026-08-15T08:57:03Z</time>
      </trkpt>
      <trkpt lat="44.52252" lon="0.83102">
        <ele>152.8</ele>
        <time>2026-08-15T08:57:04Z</time>
      </trkpt>
      <trkpt lat="44.52251" lon="0.83106">
        <ele>153.2</ele>
        <time>2026-08-15T08:57:05Z</time>
      </trkpt>
      <trkpt lat="44.52249" lon="0.83111">
        <ele>153.2</ele>
        <time>2026-08-15T08:57:06Z</time>
      </trkpt>
      <trkpt lat="44.52247" lon="0.83116">
        <ele>153.4</ele>
        <time>2026-08-15T08:57:07Z</time>
      </trkpt>
      <trkpt lat="44.52245" lon="0.83121">
        <ele>153.4</ele>
        <time>2026-08-15T08:57:08Z</time>
      </trkpt>
      <trkpt lat="44.52243" lon="0.83126">
        <ele>153.4</ele>
        <time>2026-08-15T08:57:09Z</time>
      </trkpt>
      <trkpt lat="44.5224" lon="0.83131">
        <ele>153.4</ele>
        <time>2026-08-15T08:57:10Z</time>
      </trkpt>
      <trkpt lat="44.52238" lon="0.83136">
        <ele>153.4</ele>
        <time>2026-08-15T08:57:11Z</time>
      </trkpt>
      <trkpt lat="44.52236" lon="0.83142">
        <ele>153.2</ele>
        <time>2026-08-15T08:57:12Z</time>
      </trkpt>
      <trkpt lat="44.52233" lon="0.83148">
        <ele>153.2</ele>
        <time>2026-08-15T08:57:13Z</time>
      </trkpt>
      <trkpt lat="44.52231" lon="0.83154">
        <ele>152.8</ele>
        <time>2026-08-15T08:57:14Z</time>
      </trkpt>
      <trkpt lat="44.52228" lon="0.8316">
        <ele>152.6</ele>
        <time>2026-08-15T08:57:15Z</time>
      </trkpt>
      <trkpt lat="44.52225" lon="0.83167">
        <ele>152.6</ele>
        <time>2026-08-15T08:57:16Z</time>
      </trkpt>
      <trkpt lat="44.52223" lon="0.83173">
        <ele>152.4</ele>
        <time>2026-08-15T08:57:17Z</time>
      </trkpt>
      <trkpt lat="44.52219" lon="0.83182">
        <ele>152.2</ele>
        <time>2026-08-15T08:57:18Z</time>
      </trkpt>
      <trkpt lat="44.52216" lon="0.83189">
        <ele>151.8</ele>
        <time>2026-08-15T08:57:19Z</time>
      </trkpt>
      <trkpt lat="44.52213" lon="0.83195">
        <ele>151.8</ele>
        <time>2026-08-15T08:57:20Z</time>
      </trkpt>
      <trkpt lat="44.52211" lon="0.832">
        <ele>151.6</ele>
        <time>2026-08-15T08:57:21Z</time>
      </trkpt>
      <trkpt lat="44.52209" lon="0.83206">
        <ele>151.6</ele>
        <time>2026-08-15T08:57:22Z</time>
      </trkpt>
      <trkpt lat="44.52207" lon="0.83211">
        <ele>151.4</ele>
        <time>2026-08-15T08:57:23Z</time>
      </trkpt>
      <trkpt lat="44.52204" lon="0.83217">
        <ele>151.4</ele>
        <time>2026-08-15T08:57:24Z</time>
      </trkpt>
      <trkpt lat="44.52201" lon="0.83223">
        <ele>151.2</ele>
        <time>2026-08-15T08:57:25Z</time>
      </trkpt>
      <trkpt lat="44.52199" lon="0.83229">
        <ele>150.8</ele>
        <time>2026-08-15T08:57:26Z</time>
      </trkpt>
      <trkpt lat="44.52196" lon="0.83234">
        <ele>150.8</ele>
        <time>2026-08-15T08:57:27Z</time>
      </trkpt>
      <trkpt lat="44.52193" lon="0.8324">
        <ele>150.6</ele>
        <time>2026-08-15T08:57:28Z</time>
      </trkpt>
      <trkpt lat="44.5219" lon="0.83245">
        <ele>150.4</ele>
        <time>2026-08-15T08:57:29Z</time>
      </trkpt>
      <trkpt lat="44.52186" lon="0.83251">
        <ele>150.2</ele>
        <time>2026-08-15T08:57:30Z</time>
      </trkpt>
      <trkpt lat="44.52183" lon="0.83256">
        <ele>150</ele>
        <time>2026-08-15T08:57:31Z</time>
      </trkpt>
      <trkpt lat="44.52179" lon="0.83261">
        <ele>150</ele>
        <time>2026-08-15T08:57:32Z</time>
      </trkpt>
      <trkpt lat="44.52175" lon="0.83265">
        <ele>149.8</ele>
        <time>2026-08-15T08:57:33Z</time>
      </trkpt>
      <trkpt lat="44.52171" lon="0.8327">
        <ele>149.8</ele>
        <time>2026-08-15T08:57:34Z</time>
      </trkpt>
      <trkpt lat="44.52167" lon="0.83275">
        <ele>149.6</ele>
        <time>2026-08-15T08:57:35Z</time>
      </trkpt>
      <trkpt lat="44.52163" lon="0.83279">
        <ele>149.6</ele>
        <time>2026-08-15T08:57:36Z</time>
      </trkpt>
      <trkpt lat="44.52158" lon="0.83283">
        <ele>149.6</ele>
        <time>2026-08-15T08:57:37Z</time>
      </trkpt>
      <trkpt lat="44.52154" lon="0.83286">
        <ele>149.6</ele>
        <time>2026-08-15T08:57:38Z</time>
      </trkpt>
      <trkpt lat="44.5215" lon="0.8329">
        <ele>149.6</ele>
        <time>2026-08-15T08:57:39Z</time>
      </trkpt>
      <trkpt lat="44.52146" lon="0.83293">
        <ele>149.6</ele>
        <time>2026-08-15T08:57:40Z</time>
      </trkpt>
      <trkpt lat="44.52143" lon="0.83296">
        <ele>149.6</ele>
        <time>2026-08-15T08:57:41Z</time>
      </trkpt>
      <trkpt lat="44.52139" lon="0.83299">
        <ele>149.6</ele>
        <time>2026-08-15T08:57:42Z</time>
      </trkpt>
      <trkpt lat="44.52136" lon="0.83302">
        <ele>149.6</ele>
        <time>2026-08-15T08:57:43Z</time>
      </trkpt>
      <trkpt lat="44.52133" lon="0.83304">
        <ele>149.8</ele>
        <time>2026-08-15T08:57:44Z</time>
      </trkpt>
      <trkpt lat="44.5213" lon="0.83306">
        <ele>150</ele>
        <time>2026-08-15T08:57:45Z</time>
      </trkpt>
      <trkpt lat="44.52127" lon="0.83308">
        <ele>150.2</ele>
        <time>2026-08-15T08:57:46Z</time>
      </trkpt>
      <trkpt lat="44.52124" lon="0.8331">
        <ele>150.4</ele>
        <time>2026-08-15T08:57:47Z</time>
      </trkpt>
      <trkpt lat="44.52121" lon="0.83312">
        <ele>150.6</ele>
        <time>2026-08-15T08:57:48Z</time>
      </trkpt>
      <trkpt lat="44.52119" lon="0.83314">
        <ele>150.8</ele>
        <time>2026-08-15T08:57:49Z</time>
      </trkpt>
      <trkpt lat="44.52117" lon="0.83317">
        <ele>151.2</ele>
        <time>2026-08-15T08:57:50Z</time>
      </trkpt>
      <trkpt lat="44.52116" lon="0.83318">
        <ele>151.4</ele>
        <time>2026-08-15T08:57:51Z</time>
      </trkpt>
      <trkpt lat="44.52115" lon="0.8332">
        <ele>151.6</ele>
        <time>2026-08-15T08:57:52Z</time>
      </trkpt>
      <trkpt lat="44.52114" lon="0.83322">
        <ele>151.6</ele>
        <time>2026-08-15T08:57:53Z</time>
      </trkpt>
      <trkpt lat="44.52113" lon="0.83324">
        <ele>151.8</ele>
        <time>2026-08-15T08:57:54Z</time>
      </trkpt>
      <trkpt lat="44.52112" lon="0.83325">
        <ele>151.8</ele>
        <time>2026-08-15T08:57:55Z</time>
      </trkpt>
      <trkpt lat="44.52112" lon="0.83327">
        <ele>152</ele>
        <time>2026-08-15T08:57:56Z</time>
      </trkpt>
      <trkpt lat="44.52112" lon="0.83329">
        <ele>152.2</ele>
        <time>2026-08-15T08:57:57Z</time>
      </trkpt>
      <trkpt lat="44.52111" lon="0.83332">
        <ele>152.4</ele>
        <time>2026-08-15T08:59:01Z</time>
      </trkpt>
      <trkpt lat="44.5211" lon="0.83333">
        <ele>152.2</ele>
        <time>2026-08-15T08:59:02Z</time>
      </trkpt>
      <trkpt lat="44.5211" lon="0.83334">
        <ele>152.4</ele>
        <time>2026-08-15T08:59:03Z</time>
      </trkpt>
      <trkpt lat="44.52109" lon="0.83335">
        <ele>152.4</ele>
        <time>2026-08-15T08:59:04Z</time>
      </trkpt>
      <trkpt lat="44.52108" lon="0.83336">
        <ele>152.6</ele>
        <time>2026-08-15T08:59:05Z</time>
      </trkpt>
      <trkpt lat="44.52108" lon="0.83337">
        <ele>152.8</ele>
        <time>2026-08-15T08:59:06Z</time>
      </trkpt>
      <trkpt lat="44.52107" lon="0.83338">
        <ele>152.8</ele>
        <time>2026-08-15T08:59:07Z</time>
      </trkpt>
      <trkpt lat="44.52107" lon="0.83338">
        <ele>153.2</ele>
        <time>2026-08-15T08:59:08Z</time>
      </trkpt>
      <trkpt lat="44.52107" lon="0.83339">
        <ele>153.4</ele>
        <time>2026-08-15T08:59:09Z</time>
      </trkpt>
      <trkpt lat="44.52106" lon="0.8334">
        <ele>153.6</ele>
        <time>2026-08-15T08:59:10Z</time>
      </trkpt>
      <trkpt lat="44.52106" lon="0.83341">
        <ele>153.8</ele>
        <time>2026-08-15T08:59:11Z</time>
      </trkpt>
      <trkpt lat="44.52106" lon="0.83342">
        <ele>154.2</ele>
        <time>2026-08-15T08:59:12Z</time>
      </trkpt>
      <trkpt lat="44.52106" lon="0.83343">
        <ele>154.2</ele>
        <time>2026-08-15T08:59:13Z</time>
      </trkpt>
      <trkpt lat="44.52106" lon="0.83344">
        <ele>154.6</ele>
        <time>2026-08-15T08:59:14Z</time>
      </trkpt>
      <trkpt lat="44.52105" lon="0.83345">
        <ele>154.8</ele>
        <time>2026-08-15T08:59:15Z</time>
      </trkpt>
      <trkpt lat="44.52105" lon="0.83346">
        <ele>155</ele>
        <time>2026-08-15T08:59:16Z</time>
      </trkpt>
      <trkpt lat="44.52105" lon="0.83347">
        <ele>155.2</ele>
        <time>2026-08-15T08:59:17Z</time>
      </trkpt>
      <trkpt lat="44.52105" lon="0.83348">
        <ele>155.4</ele>
        <time>2026-08-15T08:59:18Z</time>
      </trkpt>
      <trkpt lat="44.52105" lon="0.83349">
        <ele>155.6</ele>
        <time>2026-08-15T08:59:19Z</time>
      </trkpt>
      <trkpt lat="44.52104" lon="0.8335">
        <ele>155.6</ele>
        <time>2026-08-15T08:59:20Z</time>
      </trkpt>
      <trkpt lat="44.52104" lon="0.83352">
        <ele>155.8</ele>
        <time>2026-08-15T08:59:21Z</time>
      </trkpt>
      <trkpt lat="44.52103" lon="0.83353">
        <ele>155.8</ele>
        <time>2026-08-15T08:59:22Z</time>
      </trkpt>
      <trkpt lat="44.52103" lon="0.83355">
        <ele>156.2</ele>
        <time>2026-08-15T08:59:23Z</time>
      </trkpt>
      <trkpt lat="44.52103" lon="0.83357">
        <ele>156.4</ele>
        <time>2026-08-15T08:59:24Z</time>
      </trkpt>
      <trkpt lat="44.52102" lon="0.83359">
        <ele>156.6</ele>
        <time>2026-08-15T08:59:25Z</time>
      </trkpt>
      <trkpt lat="44.52102" lon="0.83362">
        <ele>156.6</ele>
        <time>2026-08-15T08:59:26Z</time>
      </trkpt>
      <trkpt lat="44.52103" lon="0.83365">
        <ele>156.8</ele>
        <time>2026-08-15T08:59:27Z</time>
      </trkpt>
      <trkpt lat="44.52102" lon="0.83368">
        <ele>156.8</ele>
        <time>2026-08-15T08:59:28Z</time>
      </trkpt>
      <trkpt lat="44.52102" lon="0.83371">
        <ele>157</ele>
        <time>2026-08-15T08:59:29Z</time>
      </trkpt>
      <trkpt lat="44.52102" lon="0.83374">
        <ele>157.2</ele>
        <time>2026-08-15T08:59:30Z</time>
      </trkpt>
      <trkpt lat="44.52102" lon="0.83377">
        <ele>157.4</ele>
        <time>2026-08-15T08:59:31Z</time>
      </trkpt>
      <trkpt lat="44.52102" lon="0.8338">
        <ele>157.6</ele>
        <time>2026-08-15T08:59:32Z</time>
      </trkpt>
      <trkpt lat="44.52102" lon="0.83383">
        <ele>157.6</ele>
        <time>2026-08-15T08:59:33Z</time>
      </trkpt>
      <trkpt lat="44.52102" lon="0.83386">
        <ele>157.8</ele>
        <time>2026-08-15T08:59:34Z</time>
      </trkpt>
      <trkpt lat="44.52102" lon="0.83389">
        <ele>158</ele>
        <time>2026-08-15T08:59:35Z</time>
      </trkpt>
      <trkpt lat="44.52101" lon="0.83392">
        <ele>158.2</ele>
        <time>2026-08-15T08:59:36Z</time>
      </trkpt>
      <trkpt lat="44.52101" lon="0.83396">
        <ele>158.2</ele>
        <time>2026-08-15T08:59:37Z</time>
      </trkpt>
      <trkpt lat="44.521" lon="0.83399">
        <ele>158.4</ele>
        <time>2026-08-15T08:59:38Z</time>
      </trkpt>
      <trkpt lat="44.521" lon="0.83402">
        <ele>158.4</ele>
        <time>2026-08-15T08:59:39Z</time>
      </trkpt>
      <trkpt lat="44.521" lon="0.83406">
        <ele>158.6</ele>
        <time>2026-08-15T08:59:40Z</time>
      </trkpt>
      <trkpt lat="44.52099" lon="0.83409">
        <ele>158.6</ele>
        <time>2026-08-15T08:59:41Z</time>
      </trkpt>
      <trkpt lat="44.52099" lon="0.83413">
        <ele>158.6</ele>
        <time>2026-08-15T08:59:42Z</time>
      </trkpt>
      <trkpt lat="44.52099" lon="0.83416">
        <ele>158.6</ele>
        <time>2026-08-15T08:59:43Z</time>
      </trkpt>
      <trkpt lat="44.52099" lon="0.8342">
        <ele>158.6</ele>
        <time>2026-08-15T08:59:44Z</time>
      </trkpt>
      <trkpt lat="44.52098" lon="0.83423">
        <ele>158.8</ele>
        <time>2026-08-15T08:59:45Z</time>
      </trkpt>
      <trkpt lat="44.52098" lon="0.83427">
        <ele>158.8</ele>
        <time>2026-08-15T08:59:46Z</time>
      </trkpt>
      <trkpt lat="44.52097" lon="0.8343">
        <ele>159.2</ele>
        <time>2026-08-15T08:59:47Z</time>
      </trkpt>
      <trkpt lat="44.52096" lon="0.83433">
        <ele>159.2</ele>
        <time>2026-08-15T08:59:48Z</time>
      </trkpt>
      <trkpt lat="44.52096" lon="0.83436">
        <ele>159.4</ele>
        <time>2026-08-15T08:59:49Z</time>
      </trkpt>
      <trkpt lat="44.52095" lon="0.83439">
        <ele>159.6</ele>
        <time>2026-08-15T08:59:50Z</time>
      </trkpt>
      <trkpt lat="44.52094" lon="0.83442">
        <ele>159.6</ele>
        <time>2026-08-15T08:59:51Z</time>
      </trkpt>
      <trkpt lat="44.52094" lon="0.83445">
        <ele>159.8</ele>
        <time>2026-08-15T08:59:52Z</time>
      </trkpt>
      <trkpt lat="44.52093" lon="0.83448">
        <ele>159.8</ele>
        <time>2026-08-15T08:59:53Z</time>
      </trkpt>
      <trkpt lat="44.52092" lon="0.83451">
        <ele>160.2</ele>
        <time>2026-08-15T08:59:54Z</time>
      </trkpt>
      <trkpt lat="44.52092" lon="0.83454">
        <ele>160.4</ele>
        <time>2026-08-15T08:59:55Z</time>
      </trkpt>
      <trkpt lat="44.52091" lon="0.83457">
        <ele>160.6</ele>
        <time>2026-08-15T08:59:56Z</time>
      </trkpt>
      <trkpt lat="44.52091" lon="0.8346">
        <ele>160.8</ele>
        <time>2026-08-15T08:59:57Z</time>
      </trkpt>
      <trkpt lat="44.5209" lon="0.83463">
        <ele>160.8</ele>
        <time>2026-08-15T08:59:58Z</time>
      </trkpt>
      <trkpt lat="44.5209" lon="0.83466">
        <ele>161.2</ele>
        <time>2026-08-15T08:59:59Z</time>
      </trkpt>
      <trkpt lat="44.52089" lon="0.83469">
        <ele>161.4</ele>
        <time>2026-08-15T09:00:00Z</time>
      </trkpt>
      <trkpt lat="44.52088" lon="0.83472">
        <ele>161.6</ele>
        <time>2026-08-15T09:00:01Z</time>
      </trkpt>
      <trkpt lat="44.52088" lon="0.83475">
        <ele>161.6</ele>
        <time>2026-08-15T09:00:02Z</time>
      </trkpt>
      <trkpt lat="44.52087" lon="0.83478">
        <ele>161.8</ele>
        <time>2026-08-15T09:00:03Z</time>
      </trkpt>
      <trkpt lat="44.52086" lon="0.83481">
        <ele>162.2</ele>
        <time>2026-08-15T09:00:04Z</time>
      </trkpt>
      <trkpt lat="44.52085" lon="0.83484">
        <ele>162.4</ele>
        <time>2026-08-15T09:00:05Z</time>
      </trkpt>
      <trkpt lat="44.52085" lon="0.83487">
        <ele>162.6</ele>
        <time>2026-08-15T09:00:06Z</time>
      </trkpt>
      <trkpt lat="44.52084" lon="0.8349">
        <ele>162.6</ele>
        <time>2026-08-15T09:00:07Z</time>
      </trkpt>
      <trkpt lat="44.52083" lon="0.83494">
        <ele>162.8</ele>
        <time>2026-08-15T09:00:08Z</time>
      </trkpt>
      <trkpt lat="44.52083" lon="0.83497">
        <ele>163.2</ele>
        <time>2026-08-15T09:00:09Z</time>
      </trkpt>
      <trkpt lat="44.52082" lon="0.835">
        <ele>163.2</ele>
        <time>2026-08-15T09:00:10Z</time>
      </trkpt>
      <trkpt lat="44.52081" lon="0.83503">
        <ele>163.4</ele>
        <time>2026-08-15T09:00:11Z</time>
      </trkpt>
      <trkpt lat="44.52081" lon="0.83506">
        <ele>163.4</ele>
        <time>2026-08-15T09:00:12Z</time>
      </trkpt>
      <trkpt lat="44.5208" lon="0.83509">
        <ele>163.6</ele>
        <time>2026-08-15T09:00:13Z</time>
      </trkpt>
      <trkpt lat="44.52079" lon="0.83512">
        <ele>163.8</ele>
        <time>2026-08-15T09:00:14Z</time>
      </trkpt>
      <trkpt lat="44.52079" lon="0.83516">
        <ele>163.8</ele>
        <time>2026-08-15T09:00:15Z</time>
      </trkpt>
      <trkpt lat="44.52078" lon="0.83519">
        <ele>164.2</ele>
        <time>2026-08-15T09:00:16Z</time>
      </trkpt>
      <trkpt lat="44.52077" lon="0.83522">
        <ele>164.4</ele>
        <time>2026-08-15T09:00:17Z</time>
      </trkpt>
      <trkpt lat="44.52076" lon="0.83525">
        <ele>164.6</ele>
        <time>2026-08-15T09:00:18Z</time>
      </trkpt>
      <trkpt lat="44.52076" lon="0.83528">
        <ele>164.8</ele>
        <time>2026-08-15T09:00:19Z</time>
      </trkpt>
      <trkpt lat="44.52075" lon="0.83531">
        <ele>165</ele>
        <time>2026-08-15T09:00:20Z</time>
      </trkpt>
      <trkpt lat="44.52074" lon="0.83535">
        <ele>165.2</ele>
        <time>2026-08-15T09:00:21Z</time>
      </trkpt>
      <trkpt lat="44.52074" lon="0.83538">
        <ele>165.2</ele>
        <time>2026-08-15T09:00:22Z</time>
      </trkpt>
      <trkpt lat="44.52073" lon="0.83541">
        <ele>165.4</ele>
        <time>2026-08-15T09:00:23Z</time>
      </trkpt>
      <trkpt lat="44.52072" lon="0.83545">
        <ele>165.4</ele>
        <time>2026-08-15T09:00:24Z</time>
      </trkpt>
      <trkpt lat="44.52071" lon="0.83548">
        <ele>165.6</ele>
        <time>2026-08-15T09:00:25Z</time>
      </trkpt>
      <trkpt lat="44.5207" lon="0.83552">
        <ele>165.6</ele>
        <time>2026-08-15T09:00:26Z</time>
      </trkpt>
      <trkpt lat="44.5207" lon="0.83555">
        <ele>165.8</ele>
        <time>2026-08-15T09:00:27Z</time>
      </trkpt>
      <trkpt lat="44.52069" lon="0.83558">
        <ele>166</ele>
        <time>2026-08-15T09:00:28Z</time>
      </trkpt>
      <trkpt lat="44.52068" lon="0.83561">
        <ele>166.2</ele>
        <time>2026-08-15T09:00:29Z</time>
      </trkpt>
      <trkpt lat="44.52067" lon="0.83565">
        <ele>166.4</ele>
        <time>2026-08-15T09:00:30Z</time>
      </trkpt>
      <trkpt lat="44.52066" lon="0.83568">
        <ele>166.6</ele>
        <time>2026-08-15T09:00:31Z</time>
      </trkpt>
      <trkpt lat="44.52066" lon="0.83571">
        <ele>166.6</ele>
        <time>2026-08-15T09:00:32Z</time>
      </trkpt>
      <trkpt lat="44.52065" lon="0.83574">
        <ele>166.8</ele>
        <time>2026-08-15T09:00:33Z</time>
      </trkpt>
      <trkpt lat="44.52064" lon="0.83578">
        <ele>166.8</ele>
        <time>2026-08-15T09:00:34Z</time>
      </trkpt>
      <trkpt lat="44.52063" lon="0.83581">
        <ele>167</ele>
        <time>2026-08-15T09:00:35Z</time>
      </trkpt>
      <trkpt lat="44.52062" lon="0.83584">
        <ele>167.2</ele>
        <time>2026-08-15T09:00:36Z</time>
      </trkpt>
      <trkpt lat="44.52061" lon="0.83587">
        <ele>167.4</ele>
        <time>2026-08-15T09:00:37Z</time>
      </trkpt>
      <trkpt lat="44.5206" lon="0.8359">
        <ele>167.6</ele>
        <time>2026-08-15T09:00:38Z</time>
      </trkpt>
      <trkpt lat="44.52058" lon="0.83592">
        <ele>167.6</ele>
        <time>2026-08-15T09:00:39Z</time>
      </trkpt>
      <trkpt lat="44.52057" lon="0.83595">
        <ele>167.8</ele>
        <time>2026-08-15T09:00:40Z</time>
      </trkpt>
      <trkpt lat="44.52056" lon="0.83597">
        <ele>168</ele>
        <time>2026-08-15T09:00:41Z</time>
      </trkpt>
      <trkpt lat="44.52054" lon="0.836">
        <ele>168.2</ele>
        <time>2026-08-15T09:00:42Z</time>
      </trkpt>
      <trkpt lat="44.52053" lon="0.83602">
        <ele>168.4</ele>
        <time>2026-08-15T09:00:43Z</time>
      </trkpt>
      <trkpt lat="44.52051" lon="0.83605">
        <ele>168.6</ele>
        <time>2026-08-15T09:00:44Z</time>
      </trkpt>
      <trkpt lat="44.5205" lon="0.83608">
        <ele>168.6</ele>
        <time>2026-08-15T09:00:45Z</time>
      </trkpt>
      <trkpt lat="44.52048" lon="0.83611">
        <ele>168.6</ele>
        <time>2026-08-15T09:00:46Z</time>
      </trkpt>
      <trkpt lat="44.52047" lon="0.83614">
        <ele>168.6</ele>
        <time>2026-08-15T09:00:47Z</time>
      </trkpt>
      <trkpt lat="44.52045" lon="0.83617">
        <ele>168.8</ele>
        <time>2026-08-15T09:00:48Z</time>
      </trkpt>
      <trkpt lat="44.52043" lon="0.83623">
        <ele>168.8</ele>
        <time>2026-08-15T09:00:49Z</time>
      </trkpt>
      <trkpt lat="44.52041" lon="0.83626">
        <ele>168.8</ele>
        <time>2026-08-15T09:00:50Z</time>
      </trkpt>
      <trkpt lat="44.52041" lon="0.83628">
        <ele>168.8</ele>
        <time>2026-08-15T09:00:51Z</time>
      </trkpt>
      <trkpt lat="44.5204" lon="0.8363">
        <ele>168.8</ele>
        <time>2026-08-15T09:00:52Z</time>
      </trkpt>
      <trkpt lat="44.52039" lon="0.83632">
        <ele>168.8</ele>
        <time>2026-08-15T09:00:53Z</time>
      </trkpt>
      <trkpt lat="44.52038" lon="0.83634">
        <ele>168.8</ele>
        <time>2026-08-15T09:00:54Z</time>
      </trkpt>
      <trkpt lat="44.52038" lon="0.83634">
        <ele>168.8</ele>
        <time>2026-08-15T09:00:55Z</time>
      </trkpt>
      <trkpt lat="44.52037" lon="0.83634">
        <ele>168.8</ele>
        <time>2026-08-15T09:00:56Z</time>
      </trkpt>
      <trkpt lat="44.52037" lon="0.83635">
        <ele>168.8</ele>
        <time>2026-08-15T09:00:57Z</time>
      </trkpt>
      <trkpt lat="44.52037" lon="0.83635">
        <ele>168.8</ele>
        <time>2026-08-15T09:00:58Z</time>
      </trkpt>
      <trkpt lat="44.52036" lon="0.83636">
        <ele>169</ele>
        <time>2026-08-15T09:00:59Z</time>
      </trkpt>
      <trkpt lat="44.52035" lon="0.83636">
        <ele>169</ele>
        <time>2026-08-15T09:01:00Z</time>
      </trkpt>
      <trkpt lat="44.52033" lon="0.83646">
        <ele>169.2</ele>
        <time>2026-08-15T09:01:13Z</time>
      </trkpt>
      <trkpt lat="44.52033" lon="0.83647">
        <ele>169</ele>
        <time>2026-08-15T09:01:14Z</time>
      </trkpt>
      <trkpt lat="44.52033" lon="0.83647">
        <ele>169</ele>
        <time>2026-08-15T09:01:15Z</time>
      </trkpt>
      <trkpt lat="44.52033" lon="0.83649">
        <ele>169</ele>
        <time>2026-08-15T09:01:16Z</time>
      </trkpt>
      <trkpt lat="44.52032" lon="0.8365">
        <ele>168.8</ele>
        <time>2026-08-15T09:01:17Z</time>
      </trkpt>
      <trkpt lat="44.52031" lon="0.83653">
        <ele>168.8</ele>
        <time>2026-08-15T09:01:18Z</time>
      </trkpt>
      <trkpt lat="44.5203" lon="0.83656">
        <ele>168.8</ele>
        <time>2026-08-15T09:01:19Z</time>
      </trkpt>
      <trkpt lat="44.52028" lon="0.83663">
        <ele>168.6</ele>
        <time>2026-08-15T09:01:20Z</time>
      </trkpt>
      <trkpt lat="44.52027" lon="0.83667">
        <ele>168.6</ele>
        <time>2026-08-15T09:01:21Z</time>
      </trkpt>
      <trkpt lat="44.52025" lon="0.83672">
        <ele>168.4</ele>
        <time>2026-08-15T09:01:22Z</time>
      </trkpt>
      <trkpt lat="44.52024" lon="0.83676">
        <ele>168.4</ele>
        <time>2026-08-15T09:01:23Z</time>
      </trkpt>
      <trkpt lat="44.52023" lon="0.8368">
        <ele>168</ele>
        <time>2026-08-15T09:01:24Z</time>
      </trkpt>
      <trkpt lat="44.52022" lon="0.83683">
        <ele>167.8</ele>
        <time>2026-08-15T09:01:25Z</time>
      </trkpt>
      <trkpt lat="44.52022" lon="0.83686">
        <ele>167.6</ele>
        <time>2026-08-15T09:01:26Z</time>
      </trkpt>
      <trkpt lat="44.52021" lon="0.83688">
        <ele>167.6</ele>
        <time>2026-08-15T09:01:27Z</time>
      </trkpt>
      <trkpt lat="44.52021" lon="0.8369">
        <ele>167.4</ele>
        <time>2026-08-15T09:01:28Z</time>
      </trkpt>
      <trkpt lat="44.5202" lon="0.83692">
        <ele>167</ele>
        <time>2026-08-15T09:01:29Z</time>
      </trkpt>
      <trkpt lat="44.52019" lon="0.83695">
        <ele>166.8</ele>
        <time>2026-08-15T09:01:30Z</time>
      </trkpt>
      <trkpt lat="44.52019" lon="0.83698">
        <ele>166.6</ele>
        <time>2026-08-15T09:01:31Z</time>
      </trkpt>
      <trkpt lat="44.52018" lon="0.83702">
        <ele>166.2</ele>
        <time>2026-08-15T09:01:32Z</time>
      </trkpt>
      <trkpt lat="44.52017" lon="0.83706">
        <ele>166</ele>
        <time>2026-08-15T09:01:33Z</time>
      </trkpt>
      <trkpt lat="44.52016" lon="0.83713">
        <ele>165.8</ele>
        <time>2026-08-15T09:01:34Z</time>
      </trkpt>
      <trkpt lat="44.52015" lon="0.83718">
        <ele>165.6</ele>
        <time>2026-08-15T09:01:35Z</time>
      </trkpt>
      <trkpt lat="44.52014" lon="0.83723">
        <ele>165.6</ele>
        <time>2026-08-15T09:01:36Z</time>
      </trkpt>
      <trkpt lat="44.52013" lon="0.83728">
        <ele>165.6</ele>
        <time>2026-08-15T09:01:37Z</time>
      </trkpt>
      <trkpt lat="44.52013" lon="0.83732">
        <ele>165.6</ele>
        <time>2026-08-15T09:01:38Z</time>
      </trkpt>
      <trkpt lat="44.52012" lon="0.83737">
        <ele>165.6</ele>
        <time>2026-08-15T09:01:39Z</time>
      </trkpt>
      <trkpt lat="44.52013" lon="0.83741">
        <ele>165.6</ele>
        <time>2026-08-15T09:01:40Z</time>
      </trkpt>
      <trkpt lat="44.52013" lon="0.83745">
        <ele>165.6</ele>
        <time>2026-08-15T09:01:41Z</time>
      </trkpt>
      <trkpt lat="44.52015" lon="0.83748">
        <ele>165.6</ele>
        <time>2026-08-15T09:01:42Z</time>
      </trkpt>
      <trkpt lat="44.52017" lon="0.83751">
        <ele>165.6</ele>
        <time>2026-08-15T09:01:43Z</time>
      </trkpt>
      <trkpt lat="44.5202" lon="0.83753">
        <ele>165.6</ele>
        <time>2026-08-15T09:01:44Z</time>
      </trkpt>
      <trkpt lat="44.52022" lon="0.83756">
        <ele>165.6</ele>
        <time>2026-08-15T09:01:45Z</time>
      </trkpt>
      <trkpt lat="44.52025" lon="0.83758">
        <ele>165.6</ele>
        <time>2026-08-15T09:01:46Z</time>
      </trkpt>
      <trkpt lat="44.52027" lon="0.8376">
        <ele>165.6</ele>
        <time>2026-08-15T09:01:47Z</time>
      </trkpt>
      <trkpt lat="44.5203" lon="0.83762">
        <ele>165.6</ele>
        <time>2026-08-15T09:01:48Z</time>
      </trkpt>
      <trkpt lat="44.52033" lon="0.83764">
        <ele>165.8</ele>
        <time>2026-08-15T09:01:49Z</time>
      </trkpt>
      <trkpt lat="44.52035" lon="0.83766">
        <ele>166.2</ele>
        <time>2026-08-15T09:01:50Z</time>
      </trkpt>
      <trkpt lat="44.52038" lon="0.83768">
        <ele>166.4</ele>
        <time>2026-08-15T09:01:51Z</time>
      </trkpt>
      <trkpt lat="44.5204" lon="0.8377">
        <ele>166.6</ele>
        <time>2026-08-15T09:01:52Z</time>
      </trkpt>
      <trkpt lat="44.52043" lon="0.83772">
        <ele>166.6</ele>
        <time>2026-08-15T09:01:53Z</time>
      </trkpt>
      <trkpt lat="44.52046" lon="0.83773">
        <ele>167</ele>
        <time>2026-08-15T09:01:54Z</time>
      </trkpt>
      <trkpt lat="44.52048" lon="0.83775">
        <ele>167.2</ele>
        <time>2026-08-15T09:01:55Z</time>
      </trkpt>
      <trkpt lat="44.5205" lon="0.83776">
        <ele>167.6</ele>
        <time>2026-08-15T09:01:56Z</time>
      </trkpt>
      <trkpt lat="44.52053" lon="0.83778">
        <ele>167.8</ele>
        <time>2026-08-15T09:01:57Z</time>
      </trkpt>
      <trkpt lat="44.52054" lon="0.83779">
        <ele>168.2</ele>
        <time>2026-08-15T09:01:58Z</time>
      </trkpt>
      <trkpt lat="44.52055" lon="0.8378">
        <ele>168.6</ele>
        <time>2026-08-15T09:01:59Z</time>
      </trkpt>
      <trkpt lat="44.52057" lon="0.83782">
        <ele>168.8</ele>
        <time>2026-08-15T09:02:00Z</time>
      </trkpt>
      <trkpt lat="44.52059" lon="0.83783">
        <ele>169.2</ele>
        <time>2026-08-15T09:02:01Z</time>
      </trkpt>
      <trkpt lat="44.52061" lon="0.83785">
        <ele>169.6</ele>
        <time>2026-08-15T09:02:02Z</time>
      </trkpt>
      <trkpt lat="44.52063" lon="0.83786">
        <ele>169.8</ele>
        <time>2026-08-15T09:02:03Z</time>
      </trkpt>
      <trkpt lat="44.52065" lon="0.83788">
        <ele>170.2</ele>
        <time>2026-08-15T09:02:04Z</time>
      </trkpt>
      <trkpt lat="44.52067" lon="0.83789">
        <ele>170.6</ele>
        <time>2026-08-15T09:02:05Z</time>
      </trkpt>
      <trkpt lat="44.52069" lon="0.83791">
        <ele>170.8</ele>
        <time>2026-08-15T09:02:06Z</time>
      </trkpt>
      <trkpt lat="44.52071" lon="0.83793">
        <ele>171.2</ele>
        <time>2026-08-15T09:02:07Z</time>
      </trkpt>
      <trkpt lat="44.52073" lon="0.83794">
        <ele>171.4</ele>
        <time>2026-08-15T09:02:08Z</time>
      </trkpt>
      <trkpt lat="44.52075" lon="0.83796">
        <ele>171.6</ele>
        <time>2026-08-15T09:02:09Z</time>
      </trkpt>
      <trkpt lat="44.52077" lon="0.83797">
        <ele>171.8</ele>
        <time>2026-08-15T09:02:10Z</time>
      </trkpt>
      <trkpt lat="44.5208" lon="0.83799">
        <ele>172</ele>
        <time>2026-08-15T09:02:11Z</time>
      </trkpt>
      <trkpt lat="44.52082" lon="0.83801">
        <ele>172.2</ele>
        <time>2026-08-15T09:02:12Z</time>
      </trkpt>
      <trkpt lat="44.52084" lon="0.83802">
        <ele>172.4</ele>
        <time>2026-08-15T09:02:13Z</time>
      </trkpt>
      <trkpt lat="44.52086" lon="0.83804">
        <ele>172.6</ele>
        <time>2026-08-15T09:02:14Z</time>
      </trkpt>
      <trkpt lat="44.52088" lon="0.83806">
        <ele>172.8</ele>
        <time>2026-08-15T09:02:15Z</time>
      </trkpt>
      <trkpt lat="44.5209" lon="0.83807">
        <ele>173</ele>
        <time>2026-08-15T09:02:16Z</time>
      </trkpt>
      <trkpt lat="44.52092" lon="0.83809">
        <ele>173.2</ele>
        <time>2026-08-15T09:02:17Z</time>
      </trkpt>
      <trkpt lat="44.52095" lon="0.8381">
        <ele>173.4</ele>
        <time>2026-08-15T09:02:18Z</time>
      </trkpt>
      <trkpt lat="44.52097" lon="0.83812">
        <ele>173.6</ele>
        <time>2026-08-15T09:02:19Z</time>
      </trkpt>
      <trkpt lat="44.52099" lon="0.83813">
        <ele>173.8</ele>
        <time>2026-08-15T09:02:20Z</time>
      </trkpt>
      <trkpt lat="44.52101" lon="0.83815">
        <ele>174</ele>
        <time>2026-08-15T09:02:21Z</time>
      </trkpt>
      <trkpt lat="44.52102" lon="0.83816">
        <ele>174.2</ele>
        <time>2026-08-15T09:02:22Z</time>
      </trkpt>
      <trkpt lat="44.52104" lon="0.83817">
        <ele>174.4</ele>
        <time>2026-08-15T09:02:23Z</time>
      </trkpt>
      <trkpt lat="44.52106" lon="0.83818">
        <ele>174.6</ele>
        <time>2026-08-15T09:02:24Z</time>
      </trkpt>
      <trkpt lat="44.52108" lon="0.83819">
        <ele>174.6</ele>
        <time>2026-08-15T09:02:25Z</time>
      </trkpt>
      <trkpt lat="44.52109" lon="0.83819">
        <ele>174.8</ele>
        <time>2026-08-15T09:02:26Z</time>
      </trkpt>
      <trkpt lat="44.5211" lon="0.8382">
        <ele>174.8</ele>
        <time>2026-08-15T09:02:27Z</time>
      </trkpt>
      <trkpt lat="44.52111" lon="0.83821">
        <ele>175</ele>
        <time>2026-08-15T09:02:28Z</time>
      </trkpt>
      <trkpt lat="44.52112" lon="0.83822">
        <ele>175</ele>
        <time>2026-08-15T09:02:29Z</time>
      </trkpt>
      <trkpt lat="44.52114" lon="0.83823">
        <ele>175.4</ele>
        <time>2026-08-15T09:02:30Z</time>
      </trkpt>
      <trkpt lat="44.52115" lon="0.83825">
        <ele>175.4</ele>
        <time>2026-08-15T09:02:31Z</time>
      </trkpt>
      <trkpt lat="44.52116" lon="0.83826">
        <ele>175.6</ele>
        <time>2026-08-15T09:02:32Z</time>
      </trkpt>
      <trkpt lat="44.52118" lon="0.83827">
        <ele>175.6</ele>
        <time>2026-08-15T09:02:33Z</time>
      </trkpt>
      <trkpt lat="44.52119" lon="0.83828">
        <ele>175.8</ele>
        <time>2026-08-15T09:02:34Z</time>
      </trkpt>
      <trkpt lat="44.5212" lon="0.83829">
        <ele>175.8</ele>
        <time>2026-08-15T09:02:35Z</time>
      </trkpt>
      <trkpt lat="44.52122" lon="0.8383">
        <ele>175.8</ele>
        <time>2026-08-15T09:02:36Z</time>
      </trkpt>
      <trkpt lat="44.52123" lon="0.83831">
        <ele>176.2</ele>
        <time>2026-08-15T09:02:37Z</time>
      </trkpt>
      <trkpt lat="44.52125" lon="0.83832">
        <ele>176.2</ele>
        <time>2026-08-15T09:02:38Z</time>
      </trkpt>
      <trkpt lat="44.52127" lon="0.83834">
        <ele>176.4</ele>
        <time>2026-08-15T09:02:39Z</time>
      </trkpt>
      <trkpt lat="44.52129" lon="0.83835">
        <ele>176.6</ele>
        <time>2026-08-15T09:02:40Z</time>
      </trkpt>
      <trkpt lat="44.52131" lon="0.83837">
        <ele>176.6</ele>
        <time>2026-08-15T09:02:41Z</time>
      </trkpt>
      <trkpt lat="44.52132" lon="0.8384">
        <ele>176.8</ele>
        <time>2026-08-15T09:02:42Z</time>
      </trkpt>
      <trkpt lat="44.52133" lon="0.83842">
        <ele>177.2</ele>
        <time>2026-08-15T09:02:43Z</time>
      </trkpt>
      <trkpt lat="44.52133" lon="0.83845">
        <ele>177.2</ele>
        <time>2026-08-15T09:02:44Z</time>
      </trkpt>
      <trkpt lat="44.52134" lon="0.83848">
        <ele>177.4</ele>
        <time>2026-08-15T09:02:45Z</time>
      </trkpt>
      <trkpt lat="44.52134" lon="0.83851">
        <ele>177.4</ele>
        <time>2026-08-15T09:02:46Z</time>
      </trkpt>
      <trkpt lat="44.52135" lon="0.83854">
        <ele>177.6</ele>
        <time>2026-08-15T09:02:47Z</time>
      </trkpt>
      <trkpt lat="44.52135" lon="0.83857">
        <ele>177.6</ele>
        <time>2026-08-15T09:02:48Z</time>
      </trkpt>
      <trkpt lat="44.52136" lon="0.8386">
        <ele>177.6</ele>
        <time>2026-08-15T09:02:49Z</time>
      </trkpt>
      <trkpt lat="44.52137" lon="0.83863">
        <ele>177.6</ele>
        <time>2026-08-15T09:02:50Z</time>
      </trkpt>
      <trkpt lat="44.52139" lon="0.83866">
        <ele>177.8</ele>
        <time>2026-08-15T09:02:51Z</time>
      </trkpt>
      <trkpt lat="44.5214" lon="0.83869">
        <ele>177.8</ele>
        <time>2026-08-15T09:02:52Z</time>
      </trkpt>
      <trkpt lat="44.52142" lon="0.83872">
        <ele>177.8</ele>
        <time>2026-08-15T09:02:53Z</time>
      </trkpt>
      <trkpt lat="44.52143" lon="0.83874">
        <ele>178.2</ele>
        <time>2026-08-15T09:02:54Z</time>
      </trkpt>
      <trkpt lat="44.52145" lon="0.83877">
        <ele>178.2</ele>
        <time>2026-08-15T09:02:55Z</time>
      </trkpt>
      <trkpt lat="44.52147" lon="0.8388">
        <ele>178.4</ele>
        <time>2026-08-15T09:02:56Z</time>
      </trkpt>
      <trkpt lat="44.52149" lon="0.83882">
        <ele>178.6</ele>
        <time>2026-08-15T09:02:57Z</time>
      </trkpt>
      <trkpt lat="44.52151" lon="0.83885">
        <ele>178.6</ele>
        <time>2026-08-15T09:02:58Z</time>
      </trkpt>
      <trkpt lat="44.52153" lon="0.83888">
        <ele>178.6</ele>
        <time>2026-08-15T09:02:59Z</time>
      </trkpt>
      <trkpt lat="44.52156" lon="0.83892">
        <ele>178.6</ele>
        <time>2026-08-15T09:03:00Z</time>
      </trkpt>
      <trkpt lat="44.52158" lon="0.83895">
        <ele>178.6</ele>
        <time>2026-08-15T09:03:01Z</time>
      </trkpt>
      <trkpt lat="44.5216" lon="0.83898">
        <ele>178.8</ele>
        <time>2026-08-15T09:03:02Z</time>
      </trkpt>
      <trkpt lat="44.52162" lon="0.83901">
        <ele>178.8</ele>
        <time>2026-08-15T09:03:03Z</time>
      </trkpt>
      <trkpt lat="44.52164" lon="0.83903">
        <ele>179.2</ele>
        <time>2026-08-15T09:03:04Z</time>
      </trkpt>
      <trkpt lat="44.52166" lon="0.83906">
        <ele>179.2</ele>
        <time>2026-08-15T09:03:05Z</time>
      </trkpt>
      <trkpt lat="44.52169" lon="0.83908">
        <ele>179.4</ele>
        <time>2026-08-15T09:03:06Z</time>
      </trkpt>
      <trkpt lat="44.52171" lon="0.83911">
        <ele>179.4</ele>
        <time>2026-08-15T09:03:07Z</time>
      </trkpt>
      <trkpt lat="44.52173" lon="0.83914">
        <ele>179.6</ele>
        <time>2026-08-15T09:03:08Z</time>
      </trkpt>
      <trkpt lat="44.52175" lon="0.83917">
        <ele>179.6</ele>
        <time>2026-08-15T09:03:09Z</time>
      </trkpt>
      <trkpt lat="44.52177" lon="0.83919">
        <ele>180</ele>
        <time>2026-08-15T09:03:10Z</time>
      </trkpt>
      <trkpt lat="44.52179" lon="0.83922">
        <ele>180.2</ele>
        <time>2026-08-15T09:03:11Z</time>
      </trkpt>
      <trkpt lat="44.52181" lon="0.83924">
        <ele>180.4</ele>
        <time>2026-08-15T09:03:12Z</time>
      </trkpt>
      <trkpt lat="44.52183" lon="0.83927">
        <ele>180.4</ele>
        <time>2026-08-15T09:03:13Z</time>
      </trkpt>
      <trkpt lat="44.52184" lon="0.83928">
        <ele>180.6</ele>
        <time>2026-08-15T09:03:14Z</time>
      </trkpt>
      <trkpt lat="44.52185" lon="0.8393">
        <ele>180.6</ele>
        <time>2026-08-15T09:03:15Z</time>
      </trkpt>
      <trkpt lat="44.52188" lon="0.83934">
        <ele>180.8</ele>
        <time>2026-08-15T09:03:16Z</time>
      </trkpt>
      <trkpt lat="44.52191" lon="0.83937">
        <ele>180.8</ele>
        <time>2026-08-15T09:03:17Z</time>
      </trkpt>
      <trkpt lat="44.52193" lon="0.8394">
        <ele>180.8</ele>
        <time>2026-08-15T09:03:18Z</time>
      </trkpt>
      <trkpt lat="44.52196" lon="0.83942">
        <ele>181</ele>
        <time>2026-08-15T09:03:19Z</time>
      </trkpt>
      <trkpt lat="44.52198" lon="0.83945">
        <ele>181</ele>
        <time>2026-08-15T09:03:20Z</time>
      </trkpt>
      <trkpt lat="44.52201" lon="0.83948">
        <ele>181.2</ele>
        <time>2026-08-15T09:03:21Z</time>
      </trkpt>
      <trkpt lat="44.52204" lon="0.83951">
        <ele>181.2</ele>
        <time>2026-08-15T09:03:22Z</time>
      </trkpt>
      <trkpt lat="44.52206" lon="0.83953">
        <ele>181</ele>
        <time>2026-08-15T09:03:23Z</time>
      </trkpt>
      <trkpt lat="44.52209" lon="0.83956">
        <ele>181</ele>
        <time>2026-08-15T09:03:24Z</time>
      </trkpt>
      <trkpt lat="44.52212" lon="0.83958">
        <ele>181</ele>
        <time>2026-08-15T09:03:25Z</time>
      </trkpt>
      <trkpt lat="44.52215" lon="0.8396">
        <ele>180.8</ele>
        <time>2026-08-15T09:03:26Z</time>
      </trkpt>
      <trkpt lat="44.52218" lon="0.83963">
        <ele>180.8</ele>
        <time>2026-08-15T09:03:27Z</time>
      </trkpt>
      <trkpt lat="44.52221" lon="0.83965">
        <ele>180.8</ele>
        <time>2026-08-15T09:03:28Z</time>
      </trkpt>
      <trkpt lat="44.52224" lon="0.83968">
        <ele>180.8</ele>
        <time>2026-08-15T09:03:29Z</time>
      </trkpt>
      <trkpt lat="44.52227" lon="0.8397">
        <ele>180.8</ele>
        <time>2026-08-15T09:03:30Z</time>
      </trkpt>
      <trkpt lat="44.52231" lon="0.83973">
        <ele>180.8</ele>
        <time>2026-08-15T09:03:31Z</time>
      </trkpt>
      <trkpt lat="44.52234" lon="0.83976">
        <ele>180.8</ele>
        <time>2026-08-15T09:03:32Z</time>
      </trkpt>
      <trkpt lat="44.52237" lon="0.83979">
        <ele>180.8</ele>
        <time>2026-08-15T09:03:33Z</time>
      </trkpt>
      <trkpt lat="44.52241" lon="0.83981">
        <ele>180.6</ele>
        <time>2026-08-15T09:03:34Z</time>
      </trkpt>
      <trkpt lat="44.52244" lon="0.83984">
        <ele>180.6</ele>
        <time>2026-08-15T09:03:35Z</time>
      </trkpt>
      <trkpt lat="44.52247" lon="0.83987">
        <ele>180.6</ele>
        <time>2026-08-15T09:03:36Z</time>
      </trkpt>
      <trkpt lat="44.52251" lon="0.8399">
        <ele>180.6</ele>
        <time>2026-08-15T09:03:37Z</time>
      </trkpt>
      <trkpt lat="44.52254" lon="0.83993">
        <ele>180.6</ele>
        <time>2026-08-15T09:03:38Z</time>
      </trkpt>
      <trkpt lat="44.52257" lon="0.83996">
        <ele>180.6</ele>
        <time>2026-08-15T09:03:39Z</time>
      </trkpt>
      <trkpt lat="44.5226" lon="0.83999">
        <ele>180.6</ele>
        <time>2026-08-15T09:03:40Z</time>
      </trkpt>
      <trkpt lat="44.52263" lon="0.84001">
        <ele>180.6</ele>
        <time>2026-08-15T09:03:41Z</time>
      </trkpt>
      <trkpt lat="44.52266" lon="0.84004">
        <ele>180.6</ele>
        <time>2026-08-15T09:03:42Z</time>
      </trkpt>
      <trkpt lat="44.52269" lon="0.84007">
        <ele>180.8</ele>
        <time>2026-08-15T09:03:43Z</time>
      </trkpt>
      <trkpt lat="44.52272" lon="0.8401">
        <ele>180.8</ele>
        <time>2026-08-15T09:03:44Z</time>
      </trkpt>
      <trkpt lat="44.52275" lon="0.84013">
        <ele>181</ele>
        <time>2026-08-15T09:03:45Z</time>
      </trkpt>
      <trkpt lat="44.52278" lon="0.84016">
        <ele>181.2</ele>
        <time>2026-08-15T09:03:46Z</time>
      </trkpt>
      <trkpt lat="44.52281" lon="0.84019">
        <ele>181.2</ele>
        <time>2026-08-15T09:03:47Z</time>
      </trkpt>
      <trkpt lat="44.52283" lon="0.84021">
        <ele>181.4</ele>
        <time>2026-08-15T09:03:48Z</time>
      </trkpt>
      <trkpt lat="44.52286" lon="0.84024">
        <ele>181.4</ele>
        <time>2026-08-15T09:03:49Z</time>
      </trkpt>
      <trkpt lat="44.52289" lon="0.84027">
        <ele>181.4</ele>
        <time>2026-08-15T09:03:50Z</time>
      </trkpt>
      <trkpt lat="44.52292" lon="0.8403">
        <ele>181.6</ele>
        <time>2026-08-15T09:03:51Z</time>
      </trkpt>
      <trkpt lat="44.52295" lon="0.84033">
        <ele>181.6</ele>
        <time>2026-08-15T09:03:52Z</time>
      </trkpt>
      <trkpt lat="44.52298" lon="0.84036">
        <ele>181.6</ele>
        <time>2026-08-15T09:03:53Z</time>
      </trkpt>
      <trkpt lat="44.52301" lon="0.84039">
        <ele>181.6</ele>
        <time>2026-08-15T09:03:54Z</time>
      </trkpt>
      <trkpt lat="44.52303" lon="0.84042">
        <ele>181.6</ele>
        <time>2026-08-15T09:03:55Z</time>
      </trkpt>
      <trkpt lat="44.52306" lon="0.84045">
        <ele>181.8</ele>
        <time>2026-08-15T09:03:56Z</time>
      </trkpt>
      <trkpt lat="44.52308" lon="0.84048">
        <ele>182</ele>
        <time>2026-08-15T09:03:57Z</time>
      </trkpt>
      <trkpt lat="44.52309" lon="0.84052">
        <ele>182.4</ele>
        <time>2026-08-15T09:03:58Z</time>
      </trkpt>
      <trkpt lat="44.52311" lon="0.84055">
        <ele>182.6</ele>
        <time>2026-08-15T09:03:59Z</time>
      </trkpt>
      <trkpt lat="44.52313" lon="0.84058">
        <ele>182.6</ele>
        <time>2026-08-15T09:04:00Z</time>
      </trkpt>
      <trkpt lat="44.52315" lon="0.84061">
        <ele>182.8</ele>
        <time>2026-08-15T09:04:01Z</time>
      </trkpt>
      <trkpt lat="44.52318" lon="0.84063">
        <ele>183</ele>
        <time>2026-08-15T09:04:02Z</time>
      </trkpt>
      <trkpt lat="44.52321" lon="0.84065">
        <ele>183.2</ele>
        <time>2026-08-15T09:04:03Z</time>
      </trkpt>
      <trkpt lat="44.52324" lon="0.84066">
        <ele>183.2</ele>
        <time>2026-08-15T09:04:04Z</time>
      </trkpt>
      <trkpt lat="44.52327" lon="0.84069">
        <ele>183.4</ele>
        <time>2026-08-15T09:04:05Z</time>
      </trkpt>
      <trkpt lat="44.52329" lon="0.84072">
        <ele>183.4</ele>
        <time>2026-08-15T09:04:06Z</time>
      </trkpt>
      <trkpt lat="44.52332" lon="0.84075">
        <ele>183.4</ele>
        <time>2026-08-15T09:04:07Z</time>
      </trkpt>
      <trkpt lat="44.52335" lon="0.84079">
        <ele>183.4</ele>
        <time>2026-08-15T09:04:08Z</time>
      </trkpt>
      <trkpt lat="44.52337" lon="0.84082">
        <ele>183.4</ele>
        <time>2026-08-15T09:04:09Z</time>
      </trkpt>
      <trkpt lat="44.52341" lon="0.84085">
        <ele>183.4</ele>
        <time>2026-08-15T09:04:10Z</time>
      </trkpt>
      <trkpt lat="44.52344" lon="0.84088">
        <ele>183.4</ele>
        <time>2026-08-15T09:04:11Z</time>
      </trkpt>
      <trkpt lat="44.52348" lon="0.84089">
        <ele>183.4</ele>
        <time>2026-08-15T09:04:12Z</time>
      </trkpt>
      <trkpt lat="44.52352" lon="0.84091">
        <ele>183.4</ele>
        <time>2026-08-15T09:04:13Z</time>
      </trkpt>
      <trkpt lat="44.52357" lon="0.84093">
        <ele>183.4</ele>
        <time>2026-08-15T09:04:14Z</time>
      </trkpt>
      <trkpt lat="44.52361" lon="0.84094">
        <ele>183.4</ele>
        <time>2026-08-15T09:04:15Z</time>
      </trkpt>
      <trkpt lat="44.52365" lon="0.84096">
        <ele>183.6</ele>
        <time>2026-08-15T09:04:16Z</time>
      </trkpt>
      <trkpt lat="44.52369" lon="0.84098">
        <ele>183.6</ele>
        <time>2026-08-15T09:04:17Z</time>
      </trkpt>
      <trkpt lat="44.52373" lon="0.841">
        <ele>183.6</ele>
        <time>2026-08-15T09:04:18Z</time>
      </trkpt>
      <trkpt lat="44.52376" lon="0.84102">
        <ele>183.6</ele>
        <time>2026-08-15T09:04:19Z</time>
      </trkpt>
      <trkpt lat="44.5238" lon="0.84104">
        <ele>183.6</ele>
        <time>2026-08-15T09:04:20Z</time>
      </trkpt>
      <trkpt lat="44.52384" lon="0.84106">
        <ele>183.8</ele>
        <time>2026-08-15T09:04:21Z</time>
      </trkpt>
      <trkpt lat="44.52388" lon="0.84108">
        <ele>183.8</ele>
        <time>2026-08-15T09:04:22Z</time>
      </trkpt>
      <trkpt lat="44.52391" lon="0.8411">
        <ele>183.8</ele>
        <time>2026-08-15T09:04:23Z</time>
      </trkpt>
      <trkpt lat="44.52395" lon="0.84112">
        <ele>183.8</ele>
        <time>2026-08-15T09:04:24Z</time>
      </trkpt>
      <trkpt lat="44.52399" lon="0.84113">
        <ele>183.8</ele>
        <time>2026-08-15T09:04:25Z</time>
      </trkpt>
      <trkpt lat="44.52402" lon="0.84115">
        <ele>183.8</ele>
        <time>2026-08-15T09:04:26Z</time>
      </trkpt>
      <trkpt lat="44.52406" lon="0.84117">
        <ele>184</ele>
        <time>2026-08-15T09:04:27Z</time>
      </trkpt>
      <trkpt lat="44.52409" lon="0.84119">
        <ele>184</ele>
        <time>2026-08-15T09:04:28Z</time>
      </trkpt>
      <trkpt lat="44.52413" lon="0.84121">
        <ele>184</ele>
        <time>2026-08-15T09:04:29Z</time>
      </trkpt>
      <trkpt lat="44.52416" lon="0.84122">
        <ele>184.2</ele>
        <time>2026-08-15T09:04:30Z</time>
      </trkpt>
      <trkpt lat="44.52419" lon="0.84124">
        <ele>184.2</ele>
        <time>2026-08-15T09:04:31Z</time>
      </trkpt>
      <trkpt lat="44.52422" lon="0.84125">
        <ele>184.2</ele>
        <time>2026-08-15T09:04:32Z</time>
      </trkpt>
      <trkpt lat="44.52425" lon="0.84127">
        <ele>184.2</ele>
        <time>2026-08-15T09:04:33Z</time>
      </trkpt>
      <trkpt lat="44.52428" lon="0.84128">
        <ele>184.4</ele>
        <time>2026-08-15T09:04:34Z</time>
      </trkpt>
      <trkpt lat="44.52431" lon="0.84129">
        <ele>184.6</ele>
        <time>2026-08-15T09:04:35Z</time>
      </trkpt>
      <trkpt lat="44.52434" lon="0.8413">
        <ele>184.6</ele>
        <time>2026-08-15T09:04:36Z</time>
      </trkpt>
      <trkpt lat="44.52437" lon="0.84131">
        <ele>184.8</ele>
        <time>2026-08-15T09:04:37Z</time>
      </trkpt>
      <trkpt lat="44.5244" lon="0.84132">
        <ele>185</ele>
        <time>2026-08-15T09:04:38Z</time>
      </trkpt>
      <trkpt lat="44.52443" lon="0.84133">
        <ele>185.2</ele>
        <time>2026-08-15T09:04:39Z</time>
      </trkpt>
      <trkpt lat="44.52446" lon="0.84134">
        <ele>185.2</ele>
        <time>2026-08-15T09:04:40Z</time>
      </trkpt>
      <trkpt lat="44.52449" lon="0.84136">
        <ele>185.2</ele>
        <time>2026-08-15T09:04:41Z</time>
      </trkpt>
      <trkpt lat="44.52452" lon="0.84138">
        <ele>185.2</ele>
        <time>2026-08-15T09:04:42Z</time>
      </trkpt>
      <trkpt lat="44.52455" lon="0.8414">
        <ele>185.4</ele>
        <time>2026-08-15T09:04:43Z</time>
      </trkpt>
      <trkpt lat="44.52458" lon="0.84142">
        <ele>185.4</ele>
        <time>2026-08-15T09:04:44Z</time>
      </trkpt>
      <trkpt lat="44.52461" lon="0.84144">
        <ele>185.4</ele>
        <time>2026-08-15T09:04:45Z</time>
      </trkpt>
      <trkpt lat="44.52464" lon="0.84147">
        <ele>185.4</ele>
        <time>2026-08-15T09:04:46Z</time>
      </trkpt>
      <trkpt lat="44.52467" lon="0.84149">
        <ele>185.4</ele>
        <time>2026-08-15T09:04:47Z</time>
      </trkpt>
      <trkpt lat="44.5247" lon="0.84151">
        <ele>185.4</ele>
        <time>2026-08-15T09:04:48Z</time>
      </trkpt>
      <trkpt lat="44.52473" lon="0.84153">
        <ele>185.6</ele>
        <time>2026-08-15T09:04:49Z</time>
      </trkpt>
      <trkpt lat="44.52476" lon="0.84155">
        <ele>185.6</ele>
        <time>2026-08-15T09:04:50Z</time>
      </trkpt>
      <trkpt lat="44.52479" lon="0.84157">
        <ele>185.6</ele>
        <time>2026-08-15T09:04:51Z</time>
      </trkpt>
      <trkpt lat="44.52482" lon="0.84159">
        <ele>185.6</ele>
        <time>2026-08-15T09:04:52Z</time>
      </trkpt>
      <trkpt lat="44.52485" lon="0.84161">
        <ele>185.8</ele>
        <time>2026-08-15T09:04:53Z</time>
      </trkpt>
      <trkpt lat="44.52488" lon="0.84163">
        <ele>185.8</ele>
        <time>2026-08-15T09:04:54Z</time>
      </trkpt>
      <trkpt lat="44.52491" lon="0.84166">
        <ele>186</ele>
        <time>2026-08-15T09:04:55Z</time>
      </trkpt>
      <trkpt lat="44.52494" lon="0.84168">
        <ele>186.2</ele>
        <time>2026-08-15T09:04:56Z</time>
      </trkpt>
      <trkpt lat="44.52496" lon="0.8417">
        <ele>186.2</ele>
        <time>2026-08-15T09:04:57Z</time>
      </trkpt>
      <trkpt lat="44.52499" lon="0.84172">
        <ele>186.4</ele>
        <time>2026-08-15T09:04:58Z</time>
      </trkpt>
      <trkpt lat="44.52502" lon="0.84174">
        <ele>186.4</ele>
        <time>2026-08-15T09:04:59Z</time>
      </trkpt>
      <trkpt lat="44.52504" lon="0.84177">
        <ele>186.6</ele>
        <time>2026-08-15T09:05:00Z</time>
      </trkpt>
      <trkpt lat="44.52506" lon="0.84179">
        <ele>186.6</ele>
        <time>2026-08-15T09:05:01Z</time>
      </trkpt>
      <trkpt lat="44.52509" lon="0.84181">
        <ele>186.8</ele>
        <time>2026-08-15T09:05:02Z</time>
      </trkpt>
      <trkpt lat="44.52511" lon="0.84184">
        <ele>186.8</ele>
        <time>2026-08-15T09:05:03Z</time>
      </trkpt>
      <trkpt lat="44.52514" lon="0.84186">
        <ele>187.2</ele>
        <time>2026-08-15T09:05:04Z</time>
      </trkpt>
      <trkpt lat="44.52516" lon="0.84189">
        <ele>187.2</ele>
        <time>2026-08-15T09:05:05Z</time>
      </trkpt>
      <trkpt lat="44.52519" lon="0.84192">
        <ele>187.4</ele>
        <time>2026-08-15T09:05:06Z</time>
      </trkpt>
      <trkpt lat="44.52521" lon="0.84195">
        <ele>187.4</ele>
        <time>2026-08-15T09:05:07Z</time>
      </trkpt>
      <trkpt lat="44.52523" lon="0.84199">
        <ele>187.4</ele>
        <time>2026-08-15T09:05:08Z</time>
      </trkpt>
      <trkpt lat="44.52526" lon="0.84202">
        <ele>187.4</ele>
        <time>2026-08-15T09:05:09Z</time>
      </trkpt>
      <trkpt lat="44.52528" lon="0.84205">
        <ele>187.4</ele>
        <time>2026-08-15T09:05:10Z</time>
      </trkpt>
      <trkpt lat="44.5253" lon="0.84208">
        <ele>187.4</ele>
        <time>2026-08-15T09:05:11Z</time>
      </trkpt>
      <trkpt lat="44.52533" lon="0.8421">
        <ele>187.6</ele>
        <time>2026-08-15T09:05:12Z</time>
      </trkpt>
      <trkpt lat="44.52535" lon="0.84213">
        <ele>187.6</ele>
        <time>2026-08-15T09:05:13Z</time>
      </trkpt>
      <trkpt lat="44.52537" lon="0.84216">
        <ele>187.8</ele>
        <time>2026-08-15T09:05:14Z</time>
      </trkpt>
      <trkpt lat="44.52539" lon="0.8422">
        <ele>187.8</ele>
        <time>2026-08-15T09:05:15Z</time>
      </trkpt>
      <trkpt lat="44.52541" lon="0.84223">
        <ele>188.2</ele>
        <time>2026-08-15T09:05:16Z</time>
      </trkpt>
      <trkpt lat="44.52543" lon="0.84226">
        <ele>188.2</ele>
        <time>2026-08-15T09:05:17Z</time>
      </trkpt>
      <trkpt lat="44.52545" lon="0.8423">
        <ele>188.4</ele>
        <time>2026-08-15T09:05:18Z</time>
      </trkpt>
      <trkpt lat="44.52546" lon="0.84233">
        <ele>188.4</ele>
        <time>2026-08-15T09:05:19Z</time>
      </trkpt>
      <trkpt lat="44.52548" lon="0.84236">
        <ele>188.6</ele>
        <time>2026-08-15T09:05:20Z</time>
      </trkpt>
      <trkpt lat="44.52549" lon="0.84239">
        <ele>188.6</ele>
        <time>2026-08-15T09:05:21Z</time>
      </trkpt>
      <trkpt lat="44.52551" lon="0.84242">
        <ele>188.8</ele>
        <time>2026-08-15T09:05:22Z</time>
      </trkpt>
      <trkpt lat="44.52552" lon="0.84243">
        <ele>188.8</ele>
        <time>2026-08-15T09:05:23Z</time>
      </trkpt>
      <trkpt lat="44.52554" lon="0.84245">
        <ele>189.2</ele>
        <time>2026-08-15T09:05:24Z</time>
      </trkpt>
      <trkpt lat="44.52557" lon="0.8425">
        <ele>189.2</ele>
        <time>2026-08-15T09:05:25Z</time>
      </trkpt>
      <trkpt lat="44.52559" lon="0.84253">
        <ele>189.4</ele>
        <time>2026-08-15T09:05:26Z</time>
      </trkpt>
      <trkpt lat="44.52561" lon="0.84256">
        <ele>189.4</ele>
        <time>2026-08-15T09:05:27Z</time>
      </trkpt>
      <trkpt lat="44.52562" lon="0.84259">
        <ele>189.4</ele>
        <time>2026-08-15T09:05:28Z</time>
      </trkpt>
      <trkpt lat="44.52564" lon="0.84262">
        <ele>189.6</ele>
        <time>2026-08-15T09:05:29Z</time>
      </trkpt>
      <trkpt lat="44.52565" lon="0.84265">
        <ele>189.6</ele>
        <time>2026-08-15T09:05:30Z</time>
      </trkpt>
      <trkpt lat="44.52566" lon="0.84267">
        <ele>189.8</ele>
        <time>2026-08-15T09:05:31Z</time>
      </trkpt>
      <trkpt lat="44.52567" lon="0.8427">
        <ele>189.8</ele>
        <time>2026-08-15T09:05:32Z</time>
      </trkpt>
      <trkpt lat="44.52569" lon="0.84275">
        <ele>190.2</ele>
        <time>2026-08-15T09:05:33Z</time>
      </trkpt>
      <trkpt lat="44.52571" lon="0.84278">
        <ele>190.6</ele>
        <time>2026-08-15T09:05:34Z</time>
      </trkpt>
      <trkpt lat="44.52572" lon="0.84282">
        <ele>190.6</ele>
        <time>2026-08-15T09:05:35Z</time>
      </trkpt>
      <trkpt lat="44.52573" lon="0.84286">
        <ele>190.8</ele>
        <time>2026-08-15T09:05:36Z</time>
      </trkpt>
      <trkpt lat="44.52575" lon="0.84289">
        <ele>190.8</ele>
        <time>2026-08-15T09:05:37Z</time>
      </trkpt>
      <trkpt lat="44.52576" lon="0.84293">
        <ele>191</ele>
        <time>2026-08-15T09:05:38Z</time>
      </trkpt>
      <trkpt lat="44.52578" lon="0.84297">
        <ele>191.2</ele>
        <time>2026-08-15T09:05:39Z</time>
      </trkpt>
      <trkpt lat="44.52579" lon="0.84301">
        <ele>191.4</ele>
        <time>2026-08-15T09:05:40Z</time>
      </trkpt>
      <trkpt lat="44.5258" lon="0.84304">
        <ele>191.6</ele>
        <time>2026-08-15T09:05:41Z</time>
      </trkpt>
      <trkpt lat="44.52581" lon="0.84308">
        <ele>191.8</ele>
        <time>2026-08-15T09:05:42Z</time>
      </trkpt>
      <trkpt lat="44.52583" lon="0.84311">
        <ele>192</ele>
        <time>2026-08-15T09:05:43Z</time>
      </trkpt>
      <trkpt lat="44.52584" lon="0.84315">
        <ele>192.2</ele>
        <time>2026-08-15T09:05:44Z</time>
      </trkpt>
      <trkpt lat="44.52586" lon="0.84318">
        <ele>192.2</ele>
        <time>2026-08-15T09:05:45Z</time>
      </trkpt>
      <trkpt lat="44.52587" lon="0.84322">
        <ele>192.4</ele>
        <time>2026-08-15T09:05:46Z</time>
      </trkpt>
      <trkpt lat="44.52589" lon="0.84326">
        <ele>192.4</ele>
        <time>2026-08-15T09:05:47Z</time>
      </trkpt>
      <trkpt lat="44.52591" lon="0.84329">
        <ele>192.4</ele>
        <time>2026-08-15T09:05:48Z</time>
      </trkpt>
      <trkpt lat="44.52593" lon="0.84333">
        <ele>192.4</ele>
        <time>2026-08-15T09:05:49Z</time>
      </trkpt>
      <trkpt lat="44.52595" lon="0.84335">
        <ele>192.4</ele>
        <time>2026-08-15T09:05:50Z</time>
      </trkpt>
      <trkpt lat="44.52597" lon="0.84337">
        <ele>192.4</ele>
        <time>2026-08-15T09:05:51Z</time>
      </trkpt>
      <trkpt lat="44.526" lon="0.84339">
        <ele>192.4</ele>
        <time>2026-08-15T09:05:52Z</time>
      </trkpt>
      <trkpt lat="44.52603" lon="0.8434">
        <ele>192.2</ele>
        <time>2026-08-15T09:05:53Z</time>
      </trkpt>
      <trkpt lat="44.52606" lon="0.84341">
        <ele>192.2</ele>
        <time>2026-08-15T09:05:54Z</time>
      </trkpt>
      <trkpt lat="44.52609" lon="0.84342">
        <ele>192.2</ele>
        <time>2026-08-15T09:05:55Z</time>
      </trkpt>
      <trkpt lat="44.52613" lon="0.84342">
        <ele>192</ele>
        <time>2026-08-15T09:05:56Z</time>
      </trkpt>
      <trkpt lat="44.52617" lon="0.84343">
        <ele>191.8</ele>
        <time>2026-08-15T09:05:57Z</time>
      </trkpt>
      <trkpt lat="44.52621" lon="0.84344">
        <ele>191.6</ele>
        <time>2026-08-15T09:05:58Z</time>
      </trkpt>
      <trkpt lat="44.52625" lon="0.84344">
        <ele>191.6</ele>
        <time>2026-08-15T09:05:59Z</time>
      </trkpt>
      <trkpt lat="44.52629" lon="0.84345">
        <ele>191.4</ele>
        <time>2026-08-15T09:06:00Z</time>
      </trkpt>
      <trkpt lat="44.52634" lon="0.84346">
        <ele>191.2</ele>
        <time>2026-08-15T09:06:01Z</time>
      </trkpt>
      <trkpt lat="44.52639" lon="0.84347">
        <ele>190.8</ele>
        <time>2026-08-15T09:06:02Z</time>
      </trkpt>
      <trkpt lat="44.52644" lon="0.84347">
        <ele>190.6</ele>
        <time>2026-08-15T09:06:03Z</time>
      </trkpt>
      <trkpt lat="44.52648" lon="0.84348">
        <ele>190.4</ele>
        <time>2026-08-15T09:06:04Z</time>
      </trkpt>
      <trkpt lat="44.52652" lon="0.84349">
        <ele>190.2</ele>
        <time>2026-08-15T09:06:05Z</time>
      </trkpt>
      <trkpt lat="44.52656" lon="0.84351">
        <ele>190.2</ele>
        <time>2026-08-15T09:06:06Z</time>
      </trkpt>
      <trkpt lat="44.5266" lon="0.84352">
        <ele>189.8</ele>
        <time>2026-08-15T09:06:07Z</time>
      </trkpt>
      <trkpt lat="44.52664" lon="0.84354">
        <ele>189.6</ele>
        <time>2026-08-15T09:06:08Z</time>
      </trkpt>
      <trkpt lat="44.52668" lon="0.84356">
        <ele>189.4</ele>
        <time>2026-08-15T09:06:09Z</time>
      </trkpt>
      <trkpt lat="44.5267" lon="0.84357">
        <ele>189.2</ele>
        <time>2026-08-15T09:06:10Z</time>
      </trkpt>
      <trkpt lat="44.52671" lon="0.84358">
        <ele>189</ele>
        <time>2026-08-15T09:06:11Z</time>
      </trkpt>
      <trkpt lat="44.52673" lon="0.84359">
        <ele>188.4</ele>
        <time>2026-08-15T09:06:36Z</time>
      </trkpt>
      <trkpt lat="44.52675" lon="0.8436">
        <ele>188.2</ele>
        <time>2026-08-15T09:06:37Z</time>
      </trkpt>
      <trkpt lat="44.52678" lon="0.84361">
        <ele>188</ele>
        <time>2026-08-15T09:06:38Z</time>
      </trkpt>
      <trkpt lat="44.52681" lon="0.84363">
        <ele>187.8</ele>
        <time>2026-08-15T09:06:39Z</time>
      </trkpt>
      <trkpt lat="44.52685" lon="0.84364">
        <ele>187.6</ele>
        <time>2026-08-15T09:06:40Z</time>
      </trkpt>
      <trkpt lat="44.52692" lon="0.84367">
        <ele>187.6</ele>
        <time>2026-08-15T09:06:41Z</time>
      </trkpt>
      <trkpt lat="44.52698" lon="0.84369">
        <ele>187.4</ele>
        <time>2026-08-15T09:06:42Z</time>
      </trkpt>
      <trkpt lat="44.52704" lon="0.84372">
        <ele>186.8</ele>
        <time>2026-08-15T09:06:43Z</time>
      </trkpt>
      <trkpt lat="44.5271" lon="0.84374">
        <ele>186.6</ele>
        <time>2026-08-15T09:06:44Z</time>
      </trkpt>
      <trkpt lat="44.52717" lon="0.84376">
        <ele>186.2</ele>
        <time>2026-08-15T09:06:45Z</time>
      </trkpt>
      <trkpt lat="44.52727" lon="0.84379">
        <ele>186</ele>
        <time>2026-08-15T09:06:46Z</time>
      </trkpt>
      <trkpt lat="44.52734" lon="0.84382">
        <ele>185.6</ele>
        <time>2026-08-15T09:06:47Z</time>
      </trkpt>
      <trkpt lat="44.52742" lon="0.84384">
        <ele>184.8</ele>
        <time>2026-08-15T09:06:48Z</time>
      </trkpt>
      <trkpt lat="44.5275" lon="0.84386">
        <ele>184.6</ele>
        <time>2026-08-15T09:06:49Z</time>
      </trkpt>
      <trkpt lat="44.52759" lon="0.84388">
        <ele>183.8</ele>
        <time>2026-08-15T09:06:50Z</time>
      </trkpt>
      <trkpt lat="44.52767" lon="0.84391">
        <ele>183.2</ele>
        <time>2026-08-15T09:06:51Z</time>
      </trkpt>
      <trkpt lat="44.52776" lon="0.84393">
        <ele>182.6</ele>
        <time>2026-08-15T09:06:52Z</time>
      </trkpt>
      <trkpt lat="44.52785" lon="0.84395">
        <ele>181.8</ele>
        <time>2026-08-15T09:06:53Z</time>
      </trkpt>
      <trkpt lat="44.52794" lon="0.84398">
        <ele>180.6</ele>
        <time>2026-08-15T09:06:54Z</time>
      </trkpt>
      <trkpt lat="44.52803" lon="0.84401">
        <ele>179.6</ele>
        <time>2026-08-15T09:06:55Z</time>
      </trkpt>
      <trkpt lat="44.52812" lon="0.84404">
        <ele>179.2</ele>
        <time>2026-08-15T09:06:56Z</time>
      </trkpt>
      <trkpt lat="44.52821" lon="0.84408">
        <ele>178.6</ele>
        <time>2026-08-15T09:06:57Z</time>
      </trkpt>
      <trkpt lat="44.52828" lon="0.84413">
        <ele>178.2</ele>
        <time>2026-08-15T09:06:58Z</time>
      </trkpt>
      <trkpt lat="44.52836" lon="0.84419">
        <ele>177.8</ele>
        <time>2026-08-15T09:06:59Z</time>
      </trkpt>
      <trkpt lat="44.52842" lon="0.84426">
        <ele>177.6</ele>
        <time>2026-08-15T09:07:00Z</time>
      </trkpt>
      <trkpt lat="44.52849" lon="0.84433">
        <ele>177.4</ele>
        <time>2026-08-15T09:07:01Z</time>
      </trkpt>
      <trkpt lat="44.52856" lon="0.84439">
        <ele>177.2</ele>
        <time>2026-08-15T09:07:02Z</time>
      </trkpt>
      <trkpt lat="44.52862" lon="0.84445">
        <ele>177.2</ele>
        <time>2026-08-15T09:07:03Z</time>
      </trkpt>
      <trkpt lat="44.52869" lon="0.84451">
        <ele>177</ele>
        <time>2026-08-15T09:07:04Z</time>
      </trkpt>
      <trkpt lat="44.52876" lon="0.84457">
        <ele>176.6</ele>
        <time>2026-08-15T09:07:05Z</time>
      </trkpt>
      <trkpt lat="44.52883" lon="0.84462">
        <ele>176.6</ele>
        <time>2026-08-15T09:07:06Z</time>
      </trkpt>
      <trkpt lat="44.52891" lon="0.84465">
        <ele>176.2</ele>
        <time>2026-08-15T09:07:07Z</time>
      </trkpt>
      <trkpt lat="44.52899" lon="0.84468">
        <ele>175.8</ele>
        <time>2026-08-15T09:07:08Z</time>
      </trkpt>
      <trkpt lat="44.52907" lon="0.8447">
        <ele>175.6</ele>
        <time>2026-08-15T09:07:09Z</time>
      </trkpt>
      <trkpt lat="44.52915" lon="0.8447">
        <ele>175.2</ele>
        <time>2026-08-15T09:07:10Z</time>
      </trkpt>
      <trkpt lat="44.52922" lon="0.84469">
        <ele>175</ele>
        <time>2026-08-15T09:07:11Z</time>
      </trkpt>
      <trkpt lat="44.52929" lon="0.84467">
        <ele>174.8</ele>
        <time>2026-08-15T09:07:12Z</time>
      </trkpt>
      <trkpt lat="44.52935" lon="0.84464">
        <ele>174.8</ele>
        <time>2026-08-15T09:07:13Z</time>
      </trkpt>
      <trkpt lat="44.5294" lon="0.84462">
        <ele>174.6</ele>
        <time>2026-08-15T09:07:14Z</time>
      </trkpt>
      <trkpt lat="44.52944" lon="0.84461">
        <ele>174.6</ele>
        <time>2026-08-15T09:07:15Z</time>
      </trkpt>
      <trkpt lat="44.52946" lon="0.8446">
        <ele>174.6</ele>
        <time>2026-08-15T09:07:16Z</time>
      </trkpt>
      <trkpt lat="44.52947" lon="0.8446">
        <ele>174.4</ele>
        <time>2026-08-15T09:07:17Z</time>
      </trkpt>
      <trkpt lat="44.52947" lon="0.8446">
        <ele>174.2</ele>
        <time>2026-08-15T09:07:18Z</time>
      </trkpt>
      <trkpt lat="44.52949" lon="0.84459">
        <ele>173.6</ele>
        <time>2026-08-15T09:08:32Z</time>
      </trkpt>
      <trkpt lat="44.52951" lon="0.84459">
        <ele>173.6</ele>
        <time>2026-08-15T09:08:33Z</time>
      </trkpt>
      <trkpt lat="44.52954" lon="0.84459">
        <ele>173.4</ele>
        <time>2026-08-15T09:08:34Z</time>
      </trkpt>
      <trkpt lat="44.52956" lon="0.84459">
        <ele>173.4</ele>
        <time>2026-08-15T09:08:35Z</time>
      </trkpt>
      <trkpt lat="44.52961" lon="0.84459">
        <ele>173.2</ele>
        <time>2026-08-15T09:08:36Z</time>
      </trkpt>
      <trkpt lat="44.52964" lon="0.8446">
        <ele>173.2</ele>
        <time>2026-08-15T09:08:37Z</time>
      </trkpt>
      <trkpt lat="44.52967" lon="0.84461">
        <ele>172.8</ele>
        <time>2026-08-15T09:08:38Z</time>
      </trkpt>
      <trkpt lat="44.5297" lon="0.84462">
        <ele>172.6</ele>
        <time>2026-08-15T09:08:39Z</time>
      </trkpt>
      <trkpt lat="44.52973" lon="0.84463">
        <ele>172.4</ele>
        <time>2026-08-15T09:08:40Z</time>
      </trkpt>
      <trkpt lat="44.52975" lon="0.84464">
        <ele>172.2</ele>
        <time>2026-08-15T09:08:41Z</time>
      </trkpt>
      <trkpt lat="44.52978" lon="0.84465">
        <ele>171.8</ele>
        <time>2026-08-15T09:08:42Z</time>
      </trkpt>
      <trkpt lat="44.52979" lon="0.84465">
        <ele>171.6</ele>
        <time>2026-08-15T09:08:43Z</time>
      </trkpt>
      <trkpt lat="44.52979" lon="0.84465">
        <ele>171.4</ele>
        <time>2026-08-15T09:08:44Z</time>
      </trkpt>
      <trkpt lat="44.52979" lon="0.84465">
        <ele>171</ele>
        <time>2026-08-15T09:08:45Z</time>
      </trkpt>
      <trkpt lat="44.52979" lon="0.84465">
        <ele>170.8</ele>
        <time>2026-08-15T09:08:46Z</time>
      </trkpt>
      <trkpt lat="44.52982" lon="0.84467">
        <ele>170.4</ele>
        <time>2026-08-15T09:09:11Z</time>
      </trkpt>
      <trkpt lat="44.52984" lon="0.84468">
        <ele>170.2</ele>
        <time>2026-08-15T09:09:12Z</time>
      </trkpt>
      <trkpt lat="44.52987" lon="0.84469">
        <ele>169.8</ele>
        <time>2026-08-15T09:09:13Z</time>
      </trkpt>
      <trkpt lat="44.52993" lon="0.84472">
        <ele>169.6</ele>
        <time>2026-08-15T09:09:14Z</time>
      </trkpt>
      <trkpt lat="44.52998" lon="0.84474">
        <ele>169.4</ele>
        <time>2026-08-15T09:09:15Z</time>
      </trkpt>
      <trkpt lat="44.53002" lon="0.84476">
        <ele>169.2</ele>
        <time>2026-08-15T09:09:16Z</time>
      </trkpt>
      <trkpt lat="44.53007" lon="0.84478">
        <ele>168.8</ele>
        <time>2026-08-15T09:09:17Z</time>
      </trkpt>
      <trkpt lat="44.53011" lon="0.84481">
        <ele>168.4</ele>
        <time>2026-08-15T09:09:18Z</time>
      </trkpt>
      <trkpt lat="44.53016" lon="0.84484">
        <ele>167.8</ele>
        <time>2026-08-15T09:09:19Z</time>
      </trkpt>
      <trkpt lat="44.53021" lon="0.84487">
        <ele>167.4</ele>
        <time>2026-08-15T09:09:20Z</time>
      </trkpt>
      <trkpt lat="44.53029" lon="0.84492">
        <ele>167</ele>
        <time>2026-08-15T09:09:21Z</time>
      </trkpt>
      <trkpt lat="44.53035" lon="0.84497">
        <ele>166.6</ele>
        <time>2026-08-15T09:09:22Z</time>
      </trkpt>
      <trkpt lat="44.53042" lon="0.84501">
        <ele>165.8</ele>
        <time>2026-08-15T09:09:23Z</time>
      </trkpt>
      <trkpt lat="44.5305" lon="0.84506">
        <ele>164.6</ele>
        <time>2026-08-15T09:09:24Z</time>
      </trkpt>
      <trkpt lat="44.53058" lon="0.84511">
        <ele>164</ele>
        <time>2026-08-15T09:09:25Z</time>
      </trkpt>
      <trkpt lat="44.53067" lon="0.84517">
        <ele>163.4</ele>
        <time>2026-08-15T09:09:26Z</time>
      </trkpt>
      <trkpt lat="44.53076" lon="0.84522">
        <ele>162.8</ele>
        <time>2026-08-15T09:09:27Z</time>
      </trkpt>
      <trkpt lat="44.53085" lon="0.84527">
        <ele>162.2</ele>
        <time>2026-08-15T09:09:28Z</time>
      </trkpt>
      <trkpt lat="44.53094" lon="0.84532">
        <ele>161.2</ele>
        <time>2026-08-15T09:09:29Z</time>
      </trkpt>
      <trkpt lat="44.53104" lon="0.84536">
        <ele>160.6</ele>
        <time>2026-08-15T09:09:30Z</time>
      </trkpt>
      <trkpt lat="44.53114" lon="0.84541">
        <ele>159.8</ele>
        <time>2026-08-15T09:09:31Z</time>
      </trkpt>
      <trkpt lat="44.53123" lon="0.84545">
        <ele>159.2</ele>
        <time>2026-08-15T09:09:32Z</time>
      </trkpt>
      <trkpt lat="44.53133" lon="0.84548">
        <ele>158.6</ele>
        <time>2026-08-15T09:09:33Z</time>
      </trkpt>
      <trkpt lat="44.53143" lon="0.84552">
        <ele>157.8</ele>
        <time>2026-08-15T09:09:34Z</time>
      </trkpt>
      <trkpt lat="44.53152" lon="0.84555">
        <ele>157.2</ele>
        <time>2026-08-15T09:09:35Z</time>
      </trkpt>
      <trkpt lat="44.53162" lon="0.84558">
        <ele>156.6</ele>
        <time>2026-08-15T09:09:36Z</time>
      </trkpt>
      <trkpt lat="44.53171" lon="0.84561">
        <ele>156.4</ele>
        <time>2026-08-15T09:09:37Z</time>
      </trkpt>
      <trkpt lat="44.53179" lon="0.84564">
        <ele>156.2</ele>
        <time>2026-08-15T09:09:38Z</time>
      </trkpt>
      <trkpt lat="44.53187" lon="0.84567">
        <ele>155.8</ele>
        <time>2026-08-15T09:09:39Z</time>
      </trkpt>
      <trkpt lat="44.53195" lon="0.8457">
        <ele>155.2</ele>
        <time>2026-08-15T09:09:40Z</time>
      </trkpt>
      <trkpt lat="44.53204" lon="0.84572">
        <ele>154.6</ele>
        <time>2026-08-15T09:09:41Z</time>
        <extensions>
          <visugpx:TrkExtension xmlns:visugpx="https://www.visugpx.com/editgpx/">
            <visugpx:node>1</visugpx:node>
            </visugpx:TrkExtension>
        </extensions>
      </trkpt>
    </trkseg>
  </trk>
  <trk>
    <name><![CDATA[Piste nickel]]></name>
    <extensions>
      <line xmlns="http://www.topografix.com/GPX/gpx_style/0/2">
        <color>008800</color>
        <opacity>1</opacity>
        <width>4</width>
      </line>
    </extensions>
    <trkseg>
      <trkpt lat="44.5606" lon="0.79489">
        <ele>87.1</ele>
        <extensions>
          <visugpx:TrkExtension xmlns:visugpx="https://www.visugpx.com/editgpx/">
            <visugpx:node>1</visugpx:node>
            </visugpx:TrkExtension>
        </extensions>
      </trkpt>
      <trkpt lat="44.56022" lon="0.79521">
        <ele>87</ele>
      </trkpt>
      <trkpt lat="44.55973" lon="0.79536">
        <ele>87</ele>
      </trkpt>
      <trkpt lat="44.55915" lon="0.7953">
        <ele>87</ele>
      </trkpt>
      <trkpt lat="44.5587" lon="0.79511">
        <ele>87</ele>
      </trkpt>
      <trkpt lat="44.55856" lon="0.7951">
        <ele>87.1</ele>
      </trkpt>
      <trkpt lat="44.55827" lon="0.79522">
        <ele>87.4</ele>
      </trkpt>
      <trkpt lat="44.55808" lon="0.79522">
        <ele>87.9</ele>
      </trkpt>
      <trkpt lat="44.55781" lon="0.79514">
        <ele>88</ele>
      </trkpt>
      <trkpt lat="44.55622" lon="0.79421">
        <ele>88</ele>
      </trkpt>
      <trkpt lat="44.55569" lon="0.79395">
        <ele>89.5</ele>
      </trkpt>
      <trkpt lat="44.55488" lon="0.79369">
        <ele>92.6</ele>
      </trkpt>
      <trkpt lat="44.5544" lon="0.79328">
        <ele>94.6</ele>
      </trkpt>
    </trkseg>
  </trk>
  <trk>
    <name><![CDATA[Montflanquin Gravel_9]]></name>
    <extensions>
      <line xmlns="http://www.topografix.com/GPX/gpx_style/0/2">
        <color>880000</color>
        <opacity>1</opacity>
        <width>4</width>
      </line>
    </extensions>
    <trkseg>
      <trkpt lat="44.55303" lon="0.87813">
        <ele>107.7</ele>
      </trkpt>
      <trkpt lat="44.55346" lon="0.87761">
        <ele>114.4</ele>
      </trkpt>
      <trkpt lat="44.55405" lon="0.87693">
        <ele>126.9</ele>
      </trkpt>
      <trkpt lat="44.55453" lon="0.87637">
        <ele>135.8</ele>
      </trkpt>
      <trkpt lat="44.55476" lon="0.87583">
        <ele>144.6</ele>
      </trkpt>
      <trkpt lat="44.55488" lon="0.87564">
        <ele>147.7</ele>
      </trkpt>
      <trkpt lat="44.55507" lon="0.87547">
        <ele>151.1</ele>
      </trkpt>
      <trkpt lat="44.55556" lon="0.87515">
        <ele>157.5</ele>
      </trkpt>
      <trkpt lat="44.55591" lon="0.8749">
        <ele>161.7</ele>
      </trkpt>
      <trkpt lat="44.55643" lon="0.87442">
        <ele>167.1</ele>
      </trkpt>
      <trkpt lat="44.55685" lon="0.87401">
        <ele>167.9</ele>
      </trkpt>
      <trkpt lat="44.55735" lon="0.87343">
        <ele>167</ele>
      </trkpt>
      <trkpt lat="44.55782" lon="0.87298">
        <ele>167.4</ele>
      </trkpt>
      <trkpt lat="44.55798" lon="0.87284">
        <ele>168.7</ele>
      </trkpt>
      <trkpt lat="44.55811" lon="0.8728">
        <ele>169.5</ele>
      </trkpt>
      <trkpt lat="44.55883" lon="0.87267">
        <ele>176.4</ele>
      </trkpt>
      <trkpt lat="44.55923" lon="0.87261">
        <ele>179.7</ele>
      </trkpt>
      <trkpt lat="44.55957" lon="0.8726">
        <ele>182.3</ele>
      </trkpt>
      <trkpt lat="44.55998" lon="0.87261">
        <ele>186.5</ele>
      </trkpt>
      <trkpt lat="44.56074" lon="0.87261">
        <ele>190.7</ele>
      </trkpt>
      <trkpt lat="44.56093" lon="0.8726">
        <ele>191</ele>
      </trkpt>
      <trkpt lat="44.56123" lon="0.87264">
        <ele>191.5</ele>
      </trkpt>
      <trkpt lat="44.56165" lon="0.87272">
        <ele>191.8</ele>
      </trkpt>
      <trkpt lat="44.56202" lon="0.87276">
        <ele>192.2</ele>
      </trkpt>
      <trkpt lat="44.56239" lon="0.87272">
        <ele>193.1</ele>
      </trkpt>
      <trkpt lat="44.56269" lon="0.87268">
        <ele>193.5</ele>
      </trkpt>
      <trkpt lat="44.56302" lon="0.87258">
        <ele>194.4</ele>
        <extensions>
          <visugpx:TrkExtension xmlns:visugpx="https://www.visugpx.com/editgpx/">
            <visugpx:node>1</visugpx:node>
            </visugpx:TrkExtension>
        </extensions>
      </trkpt>
      <trkpt lat="44.56305" lon="0.87257">
        <ele>194.5</ele>
      </trkpt>
      <trkpt lat="44.56335" lon="0.87241">
        <ele>195.8</ele>
      </trkpt>
      <trkpt lat="44.56366" lon="0.87222">
        <ele>197.4</ele>
      </trkpt>
      <trkpt lat="44.56379" lon="0.87218">
        <ele>198.2</ele>
      </trkpt>
      <trkpt lat="44.56384" lon="0.87216">
        <ele>198.6</ele>
      </trkpt>
      <trkpt lat="44.56404" lon="0.87212">
        <ele>199.5</ele>
      </trkpt>
      <trkpt lat="44.56423" lon="0.87208">
        <ele>199.6</ele>
      </trkpt>
      <trkpt lat="44.5645" lon="0.87207">
        <ele>198.1</ele>
      </trkpt>
      <trkpt lat="44.56507" lon="0.87208">
        <ele>195.5</ele>
      </trkpt>
      <trkpt lat="44.56544" lon="0.87206">
        <ele>196.4</ele>
      </trkpt>
      <trkpt lat="44.56606" lon="0.87203">
        <ele>199.3</ele>
      </trkpt>
      <trkpt lat="44.56633" lon="0.87204">
        <ele>201.2</ele>
      </trkpt>
      <trkpt lat="44.56648" lon="0.87202">
        <ele>202.1</ele>
      </trkpt>
      <trkpt lat="44.56684" lon="0.87193">
        <ele>203.6</ele>
      </trkpt>
      <trkpt lat="44.56713" lon="0.87186">
        <ele>203.5</ele>
      </trkpt>
      <trkpt lat="44.56791" lon="0.87167">
        <ele>201.5</ele>
      </trkpt>
      <trkpt lat="44.5682" lon="0.87157">
        <ele>201</ele>
      </trkpt>
      <trkpt lat="44.56835" lon="0.87153">
        <ele>201</ele>
      </trkpt>
      <trkpt lat="44.56853" lon="0.87152">
        <ele>200.6</ele>
      </trkpt>
      <trkpt lat="44.56875" lon="0.87153">
        <ele>200.8</ele>
      </trkpt>
      <trkpt lat="44.56941" lon="0.8714">
        <ele>201.1</ele>
      </trkpt>
      <trkpt lat="44.56978" lon="0.87135">
        <ele>200.8</ele>
      </trkpt>
      <trkpt lat="44.56996" lon="0.87131">
        <ele>200.7</ele>
      </trkpt>
      <trkpt lat="44.57015" lon="0.87121">
        <ele>199.8</ele>
      </trkpt>
      <trkpt lat="44.57042" lon="0.87107">
        <ele>199.5</ele>
      </trkpt>
      <trkpt lat="44.57065" lon="0.87095">
        <ele>199.4</ele>
      </trkpt>
      <trkpt lat="44.57088" lon="0.87076">
        <ele>199.7</ele>
      </trkpt>
      <trkpt lat="44.57105" lon="0.87054">
        <ele>200</ele>
      </trkpt>
      <trkpt lat="44.57138" lon="0.87011">
        <ele>198.7</ele>
      </trkpt>
      <trkpt lat="44.5715" lon="0.86997">
        <ele>198.1</ele>
      </trkpt>
      <trkpt lat="44.57161" lon="0.86991">
        <ele>198.4</ele>
      </trkpt>
      <trkpt lat="44.5717" lon="0.86994">
        <ele>198.8</ele>
      </trkpt>
      <trkpt lat="44.57171" lon="0.86987">
        <ele>198.5</ele>
      </trkpt>
      <trkpt lat="44.57203" lon="0.86915">
        <ele>197.3</ele>
      </trkpt>
      <trkpt lat="44.5722" lon="0.86889">
        <ele>197</ele>
      </trkpt>
      <trkpt lat="44.57214" lon="0.86875">
        <ele>197</ele>
      </trkpt>
      <trkpt lat="44.57251" lon="0.86755">
        <ele>197.7</ele>
        <extensions>
          <visugpx:TrkExtension xmlns:visugpx="https://www.visugpx.com/editgpx/">
            <visugpx:node>2</visugpx:node>
            </visugpx:TrkExtension>
        </extensions>
      </trkpt>
      <trkpt lat="44.57252" lon="0.86753">
        <ele>197.8</ele>
      </trkpt>
      <trkpt lat="44.57305" lon="0.86634">
        <ele>199</ele>
      </trkpt>
      <trkpt lat="44.57346" lon="0.86526">
        <ele>198.2</ele>
      </trkpt>
      <trkpt lat="44.57355" lon="0.86488">
        <ele>198.9</ele>
      </trkpt>
      <trkpt lat="44.57359" lon="0.86442">
        <ele>199.8</ele>
      </trkpt>
      <trkpt lat="44.57354" lon="0.86422">
        <ele>199.5</ele>
      </trkpt>
      <trkpt lat="44.5734" lon="0.86384">
        <ele>198.4</ele>
      </trkpt>
      <trkpt lat="44.57333" lon="0.86345">
        <ele>198</ele>
      </trkpt>
      <trkpt lat="44.57313" lon="0.86121">
        <ele>193.9</ele>
      </trkpt>
      <trkpt lat="44.5732" lon="0.86061">
        <ele>191.8</ele>
      </trkpt>
      <trkpt lat="44.57333" lon="0.86021">
        <ele>190.5</ele>
      </trkpt>
      <trkpt lat="44.57342" lon="0.86005">
        <ele>189.9</ele>
      </trkpt>
      <trkpt lat="44.57357" lon="0.86008">
        <ele>191.1</ele>
      </trkpt>
      <trkpt lat="44.57365" lon="0.86014">
        <ele>191.4</ele>
      </trkpt>
      <trkpt lat="44.57381" lon="0.86027">
        <ele>191.3</ele>
      </trkpt>
      <trkpt lat="44.57401" lon="0.86043">
        <ele>190.2</ele>
      </trkpt>
      <trkpt lat="44.57414" lon="0.86052">
        <ele>189.1</ele>
        <extensions>
          <visugpx:TrkExtension xmlns:visugpx="https://www.visugpx.com/editgpx/">
            <visugpx:node>3</visugpx:node>
            </visugpx:TrkExtension>
        </extensions>
      </trkpt>
      <trkpt lat="44.57422" lon="0.86058">
        <ele>188.9</ele>
      </trkpt>
      <trkpt lat="44.5745" lon="0.86068">
        <ele>188.7</ele>
      </trkpt>
      <trkpt lat="44.57482" lon="0.86069">
        <ele>187.5</ele>
      </trkpt>
      <trkpt lat="44.57538" lon="0.86063">
        <ele>185.5</ele>
      </trkpt>
      <trkpt lat="44.57576" lon="0.86052">
        <ele>185</ele>
      </trkpt>
      <trkpt lat="44.57704" lon="0.85984">
        <ele>183.6</ele>
      </trkpt>
      <trkpt lat="44.57865" lon="0.85909">
        <ele>178.1</ele>
      </trkpt>
      <trkpt lat="44.58103" lon="0.85797">
        <ele>181.2</ele>
      </trkpt>
      <trkpt lat="44.58165" lon="0.85758">
        <ele>179.4</ele>
      </trkpt>
      <trkpt lat="44.58195" lon="0.85706">
        <ele>180.5</ele>
      </trkpt>
      <trkpt lat="44.58243" lon="0.85609">
        <ele>181.6</ele>
      </trkpt>
      <trkpt lat="44.5844" lon="0.85539">
        <ele>183.2</ele>
      </trkpt>
      <trkpt lat="44.58487" lon="0.85493">
        <ele>182.5</ele>
      </trkpt>
      <trkpt lat="44.58515" lon="0.85475">
        <ele>181</ele>
      </trkpt>
      <trkpt lat="44.58553" lon="0.85471">
        <ele>179.2</ele>
      </trkpt>
      <trkpt lat="44.58595" lon="0.85478">
        <ele>178.6</ele>
      </trkpt>
      <trkpt lat="44.58816" lon="0.85531">
        <ele>175.8</ele>
        <extensions>
          <visugpx:TrkExtension xmlns:visugpx="https://www.visugpx.com/editgpx/">
            <visugpx:node>4</visugpx:node>
            </visugpx:TrkExtension>
        </extensions>
      </trkpt>
      <trkpt lat="44.58829" lon="0.85534">
        <ele>175.6</ele>
      </trkpt>
      <trkpt lat="44.58824" lon="0.85493">
        <ele>177.3</ele>
      </trkpt>
      <trkpt lat="44.58824" lon="0.85459">
        <ele>178.5</ele>
      </trkpt>
      <trkpt lat="44.58829" lon="0.85429">
        <ele>178.6</ele>
      </trkpt>
      <trkpt lat="44.58838" lon="0.85406">
        <ele>177.6</ele>
      </trkpt>
      <trkpt lat="44.58901" lon="0.85314">
        <ele>172</ele>
      </trkpt>
      <trkpt lat="44.58923" lon="0.85287">
        <ele>170.1</ele>
      </trkpt>
      <trkpt lat="44.58935" lon="0.85277">
        <ele>169.4</ele>
      </trkpt>
      <trkpt lat="44.58947" lon="0.85271">
        <ele>169</ele>
        <extensions>
          <visugpx:TrkExtension xmlns:visugpx="https://www.visugpx.com/editgpx/">
            <visugpx:node>5</visugpx:node>
            </visugpx:TrkExtension>
        </extensions>
      </trkpt>
      <trkpt lat="44.5895" lon="0.85269">
        <ele>168.8</ele>
      </trkpt>
      <trkpt lat="44.58958" lon="0.85261">
        <ele>168.4</ele>
      </trkpt>
      <trkpt lat="44.58986" lon="0.85219">
        <ele>168</ele>
      </trkpt>
      <trkpt lat="44.58997" lon="0.85206">
        <ele>167.2</ele>
      </trkpt>
      <trkpt lat="44.59001" lon="0.85201">
        <ele>167</ele>
      </trkpt>
      <trkpt lat="44.5902" lon="0.85188">
        <ele>166.8</ele>
      </trkpt>
      <trkpt lat="44.59041" lon="0.85176">
        <ele>166.2</ele>
      </trkpt>
      <trkpt lat="44.59066" lon="0.85167">
        <ele>166</ele>
      </trkpt>
      <trkpt lat="44.59099" lon="0.85159">
        <ele>165.5</ele>
      </trkpt>
      <trkpt lat="44.59126" lon="0.85152">
        <ele>165.2</ele>
      </trkpt>
      <trkpt lat="44.5914" lon="0.85143">
        <ele>165</ele>
      </trkpt>
      <trkpt lat="44.59191" lon="0.85105">
        <ele>163.8</ele>
      </trkpt>
      <trkpt lat="44.59206" lon="0.85093">
        <ele>162.8</ele>
      </trkpt>
      <trkpt lat="44.59233" lon="0.85072">
        <ele>161.5</ele>
      </trkpt>
      <trkpt lat="44.59246" lon="0.85067">
        <ele>161.6</ele>
      </trkpt>
      <trkpt lat="44.59271" lon="0.85052">
        <ele>161.4</ele>
      </trkpt>
      <trkpt lat="44.59291" lon="0.85039">
        <ele>161.7</ele>
      </trkpt>
      <trkpt lat="44.59307" lon="0.85023">
        <ele>162.3</ele>
      </trkpt>
      <trkpt lat="44.59317" lon="0.8501">
        <ele>162.6</ele>
      </trkpt>
      <trkpt lat="44.59321" lon="0.85001">
        <ele>162.8</ele>
      </trkpt>
      <trkpt lat="44.59325" lon="0.84986">
        <ele>163.3</ele>
      </trkpt>
      <trkpt lat="44.59329" lon="0.84972">
        <ele>164</ele>
      </trkpt>
      <trkpt lat="44.59337" lon="0.8496">
        <ele>163.8</ele>
      </trkpt>
      <trkpt lat="44.59375" lon="0.84919">
        <ele>162.4</ele>
      </trkpt>
      <trkpt lat="44.59395" lon="0.84896">
        <ele>162.1</ele>
      </trkpt>
      <trkpt lat="44.59399" lon="0.84885">
        <ele>162.4</ele>
      </trkpt>
      <trkpt lat="44.59399" lon="0.84867">
        <ele>163.1</ele>
      </trkpt>
      <trkpt lat="44.59399" lon="0.84843">
        <ele>162.5</ele>
      </trkpt>
      <trkpt lat="44.59398" lon="0.84833">
        <ele>162</ele>
      </trkpt>
      <trkpt lat="44.59397" lon="0.84824">
        <ele>161.7</ele>
      </trkpt>
      <trkpt lat="44.59389" lon="0.84805">
        <ele>160.9</ele>
      </trkpt>
      <trkpt lat="44.59375" lon="0.84783">
        <ele>158.1</ele>
      </trkpt>
      <trkpt lat="44.59359" lon="0.84761">
        <ele>154.4</ele>
      </trkpt>
      <trkpt lat="44.5935" lon="0.84743">
        <ele>151.3</ele>
      </trkpt>
      <trkpt lat="44.59339" lon="0.84712">
        <ele>147.7</ele>
      </trkpt>
      <trkpt lat="44.59329" lon="0.84687">
        <ele>145.4</ele>
      </trkpt>
      <trkpt lat="44.59315" lon="0.84648">
        <ele>143.6</ele>
      </trkpt>
      <trkpt lat="44.59306" lon="0.84611">
        <ele>142</ele>
      </trkpt>
      <trkpt lat="44.59305" lon="0.84607">
        <ele>141.9</ele>
        <extensions>
          <visugpx:TrkExtension xmlns:visugpx="https://www.visugpx.com/editgpx/">
            <visugpx:node>6</visugpx:node>
            </visugpx:TrkExtension>
        </extensions>
      </trkpt>
      <trkpt lat="44.593" lon="0.84581">
        <ele>141.3</ele>
      </trkpt>
      <trkpt lat="44.593" lon="0.84557">
        <ele>140.2</ele>
      </trkpt>
      <trkpt lat="44.59303" lon="0.84529">
        <ele>139.3</ele>
      </trkpt>
      <trkpt lat="44.59305" lon="0.84515">
        <ele>138.6</ele>
      </trkpt>
      <trkpt lat="44.59307" lon="0.84495">
        <ele>138.1</ele>
      </trkpt>
      <trkpt lat="44.59305" lon="0.84477">
        <ele>138.1</ele>
      </trkpt>
      <trkpt lat="44.59301" lon="0.84449">
        <ele>138.3</ele>
      </trkpt>
      <trkpt lat="44.59294" lon="0.84423">
        <ele>137.7</ele>
      </trkpt>
      <trkpt lat="44.59285" lon="0.844">
        <ele>136.2</ele>
      </trkpt>
      <trkpt lat="44.59271" lon="0.84374">
        <ele>134.7</ele>
      </trkpt>
      <trkpt lat="44.59259" lon="0.84357">
        <ele>134.6</ele>
      </trkpt>
      <trkpt lat="44.59247" lon="0.84344">
        <ele>134.3</ele>
      </trkpt>
      <trkpt lat="44.59223" lon="0.84325">
        <ele>134.6</ele>
      </trkpt>
      <trkpt lat="44.59201" lon="0.84301">
        <ele>135.5</ele>
      </trkpt>
      <trkpt lat="44.59185" lon="0.84282">
        <ele>136.3</ele>
      </trkpt>
      <trkpt lat="44.59168" lon="0.84258">
        <ele>137.1</ele>
      </trkpt>
      <trkpt lat="44.59147" lon="0.8422">
        <ele>138.8</ele>
      </trkpt>
      <trkpt lat="44.59124" lon="0.84172">
        <ele>141.3</ele>
      </trkpt>
      <trkpt lat="44.59113" lon="0.84143">
        <ele>144.5</ele>
      </trkpt>
      <trkpt lat="44.59107" lon="0.84117">
        <ele>147.6</ele>
      </trkpt>
      <trkpt lat="44.59105" lon="0.841">
        <ele>149.1</ele>
      </trkpt>
      <trkpt lat="44.59105" lon="0.84073">
        <ele>150.7</ele>
      </trkpt>
      <trkpt lat="44.59108" lon="0.84039">
        <ele>152.4</ele>
      </trkpt>
      <trkpt lat="44.59114" lon="0.84">
        <ele>153.9</ele>
      </trkpt>
      <trkpt lat="44.59117" lon="0.83984">
        <ele>154.8</ele>
      </trkpt>
      <trkpt lat="44.59125" lon="0.83971">
        <ele>155</ele>
      </trkpt>
      <trkpt lat="44.59143" lon="0.8394">
        <ele>153.9</ele>
      </trkpt>
      <trkpt lat="44.59158" lon="0.83907">
        <ele>152.9</ele>
      </trkpt>
      <trkpt lat="44.59174" lon="0.83871">
        <ele>151.3</ele>
      </trkpt>
      <trkpt lat="44.59179" lon="0.83858">
        <ele>150.9</ele>
      </trkpt>
      <trkpt lat="44.59183" lon="0.83845">
        <ele>150.5</ele>
      </trkpt>
      <trkpt lat="44.59191" lon="0.83809">
        <ele>149.9</ele>
      </trkpt>
      <trkpt lat="44.59194" lon="0.83785">
        <ele>150</ele>
      </trkpt>
      <trkpt lat="44.59194" lon="0.8377">
        <ele>149.7</ele>
      </trkpt>
      <trkpt lat="44.59194" lon="0.83708">
        <ele>149</ele>
      </trkpt>
      <trkpt lat="44.59196" lon="0.8369">
        <ele>148.9</ele>
      </trkpt>
      <trkpt lat="44.59201" lon="0.83675">
        <ele>148.7</ele>
      </trkpt>
      <trkpt lat="44.59208" lon="0.8366">
        <ele>148.2</ele>
      </trkpt>
      <trkpt lat="44.5924" lon="0.83597">
        <ele>146.3</ele>
      </trkpt>
      <trkpt lat="44.5924" lon="0.83597">
        <ele>146.3</ele>
        <extensions>
          <visugpx:TrkExtension xmlns:visugpx="https://www.visugpx.com/editgpx/">
            <visugpx:node>7</visugpx:node>
            </visugpx:TrkExtension>
        </extensions>
      </trkpt>
    </trkseg>
  </trk>
  <trk>
    <name><![CDATA[Single]]></name>
    <extensions>
      <line xmlns="http://www.topografix.com/GPX/gpx_style/0/2">
        <color>FF0066</color>
        <opacity>1</opacity>
        <width>4</width>
      </line>
    </extensions>
    <trkseg>
      <trkpt lat="44.59412" lon="0.84818">
        <ele>161.9</ele>
      </trkpt>
      <trkpt lat="44.59447" lon="0.8477">
        <ele>162</ele>
      </trkpt>
      <trkpt lat="44.5939" lon="0.84572">
        <ele>158.2</ele>
      </trkpt>
      <trkpt lat="44.59395" lon="0.84548">
        <ele>156.7</ele>
      </trkpt>
      <trkpt lat="44.59492" lon="0.84443">
        <ele>153.9</ele>
      </trkpt>
      <trkpt lat="44.59655" lon="0.84288">
        <ele>154.3</ele>
      </trkpt>
      <trkpt lat="44.59701" lon="0.84213">
        <ele>148.5</ele>
      </trkpt>
      <trkpt lat="44.59719" lon="0.84198">
        <ele>147.4</ele>
      </trkpt>
      <trkpt lat="44.59796" lon="0.84071">
        <ele>142.6</ele>
      </trkpt>
      <trkpt lat="44.59849" lon="0.84">
        <ele>144.6</ele>
      </trkpt>
      <trkpt lat="44.59914" lon="0.84116">
        <ele>145.9</ele>
      </trkpt>
      <trkpt lat="44.5996" lon="0.84226">
        <ele>137.9</ele>
      </trkpt>
      <trkpt lat="44.59965" lon="0.84231">
        <ele>137.6</ele>
        <extensions>
          <visugpx:TrkExtension xmlns:visugpx="https://www.visugpx.com/editgpx/">
            <visugpx:node>1</visugpx:node>
            </visugpx:TrkExtension>
        </extensions>
      </trkpt>
      <trkpt lat="44.59984" lon="0.8425">
        <ele>135.4</ele>
      </trkpt>
      <trkpt lat="44.60056" lon="0.84267">
        <ele>126.5</ele>
      </trkpt>
      <trkpt lat="44.60082" lon="0.84305">
        <ele>126.9</ele>
      </trkpt>
      <trkpt lat="44.60106" lon="0.84273">
        <ele>125.5</ele>
      </trkpt>
      <trkpt lat="44.60119" lon="0.84245">
        <ele>124</ele>
      </trkpt>
      <trkpt lat="44.60139" lon="0.84147">
        <ele>123</ele>
      </trkpt>
      <trkpt lat="44.60154" lon="0.84141">
        <ele>124.5</ele>
      </trkpt>
      <trkpt lat="44.60167" lon="0.84128">
        <ele>127</ele>
      </trkpt>
      <trkpt lat="44.60178" lon="0.84103">
        <ele>130.8</ele>
      </trkpt>
      <trkpt lat="44.60195" lon="0.8409">
        <ele>134.2</ele>
      </trkpt>
      <trkpt lat="44.60203" lon="0.84077">
        <ele>135.6</ele>
      </trkpt>
      <trkpt lat="44.60213" lon="0.8407">
        <ele>137.5</ele>
      </trkpt>
      <trkpt lat="44.60248" lon="0.84097">
        <ele>142.8</ele>
      </trkpt>
      <trkpt lat="44.60275" lon="0.84102">
        <ele>144.8</ele>
      </trkpt>
      <trkpt lat="44.60299" lon="0.84102">
        <ele>146.3</ele>
      </trkpt>
      <trkpt lat="44.60357" lon="0.8408">
        <ele>146</ele>
      </trkpt>
      <trkpt lat="44.60402" lon="0.8408">
        <ele>146.9</ele>
      </trkpt>
      <trkpt lat="44.60419" lon="0.84077">
        <ele>147.1</ele>
      </trkpt>
      <trkpt lat="44.60493" lon="0.84038">
        <ele>148.8</ele>
      </trkpt>
      <trkpt lat="44.60494" lon="0.8405">
        <ele>149</ele>
        <extensions>
          <visugpx:TrkExtension xmlns:visugpx="https://www.visugpx.com/editgpx/">
            <visugpx:node>2</visugpx:node>
            </visugpx:TrkExtension>
        </extensions>
      </trkpt>
      <trkpt lat="44.60502" lon="0.8408">
        <ele>148</ele>
      </trkpt>
      <trkpt lat="44.60518" lon="0.84094">
        <ele>146.7</ele>
      </trkpt>
      <trkpt lat="44.60561" lon="0.84119">
        <ele>144.7</ele>
      </trkpt>
      <trkpt lat="44.60599" lon="0.84145">
        <ele>145.6</ele>
      </trkpt>
      <trkpt lat="44.60605" lon="0.84152">
        <ele>146.2</ele>
      </trkpt>
      <trkpt lat="44.606" lon="0.84159">
        <ele>145.5</ele>
      </trkpt>
      <trkpt lat="44.60587" lon="0.84195">
        <ele>143.6</ele>
      </trkpt>
      <trkpt lat="44.60587" lon="0.84205">
        <ele>143.8</ele>
      </trkpt>
      <trkpt lat="44.60593" lon="0.84213">
        <ele>144.6</ele>
      </trkpt>
      <trkpt lat="44.606" lon="0.84218">
        <ele>145.3</ele>
      </trkpt>
      <trkpt lat="44.60608" lon="0.84231">
        <ele>146</ele>
      </trkpt>
      <trkpt lat="44.60617" lon="0.84268">
        <ele>147.4</ele>
      </trkpt>
      <trkpt lat="44.60636" lon="0.84304">
        <ele>150.7</ele>
      </trkpt>
      <trkpt lat="44.60656" lon="0.84382">
        <ele>157.3</ele>
      </trkpt>
      <trkpt lat="44.60702" lon="0.8445">
        <ele>160.9</ele>
        <extensions>
          <visugpx:TrkExtension xmlns:visugpx="https://www.visugpx.com/editgpx/">
            <visugpx:node>3</visugpx:node>
            </visugpx:TrkExtension>
        </extensions>
      </trkpt>
      <trkpt lat="44.6074" lon="0.84491">
        <ele>160.5</ele>
      </trkpt>
      <trkpt lat="44.60866" lon="0.84662">
        <ele>158.5</ele>
      </trkpt>
      <trkpt lat="44.60876" lon="0.8467">
        <ele>158.7</ele>
      </trkpt>
      <trkpt lat="44.60885" lon="0.84703">
        <ele>160.5</ele>
      </trkpt>
      <trkpt lat="44.60893" lon="0.8472">
        <ele>160.9</ele>
      </trkpt>
      <trkpt lat="44.60898" lon="0.84718">
        <ele>160.8</ele>
      </trkpt>
      <trkpt lat="44.60907" lon="0.84707">
        <ele>160.1</ele>
      </trkpt>
      <trkpt lat="44.60917" lon="0.84702">
        <ele>159.6</ele>
      </trkpt>
      <trkpt lat="44.60936" lon="0.8468">
        <ele>158.7</ele>
      </trkpt>
      <trkpt lat="44.60944" lon="0.84676">
        <ele>158.7</ele>
      </trkpt>
      <trkpt lat="44.60965" lon="0.84688">
        <ele>159.7</ele>
      </trkpt>
      <trkpt lat="44.60999" lon="0.84695">
        <ele>157.1</ele>
      </trkpt>
      <trkpt lat="44.6102" lon="0.84673">
        <ele>154.7</ele>
      </trkpt>
      <trkpt lat="44.61024" lon="0.8465">
        <ele>153.8</ele>
        <extensions>
          <visugpx:TrkExtension xmlns:visugpx="https://www.visugpx.com/editgpx/">
            <visugpx:node>4</visugpx:node>
            </visugpx:TrkExtension>
        </extensions>
      </trkpt>
      <trkpt lat="44.61045" lon="0.84535">
        <ele>147.3</ele>
      </trkpt>
      <trkpt lat="44.61058" lon="0.84498">
        <ele>145</ele>
      </trkpt>
      <trkpt lat="44.61061" lon="0.84477">
        <ele>144.4</ele>
      </trkpt>
      <trkpt lat="44.6107" lon="0.84469">
        <ele>144.3</ele>
      </trkpt>
      <trkpt lat="44.6108" lon="0.84474">
        <ele>145</ele>
      </trkpt>
      <trkpt lat="44.61099" lon="0.84525">
        <ele>146.6</ele>
      </trkpt>
      <trkpt lat="44.61114" lon="0.84555">
        <ele>148.3</ele>
      </trkpt>
      <trkpt lat="44.61112" lon="0.84606">
        <ele>149.9</ele>
      </trkpt>
      <trkpt lat="44.61199" lon="0.84685">
        <ele>152.8</ele>
      </trkpt>
      <trkpt lat="44.6124" lon="0.84685">
        <ele>151</ele>
      </trkpt>
      <trkpt lat="44.61252" lon="0.8468">
        <ele>150.3</ele>
      </trkpt>
      <trkpt lat="44.61287" lon="0.84688">
        <ele>149.3</ele>
      </trkpt>
      <trkpt lat="44.61315" lon="0.84721">
        <ele>153.6</ele>
      </trkpt>
      <trkpt lat="44.61332" lon="0.84749">
        <ele>155.9</ele>
      </trkpt>
      <trkpt lat="44.61338" lon="0.84786">
        <ele>158.6</ele>
      </trkpt>
      <trkpt lat="44.61346" lon="0.84794">
        <ele>159.5</ele>
      </trkpt>
      <trkpt lat="44.61369" lon="0.84807">
        <ele>160.7</ele>
      </trkpt>
      <trkpt lat="44.61368" lon="0.84841">
        <ele>160.8</ele>
      </trkpt>
      <trkpt lat="44.61381" lon="0.84893">
        <ele>161.4</ele>
      </trkpt>
      <trkpt lat="44.61404" lon="0.8496">
        <ele>162.2</ele>
      </trkpt>
      <trkpt lat="44.61414" lon="0.84976">
        <ele>161.3</ele>
      </trkpt>
      <trkpt lat="44.61418" lon="0.85002">
        <ele>162.1</ele>
      </trkpt>
      <trkpt lat="44.6141" lon="0.85023">
        <ele>162.9</ele>
      </trkpt>
      <trkpt lat="44.61402" lon="0.85032">
        <ele>163.1</ele>
      </trkpt>
      <trkpt lat="44.61377" lon="0.85178">
        <ele>167.5</ele>
      </trkpt>
      <trkpt lat="44.61383" lon="0.85207">
        <ele>169</ele>
      </trkpt>
      <trkpt lat="44.6138" lon="0.85231">
        <ele>169.8</ele>
      </trkpt>
      <trkpt lat="44.61362" lon="0.85292">
        <ele>173.1</ele>
      </trkpt>
      <trkpt lat="44.61336" lon="0.85347">
        <ele>172</ele>
      </trkpt>
      <trkpt lat="44.6131" lon="0.85378">
        <ele>170.9</ele>
      </trkpt>
      <trkpt lat="44.61299" lon="0.85396">
        <ele>170.3</ele>
      </trkpt>
      <trkpt lat="44.61299" lon="0.8542">
        <ele>168.4</ele>
      </trkpt>
      <trkpt lat="44.61381" lon="0.85639">
        <ele>171.6</ele>
      </trkpt>
      <trkpt lat="44.61403" lon="0.85688">
        <ele>169.1</ele>
      </trkpt>
      <trkpt lat="44.61396" lon="0.85741">
        <ele>172.2</ele>
      </trkpt>
      <trkpt lat="44.61374" lon="0.85763">
        <ele>172.6</ele>
      </trkpt>
      <trkpt lat="44.61341" lon="0.85814">
        <ele>172.7</ele>
      </trkpt>
      <trkpt lat="44.6132" lon="0.85862">
        <ele>170.9</ele>
      </trkpt>
      <trkpt lat="44.61289" lon="0.85987">
        <ele>172.6</ele>
      </trkpt>
      <trkpt lat="44.61281" lon="0.86005">
        <ele>173.6</ele>
      </trkpt>
      <trkpt lat="44.61236" lon="0.86066">
        <ele>178.1</ele>
      </trkpt>
      <trkpt lat="44.61202" lon="0.86157">
        <ele>181.3</ele>
      </trkpt>
      <trkpt lat="44.61199" lon="0.86179">
        <ele>181.6</ele>
      </trkpt>
      <trkpt lat="44.61202" lon="0.86257">
        <ele>181.5</ele>
      </trkpt>
      <trkpt lat="44.61184" lon="0.86345">
        <ele>182.2</ele>
      </trkpt>
      <trkpt lat="44.61198" lon="0.86358">
        <ele>182</ele>
        <extensions>
          <visugpx:TrkExtension xmlns:visugpx="https://www.visugpx.com/editgpx/">
            <visugpx:node>5</visugpx:node>
            </visugpx:TrkExtension>
        </extensions>
      </trkpt>
    </trkseg>
  </trk>
  <trk>
    <name><![CDATA[Montflanquin Gravel_11]]></name>
    <extensions>
      <line xmlns="http://www.topografix.com/GPX/gpx_style/0/2">
        <color>888800</color>
        <opacity>1</opacity>
        <width>4</width>
      </line>
    </extensions>
    <trkseg>
      <trkpt lat="44.62037" lon="0.84311">
        <ele>125.8</ele>
      </trkpt>
      <trkpt lat="44.6203" lon="0.84311">
        <ele>126.1</ele>
      </trkpt>
      <trkpt lat="44.62002" lon="0.84342">
        <ele>129.5</ele>
      </trkpt>
      <trkpt lat="44.61996" lon="0.84347">
        <ele>130.6</ele>
      </trkpt>
      <trkpt lat="44.61956" lon="0.84389">
        <ele>138.8</ele>
      </trkpt>
      <trkpt lat="44.61929" lon="0.84422">
        <ele>142.4</ele>
      </trkpt>
      <trkpt lat="44.61871" lon="0.84527">
        <ele>147.3</ele>
      </trkpt>
      <trkpt lat="44.61809" lon="0.84638">
        <ele>147.7</ele>
      </trkpt>
      <trkpt lat="44.61789" lon="0.84683">
        <ele>149.2</ele>
      </trkpt>
      <trkpt lat="44.61769" lon="0.84733">
        <ele>151.8</ele>
      </trkpt>
      <trkpt lat="44.61744" lon="0.84782">
        <ele>156.4</ele>
      </trkpt>
      <trkpt lat="44.61732" lon="0.84808">
        <ele>158.8</ele>
      </trkpt>
      <trkpt lat="44.61659" lon="0.84935">
        <ele>163.6</ele>
      </trkpt>
      <trkpt lat="44.61625" lon="0.85">
        <ele>166</ele>
      </trkpt>
      <trkpt lat="44.61576" lon="0.85115">
        <ele>168.6</ele>
      </trkpt>
      <trkpt lat="44.61554" lon="0.85164">
        <ele>170.1</ele>
      </trkpt>
      <trkpt lat="44.61537" lon="0.85186">
        <ele>171.5</ele>
      </trkpt>
      <trkpt lat="44.61508" lon="0.85216">
        <ele>173.4</ele>
      </trkpt>
      <trkpt lat="44.61491" lon="0.85247">
        <ele>173.7</ele>
      </trkpt>
      <trkpt lat="44.61481" lon="0.85271">
        <ele>174.1</ele>
      </trkpt>
      <trkpt lat="44.61479" lon="0.85278">
        <ele>174.2</ele>
      </trkpt>
      <trkpt lat="44.61458" lon="0.85383">
        <ele>168.5</ele>
      </trkpt>
      <trkpt lat="44.6143" lon="0.85522">
        <ele>159.1</ele>
      </trkpt>
      <trkpt lat="44.61427" lon="0.85555">
        <ele>161.6</ele>
      </trkpt>
      <trkpt lat="44.61429" lon="0.85601">
        <ele>164.4</ele>
      </trkpt>
      <trkpt lat="44.61423" lon="0.85628">
        <ele>165.7</ele>
      </trkpt>
      <trkpt lat="44.61413" lon="0.85657">
        <ele>167</ele>
        <extensions>
          <visugpx:TrkExtension xmlns:visugpx="https://www.visugpx.com/editgpx/">
            <visugpx:node>1</visugpx:node>
            </visugpx:TrkExtension>
        </extensions>
      </trkpt>
    </trkseg>
  </trk>
  <trk>
    <name><![CDATA[Montflanquin Gravel_12]]></name>
    <extensions>
      <line xmlns="http://www.topografix.com/GPX/gpx_style/0/2">
        <color>880088</color>
        <opacity>1</opacity>
        <width>4</width>
      </line>
    </extensions>
    <trkseg>
      <trkpt lat="44.55705" lon="0.84913">
        <ele>138.4</ele>
        <extensions>
          <visugpx:TrkExtension xmlns:visugpx="https://www.visugpx.com/editgpx/">
            <visugpx:node>2</visugpx:node>
            </visugpx:TrkExtension>
        </extensions>
      </trkpt>
      <trkpt lat="44.55723" lon="0.84807">
        <ele>141.1</ele>
      </trkpt>
      <trkpt lat="44.55729" lon="0.84789">
        <ele>142.2</ele>
      </trkpt>
      <trkpt lat="44.55757" lon="0.84758">
        <ele>145.2</ele>
      </trkpt>
      <trkpt lat="44.55826" lon="0.84717">
        <ele>148.6</ele>
      </trkpt>
      <trkpt lat="44.55848" lon="0.84715">
        <ele>149.1</ele>
      </trkpt>
      <trkpt lat="44.55861" lon="0.84712">
        <ele>149.3</ele>
      </trkpt>
      <trkpt lat="44.55875" lon="0.84702">
        <ele>148.4</ele>
      </trkpt>
      <trkpt lat="44.55893" lon="0.84695">
        <ele>148</ele>
      </trkpt>
      <trkpt lat="44.55907" lon="0.84684">
        <ele>147.7</ele>
      </trkpt>
      <trkpt lat="44.55949" lon="0.84646">
        <ele>150.2</ele>
      </trkpt>
      <trkpt lat="44.55987" lon="0.8461">
        <ele>150</ele>
      </trkpt>
      <trkpt lat="44.56014" lon="0.84597">
        <ele>148.2</ele>
      </trkpt>
      <trkpt lat="44.5603" lon="0.84595">
        <ele>147.2</ele>
      </trkpt>
      <trkpt lat="44.56048" lon="0.84598">
        <ele>145.3</ele>
      </trkpt>
      <trkpt lat="44.56069" lon="0.84603">
        <ele>144.2</ele>
      </trkpt>
      <trkpt lat="44.56082" lon="0.84601">
        <ele>143.7</ele>
      </trkpt>
      <trkpt lat="44.56093" lon="0.84593">
        <ele>144.7</ele>
      </trkpt>
      <trkpt lat="44.56095" lon="0.84587">
        <ele>144.8</ele>
      </trkpt>
      <trkpt lat="44.56106" lon="0.84597">
        <ele>146.7</ele>
      </trkpt>
      <trkpt lat="44.56144" lon="0.84612">
        <ele>151.6</ele>
      </trkpt>
      <trkpt lat="44.56168" lon="0.84627">
        <ele>154</ele>
      </trkpt>
      <trkpt lat="44.5618" lon="0.84636">
        <ele>154</ele>
      </trkpt>
      <trkpt lat="44.56187" lon="0.84648">
        <ele>154.6</ele>
      </trkpt>
      <trkpt lat="44.56191" lon="0.84663">
        <ele>155.6</ele>
      </trkpt>
      <trkpt lat="44.56193" lon="0.84685">
        <ele>156.6</ele>
      </trkpt>
      <trkpt lat="44.56199" lon="0.84697">
        <ele>157.1</ele>
      </trkpt>
      <trkpt lat="44.56231" lon="0.84736">
        <ele>159.9</ele>
      </trkpt>
      <trkpt lat="44.56244" lon="0.84755">
        <ele>160.4</ele>
      </trkpt>
      <trkpt lat="44.56254" lon="0.84781">
        <ele>161.1</ele>
      </trkpt>
      <trkpt lat="44.56265" lon="0.84811">
        <ele>162.2</ele>
      </trkpt>
      <trkpt lat="44.56273" lon="0.84826">
        <ele>162.8</ele>
      </trkpt>
      <trkpt lat="44.56284" lon="0.84837">
        <ele>163.3</ele>
      </trkpt>
      <trkpt lat="44.56303" lon="0.84852">
        <ele>164</ele>
      </trkpt>
      <trkpt lat="44.56342" lon="0.84877">
        <ele>166.2</ele>
      </trkpt>
      <trkpt lat="44.56364" lon="0.84867">
        <ele>166.2</ele>
      </trkpt>
      <trkpt lat="44.56412" lon="0.8486">
        <ele>165.2</ele>
      </trkpt>
      <trkpt lat="44.56438" lon="0.84856">
        <ele>163.7</ele>
      </trkpt>
      <trkpt lat="44.56457" lon="0.84858">
        <ele>162.2</ele>
      </trkpt>
      <trkpt lat="44.56482" lon="0.84857">
        <ele>160.7</ele>
      </trkpt>
      <trkpt lat="44.56511" lon="0.84849">
        <ele>158.8</ele>
      </trkpt>
      <trkpt lat="44.56539" lon="0.84841">
        <ele>156.5</ele>
      </trkpt>
      <trkpt lat="44.56554" lon="0.84837">
        <ele>155.3</ele>
      </trkpt>
      <trkpt lat="44.56617" lon="0.84809">
        <ele>151.8</ele>
      </trkpt>
      <trkpt lat="44.5664" lon="0.84792">
        <ele>150.5</ele>
      </trkpt>
      <trkpt lat="44.56665" lon="0.84759">
        <ele>150.3</ele>
      </trkpt>
      <trkpt lat="44.56696" lon="0.84728">
        <ele>148.5</ele>
      </trkpt>
      <trkpt lat="44.56741" lon="0.84686">
        <ele>146.8</ele>
      </trkpt>
      <trkpt lat="44.56752" lon="0.84658">
        <ele>145.7</ele>
      </trkpt>
      <trkpt lat="44.5676" lon="0.84617">
        <ele>144.7</ele>
      </trkpt>
      <trkpt lat="44.56758" lon="0.8457">
        <ele>144.4</ele>
      </trkpt>
      <trkpt lat="44.56757" lon="0.84543">
        <ele>143.9</ele>
      </trkpt>
      <trkpt lat="44.56747" lon="0.84482">
        <ele>142.2</ele>
      </trkpt>
      <trkpt lat="44.56754" lon="0.84454">
        <ele>142.1</ele>
      </trkpt>
      <trkpt lat="44.56785" lon="0.84374">
        <ele>141.4</ele>
      </trkpt>
      <trkpt lat="44.56787" lon="0.84359">
        <ele>141.4</ele>
      </trkpt>
      <trkpt lat="44.56778" lon="0.84325">
        <ele>141</ele>
      </trkpt>
      <trkpt lat="44.56771" lon="0.8431">
        <ele>140.5</ele>
      </trkpt>
      <trkpt lat="44.56787" lon="0.84272">
        <ele>141.9</ele>
      </trkpt>
      <trkpt lat="44.56809" lon="0.84244">
        <ele>144.9</ele>
      </trkpt>
      <trkpt lat="44.56839" lon="0.84209">
        <ele>148.7</ele>
      </trkpt>
      <trkpt lat="44.56888" lon="0.8418">
        <ele>154</ele>
      </trkpt>
      <trkpt lat="44.56903" lon="0.84175">
        <ele>155.2</ele>
      </trkpt>
      <trkpt lat="44.56947" lon="0.84139">
        <ele>159.1</ele>
      </trkpt>
    </trkseg>
  </trk>
  <trk>
    <name><![CDATA[Montflanquin Gravel_13]]></name>
    <extensions>
      <line xmlns="http://www.topografix.com/GPX/gpx_style/0/2">
        <color>0000FF</color>
        <opacity>1</opacity>
        <width>4</width>
      </line>
    </extensions>
    <trkseg>
      <trkpt lat="44.5692" lon="0.83664">
        <ele>159.9</ele>
        <extensions>
          <visugpx:TrkExtension xmlns:visugpx="https://www.visugpx.com/editgpx/">
            <visugpx:node>1</visugpx:node>
            </visugpx:TrkExtension>
        </extensions>
      </trkpt>
      <trkpt lat="44.56924" lon="0.83666">
        <ele>160</ele>
      </trkpt>
      <trkpt lat="44.5696" lon="0.83743">
        <ele>162.7</ele>
      </trkpt>
      <trkpt lat="44.56966" lon="0.83761">
        <ele>163</ele>
      </trkpt>
      <trkpt lat="44.56964" lon="0.83774">
        <ele>163</ele>
      </trkpt>
      <trkpt lat="44.56951" lon="0.83787">
        <ele>163</ele>
      </trkpt>
      <trkpt lat="44.56908" lon="0.83817">
        <ele>161.1</ele>
      </trkpt>
      <trkpt lat="44.56901" lon="0.83827">
        <ele>160.5</ele>
      </trkpt>
      <trkpt lat="44.56894" lon="0.83841">
        <ele>160.1</ele>
      </trkpt>
      <trkpt lat="44.56888" lon="0.83855">
        <ele>159.9</ele>
      </trkpt>
      <trkpt lat="44.56882" lon="0.83874">
        <ele>159.5</ele>
      </trkpt>
      <trkpt lat="44.56877" lon="0.83911">
        <ele>159.5</ele>
      </trkpt>
      <trkpt lat="44.56876" lon="0.83931">
        <ele>160</ele>
      </trkpt>
      <trkpt lat="44.5688" lon="0.83951">
        <ele>160.8</ele>
      </trkpt>
      <trkpt lat="44.56893" lon="0.83987">
        <ele>162.1</ele>
      </trkpt>
      <trkpt lat="44.5693" lon="0.84062">
        <ele>161.6</ele>
      </trkpt>
      <trkpt lat="44.56944" lon="0.84096">
        <ele>160.5</ele>
      </trkpt>
      <trkpt lat="44.56954" lon="0.84133">
        <ele>159.5</ele>
      </trkpt>
      <trkpt lat="44.5696" lon="0.84155">
        <ele>159.9</ele>
      </trkpt>
      <trkpt lat="44.56975" lon="0.84173">
        <ele>161.1</ele>
      </trkpt>
      <trkpt lat="44.56994" lon="0.84176">
        <ele>162</ele>
      </trkpt>
      <trkpt lat="44.57029" lon="0.84169">
        <ele>163.1</ele>
      </trkpt>
      <trkpt lat="44.57076" lon="0.84156">
        <ele>162.2</ele>
      </trkpt>
      <trkpt lat="44.57095" lon="0.84156">
        <ele>161</ele>
      </trkpt>
      <trkpt lat="44.57109" lon="0.84184">
        <ele>160.1</ele>
      </trkpt>
      <trkpt lat="44.5713" lon="0.8426">
        <ele>160.4</ele>
      </trkpt>
      <trkpt lat="44.57191" lon="0.84462">
        <ele>170.9</ele>
      </trkpt>
      <trkpt lat="44.57203" lon="0.84499">
        <ele>171</ele>
      </trkpt>
      <trkpt lat="44.57206" lon="0.84507">
        <ele>170.9</ele>
      </trkpt>
      <trkpt lat="44.57212" lon="0.84544">
        <ele>171.2</ele>
      </trkpt>
      <trkpt lat="44.57222" lon="0.84637">
        <ele>173.9</ele>
      </trkpt>
      <trkpt lat="44.57219" lon="0.84681">
        <ele>175.4</ele>
      </trkpt>
      <trkpt lat="44.57223" lon="0.84743">
        <ele>176.7</ele>
      </trkpt>
      <trkpt lat="44.57226" lon="0.8478">
        <ele>177</ele>
      </trkpt>
      <trkpt lat="44.57227" lon="0.84826">
        <ele>177</ele>
      </trkpt>
      <trkpt lat="44.57234" lon="0.84859">
        <ele>176.6</ele>
      </trkpt>
      <trkpt lat="44.57245" lon="0.84904">
        <ele>175.1</ele>
      </trkpt>
      <trkpt lat="44.57244" lon="0.84915">
        <ele>174.4</ele>
      </trkpt>
      <trkpt lat="44.57244" lon="0.84918">
        <ele>174.2</ele>
      </trkpt>
      <trkpt lat="44.57247" lon="0.84951">
        <ele>173.1</ele>
      </trkpt>
      <trkpt lat="44.57268" lon="0.85029">
        <ele>172.4</ele>
      </trkpt>
      <trkpt lat="44.5728" lon="0.85064">
        <ele>173.3</ele>
      </trkpt>
      <trkpt lat="44.5732" lon="0.85142">
        <ele>174.9</ele>
      </trkpt>
      <trkpt lat="44.57347" lon="0.85208">
        <ele>176</ele>
      </trkpt>
      <trkpt lat="44.57368" lon="0.85258">
        <ele>177.5</ele>
      </trkpt>
      <trkpt lat="44.57379" lon="0.8527">
        <ele>177.8</ele>
      </trkpt>
      <trkpt lat="44.57417" lon="0.85303">
        <ele>176.9</ele>
      </trkpt>
      <trkpt lat="44.57377" lon="0.85349">
        <ele>176.1</ele>
      </trkpt>
      <trkpt lat="44.57349" lon="0.85381">
        <ele>174.5</ele>
      </trkpt>
      <trkpt lat="44.57346" lon="0.85397">
        <ele>174.5</ele>
      </trkpt>
      <trkpt lat="44.57357" lon="0.85421">
        <ele>175.9</ele>
      </trkpt>
      <trkpt lat="44.57358" lon="0.85441">
        <ele>176.7</ele>
      </trkpt>
      <trkpt lat="44.57376" lon="0.85447">
        <ele>177.6</ele>
      </trkpt>
      <trkpt lat="44.57387" lon="0.85455">
        <ele>178.7</ele>
      </trkpt>
      <trkpt lat="44.57396" lon="0.85471">
        <ele>179.7</ele>
      </trkpt>
      <trkpt lat="44.57401" lon="0.85483">
        <ele>179.7</ele>
      </trkpt>
      <trkpt lat="44.57406" lon="0.85509">
        <ele>180.4</ele>
      </trkpt>
      <trkpt lat="44.57406" lon="0.85527">
        <ele>181.3</ele>
      </trkpt>
      <trkpt lat="44.57402" lon="0.85542">
        <ele>182</ele>
      </trkpt>
      <trkpt lat="44.57405" lon="0.8562">
        <ele>185.3</ele>
      </trkpt>
      <trkpt lat="44.5741" lon="0.85761">
        <ele>186.5</ele>
      </trkpt>
      <trkpt lat="44.57409" lon="0.85795">
        <ele>186.6</ele>
      </trkpt>
    </trkseg>
  </trk>
  <trk>
    <name><![CDATA[Montflanquin Gravel_15]]></name>
    <extensions>
      <line xmlns="http://www.topografix.com/GPX/gpx_style/0/2">
        <color>FF0000</color>
        <width>4</width>
      </line>
    </extensions>
    <trkseg>
      <trkpt lat="44.54975" lon="0.85942">
        <ele>125.8</ele>
      </trkpt>
      <trkpt lat="44.54963" lon="0.85944">
        <ele>125.7</ele>
      </trkpt>
      <trkpt lat="44.54936" lon="0.85943">
        <ele>125</ele>
      </trkpt>
      <trkpt lat="44.5489" lon="0.85943">
        <ele>125</ele>
      </trkpt>
      <trkpt lat="44.54848" lon="0.85987">
        <ele>119.2</ele>
      </trkpt>
      <trkpt lat="44.5477" lon="0.85993">
        <ele>110.3</ele>
      </trkpt>
      <trkpt lat="44.54769" lon="0.86024">
        <ele>106.5</ele>
      </trkpt>
      <trkpt lat="44.54776" lon="0.86054">
        <ele>104.9</ele>
      </trkpt>
      <trkpt lat="44.54771" lon="0.86066">
        <ele>104.3</ele>
      </trkpt>
      <trkpt lat="44.54698" lon="0.86093">
        <ele>100.1</ele>
      </trkpt>
      <trkpt lat="44.54656" lon="0.86099">
        <ele>99</ele>
      </trkpt>
      <trkpt lat="44.54653" lon="0.8607">
        <ele>98.8</ele>
      </trkpt>
      <trkpt lat="44.54646" lon="0.85992">
        <ele>98.5</ele>
      </trkpt>
      <trkpt lat="44.54623" lon="0.85903">
        <ele>98.7</ele>
      </trkpt>
      <trkpt lat="44.54614" lon="0.85871">
        <ele>99.6</ele>
      </trkpt>
      <trkpt lat="44.54606" lon="0.85833">
        <ele>98.8</ele>
      </trkpt>
      <trkpt lat="44.54607" lon="0.85789">
        <ele>98.7</ele>
      </trkpt>
      <trkpt lat="44.5463" lon="0.85668">
        <ele>97.7</ele>
      </trkpt>
      <trkpt lat="44.54632" lon="0.85661">
        <ele>97.7</ele>
      </trkpt>
      <trkpt lat="44.54644" lon="0.85591">
        <ele>98.2</ele>
      </trkpt>
      <trkpt lat="44.54648" lon="0.85522">
        <ele>97.3</ele>
      </trkpt>
      <trkpt lat="44.54649" lon="0.85484">
        <ele>97.4</ele>
      </trkpt>
      <trkpt lat="44.54647" lon="0.85441">
        <ele>97.3</ele>
      </trkpt>
      <trkpt lat="44.5464" lon="0.85396">
        <ele>97</ele>
        <extensions>
          <visugpx:TrkExtension xmlns:visugpx="https://www.visugpx.com/editgpx/">
            <visugpx:node>1</visugpx:node>
            </visugpx:TrkExtension>
        </extensions>
      </trkpt>
      <trkpt lat="44.54638" lon="0.85382">
        <ele>97</ele>
      </trkpt>
      <trkpt lat="44.54631" lon="0.85341">
        <ele>96.7</ele>
      </trkpt>
      <trkpt lat="44.54626" lon="0.85295">
        <ele>96.5</ele>
      </trkpt>
      <trkpt lat="44.54628" lon="0.85237">
        <ele>96.6</ele>
      </trkpt>
      <trkpt lat="44.54638" lon="0.85186">
        <ele>96.9</ele>
      </trkpt>
      <trkpt lat="44.54689" lon="0.85011">
        <ele>96.1</ele>
      </trkpt>
      <trkpt lat="44.54699" lon="0.84964">
        <ele>96.1</ele>
      </trkpt>
      <trkpt lat="44.54698" lon="0.84917">
        <ele>96</ele>
      </trkpt>
      <trkpt lat="44.54689" lon="0.84876">
        <ele>96</ele>
      </trkpt>
      <trkpt lat="44.5467" lon="0.84838">
        <ele>96</ele>
      </trkpt>
      <trkpt lat="44.54661" lon="0.8483">
        <ele>95.8</ele>
      </trkpt>
      <trkpt lat="44.54681" lon="0.8482">
        <ele>96</ele>
      </trkpt>
      <trkpt lat="44.5473" lon="0.84793">
        <ele>96.7</ele>
      </trkpt>
      <trkpt lat="44.54757" lon="0.84778">
        <ele>97.3</ele>
      </trkpt>
      <trkpt lat="44.5477" lon="0.84773">
        <ele>97.5</ele>
      </trkpt>
      <trkpt lat="44.54783" lon="0.84771">
        <ele>98</ele>
      </trkpt>
      <trkpt lat="44.54806" lon="0.84664">
        <ele>98.9</ele>
      </trkpt>
      <trkpt lat="44.5481" lon="0.84642">
        <ele>98.6</ele>
      </trkpt>
      <trkpt lat="44.54847" lon="0.84529">
        <ele>96</ele>
      </trkpt>
      <trkpt lat="44.54867" lon="0.84426">
        <ele>98.9</ele>
      </trkpt>
      <trkpt lat="44.54877" lon="0.84308">
        <ele>100</ele>
      </trkpt>
      <trkpt lat="44.54989" lon="0.84277">
        <ele>99.6</ele>
      </trkpt>
      <trkpt lat="44.55042" lon="0.84249">
        <ele>99.5</ele>
      </trkpt>
      <trkpt lat="44.55062" lon="0.84244">
        <ele>99.8</ele>
      </trkpt>
      <trkpt lat="44.55094" lon="0.84254">
        <ele>100.6</ele>
      </trkpt>
      <trkpt lat="44.55122" lon="0.84261">
        <ele>102.5</ele>
      </trkpt>
      <trkpt lat="44.55144" lon="0.84251">
        <ele>103.3</ele>
      </trkpt>
      <trkpt lat="44.55184" lon="0.842">
        <ele>101.3</ele>
      </trkpt>
      <trkpt lat="44.55201" lon="0.84185">
        <ele>101.2</ele>
      </trkpt>
      <trkpt lat="44.55221" lon="0.84184">
        <ele>101.6</ele>
      </trkpt>
      <trkpt lat="44.55254" lon="0.8419">
        <ele>104.1</ele>
      </trkpt>
      <trkpt lat="44.55279" lon="0.84185">
        <ele>105.5</ele>
      </trkpt>
      <trkpt lat="44.5531" lon="0.84163">
        <ele>105.7</ele>
      </trkpt>
      <trkpt lat="44.55341" lon="0.84128">
        <ele>103.6</ele>
      </trkpt>
      <trkpt lat="44.5535" lon="0.84096">
        <ele>102.9</ele>
      </trkpt>
      <trkpt lat="44.55351" lon="0.8406">
        <ele>102.6</ele>
      </trkpt>
      <trkpt lat="44.55332" lon="0.83993">
        <ele>103.6</ele>
      </trkpt>
      <trkpt lat="44.55313" lon="0.83931">
        <ele>108.1</ele>
      </trkpt>
      <trkpt lat="44.55283" lon="0.83857">
        <ele>114.9</ele>
      </trkpt>
      <trkpt lat="44.5525" lon="0.8378">
        <ele>123</ele>
      </trkpt>
      <trkpt lat="44.55245" lon="0.83754">
        <ele>125.2</ele>
      </trkpt>
      <trkpt lat="44.55251" lon="0.83706">
        <ele>126.5</ele>
      </trkpt>
      <trkpt lat="44.55271" lon="0.83633">
        <ele>127.2</ele>
      </trkpt>
      <trkpt lat="44.55279" lon="0.83633">
        <ele>127.1</ele>
      </trkpt>
      <trkpt lat="44.55295" lon="0.83634">
        <ele>126.2</ele>
      </trkpt>
      <trkpt lat="44.55313" lon="0.83633">
        <ele>125.4</ele>
      </trkpt>
      <trkpt lat="44.55342" lon="0.83632">
        <ele>125.1</ele>
      </trkpt>
      <trkpt lat="44.55376" lon="0.83633">
        <ele>125.7</ele>
      </trkpt>
      <trkpt lat="44.55386" lon="0.83632">
        <ele>125.7</ele>
      </trkpt>
      <trkpt lat="44.55395" lon="0.8363">
        <ele>125.8</ele>
      </trkpt>
      <trkpt lat="44.55488" lon="0.83583">
        <ele>126.1</ele>
      </trkpt>
      <trkpt lat="44.55637" lon="0.83507">
        <ele>125.5</ele>
      </trkpt>
      <trkpt lat="44.55656" lon="0.83498">
        <ele>126.2</ele>
      </trkpt>
      <trkpt lat="44.55674" lon="0.83493">
        <ele>126.7</ele>
      </trkpt>
      <trkpt lat="44.55757" lon="0.8348">
        <ele>126</ele>
      </trkpt>
      <trkpt lat="44.5588" lon="0.83463">
        <ele>125.3</ele>
      </trkpt>
      <trkpt lat="44.55898" lon="0.83457">
        <ele>124.9</ele>
      </trkpt>
      <trkpt lat="44.55913" lon="0.8345">
        <ele>124.6</ele>
      </trkpt>
      <trkpt lat="44.55923" lon="0.83401">
        <ele>128.6</ele>
      </trkpt>
      <trkpt lat="44.55932" lon="0.83337">
        <ele>132.2</ele>
      </trkpt>
      <trkpt lat="44.55935" lon="0.83265">
        <ele>132.7</ele>
      </trkpt>
      <trkpt lat="44.55941" lon="0.83202">
        <ele>133.1</ele>
      </trkpt>
      <trkpt lat="44.55953" lon="0.83121">
        <ele>133.3</ele>
      </trkpt>
      <trkpt lat="44.55974" lon="0.83058">
        <ele>134</ele>
      </trkpt>
      <trkpt lat="44.5599" lon="0.82978">
        <ele>131.6</ele>
      </trkpt>
      <trkpt lat="44.56009" lon="0.82856">
        <ele>123.3</ele>
      </trkpt>
      <trkpt lat="44.56022" lon="0.82766">
        <ele>115.8</ele>
      </trkpt>
      <trkpt lat="44.56087" lon="0.82725">
        <ele>118.9</ele>
      </trkpt>
      <trkpt lat="44.56113" lon="0.82684">
        <ele>122.7</ele>
      </trkpt>
      <trkpt lat="44.56129" lon="0.82635">
        <ele>126.3</ele>
      </trkpt>
      <trkpt lat="44.56131" lon="0.82622">
        <ele>127.4</ele>
      </trkpt>
      <trkpt lat="44.56154" lon="0.82597">
        <ele>128.2</ele>
      </trkpt>
      <trkpt lat="44.56177" lon="0.8257">
        <ele>129.6</ele>
      </trkpt>
      <trkpt lat="44.56203" lon="0.82527">
        <ele>131</ele>
      </trkpt>
      <trkpt lat="44.56253" lon="0.82427">
        <ele>134.1</ele>
      </trkpt>
      <trkpt lat="44.56208" lon="0.82311">
        <ele>137.3</ele>
      </trkpt>
      <trkpt lat="44.56173" lon="0.82219">
        <ele>141.4</ele>
      </trkpt>
      <trkpt lat="44.56132" lon="0.8205">
        <ele>147.5</ele>
      </trkpt>
      <trkpt lat="44.56136" lon="0.82049">
        <ele>147.3</ele>
      </trkpt>
      <trkpt lat="44.56139" lon="0.82049">
        <ele>147.2</ele>
      </trkpt>
      <trkpt lat="44.56149" lon="0.8205">
        <ele>147.1</ele>
        <extensions>
          <visugpx:TrkExtension xmlns:visugpx="https://www.visugpx.com/editgpx/">
            <visugpx:node>2</visugpx:node>
            </visugpx:TrkExtension>
        </extensions>
      </trkpt>
    </trkseg>
  </trk>
  <trk>
    <name><![CDATA[Montflanquin Gravel_15]]></name>
    <trkseg>
      <trkpt lat="44.64065" lon="0.88149">
        <ele>190.8</ele>
        <time>2026-08-23T08:11:00Z</time>
      </trkpt>
      <trkpt lat="44.64069" lon="0.88126">
        <ele>190.2</ele>
        <time>2026-08-23T08:11:04Z</time>
      </trkpt>
      <trkpt lat="44.64063" lon="0.88031">
        <ele>191.8</ele>
        <time>2026-08-23T08:11:20Z</time>
      </trkpt>
      <trkpt lat="44.63993" lon="0.87858">
        <ele>189.8</ele>
        <time>2026-08-23T08:11:44Z</time>
      </trkpt>
      <trkpt lat="44.63973" lon="0.878">
        <ele>189.4</ele>
        <time>2026-08-23T08:11:52Z</time>
      </trkpt>
      <trkpt lat="44.63943" lon="0.87743">
        <ele>187.8</ele>
        <time>2026-08-23T08:12:00Z</time>
      </trkpt>
      <trkpt lat="44.63907" lon="0.87693">
        <ele>186.2</ele>
        <time>2026-08-23T08:12:08Z</time>
      </trkpt>
      <trkpt lat="44.63887" lon="0.87632">
        <ele>185.2</ele>
        <time>2026-08-23T08:12:16Z</time>
      </trkpt>
      <trkpt lat="44.63878" lon="0.87569">
        <ele>185.4</ele>
        <time>2026-08-23T08:12:24Z</time>
      </trkpt>
      <trkpt lat="44.63868" lon="0.87448">
        <ele>186.6</ele>
        <time>2026-08-23T08:12:40Z</time>
      </trkpt>
      <trkpt lat="44.63869" lon="0.87397">
        <ele>188.4</ele>
        <time>2026-08-23T08:12:48Z</time>
      </trkpt>
      <trkpt lat="44.63879" lon="0.87349">
        <ele>189</ele>
        <time>2026-08-23T08:12:56Z</time>
      </trkpt>
      <trkpt lat="44.63985" lon="0.87135">
        <ele>194.6</ele>
        <time>2026-08-23T08:13:36Z</time>
      </trkpt>
      <trkpt lat="44.64028" lon="0.86976">
        <ele>194.8</ele>
        <time>2026-08-23T08:14:00Z</time>
      </trkpt>
      <trkpt lat="44.64039" lon="0.86861">
        <ele>194.6</ele>
        <time>2026-08-23T08:14:16Z</time>
      </trkpt>
      <trkpt lat="44.64038" lon="0.86796">
        <ele>194.2</ele>
        <time>2026-08-23T08:14:24Z</time>
      </trkpt>
      <trkpt lat="44.64024" lon="0.8667">
        <ele>191.6</ele>
        <time>2026-08-23T08:14:40Z</time>
      </trkpt>
      <trkpt lat="44.64011" lon="0.86625">
        <ele>191.6</ele>
        <time>2026-08-23T08:14:48Z</time>
      </trkpt>
      <trkpt lat="44.63997" lon="0.86552">
        <ele>189.6</ele>
        <time>2026-08-23T08:14:56Z</time>
      </trkpt>
      <trkpt lat="44.63986" lon="0.8642">
        <ele>188.8</ele>
        <time>2026-08-23T08:15:12Z</time>
      </trkpt>
      <trkpt lat="44.63992" lon="0.86299">
        <ele>190.6</ele>
        <time>2026-08-23T08:15:28Z</time>
      </trkpt>
      <trkpt lat="44.64034" lon="0.85977">
        <ele>183.2</ele>
        <time>2026-08-23T08:15:56Z</time>
      </trkpt>
      <trkpt lat="44.64031" lon="0.85938">
        <ele>182.4</ele>
        <time>2026-08-23T08:16:00Z</time>
      </trkpt>
      <trkpt lat="44.64024" lon="0.8592">
        <ele>181.8</ele>
        <time>2026-08-23T08:16:04Z</time>
      </trkpt>
      <trkpt lat="44.64" lon="0.85922">
        <ele>181</ele>
        <time>2026-08-23T08:16:12Z</time>
      </trkpt>
      <trkpt lat="44.63918" lon="0.85908">
        <ele>181.6</ele>
        <time>2026-08-23T08:16:44Z</time>
      </trkpt>
      <trkpt lat="44.63883" lon="0.85896">
        <ele>182.2</ele>
        <time>2026-08-23T08:17:13Z</time>
      </trkpt>
      <trkpt lat="44.63856" lon="0.85878">
        <ele>182</ele>
        <time>2026-08-23T08:17:29Z</time>
      </trkpt>
      <trkpt lat="44.6383" lon="0.85836">
        <ele>182.2</ele>
        <time>2026-08-23T08:17:43Z</time>
      </trkpt>
      <trkpt lat="44.63785" lon="0.85783">
        <ele>179.6</ele>
        <time>2026-08-23T08:17:55Z</time>
      </trkpt>
      <trkpt lat="44.63748" lon="0.85714">
        <ele>178.2</ele>
        <time>2026-08-23T08:18:11Z</time>
      </trkpt>
      <trkpt lat="44.63735" lon="0.85702">
        <ele>176.6</ele>
        <time>2026-08-23T08:18:19Z</time>
      </trkpt>
      <trkpt lat="44.63718" lon="0.85699">
        <ele>175.8</ele>
        <time>2026-08-23T08:18:23Z</time>
      </trkpt>
      <trkpt lat="44.63702" lon="0.85675">
        <ele>174.4</ele>
        <time>2026-08-23T08:18:35Z</time>
      </trkpt>
      <trkpt lat="44.6369" lon="0.85663">
        <ele>174.4</ele>
        <time>2026-08-23T08:18:39Z</time>
      </trkpt>
      <trkpt lat="44.63628" lon="0.85649">
        <ele>180.4</ele>
        <time>2026-08-23T08:19:03Z</time>
      </trkpt>
      <trkpt lat="44.63559" lon="0.85602">
        <ele>187.2</ele>
        <time>2026-08-23T08:19:35Z</time>
      </trkpt>
      <trkpt lat="44.63514" lon="0.85552">
        <ele>190</ele>
        <time>2026-08-23T08:19:59Z</time>
      </trkpt>
      <trkpt lat="44.63476" lon="0.85533">
        <ele>191</ele>
        <time>2026-08-23T08:20:11Z</time>
      </trkpt>
      <trkpt lat="44.63471" lon="0.85523">
        <ele>191.4</ele>
        <time>2026-08-23T08:20:15Z</time>
        <extensions>
          <visugpx:TrkExtension xmlns:visugpx="https://www.visugpx.com/editgpx/">
            <visugpx:node>1</visugpx:node>
            </visugpx:TrkExtension>
        </extensions>
      </trkpt>
    </trkseg>
  </trk>
  <trk>
    <name><![CDATA[Montflanquin Gravel_16]]></name>
    <trkseg>
      <trkpt lat="44.63554" lon="0.83846">
        <ele>193.6</ele>
        <time>2026-08-23T08:24:45Z</time>
      </trkpt>
      <trkpt lat="44.63539" lon="0.83631">
        <ele>198.6</ele>
        <time>2026-08-23T08:25:17Z</time>
      </trkpt>
      <trkpt lat="44.63556" lon="0.83455">
        <ele>194.8</ele>
        <time>2026-08-23T08:25:33Z</time>
      </trkpt>
      <trkpt lat="44.63555" lon="0.83408">
        <ele>193.2</ele>
        <time>2026-08-23T08:25:37Z</time>
      </trkpt>
      <trkpt lat="44.63528" lon="0.83253">
        <ele>187.6</ele>
        <time>2026-08-23T08:25:49Z</time>
      </trkpt>
      <trkpt lat="44.6351" lon="0.83206">
        <ele>185</ele>
        <time>2026-08-23T08:25:53Z</time>
      </trkpt>
      <trkpt lat="44.63409" lon="0.8301">
        <ele>176</ele>
        <time>2026-08-23T08:26:09Z</time>
      </trkpt>
      <trkpt lat="44.63369" lon="0.82914">
        <ele>174.2</ele>
        <time>2026-08-23T08:26:17Z</time>
      </trkpt>
      <trkpt lat="44.63287" lon="0.82788">
        <ele>173.8</ele>
        <time>2026-08-23T08:26:33Z</time>
      </trkpt>
      <trkpt lat="44.63207" lon="0.82683">
        <ele>172.2</ele>
        <time>2026-08-23T08:26:49Z</time>
      </trkpt>
      <trkpt lat="44.63168" lon="0.82625">
        <ele>171.6</ele>
        <time>2026-08-23T08:26:57Z</time>
      </trkpt>
      <trkpt lat="44.63137" lon="0.82561">
        <ele>171.6</ele>
        <time>2026-08-23T08:27:05Z</time>
      </trkpt>
      <trkpt lat="44.6311" lon="0.82494">
        <ele>171.6</ele>
        <time>2026-08-23T08:27:13Z</time>
      </trkpt>
      <trkpt lat="44.63035" lon="0.82242">
        <ele>167.2</ele>
        <time>2026-08-23T08:27:37Z</time>
      </trkpt>
      <trkpt lat="44.62931" lon="0.82022">
        <ele>163.8</ele>
        <time>2026-08-23T08:28:01Z</time>
      </trkpt>
      <trkpt lat="44.62858" lon="0.81906">
        <ele>163.6</ele>
        <time>2026-08-23T08:28:17Z</time>
      </trkpt>
      <trkpt lat="44.62699" lon="0.81684">
        <ele>168.8</ele>
        <time>2026-08-23T08:28:57Z</time>
      </trkpt>
      <trkpt lat="44.62629" lon="0.81486">
        <ele>168.6</ele>
        <time>2026-08-23T08:29:21Z</time>
      </trkpt>
      <trkpt lat="44.62489" lon="0.81269">
        <ele>166.6</ele>
        <time>2026-08-23T08:29:53Z</time>
      </trkpt>
      <trkpt lat="44.62477" lon="0.81238">
        <ele>166.6</ele>
        <time>2026-08-23T08:29:57Z</time>
      </trkpt>
      <trkpt lat="44.62464" lon="0.81169">
        <ele>166.6</ele>
        <time>2026-08-23T08:30:05Z</time>
      </trkpt>
      <trkpt lat="44.6245" lon="0.81034">
        <ele>168</ele>
        <time>2026-08-23T08:30:21Z</time>
      </trkpt>
      <trkpt lat="44.62449" lon="0.80964">
        <ele>168.2</ele>
        <time>2026-08-23T08:30:29Z</time>
      </trkpt>
      <trkpt lat="44.62461" lon="0.80835">
        <ele>169.8</ele>
        <time>2026-08-23T08:30:45Z</time>
      </trkpt>
      <trkpt lat="44.62431" lon="0.80545">
        <ele>172.2</ele>
        <time>2026-08-23T08:31:25Z</time>
      </trkpt>
      <trkpt lat="44.62439" lon="0.80472">
        <ele>170.8</ele>
        <time>2026-08-23T08:31:33Z</time>
      </trkpt>
      <trkpt lat="44.62441" lon="0.80392">
        <ele>169.6</ele>
        <time>2026-08-23T08:31:41Z</time>
      </trkpt>
      <trkpt lat="44.62427" lon="0.80324">
        <ele>169.4</ele>
        <time>2026-08-23T08:31:49Z</time>
      </trkpt>
      <trkpt lat="44.62312" lon="0.79927">
        <ele>166.2</ele>
        <time>2026-08-23T08:32:37Z</time>
      </trkpt>
      <trkpt lat="44.62249" lon="0.79825">
        <ele>166.2</ele>
        <time>2026-08-23T08:32:53Z</time>
      </trkpt>
      <trkpt lat="44.62215" lon="0.79779">
        <ele>166.2</ele>
        <time>2026-08-23T08:33:01Z</time>
      </trkpt>
      <trkpt lat="44.6216" lon="0.79729">
        <ele>167.6</ele>
        <time>2026-08-23T08:33:17Z</time>
      </trkpt>
      <trkpt lat="44.62132" lon="0.79693">
        <ele>168</ele>
        <time>2026-08-23T08:33:25Z</time>
      </trkpt>
      <trkpt lat="44.62075" lon="0.79603">
        <ele>168.4</ele>
        <time>2026-08-23T08:33:41Z</time>
      </trkpt>
      <trkpt lat="44.62048" lon="0.79554">
        <ele>168.8</ele>
        <time>2026-08-23T08:33:49Z</time>
      </trkpt>
      <trkpt lat="44.61974" lon="0.79442">
        <ele>166.6</ele>
        <time>2026-08-23T08:34:05Z</time>
      </trkpt>
      <trkpt lat="44.61935" lon="0.79374">
        <ele>164</ele>
        <time>2026-08-23T08:34:13Z</time>
      </trkpt>
      <trkpt lat="44.61875" lon="0.79167">
        <ele>164</ele>
        <time>2026-08-23T08:34:37Z</time>
      </trkpt>
      <trkpt lat="44.61863" lon="0.79139">
        <ele>163.4</ele>
        <time>2026-08-23T08:34:41Z</time>
      </trkpt>
      <trkpt lat="44.61866" lon="0.79117">
        <ele>162.4</ele>
        <time>2026-08-23T08:34:45Z</time>
      </trkpt>
      <trkpt lat="44.61882" lon="0.79082">
        <ele>160.6</ele>
        <time>2026-08-23T08:34:53Z</time>
      </trkpt>
      <trkpt lat="44.6187" lon="0.79051">
        <ele>158.8</ele>
        <time>2026-08-23T08:35:01Z</time>
      </trkpt>
      <trkpt lat="44.61836" lon="0.78987">
        <ele>151.6</ele>
        <time>2026-08-23T08:35:09Z</time>
      </trkpt>
      <trkpt lat="44.61818" lon="0.78923">
        <ele>151.2</ele>
        <time>2026-08-23T08:35:25Z</time>
      </trkpt>
      <trkpt lat="44.61749" lon="0.78761">
        <ele>163.6</ele>
        <time>2026-08-23T08:48:50Z</time>
      </trkpt>
      <trkpt lat="44.61748" lon="0.78749">
        <ele>164.8</ele>
        <time>2026-08-23T08:48:54Z</time>
      </trkpt>
      <trkpt lat="44.61793" lon="0.78681">
        <ele>166.6</ele>
        <time>2026-08-23T08:49:18Z</time>
      </trkpt>
      <trkpt lat="44.61809" lon="0.78646">
        <ele>165.8</ele>
        <time>2026-08-23T08:49:26Z</time>
      </trkpt>
      <trkpt lat="44.61877" lon="0.78366">
        <ele>157.8</ele>
        <time>2026-08-23T08:50:06Z</time>
      </trkpt>
      <trkpt lat="44.61889" lon="0.7829">
        <ele>154.6</ele>
        <time>2026-08-23T08:50:14Z</time>
      </trkpt>
      <trkpt lat="44.61854" lon="0.78148">
        <ele>153.2</ele>
        <time>2026-08-23T08:50:53Z</time>
      </trkpt>
      <trkpt lat="44.6183" lon="0.78099">
        <ele>151.4</ele>
        <time>2026-08-23T08:51:01Z</time>
      </trkpt>
      <trkpt lat="44.61827" lon="0.7808">
        <ele>151</ele>
        <time>2026-08-23T08:51:03Z</time>
      </trkpt>
      <trkpt lat="44.61832" lon="0.7804">
        <ele>149.8</ele>
        <time>2026-08-23T08:51:07Z</time>
      </trkpt>
      <trkpt lat="44.61882" lon="0.77913">
        <ele>149.6</ele>
        <time>2026-08-23T08:51:23Z</time>
      </trkpt>
      <trkpt lat="44.61904" lon="0.77798">
        <ele>151.6</ele>
        <time>2026-08-23T08:51:39Z</time>
      </trkpt>
      <trkpt lat="44.61917" lon="0.77686">
        <ele>152.4</ele>
        <time>2026-08-23T08:51:55Z</time>
      </trkpt>
      <trkpt lat="44.61915" lon="0.77663">
        <ele>152.6</ele>
        <time>2026-08-23T08:51:59Z</time>
      </trkpt>
    </trkseg>
  </trk>
  <trk>
    <name><![CDATA[Montflanquin Gravel_17]]></name>
    <trkseg>
      <trkpt lat="44.611" lon="0.77014">
        <ele>172.8</ele>
        <time>2026-08-23T08:56:35Z</time>
      </trkpt>
      <trkpt lat="44.60977" lon="0.76817">
        <ele>166.2</ele>
        <time>2026-08-23T08:57:05Z</time>
      </trkpt>
      <trkpt lat="44.60977" lon="0.76807">
        <ele>165.8</ele>
        <time>2026-08-23T08:57:07Z</time>
      </trkpt>
      <trkpt lat="44.61023" lon="0.76746">
        <ele>167.4</ele>
        <time>2026-08-23T08:57:23Z</time>
      </trkpt>
      <trkpt lat="44.61048" lon="0.76725">
        <ele>168.6</ele>
        <time>2026-08-23T08:57:31Z</time>
      </trkpt>
    </trkseg>
  </trk>
  <trk>
    <name><![CDATA[Montflanquin Gravel_18]]></name>
    <trkseg>
      <trkpt lat="44.59232" lon="0.74309">
        <ele>127</ele>
        <time>2026-08-23T09:08:49Z</time>
      </trkpt>
      <trkpt lat="44.59193" lon="0.74336">
        <ele>126</ele>
        <time>2026-08-23T09:08:57Z</time>
      </trkpt>
      <trkpt lat="44.58993" lon="0.74532">
        <ele>134.6</ele>
        <time>2026-08-23T09:10:01Z</time>
      </trkpt>
      <trkpt lat="44.58908" lon="0.74629">
        <ele>138.6</ele>
        <time>2026-08-23T09:10:33Z</time>
      </trkpt>
      <trkpt lat="44.58818" lon="0.74751">
        <ele>145</ele>
        <time>2026-08-23T09:11:13Z</time>
      </trkpt>
      <trkpt lat="44.58811" lon="0.74751">
        <ele>145.4</ele>
        <time>2026-08-23T09:11:17Z</time>
      </trkpt>
      <trkpt lat="44.58768" lon="0.74677">
        <ele>140.2</ele>
        <time>2026-08-23T09:11:33Z</time>
      </trkpt>
      <trkpt lat="44.58717" lon="0.74576">
        <ele>133.6</ele>
        <time>2026-08-23T09:11:49Z</time>
      </trkpt>
      <trkpt lat="44.58701" lon="0.74556">
        <ele>132.8</ele>
        <time>2026-08-23T09:11:53Z</time>
      </trkpt>
      <trkpt lat="44.58608" lon="0.74485">
        <ele>135.2</ele>
        <time>2026-08-23T09:12:25Z</time>
      </trkpt>
      <trkpt lat="44.58565" lon="0.74447">
        <ele>138.6</ele>
        <time>2026-08-23T09:12:41Z</time>
      </trkpt>
      <trkpt lat="44.58494" lon="0.74352">
        <ele>145.6</ele>
        <time>2026-08-23T09:13:13Z</time>
      </trkpt>
      <trkpt lat="44.5845" lon="0.74288">
        <ele>145.6</ele>
        <time>2026-08-23T09:13:29Z</time>
      </trkpt>
      <trkpt lat="44.58426" lon="0.74261">
        <ele>145.4</ele>
        <time>2026-08-23T09:13:37Z</time>
      </trkpt>
      <trkpt lat="44.58349" lon="0.74214">
        <ele>145</ele>
        <time>2026-08-23T09:14:01Z</time>
      </trkpt>
      <trkpt lat="44.58308" lon="0.74177">
        <ele>144.8</ele>
        <time>2026-08-23T09:14:17Z</time>
      </trkpt>
      <trkpt lat="44.58209" lon="0.74109">
        <ele>147.2</ele>
        <time>2026-08-23T09:14:49Z</time>
      </trkpt>
      <trkpt lat="44.58105" lon="0.74053">
        <ele>151.6</ele>
        <time>2026-08-23T09:15:21Z</time>
      </trkpt>
      <trkpt lat="44.58052" lon="0.74015">
        <ele>152.8</ele>
        <time>2026-08-23T09:15:37Z</time>
      </trkpt>
      <trkpt lat="44.57977" lon="0.73936">
        <ele>155.2</ele>
        <time>2026-08-23T09:16:01Z</time>
      </trkpt>
      <trkpt lat="44.5794" lon="0.73912">
        <ele>157.4</ele>
        <time>2026-08-23T09:16:13Z</time>
      </trkpt>
      <trkpt lat="44.57912" lon="0.73908">
        <ele>158.8</ele>
        <time>2026-08-23T09:16:21Z</time>
      </trkpt>
      <trkpt lat="44.57876" lon="0.73892">
        <ele>161.2</ele>
        <time>2026-08-23T09:16:33Z</time>
      </trkpt>
      <trkpt lat="44.5789" lon="0.73795">
        <ele>165.2</ele>
        <time>2026-08-23T09:16:57Z</time>
      </trkpt>
      <trkpt lat="44.5789" lon="0.73752">
        <ele>165.8</ele>
        <time>2026-08-23T09:17:05Z</time>
      </trkpt>
      <trkpt lat="44.57866" lon="0.73657">
        <ele>165.6</ele>
        <time>2026-08-23T09:17:21Z</time>
      </trkpt>
      <trkpt lat="44.57804" lon="0.73464">
        <ele>165.8</ele>
        <time>2026-08-23T09:17:53Z</time>
      </trkpt>
      <trkpt lat="44.57786" lon="0.73367">
        <ele>166.2</ele>
        <time>2026-08-23T09:18:09Z</time>
      </trkpt>
      <trkpt lat="44.57775" lon="0.73266">
        <ele>166.4</ele>
        <time>2026-08-23T09:18:25Z</time>
      </trkpt>
      <trkpt lat="44.57771" lon="0.73165">
        <ele>166.6</ele>
        <time>2026-08-23T09:18:41Z</time>
      </trkpt>
      <trkpt lat="44.57762" lon="0.73064">
        <ele>165.6</ele>
        <time>2026-08-23T09:18:57Z</time>
      </trkpt>
      <trkpt lat="44.57736" lon="0.72963">
        <ele>164.6</ele>
        <time>2026-08-23T09:19:13Z</time>
      </trkpt>
      <trkpt lat="44.57718" lon="0.72953">
        <ele>164.6</ele>
        <time>2026-08-23T09:19:17Z</time>
      </trkpt>
      <trkpt lat="44.57681" lon="0.72946">
        <ele>165.2</ele>
        <time>2026-08-23T09:19:25Z</time>
      </trkpt>
      <trkpt lat="44.57628" lon="0.72923">
        <ele>164.8</ele>
        <time>2026-08-23T09:19:37Z</time>
      </trkpt>
      <trkpt lat="44.576" lon="0.72919">
        <ele>163.8</ele>
        <time>2026-08-23T09:19:41Z</time>
      </trkpt>
      <trkpt lat="44.57576" lon="0.72921">
        <ele>162.8</ele>
        <time>2026-08-23T09:19:45Z</time>
      </trkpt>
      <trkpt lat="44.57526" lon="0.72939">
        <ele>159.6</ele>
        <time>2026-08-23T09:19:53Z</time>
      </trkpt>
      <trkpt lat="44.57473" lon="0.72952">
        <ele>156.6</ele>
        <time>2026-08-23T09:20:01Z</time>
      </trkpt>
      <trkpt lat="44.57422" lon="0.72948">
        <ele>155</ele>
        <time>2026-08-23T09:20:09Z</time>
      </trkpt>
      <trkpt lat="44.57398" lon="0.72939">
        <ele>154.6</ele>
        <time>2026-08-23T09:20:13Z</time>
      </trkpt>
      <trkpt lat="44.57328" lon="0.72894">
        <ele>153.4</ele>
        <time>2026-08-23T09:20:29Z</time>
      </trkpt>
      <trkpt lat="44.57276" lon="0.72856">
        <ele>152.6</ele>
        <time>2026-08-23T09:21:11Z</time>
      </trkpt>
      <trkpt lat="44.57216" lon="0.72806">
        <ele>151.4</ele>
        <time>2026-08-23T09:21:27Z</time>
      </trkpt>
      <trkpt lat="44.57181" lon="0.72759">
        <ele>150.6</ele>
        <time>2026-08-23T09:21:39Z</time>
      </trkpt>
      <trkpt lat="44.57173" lon="0.72755">
        <ele>150.4</ele>
        <time>2026-08-23T09:21:41Z</time>
      </trkpt>
    </trkseg>
  </trk>
  <trk>
    <name><![CDATA[Un peu technique (à éviter)]]></name>
    <extensions>
      <line xmlns="http://www.topografix.com/GPX/gpx_style/0/2">
        <color>00FFFF</color>
        <opacity>1</opacity>
        <width>4</width>
          <extensions>
            <sens>1</sens>
          </extensions>
      </line>
    </extensions>
    <trkseg>
      <trkpt lat="44.57235" lon="0.84916">
        <ele>176.2</ele>
        <time>2026-08-23T10:06:47Z</time>
      </trkpt>
      <trkpt lat="44.57189" lon="0.84921">
        <ele>177.8</ele>
        <time>2026-08-23T10:07:03Z</time>
      </trkpt>
      <trkpt lat="44.57169" lon="0.84903">
        <ele>178.2</ele>
        <time>2026-08-23T10:07:11Z</time>
      </trkpt>
      <trkpt lat="44.57112" lon="0.84914">
        <ele>177.6</ele>
        <time>2026-08-23T10:07:27Z</time>
      </trkpt>
      <trkpt lat="44.5707" lon="0.84913">
        <ele>176.8</ele>
        <time>2026-08-23T10:07:39Z</time>
      </trkpt>
      <trkpt lat="44.57021" lon="0.84884">
        <ele>174.4</ele>
        <time>2026-08-23T10:07:55Z</time>
      </trkpt>
      <trkpt lat="44.56988" lon="0.84881">
        <ele>170</ele>
        <time>2026-08-23T10:08:11Z</time>
      </trkpt>
      <trkpt lat="44.5698" lon="0.84861">
        <ele>166.4</ele>
        <time>2026-08-23T10:08:32Z</time>
      </trkpt>
      <trkpt lat="44.5697" lon="0.84857">
        <ele>165.2</ele>
        <time>2026-08-23T10:08:36Z</time>
      </trkpt>
      <trkpt lat="44.56946" lon="0.8486">
        <ele>160.8</ele>
        <time>2026-08-23T10:08:48Z</time>
      </trkpt>
      <trkpt lat="44.56939" lon="0.84854">
        <ele>159.4</ele>
        <time>2026-08-23T10:08:52Z</time>
      </trkpt>
      <trkpt lat="44.5693" lon="0.84839">
        <ele>157.8</ele>
        <time>2026-08-23T10:08:56Z</time>
      </trkpt>
      <trkpt lat="44.56923" lon="0.84795">
        <ele>156.4</ele>
        <time>2026-08-23T10:09:04Z</time>
      </trkpt>
      <trkpt lat="44.56909" lon="0.84745">
        <ele>154.6</ele>
        <time>2026-08-23T10:09:12Z</time>
      </trkpt>
      <trkpt lat="44.56885" lon="0.84706">
        <ele>153.6</ele>
        <time>2026-08-23T10:09:20Z</time>
      </trkpt>
      <trkpt lat="44.56864" lon="0.84664">
        <ele>152.6</ele>
        <time>2026-08-23T10:09:28Z</time>
      </trkpt>
      <trkpt lat="44.56849" lon="0.84648">
        <ele>152</ele>
        <time>2026-08-23T10:09:32Z</time>
      </trkpt>
      <trkpt lat="44.56812" lon="0.84629">
        <ele>150.6</ele>
        <time>2026-08-23T10:09:40Z</time>
      </trkpt>
      <trkpt lat="44.56795" lon="0.84616">
        <ele>150</ele>
        <time>2026-08-23T10:09:44Z</time>
      </trkpt>
      <trkpt lat="44.56768" lon="0.84582">
        <ele>148.4</ele>
        <time>2026-08-23T10:09:52Z</time>
        <extensions>
          <visugpx:TrkExtension xmlns:visugpx="https://www.visugpx.com/editgpx/">
            <visugpx:node>1</visugpx:node>
            </visugpx:TrkExtension>
        </extensions>
      </trkpt>
    </trkseg>
  </trk>
  <trk>
    <name><![CDATA[Montflanquin Gravel_20]]></name>
    <trkseg>
      <trkpt lat="44.57416" lon="0.85308">
        <ele>177.8</ele>
        <time>2026-08-23T07:16:36Z</time>
      </trkpt>
      <trkpt lat="44.57421" lon="0.85311">
        <ele>178</ele>
        <time>2026-08-23T07:16:37Z</time>
      </trkpt>
      <trkpt lat="44.57426" lon="0.85315">
        <ele>177.8</ele>
        <time>2026-08-23T07:16:38Z</time>
      </trkpt>
      <trkpt lat="44.57432" lon="0.8532">
        <ele>177.8</ele>
        <time>2026-08-23T07:16:39Z</time>
      </trkpt>
      <trkpt lat="44.57438" lon="0.85324">
        <ele>177.6</ele>
        <time>2026-08-23T07:16:40Z</time>
      </trkpt>
      <trkpt lat="44.57443" lon="0.85327">
        <ele>177.6</ele>
        <time>2026-08-23T07:16:41Z</time>
      </trkpt>
      <trkpt lat="44.57448" lon="0.85331">
        <ele>177.4</ele>
        <time>2026-08-23T07:16:42Z</time>
      </trkpt>
      <trkpt lat="44.57453" lon="0.85335">
        <ele>177.2</ele>
        <time>2026-08-23T07:16:43Z</time>
      </trkpt>
      <trkpt lat="44.57458" lon="0.85339">
        <ele>176.8</ele>
        <time>2026-08-23T07:16:44Z</time>
      </trkpt>
      <trkpt lat="44.57463" lon="0.85343">
        <ele>176.6</ele>
        <time>2026-08-23T07:16:45Z</time>
      </trkpt>
      <trkpt lat="44.57468" lon="0.85347">
        <ele>176.6</ele>
        <time>2026-08-23T07:16:46Z</time>
      </trkpt>
      <trkpt lat="44.57472" lon="0.85351">
        <ele>176.4</ele>
        <time>2026-08-23T07:16:47Z</time>
      </trkpt>
      <trkpt lat="44.57477" lon="0.85355">
        <ele>176.2</ele>
        <time>2026-08-23T07:16:48Z</time>
      </trkpt>
      <trkpt lat="44.57482" lon="0.85359">
        <ele>175.8</ele>
        <time>2026-08-23T07:16:49Z</time>
      </trkpt>
      <trkpt lat="44.57486" lon="0.85364">
        <ele>175.6</ele>
        <time>2026-08-23T07:16:50Z</time>
      </trkpt>
      <trkpt lat="44.57491" lon="0.85369">
        <ele>175.6</ele>
        <time>2026-08-23T07:16:51Z</time>
      </trkpt>
      <trkpt lat="44.57495" lon="0.85374">
        <ele>175.4</ele>
        <time>2026-08-23T07:16:52Z</time>
      </trkpt>
      <trkpt lat="44.57499" lon="0.8538">
        <ele>175.4</ele>
        <time>2026-08-23T07:16:53Z</time>
      </trkpt>
      <trkpt lat="44.57503" lon="0.85386">
        <ele>175.2</ele>
        <time>2026-08-23T07:16:54Z</time>
      </trkpt>
      <trkpt lat="44.57507" lon="0.85391">
        <ele>175</ele>
        <time>2026-08-23T07:16:55Z</time>
      </trkpt>
      <trkpt lat="44.57511" lon="0.85396">
        <ele>174.8</ele>
        <time>2026-08-23T07:16:56Z</time>
      </trkpt>
      <trkpt lat="44.57516" lon="0.85401">
        <ele>174.8</ele>
        <time>2026-08-23T07:16:57Z</time>
      </trkpt>
      <trkpt lat="44.5752" lon="0.85405">
        <ele>174.8</ele>
        <time>2026-08-23T07:16:58Z</time>
      </trkpt>
      <trkpt lat="44.57525" lon="0.85409">
        <ele>174.8</ele>
        <time>2026-08-23T07:16:59Z</time>
      </trkpt>
      <trkpt lat="44.5753" lon="0.85413">
        <ele>175</ele>
        <time>2026-08-23T07:17:00Z</time>
      </trkpt>
      <trkpt lat="44.57535" lon="0.85416">
        <ele>175.2</ele>
        <time>2026-08-23T07:17:01Z</time>
      </trkpt>
      <trkpt lat="44.57538" lon="0.85418">
        <ele>175.2</ele>
        <time>2026-08-23T07:17:02Z</time>
      </trkpt>
      <trkpt lat="44.57542" lon="0.8542">
        <ele>175.2</ele>
        <time>2026-08-23T07:17:03Z</time>
      </trkpt>
      <trkpt lat="44.57546" lon="0.85422">
        <ele>175.2</ele>
        <time>2026-08-23T07:17:04Z</time>
      </trkpt>
      <trkpt lat="44.5755" lon="0.85424">
        <ele>175.4</ele>
        <time>2026-08-23T07:17:05Z</time>
      </trkpt>
      <trkpt lat="44.57553" lon="0.85426">
        <ele>175.4</ele>
        <time>2026-08-23T07:17:06Z</time>
      </trkpt>
      <trkpt lat="44.57556" lon="0.85428">
        <ele>175.4</ele>
        <time>2026-08-23T07:17:07Z</time>
      </trkpt>
      <trkpt lat="44.57559" lon="0.8543">
        <ele>175.6</ele>
        <time>2026-08-23T07:17:08Z</time>
      </trkpt>
      <trkpt lat="44.57562" lon="0.85432">
        <ele>175.8</ele>
        <time>2026-08-23T07:17:09Z</time>
      </trkpt>
      <trkpt lat="44.57565" lon="0.85433">
        <ele>176.2</ele>
        <time>2026-08-23T07:17:10Z</time>
      </trkpt>
      <trkpt lat="44.57568" lon="0.85435">
        <ele>176.4</ele>
        <time>2026-08-23T07:17:11Z</time>
      </trkpt>
      <trkpt lat="44.5757" lon="0.85437">
        <ele>176.6</ele>
        <time>2026-08-23T07:17:12Z</time>
      </trkpt>
      <trkpt lat="44.57573" lon="0.85439">
        <ele>177</ele>
        <time>2026-08-23T07:17:13Z</time>
      </trkpt>
      <trkpt lat="44.57575" lon="0.85441">
        <ele>177.4</ele>
        <time>2026-08-23T07:17:14Z</time>
      </trkpt>
      <trkpt lat="44.57578" lon="0.85442">
        <ele>177.8</ele>
        <time>2026-08-23T07:17:15Z</time>
      </trkpt>
      <trkpt lat="44.5758" lon="0.85444">
        <ele>178.2</ele>
        <time>2026-08-23T07:17:16Z</time>
      </trkpt>
      <trkpt lat="44.57583" lon="0.85446">
        <ele>178.6</ele>
        <time>2026-08-23T07:17:17Z</time>
      </trkpt>
      <trkpt lat="44.57585" lon="0.85448">
        <ele>179.2</ele>
        <time>2026-08-23T07:17:18Z</time>
      </trkpt>
      <trkpt lat="44.57588" lon="0.85449">
        <ele>179.4</ele>
        <time>2026-08-23T07:17:19Z</time>
      </trkpt>
      <trkpt lat="44.57591" lon="0.85451">
        <ele>179.6</ele>
        <time>2026-08-23T07:17:20Z</time>
      </trkpt>
      <trkpt lat="44.57593" lon="0.85453">
        <ele>180.2</ele>
        <time>2026-08-23T07:17:21Z</time>
      </trkpt>
      <trkpt lat="44.57596" lon="0.85455">
        <ele>180.4</ele>
        <time>2026-08-23T07:17:22Z</time>
      </trkpt>
      <trkpt lat="44.57599" lon="0.85456">
        <ele>180.6</ele>
        <time>2026-08-23T07:17:23Z</time>
      </trkpt>
      <trkpt lat="44.57601" lon="0.85458">
        <ele>180.8</ele>
        <time>2026-08-23T07:17:24Z</time>
      </trkpt>
      <trkpt lat="44.57604" lon="0.8546">
        <ele>181.2</ele>
        <time>2026-08-23T07:17:25Z</time>
      </trkpt>
      <trkpt lat="44.57606" lon="0.85461">
        <ele>181.4</ele>
        <time>2026-08-23T07:17:26Z</time>
      </trkpt>
      <trkpt lat="44.57608" lon="0.85463">
        <ele>181.6</ele>
        <time>2026-08-23T07:17:27Z</time>
      </trkpt>
      <trkpt lat="44.57609" lon="0.85464">
        <ele>181.8</ele>
        <time>2026-08-23T07:17:28Z</time>
      </trkpt>
      <trkpt lat="44.57611" lon="0.85465">
        <ele>182.2</ele>
        <time>2026-08-23T07:17:29Z</time>
      </trkpt>
      <trkpt lat="44.57612" lon="0.85467">
        <ele>182.2</ele>
        <time>2026-08-23T07:17:30Z</time>
      </trkpt>
      <trkpt lat="44.57614" lon="0.85469">
        <ele>182.4</ele>
        <time>2026-08-23T07:17:31Z</time>
      </trkpt>
      <trkpt lat="44.57616" lon="0.85472">
        <ele>182.4</ele>
        <time>2026-08-23T07:17:32Z</time>
      </trkpt>
      <trkpt lat="44.57619" lon="0.85477">
        <ele>182.4</ele>
        <time>2026-08-23T07:17:33Z</time>
        <extensions>
          <visugpx:TrkExtension xmlns:visugpx="https://www.visugpx.com/editgpx/">
            <visugpx:node>1</visugpx:node>
            </visugpx:TrkExtension>
        </extensions>
      </trkpt>
    </trkseg>
  </trk>
  <trk>
    <name><![CDATA[Montflanquin Gravel_21]]></name>
    <trkseg>
      <trkpt lat="44.5635" lon="0.84873">
        <ele>169.8</ele>
        <time>2026-08-23T10:12:20Z</time>
      </trkpt>
      <trkpt lat="44.56286" lon="0.84952">
        <ele>169.6</ele>
        <time>2026-08-23T10:12:40Z</time>
      </trkpt>
      <trkpt lat="44.56255" lon="0.84972">
        <ele>169.6</ele>
        <time>2026-08-23T10:12:48Z</time>
      </trkpt>
      <trkpt lat="44.562" lon="0.85039">
        <ele>170.4</ele>
        <time>2026-08-23T10:13:04Z</time>
      </trkpt>
      <trkpt lat="44.5617" lon="0.851">
        <ele>171.4</ele>
        <time>2026-08-23T10:13:16Z</time>
      </trkpt>
      <trkpt lat="44.561" lon="0.85183">
        <ele>170</ele>
        <time>2026-08-23T10:13:32Z</time>
      </trkpt>
      <trkpt lat="44.56055" lon="0.85225">
        <ele>168.6</ele>
        <time>2026-08-23T10:13:40Z</time>
      </trkpt>
      <trkpt lat="44.56011" lon="0.85252">
        <ele>167.2</ele>
        <time>2026-08-23T10:13:48Z</time>
      </trkpt>
      <trkpt lat="44.55979" lon="0.85262">
        <ele>167.4</ele>
        <time>2026-08-23T10:13:56Z</time>
        <extensions>
          <visugpx:TrkExtension xmlns:visugpx="https://www.visugpx.com/editgpx/">
            <visugpx:node>1</visugpx:node>
            </visugpx:TrkExtension>
        </extensions>
      </trkpt>
    </trkseg>
  </trk>
  <trk>
    <name><![CDATA[Montflanquin Gravel_22]]></name>
    <trkseg>
      <trkpt lat="44.55297" lon="0.85073">
        <ele>126.4</ele>
        <time>2026-08-23T10:15:38Z</time>
      </trkpt>
      <trkpt lat="44.55305" lon="0.8509">
        <ele>126</ele>
        <time>2026-08-23T10:15:42Z</time>
      </trkpt>
      <trkpt lat="44.55346" lon="0.85143">
        <ele>128.8</ele>
        <time>2026-08-23T10:15:58Z</time>
      </trkpt>
      <trkpt lat="44.55364" lon="0.852">
        <ele>133</ele>
        <time>2026-08-23T10:16:14Z</time>
      </trkpt>
      <trkpt lat="44.55375" lon="0.85264">
        <ele>135.2</ele>
        <time>2026-08-23T10:16:30Z</time>
      </trkpt>
      <trkpt lat="44.55377" lon="0.85387">
        <ele>142.4</ele>
        <time>2026-08-23T10:17:02Z</time>
      </trkpt>
      <trkpt lat="44.55369" lon="0.85558">
        <ele>148.6</ele>
        <time>2026-08-23T10:17:42Z</time>
      </trkpt>
      <trkpt lat="44.55371" lon="0.85589">
        <ele>147.6</ele>
        <time>2026-08-23T10:17:46Z</time>
      </trkpt>
      <trkpt lat="44.55382" lon="0.85633">
        <ele>144.8</ele>
        <time>2026-08-23T10:17:54Z</time>
      </trkpt>
      <trkpt lat="44.55371" lon="0.85663">
        <ele>143.6</ele>
        <time>2026-08-23T10:18:02Z</time>
      </trkpt>
      <trkpt lat="44.55282" lon="0.85739">
        <ele>134</ele>
        <time>2026-08-23T10:18:26Z</time>
      </trkpt>
      <trkpt lat="44.55268" lon="0.85746">
        <ele>133.4</ele>
        <time>2026-08-23T10:18:30Z</time>
      </trkpt>
      <trkpt lat="44.55251" lon="0.85748">
        <ele>132.4</ele>
        <time>2026-08-23T10:18:34Z</time>
      </trkpt>
      <trkpt lat="44.55235" lon="0.8576">
        <ele>131.4</ele>
        <time>2026-08-23T10:18:38Z</time>
      </trkpt>
      <trkpt lat="44.55166" lon="0.85867">
        <ele>129</ele>
        <time>2026-08-23T10:19:10Z</time>
      </trkpt>
      <trkpt lat="44.55149" lon="0.85878">
        <ele>129.6</ele>
        <time>2026-08-23T10:19:18Z</time>
      </trkpt>
      <trkpt lat="44.55125" lon="0.85877">
        <ele>129.4</ele>
        <time>2026-08-23T10:19:26Z</time>
      </trkpt>
      <trkpt lat="44.55096" lon="0.85893">
        <ele>129.6</ele>
        <time>2026-08-23T10:19:42Z</time>
      </trkpt>
      <trkpt lat="44.5506" lon="0.85899">
        <ele>128.8</ele>
        <time>2026-08-23T10:19:58Z</time>
      </trkpt>
      <trkpt lat="44.5503" lon="0.85909">
        <ele>129.8</ele>
        <time>2026-08-23T10:20:14Z</time>
      </trkpt>
      <trkpt lat="44.55004" lon="0.85914">
        <ele>129.6</ele>
        <time>2026-08-23T10:20:26Z</time>
      </trkpt>
      <trkpt lat="44.54995" lon="0.85921">
        <ele>129.6</ele>
        <time>2026-08-23T10:20:30Z</time>
      </trkpt>
      <trkpt lat="44.54997" lon="0.85942">
        <ele>130.6</ele>
        <time>2026-08-23T10:20:38Z</time>
      </trkpt>
      <trkpt lat="44.5501" lon="0.85973">
        <ele>131.6</ele>
        <time>2026-08-23T10:20:53Z</time>
        <extensions>
          <visugpx:TrkExtension xmlns:visugpx="https://www.visugpx.com/editgpx/">
            <visugpx:node>1</visugpx:node>
            </visugpx:TrkExtension>
        </extensions>
      </trkpt>
    </trkseg>
  </trk>
  <trk>
    <name><![CDATA[Montflanquin Gravel_23]]></name>
    <trkseg>
      <trkpt lat="44.61241" lon="0.86404">
        <ele>182.8</ele>
        <time>2026-08-23T07:45:33Z</time>
      </trkpt>
      <trkpt lat="44.61242" lon="0.8641">
        <ele>182.8</ele>
        <time>2026-08-23T07:45:34Z</time>
      </trkpt>
      <trkpt lat="44.6124" lon="0.86415">
        <ele>183.2</ele>
        <time>2026-08-23T07:45:35Z</time>
      </trkpt>
      <trkpt lat="44.61238" lon="0.8642">
        <ele>183.2</ele>
        <time>2026-08-23T07:45:36Z</time>
      </trkpt>
      <trkpt lat="44.61235" lon="0.86425">
        <ele>183.4</ele>
        <time>2026-08-23T07:45:37Z</time>
      </trkpt>
      <trkpt lat="44.61232" lon="0.8643">
        <ele>183.4</ele>
        <time>2026-08-23T07:45:38Z</time>
      </trkpt>
      <trkpt lat="44.61228" lon="0.86434">
        <ele>183.4</ele>
        <time>2026-08-23T07:45:39Z</time>
      </trkpt>
      <trkpt lat="44.61225" lon="0.86438">
        <ele>183.4</ele>
        <time>2026-08-23T07:45:40Z</time>
      </trkpt>
      <trkpt lat="44.61221" lon="0.86443">
        <ele>183.4</ele>
        <time>2026-08-23T07:45:41Z</time>
      </trkpt>
      <trkpt lat="44.61218" lon="0.86447">
        <ele>183.4</ele>
        <time>2026-08-23T07:45:42Z</time>
      </trkpt>
      <trkpt lat="44.61214" lon="0.86451">
        <ele>183.4</ele>
        <time>2026-08-23T07:45:43Z</time>
      </trkpt>
      <trkpt lat="44.61211" lon="0.86456">
        <ele>183.4</ele>
        <time>2026-08-23T07:45:44Z</time>
      </trkpt>
      <trkpt lat="44.61208" lon="0.8646">
        <ele>183.4</ele>
        <time>2026-08-23T07:45:45Z</time>
      </trkpt>
      <trkpt lat="44.61204" lon="0.86465">
        <ele>183.6</ele>
        <time>2026-08-23T07:45:46Z</time>
      </trkpt>
      <trkpt lat="44.61201" lon="0.86469">
        <ele>183.6</ele>
        <time>2026-08-23T07:45:47Z</time>
      </trkpt>
      <trkpt lat="44.61198" lon="0.86473">
        <ele>183.6</ele>
        <time>2026-08-23T07:45:48Z</time>
      </trkpt>
      <trkpt lat="44.61194" lon="0.86478">
        <ele>183.8</ele>
        <time>2026-08-23T07:45:49Z</time>
      </trkpt>
      <trkpt lat="44.61191" lon="0.86483">
        <ele>184</ele>
        <time>2026-08-23T07:45:50Z</time>
      </trkpt>
      <trkpt lat="44.61188" lon="0.86487">
        <ele>184.2</ele>
        <time>2026-08-23T07:45:51Z</time>
      </trkpt>
      <trkpt lat="44.61184" lon="0.86492">
        <ele>184.2</ele>
        <time>2026-08-23T07:45:52Z</time>
      </trkpt>
      <trkpt lat="44.61181" lon="0.86496">
        <ele>184.2</ele>
        <time>2026-08-23T07:45:53Z</time>
      </trkpt>
      <trkpt lat="44.61177" lon="0.86501">
        <ele>184.4</ele>
        <time>2026-08-23T07:45:54Z</time>
      </trkpt>
      <trkpt lat="44.61174" lon="0.86505">
        <ele>184.4</ele>
        <time>2026-08-23T07:45:55Z</time>
      </trkpt>
      <trkpt lat="44.6117" lon="0.86509">
        <ele>184.6</ele>
        <time>2026-08-23T07:45:56Z</time>
      </trkpt>
      <trkpt lat="44.61167" lon="0.86514">
        <ele>184.6</ele>
        <time>2026-08-23T07:45:57Z</time>
      </trkpt>
      <trkpt lat="44.61164" lon="0.8652">
        <ele>184.6</ele>
        <time>2026-08-23T07:45:58Z</time>
      </trkpt>
      <trkpt lat="44.61161" lon="0.86526">
        <ele>184.6</ele>
        <time>2026-08-23T07:45:59Z</time>
      </trkpt>
      <trkpt lat="44.61158" lon="0.86533">
        <ele>184.6</ele>
        <time>2026-08-23T07:46:00Z</time>
      </trkpt>
      <trkpt lat="44.61155" lon="0.86543">
        <ele>184.6</ele>
        <time>2026-08-23T07:46:01Z</time>
      </trkpt>
      <trkpt lat="44.61153" lon="0.86551">
        <ele>184.6</ele>
        <time>2026-08-23T07:46:02Z</time>
      </trkpt>
      <trkpt lat="44.61152" lon="0.86559">
        <ele>184.6</ele>
        <time>2026-08-23T07:46:03Z</time>
      </trkpt>
      <trkpt lat="44.6115" lon="0.86567">
        <ele>184.6</ele>
        <time>2026-08-23T07:46:04Z</time>
      </trkpt>
      <trkpt lat="44.61149" lon="0.86576">
        <ele>184.4</ele>
        <time>2026-08-23T07:46:05Z</time>
      </trkpt>
      <trkpt lat="44.61147" lon="0.86584">
        <ele>184.2</ele>
        <time>2026-08-23T07:46:06Z</time>
      </trkpt>
      <trkpt lat="44.61145" lon="0.86593">
        <ele>183.8</ele>
        <time>2026-08-23T07:46:07Z</time>
      </trkpt>
      <trkpt lat="44.61143" lon="0.86601">
        <ele>183.6</ele>
        <time>2026-08-23T07:46:08Z</time>
      </trkpt>
      <trkpt lat="44.61141" lon="0.86609">
        <ele>183.4</ele>
        <time>2026-08-23T07:46:09Z</time>
      </trkpt>
      <trkpt lat="44.61139" lon="0.86616">
        <ele>183.2</ele>
        <time>2026-08-23T07:46:10Z</time>
      </trkpt>
      <trkpt lat="44.61137" lon="0.86623">
        <ele>182.8</ele>
        <time>2026-08-23T07:46:11Z</time>
      </trkpt>
      <trkpt lat="44.61135" lon="0.8663">
        <ele>182.6</ele>
        <time>2026-08-23T07:46:12Z</time>
      </trkpt>
      <trkpt lat="44.61133" lon="0.86638">
        <ele>182.4</ele>
        <time>2026-08-23T07:46:13Z</time>
      </trkpt>
      <trkpt lat="44.61132" lon="0.86645">
        <ele>182.4</ele>
        <time>2026-08-23T07:46:14Z</time>
      </trkpt>
      <trkpt lat="44.61132" lon="0.86652">
        <ele>182.2</ele>
        <time>2026-08-23T07:46:15Z</time>
      </trkpt>
      <trkpt lat="44.61132" lon="0.86658">
        <ele>182</ele>
        <time>2026-08-23T07:46:16Z</time>
      </trkpt>
      <trkpt lat="44.61132" lon="0.86664">
        <ele>181.8</ele>
        <time>2026-08-23T07:46:17Z</time>
      </trkpt>
      <trkpt lat="44.61132" lon="0.8667">
        <ele>181.6</ele>
        <time>2026-08-23T07:46:18Z</time>
      </trkpt>
      <trkpt lat="44.61131" lon="0.86677">
        <ele>181.4</ele>
        <time>2026-08-23T07:46:19Z</time>
      </trkpt>
      <trkpt lat="44.61129" lon="0.86682">
        <ele>181</ele>
        <time>2026-08-23T07:46:20Z</time>
      </trkpt>
      <trkpt lat="44.61127" lon="0.86688">
        <ele>180.6</ele>
        <time>2026-08-23T07:46:21Z</time>
      </trkpt>
      <trkpt lat="44.61125" lon="0.86694">
        <ele>180.4</ele>
        <time>2026-08-23T07:46:22Z</time>
      </trkpt>
      <trkpt lat="44.61123" lon="0.86701">
        <ele>180.2</ele>
        <time>2026-08-23T07:46:23Z</time>
      </trkpt>
      <trkpt lat="44.61122" lon="0.86707">
        <ele>179.6</ele>
        <time>2026-08-23T07:46:24Z</time>
      </trkpt>
      <trkpt lat="44.6112" lon="0.86713">
        <ele>179.4</ele>
        <time>2026-08-23T07:46:25Z</time>
      </trkpt>
      <trkpt lat="44.61119" lon="0.86718">
        <ele>179</ele>
        <time>2026-08-23T07:46:26Z</time>
      </trkpt>
      <trkpt lat="44.61117" lon="0.86723">
        <ele>178.6</ele>
        <time>2026-08-23T07:46:27Z</time>
      </trkpt>
      <trkpt lat="44.61115" lon="0.86729">
        <ele>178.6</ele>
        <time>2026-08-23T07:46:28Z</time>
      </trkpt>
      <trkpt lat="44.61114" lon="0.86735">
        <ele>178.4</ele>
        <time>2026-08-23T07:46:29Z</time>
      </trkpt>
      <trkpt lat="44.61112" lon="0.86741">
        <ele>178.2</ele>
        <time>2026-08-23T07:46:30Z</time>
      </trkpt>
      <trkpt lat="44.6111" lon="0.86748">
        <ele>178</ele>
        <time>2026-08-23T07:46:31Z</time>
      </trkpt>
      <trkpt lat="44.61108" lon="0.86755">
        <ele>178</ele>
        <time>2026-08-23T07:46:32Z</time>
      </trkpt>
      <trkpt lat="44.61106" lon="0.86763">
        <ele>177.8</ele>
        <time>2026-08-23T07:46:33Z</time>
      </trkpt>
      <trkpt lat="44.61104" lon="0.8677">
        <ele>177.6</ele>
        <time>2026-08-23T07:46:34Z</time>
      </trkpt>
      <trkpt lat="44.61103" lon="0.86781">
        <ele>177.4</ele>
        <time>2026-08-23T07:46:35Z</time>
      </trkpt>
      <trkpt lat="44.61102" lon="0.86789">
        <ele>177.2</ele>
        <time>2026-08-23T07:46:36Z</time>
      </trkpt>
      <trkpt lat="44.61101" lon="0.86796">
        <ele>176.8</ele>
        <time>2026-08-23T07:46:37Z</time>
      </trkpt>
      <trkpt lat="44.611" lon="0.86801">
        <ele>176.6</ele>
        <time>2026-08-23T07:46:38Z</time>
      </trkpt>
      <trkpt lat="44.61099" lon="0.86806">
        <ele>176.2</ele>
        <time>2026-08-23T07:46:39Z</time>
      </trkpt>
      <trkpt lat="44.61097" lon="0.86812">
        <ele>175.6</ele>
        <time>2026-08-23T07:46:40Z</time>
      </trkpt>
      <trkpt lat="44.61095" lon="0.86817">
        <ele>175.4</ele>
        <time>2026-08-23T07:46:41Z</time>
      </trkpt>
      <trkpt lat="44.61092" lon="0.86823">
        <ele>175</ele>
        <time>2026-08-23T07:46:42Z</time>
      </trkpt>
      <trkpt lat="44.61089" lon="0.86828">
        <ele>174.6</ele>
        <time>2026-08-23T07:46:43Z</time>
      </trkpt>
      <trkpt lat="44.61087" lon="0.86832">
        <ele>174.6</ele>
        <time>2026-08-23T07:46:44Z</time>
      </trkpt>
      <trkpt lat="44.61084" lon="0.86836">
        <ele>174.4</ele>
        <time>2026-08-23T07:46:45Z</time>
      </trkpt>
      <trkpt lat="44.61082" lon="0.8684">
        <ele>174.4</ele>
        <time>2026-08-23T07:46:46Z</time>
      </trkpt>
      <trkpt lat="44.61081" lon="0.86845">
        <ele>174.2</ele>
        <time>2026-08-23T07:46:47Z</time>
      </trkpt>
      <trkpt lat="44.61079" lon="0.8685">
        <ele>174.2</ele>
        <time>2026-08-23T07:46:48Z</time>
      </trkpt>
      <trkpt lat="44.61078" lon="0.86857">
        <ele>174.2</ele>
        <time>2026-08-23T07:46:49Z</time>
      </trkpt>
      <trkpt lat="44.61078" lon="0.86863">
        <ele>174.2</ele>
        <time>2026-08-23T07:46:50Z</time>
      </trkpt>
      <trkpt lat="44.61077" lon="0.86869">
        <ele>174.2</ele>
        <time>2026-08-23T07:46:51Z</time>
      </trkpt>
      <trkpt lat="44.61077" lon="0.86875">
        <ele>174</ele>
        <time>2026-08-23T07:46:52Z</time>
      </trkpt>
      <trkpt lat="44.61077" lon="0.8688">
        <ele>173.8</ele>
        <time>2026-08-23T07:46:53Z</time>
      </trkpt>
      <trkpt lat="44.61076" lon="0.86885">
        <ele>173.8</ele>
        <time>2026-08-23T07:46:54Z</time>
      </trkpt>
      <trkpt lat="44.61075" lon="0.86889">
        <ele>173.6</ele>
        <time>2026-08-23T07:46:55Z</time>
      </trkpt>
      <trkpt lat="44.61073" lon="0.86893">
        <ele>173.2</ele>
        <time>2026-08-23T07:46:56Z</time>
      </trkpt>
      <trkpt lat="44.61071" lon="0.86897">
        <ele>172.8</ele>
        <time>2026-08-23T07:46:57Z</time>
      </trkpt>
      <trkpt lat="44.61069" lon="0.86902">
        <ele>172.4</ele>
        <time>2026-08-23T07:46:58Z</time>
      </trkpt>
      <trkpt lat="44.61067" lon="0.86906">
        <ele>172.2</ele>
        <time>2026-08-23T07:46:59Z</time>
      </trkpt>
      <trkpt lat="44.61064" lon="0.8691">
        <ele>172</ele>
        <time>2026-08-23T07:47:00Z</time>
      </trkpt>
      <trkpt lat="44.61061" lon="0.86915">
        <ele>171.8</ele>
        <time>2026-08-23T07:47:01Z</time>
      </trkpt>
      <trkpt lat="44.61058" lon="0.8692">
        <ele>171.6</ele>
        <time>2026-08-23T07:47:02Z</time>
      </trkpt>
      <trkpt lat="44.61055" lon="0.86924">
        <ele>171.6</ele>
        <time>2026-08-23T07:47:03Z</time>
      </trkpt>
      <trkpt lat="44.61053" lon="0.86929">
        <ele>171.6</ele>
        <time>2026-08-23T07:47:04Z</time>
      </trkpt>
      <trkpt lat="44.6105" lon="0.86934">
        <ele>171.6</ele>
        <time>2026-08-23T07:47:05Z</time>
      </trkpt>
      <trkpt lat="44.61049" lon="0.8694">
        <ele>171.4</ele>
        <time>2026-08-23T07:47:06Z</time>
      </trkpt>
      <trkpt lat="44.61048" lon="0.86946">
        <ele>171.2</ele>
        <time>2026-08-23T07:47:07Z</time>
      </trkpt>
      <trkpt lat="44.61047" lon="0.86954">
        <ele>171</ele>
        <time>2026-08-23T07:47:08Z</time>
      </trkpt>
      <trkpt lat="44.61046" lon="0.86964">
        <ele>170.6</ele>
        <time>2026-08-23T07:47:09Z</time>
      </trkpt>
      <trkpt lat="44.61045" lon="0.86972">
        <ele>170</ele>
        <time>2026-08-23T07:47:10Z</time>
      </trkpt>
      <trkpt lat="44.61044" lon="0.8698">
        <ele>169.6</ele>
        <time>2026-08-23T07:47:11Z</time>
      </trkpt>
      <trkpt lat="44.61042" lon="0.86987">
        <ele>169</ele>
        <time>2026-08-23T07:47:12Z</time>
      </trkpt>
      <trkpt lat="44.6104" lon="0.86995">
        <ele>168.6</ele>
        <time>2026-08-23T07:47:13Z</time>
      </trkpt>
      <trkpt lat="44.61037" lon="0.87002">
        <ele>168.4</ele>
        <time>2026-08-23T07:47:14Z</time>
      </trkpt>
      <trkpt lat="44.61033" lon="0.87008">
        <ele>168.4</ele>
        <time>2026-08-23T07:47:15Z</time>
      </trkpt>
      <trkpt lat="44.6103" lon="0.87015">
        <ele>168.2</ele>
        <time>2026-08-23T07:47:16Z</time>
      </trkpt>
      <trkpt lat="44.61028" lon="0.87021">
        <ele>167.8</ele>
        <time>2026-08-23T07:47:17Z</time>
      </trkpt>
      <trkpt lat="44.61026" lon="0.87026">
        <ele>167.8</ele>
        <time>2026-08-23T07:47:18Z</time>
      </trkpt>
      <trkpt lat="44.61026" lon="0.87032">
        <ele>167.8</ele>
        <time>2026-08-23T07:47:19Z</time>
      </trkpt>
      <trkpt lat="44.61026" lon="0.87039">
        <ele>167.6</ele>
        <time>2026-08-23T07:47:20Z</time>
      </trkpt>
      <trkpt lat="44.61028" lon="0.87047">
        <ele>167.6</ele>
        <time>2026-08-23T07:47:21Z</time>
      </trkpt>
      <trkpt lat="44.61029" lon="0.87055">
        <ele>167.6</ele>
        <time>2026-08-23T07:47:22Z</time>
      </trkpt>
      <trkpt lat="44.61031" lon="0.87066">
        <ele>167.6</ele>
        <time>2026-08-23T07:47:23Z</time>
      </trkpt>
      <trkpt lat="44.61033" lon="0.87075">
        <ele>167.4</ele>
        <time>2026-08-23T07:47:24Z</time>
      </trkpt>
      <trkpt lat="44.61034" lon="0.87084">
        <ele>167.4</ele>
        <time>2026-08-23T07:47:25Z</time>
      </trkpt>
      <trkpt lat="44.61035" lon="0.87093">
        <ele>167.2</ele>
        <time>2026-08-23T07:47:26Z</time>
      </trkpt>
      <trkpt lat="44.61035" lon="0.87103">
        <ele>167</ele>
        <time>2026-08-23T07:47:27Z</time>
      </trkpt>
      <trkpt lat="44.61035" lon="0.87112">
        <ele>166.8</ele>
        <time>2026-08-23T07:47:28Z</time>
      </trkpt>
      <trkpt lat="44.61035" lon="0.87121">
        <ele>166.6</ele>
        <time>2026-08-23T07:47:29Z</time>
      </trkpt>
      <trkpt lat="44.61034" lon="0.87128">
        <ele>166.6</ele>
        <time>2026-08-23T07:47:30Z</time>
      </trkpt>
      <trkpt lat="44.61034" lon="0.87135">
        <ele>166.4</ele>
        <time>2026-08-23T07:47:31Z</time>
      </trkpt>
      <trkpt lat="44.61035" lon="0.8714">
        <ele>166.2</ele>
        <time>2026-08-23T07:47:32Z</time>
      </trkpt>
      <trkpt lat="44.61035" lon="0.87146">
        <ele>166.2</ele>
        <time>2026-08-23T07:47:33Z</time>
      </trkpt>
      <trkpt lat="44.61034" lon="0.87151">
        <ele>165.8</ele>
        <time>2026-08-23T07:47:34Z</time>
      </trkpt>
      <trkpt lat="44.61032" lon="0.87157">
        <ele>165.6</ele>
        <time>2026-08-23T07:47:35Z</time>
      </trkpt>
      <trkpt lat="44.61029" lon="0.87163">
        <ele>165.2</ele>
        <time>2026-08-23T07:47:36Z</time>
      </trkpt>
      <trkpt lat="44.61027" lon="0.87169">
        <ele>164.8</ele>
        <time>2026-08-23T07:47:37Z</time>
      </trkpt>
      <trkpt lat="44.61024" lon="0.87176">
        <ele>164.6</ele>
        <time>2026-08-23T07:47:38Z</time>
      </trkpt>
      <trkpt lat="44.61021" lon="0.87182">
        <ele>164.4</ele>
        <time>2026-08-23T07:47:39Z</time>
      </trkpt>
      <trkpt lat="44.61018" lon="0.87188">
        <ele>164.4</ele>
        <time>2026-08-23T07:47:40Z</time>
      </trkpt>
      <trkpt lat="44.61015" lon="0.87195">
        <ele>164.4</ele>
        <time>2026-08-23T07:47:41Z</time>
      </trkpt>
      <trkpt lat="44.61012" lon="0.87201">
        <ele>164.2</ele>
        <time>2026-08-23T07:47:42Z</time>
      </trkpt>
      <trkpt lat="44.61008" lon="0.8721">
        <ele>164.2</ele>
        <time>2026-08-23T07:47:43Z</time>
      </trkpt>
      <trkpt lat="44.61006" lon="0.87217">
        <ele>163.8</ele>
        <time>2026-08-23T07:47:44Z</time>
      </trkpt>
      <trkpt lat="44.61003" lon="0.87224">
        <ele>163.6</ele>
        <time>2026-08-23T07:47:45Z</time>
      </trkpt>
      <trkpt lat="44.61001" lon="0.87228">
        <ele>163.6</ele>
        <time>2026-08-23T07:47:46Z</time>
      </trkpt>
      <trkpt lat="44.60999" lon="0.87233">
        <ele>163.6</ele>
        <time>2026-08-23T07:47:47Z</time>
      </trkpt>
      <trkpt lat="44.60997" lon="0.87238">
        <ele>163.4</ele>
        <time>2026-08-23T07:47:48Z</time>
      </trkpt>
      <trkpt lat="44.60995" lon="0.87243">
        <ele>163.4</ele>
        <time>2026-08-23T07:47:49Z</time>
      </trkpt>
      <trkpt lat="44.60992" lon="0.87249">
        <ele>163.4</ele>
        <time>2026-08-23T07:47:50Z</time>
      </trkpt>
      <trkpt lat="44.6099" lon="0.87253">
        <ele>163.4</ele>
        <time>2026-08-23T07:47:51Z</time>
      </trkpt>
      <trkpt lat="44.60988" lon="0.87258">
        <ele>163.4</ele>
        <time>2026-08-23T07:47:52Z</time>
      </trkpt>
      <trkpt lat="44.60985" lon="0.87263">
        <ele>163.4</ele>
        <time>2026-08-23T07:47:53Z</time>
      </trkpt>
      <trkpt lat="44.60983" lon="0.87269">
        <ele>163.4</ele>
        <time>2026-08-23T07:47:54Z</time>
      </trkpt>
      <trkpt lat="44.6098" lon="0.87275">
        <ele>163.4</ele>
        <time>2026-08-23T07:47:55Z</time>
      </trkpt>
      <trkpt lat="44.60977" lon="0.8728">
        <ele>163.2</ele>
        <time>2026-08-23T07:47:56Z</time>
      </trkpt>
      <trkpt lat="44.60974" lon="0.87286">
        <ele>163.2</ele>
        <time>2026-08-23T07:47:57Z</time>
      </trkpt>
      <trkpt lat="44.6097" lon="0.87292">
        <ele>163</ele>
        <time>2026-08-23T07:47:58Z</time>
      </trkpt>
      <trkpt lat="44.60967" lon="0.87297">
        <ele>162.8</ele>
        <time>2026-08-23T07:47:59Z</time>
      </trkpt>
      <trkpt lat="44.60963" lon="0.87302">
        <ele>162.8</ele>
        <time>2026-08-23T07:48:00Z</time>
      </trkpt>
      <trkpt lat="44.6096" lon="0.87308">
        <ele>162.6</ele>
        <time>2026-08-23T07:48:01Z</time>
      </trkpt>
      <trkpt lat="44.60956" lon="0.87316">
        <ele>162.4</ele>
        <time>2026-08-23T07:48:02Z</time>
      </trkpt>
      <trkpt lat="44.60953" lon="0.87323">
        <ele>162.2</ele>
        <time>2026-08-23T07:48:03Z</time>
      </trkpt>
      <trkpt lat="44.60949" lon="0.8733">
        <ele>162.2</ele>
        <time>2026-08-23T07:48:04Z</time>
      </trkpt>
      <trkpt lat="44.60946" lon="0.87337">
        <ele>161.8</ele>
        <time>2026-08-23T07:48:05Z</time>
      </trkpt>
      <trkpt lat="44.60942" lon="0.87343">
        <ele>161.6</ele>
        <time>2026-08-23T07:48:06Z</time>
      </trkpt>
      <trkpt lat="44.60938" lon="0.87349">
        <ele>161.6</ele>
        <time>2026-08-23T07:48:07Z</time>
      </trkpt>
      <trkpt lat="44.60934" lon="0.87355">
        <ele>161.4</ele>
        <time>2026-08-23T07:48:08Z</time>
      </trkpt>
      <trkpt lat="44.6093" lon="0.8736">
        <ele>161</ele>
        <time>2026-08-23T07:48:09Z</time>
      </trkpt>
      <trkpt lat="44.60926" lon="0.87365">
        <ele>160.6</ele>
        <time>2026-08-23T07:48:10Z</time>
      </trkpt>
      <trkpt lat="44.60922" lon="0.8737">
        <ele>160.4</ele>
        <time>2026-08-23T07:48:11Z</time>
      </trkpt>
      <trkpt lat="44.60918" lon="0.87376">
        <ele>160.2</ele>
        <time>2026-08-23T07:48:12Z</time>
      </trkpt>
      <trkpt lat="44.60914" lon="0.8738">
        <ele>160</ele>
        <time>2026-08-23T07:48:13Z</time>
      </trkpt>
      <trkpt lat="44.6091" lon="0.87384">
        <ele>159.8</ele>
        <time>2026-08-23T07:48:14Z</time>
      </trkpt>
      <trkpt lat="44.60907" lon="0.87387">
        <ele>159.6</ele>
        <time>2026-08-23T07:48:15Z</time>
      </trkpt>
      <trkpt lat="44.60902" lon="0.8739">
        <ele>159.4</ele>
        <time>2026-08-23T07:48:16Z</time>
      </trkpt>
      <trkpt lat="44.60898" lon="0.87394">
        <ele>159.4</ele>
        <time>2026-08-23T07:48:17Z</time>
      </trkpt>
      <trkpt lat="44.60895" lon="0.87398">
        <ele>159.2</ele>
        <time>2026-08-23T07:48:18Z</time>
      </trkpt>
      <trkpt lat="44.60893" lon="0.87404">
        <ele>158.8</ele>
        <time>2026-08-23T07:48:19Z</time>
      </trkpt>
      <trkpt lat="44.60891" lon="0.8741">
        <ele>158.8</ele>
        <time>2026-08-23T07:48:20Z</time>
      </trkpt>
      <trkpt lat="44.60889" lon="0.87416">
        <ele>158.6</ele>
        <time>2026-08-23T07:48:21Z</time>
      </trkpt>
      <trkpt lat="44.60887" lon="0.87422">
        <ele>158.6</ele>
        <time>2026-08-23T07:48:22Z</time>
      </trkpt>
      <trkpt lat="44.60885" lon="0.87428">
        <ele>158.4</ele>
        <time>2026-08-23T07:48:23Z</time>
      </trkpt>
      <trkpt lat="44.60884" lon="0.87434">
        <ele>158.2</ele>
        <time>2026-08-23T07:48:24Z</time>
      </trkpt>
      <trkpt lat="44.60882" lon="0.8744">
        <ele>158</ele>
        <time>2026-08-23T07:48:25Z</time>
      </trkpt>
      <trkpt lat="44.60881" lon="0.87444">
        <ele>157.8</ele>
        <time>2026-08-23T07:48:26Z</time>
      </trkpt>
      <trkpt lat="44.6088" lon="0.87448">
        <ele>157.8</ele>
        <time>2026-08-23T07:48:27Z</time>
      </trkpt>
      <trkpt lat="44.60879" lon="0.87451">
        <ele>157.6</ele>
        <time>2026-08-23T07:48:28Z</time>
      </trkpt>
      <trkpt lat="44.60878" lon="0.87452">
        <ele>157.6</ele>
        <time>2026-08-23T07:48:29Z</time>
      </trkpt>
      <trkpt lat="44.60878" lon="0.87454">
        <ele>157.6</ele>
        <time>2026-08-23T07:48:30Z</time>
      </trkpt>
      <trkpt lat="44.60877" lon="0.87456">
        <ele>157.4</ele>
        <time>2026-08-23T07:48:31Z</time>
      </trkpt>
      <trkpt lat="44.60876" lon="0.87458">
        <ele>157.4</ele>
        <time>2026-08-23T07:48:32Z</time>
      </trkpt>
      <trkpt lat="44.60876" lon="0.8746">
        <ele>157.2</ele>
        <time>2026-08-23T07:48:33Z</time>
      </trkpt>
      <trkpt lat="44.60875" lon="0.87462">
        <ele>157</ele>
        <time>2026-08-23T07:48:34Z</time>
      </trkpt>
      <trkpt lat="44.60875" lon="0.87464">
        <ele>156.8</ele>
        <time>2026-08-23T07:48:35Z</time>
      </trkpt>
      <trkpt lat="44.60875" lon="0.87467">
        <ele>156.8</ele>
        <time>2026-08-23T07:48:36Z</time>
      </trkpt>
      <trkpt lat="44.60875" lon="0.8747">
        <ele>156.8</ele>
        <time>2026-08-23T07:48:37Z</time>
      </trkpt>
      <trkpt lat="44.60874" lon="0.87474">
        <ele>156.8</ele>
        <time>2026-08-23T07:48:38Z</time>
      </trkpt>
      <trkpt lat="44.60874" lon="0.87478">
        <ele>156.8</ele>
        <time>2026-08-23T07:48:39Z</time>
      </trkpt>
      <trkpt lat="44.60874" lon="0.87485">
        <ele>156.8</ele>
        <time>2026-08-23T07:48:40Z</time>
      </trkpt>
      <trkpt lat="44.60873" lon="0.8749">
        <ele>156.8</ele>
        <time>2026-08-23T07:48:41Z</time>
      </trkpt>
      <trkpt lat="44.60872" lon="0.87495">
        <ele>156.8</ele>
        <time>2026-08-23T07:48:42Z</time>
      </trkpt>
      <trkpt lat="44.60871" lon="0.875">
        <ele>157</ele>
        <time>2026-08-23T07:48:43Z</time>
      </trkpt>
      <trkpt lat="44.6087" lon="0.87505">
        <ele>157.2</ele>
        <time>2026-08-23T07:48:44Z</time>
      </trkpt>
      <trkpt lat="44.60869" lon="0.8751">
        <ele>157.4</ele>
        <time>2026-08-23T07:48:45Z</time>
      </trkpt>
      <trkpt lat="44.60868" lon="0.87515">
        <ele>157.4</ele>
        <time>2026-08-23T07:48:46Z</time>
      </trkpt>
      <trkpt lat="44.60866" lon="0.8752">
        <ele>157.6</ele>
        <time>2026-08-23T07:48:47Z</time>
      </trkpt>
      <trkpt lat="44.60865" lon="0.87525">
        <ele>157.6</ele>
        <time>2026-08-23T07:48:48Z</time>
      </trkpt>
      <trkpt lat="44.60864" lon="0.8753">
        <ele>157.6</ele>
        <time>2026-08-23T07:48:49Z</time>
      </trkpt>
      <trkpt lat="44.60862" lon="0.87534">
        <ele>157.6</ele>
        <time>2026-08-23T07:48:50Z</time>
      </trkpt>
      <trkpt lat="44.6086" lon="0.87538">
        <ele>157.6</ele>
        <time>2026-08-23T07:48:51Z</time>
      </trkpt>
      <trkpt lat="44.60858" lon="0.87542">
        <ele>157.8</ele>
        <time>2026-08-23T07:48:52Z</time>
      </trkpt>
      <trkpt lat="44.60856" lon="0.87545">
        <ele>157.8</ele>
        <time>2026-08-23T07:48:53Z</time>
      </trkpt>
      <trkpt lat="44.60853" lon="0.87548">
        <ele>158</ele>
        <time>2026-08-23T07:48:54Z</time>
      </trkpt>
      <trkpt lat="44.60851" lon="0.87551">
        <ele>158.2</ele>
        <time>2026-08-23T07:48:55Z</time>
      </trkpt>
      <trkpt lat="44.60848" lon="0.87553">
        <ele>158.4</ele>
        <time>2026-08-23T07:48:56Z</time>
      </trkpt>
      <trkpt lat="44.60846" lon="0.87556">
        <ele>158.6</ele>
        <time>2026-08-23T07:48:57Z</time>
      </trkpt>
      <trkpt lat="44.60843" lon="0.87559">
        <ele>159</ele>
        <time>2026-08-23T07:48:58Z</time>
      </trkpt>
      <trkpt lat="44.6084" lon="0.87561">
        <ele>159.4</ele>
        <time>2026-08-23T07:48:59Z</time>
      </trkpt>
      <trkpt lat="44.60838" lon="0.87564">
        <ele>159.6</ele>
        <time>2026-08-23T07:49:00Z</time>
      </trkpt>
      <trkpt lat="44.60836" lon="0.87566">
        <ele>160</ele>
        <time>2026-08-23T07:49:01Z</time>
      </trkpt>
      <trkpt lat="44.60833" lon="0.87569">
        <ele>160.6</ele>
        <time>2026-08-23T07:49:02Z</time>
      </trkpt>
      <trkpt lat="44.60831" lon="0.87571">
        <ele>160.8</ele>
        <time>2026-08-23T07:49:03Z</time>
      </trkpt>
      <trkpt lat="44.60829" lon="0.87573">
        <ele>161.2</ele>
        <time>2026-08-23T07:49:04Z</time>
      </trkpt>
      <trkpt lat="44.60826" lon="0.87575">
        <ele>161.6</ele>
        <time>2026-08-23T07:49:05Z</time>
      </trkpt>
      <trkpt lat="44.60823" lon="0.87578">
        <ele>162.2</ele>
        <time>2026-08-23T07:49:06Z</time>
      </trkpt>
      <trkpt lat="44.6082" lon="0.8758">
        <ele>162.6</ele>
        <time>2026-08-23T07:49:07Z</time>
      </trkpt>
      <trkpt lat="44.60817" lon="0.87582">
        <ele>162.8</ele>
        <time>2026-08-23T07:49:08Z</time>
      </trkpt>
      <trkpt lat="44.60814" lon="0.87585">
        <ele>163</ele>
        <time>2026-08-23T07:49:09Z</time>
      </trkpt>
      <trkpt lat="44.6081" lon="0.87587">
        <ele>163.4</ele>
        <time>2026-08-23T07:49:10Z</time>
      </trkpt>
      <trkpt lat="44.60807" lon="0.8759">
        <ele>163.6</ele>
        <time>2026-08-23T07:49:11Z</time>
      </trkpt>
      <trkpt lat="44.60804" lon="0.87592">
        <ele>163.8</ele>
        <time>2026-08-23T07:49:12Z</time>
      </trkpt>
      <trkpt lat="44.608" lon="0.87595">
        <ele>164</ele>
        <time>2026-08-23T07:49:13Z</time>
      </trkpt>
      <trkpt lat="44.60797" lon="0.87598">
        <ele>164.2</ele>
        <time>2026-08-23T07:49:14Z</time>
      </trkpt>
      <trkpt lat="44.60794" lon="0.876">
        <ele>164.2</ele>
        <time>2026-08-23T07:49:15Z</time>
      </trkpt>
      <trkpt lat="44.60791" lon="0.87603">
        <ele>164.4</ele>
        <time>2026-08-23T07:49:16Z</time>
      </trkpt>
      <trkpt lat="44.60788" lon="0.87605">
        <ele>164.4</ele>
        <time>2026-08-23T07:49:17Z</time>
      </trkpt>
      <trkpt lat="44.60784" lon="0.87606">
        <ele>164.4</ele>
        <time>2026-08-23T07:49:18Z</time>
      </trkpt>
      <trkpt lat="44.6078" lon="0.87608">
        <ele>164.6</ele>
        <time>2026-08-23T07:49:19Z</time>
      </trkpt>
      <trkpt lat="44.60776" lon="0.87608">
        <ele>164.6</ele>
        <time>2026-08-23T07:49:20Z</time>
      </trkpt>
      <trkpt lat="44.60772" lon="0.87609">
        <ele>164.8</ele>
        <time>2026-08-23T07:49:21Z</time>
      </trkpt>
      <trkpt lat="44.60768" lon="0.87609">
        <ele>164.8</ele>
        <time>2026-08-23T07:49:22Z</time>
      </trkpt>
      <trkpt lat="44.60764" lon="0.87608">
        <ele>164.8</ele>
        <time>2026-08-23T07:49:23Z</time>
      </trkpt>
      <trkpt lat="44.60761" lon="0.87608">
        <ele>164.8</ele>
        <time>2026-08-23T07:49:24Z</time>
      </trkpt>
      <trkpt lat="44.60757" lon="0.87607">
        <ele>164.8</ele>
        <time>2026-08-23T07:49:25Z</time>
      </trkpt>
      <trkpt lat="44.60754" lon="0.87606">
        <ele>164.8</ele>
        <time>2026-08-23T07:49:26Z</time>
      </trkpt>
      <trkpt lat="44.6075" lon="0.87605">
        <ele>164.8</ele>
        <time>2026-08-23T07:49:27Z</time>
      </trkpt>
      <trkpt lat="44.60747" lon="0.87606">
        <ele>164.8</ele>
        <time>2026-08-23T07:49:28Z</time>
      </trkpt>
      <trkpt lat="44.60744" lon="0.87607">
        <ele>165</ele>
        <time>2026-08-23T07:49:29Z</time>
      </trkpt>
      <trkpt lat="44.60741" lon="0.8761">
        <ele>165.2</ele>
        <time>2026-08-23T07:49:30Z</time>
      </trkpt>
      <trkpt lat="44.60739" lon="0.87614">
        <ele>165.4</ele>
        <time>2026-08-23T07:49:31Z</time>
      </trkpt>
      <trkpt lat="44.60737" lon="0.87617">
        <ele>165.6</ele>
        <time>2026-08-23T07:49:32Z</time>
      </trkpt>
      <trkpt lat="44.60734" lon="0.87621">
        <ele>165.6</ele>
        <time>2026-08-23T07:49:33Z</time>
      </trkpt>
      <trkpt lat="44.60732" lon="0.87626">
        <ele>165.8</ele>
        <time>2026-08-23T07:49:34Z</time>
      </trkpt>
      <trkpt lat="44.60729" lon="0.8763">
        <ele>166</ele>
        <time>2026-08-23T07:49:35Z</time>
      </trkpt>
      <trkpt lat="44.60725" lon="0.87635">
        <ele>166.2</ele>
        <time>2026-08-23T07:49:36Z</time>
      </trkpt>
      <trkpt lat="44.60722" lon="0.87641">
        <ele>166.2</ele>
        <time>2026-08-23T07:49:37Z</time>
      </trkpt>
      <trkpt lat="44.60719" lon="0.87647">
        <ele>166.2</ele>
        <time>2026-08-23T07:49:38Z</time>
      </trkpt>
      <trkpt lat="44.60715" lon="0.87657">
        <ele>166</ele>
        <time>2026-08-23T07:49:39Z</time>
      </trkpt>
      <trkpt lat="44.60713" lon="0.87664">
        <ele>165.8</ele>
        <time>2026-08-23T07:49:40Z</time>
      </trkpt>
      <trkpt lat="44.60711" lon="0.87671">
        <ele>165.6</ele>
        <time>2026-08-23T07:49:41Z</time>
      </trkpt>
      <trkpt lat="44.60709" lon="0.87678">
        <ele>165.2</ele>
        <time>2026-08-23T07:49:42Z</time>
      </trkpt>
      <trkpt lat="44.60707" lon="0.87683">
        <ele>164.8</ele>
        <time>2026-08-23T07:49:43Z</time>
      </trkpt>
      <trkpt lat="44.60706" lon="0.87688">
        <ele>164.8</ele>
        <time>2026-08-23T07:49:44Z</time>
      </trkpt>
      <trkpt lat="44.60704" lon="0.87693">
        <ele>164.8</ele>
        <time>2026-08-23T07:49:45Z</time>
      </trkpt>
      <trkpt lat="44.60703" lon="0.87698">
        <ele>164.8</ele>
        <time>2026-08-23T07:49:46Z</time>
      </trkpt>
      <trkpt lat="44.60701" lon="0.87703">
        <ele>164.8</ele>
        <time>2026-08-23T07:49:47Z</time>
      </trkpt>
      <trkpt lat="44.607" lon="0.87707">
        <ele>164.8</ele>
        <time>2026-08-23T07:49:48Z</time>
      </trkpt>
      <trkpt lat="44.60699" lon="0.87711">
        <ele>165</ele>
        <time>2026-08-23T07:49:49Z</time>
      </trkpt>
      <trkpt lat="44.60698" lon="0.87714">
        <ele>165.2</ele>
        <time>2026-08-23T07:49:50Z</time>
      </trkpt>
      <trkpt lat="44.60698" lon="0.87716">
        <ele>165.4</ele>
        <time>2026-08-23T07:49:51Z</time>
      </trkpt>
      <trkpt lat="44.60697" lon="0.87718">
        <ele>165.6</ele>
        <time>2026-08-23T07:49:52Z</time>
      </trkpt>
      <trkpt lat="44.60696" lon="0.87721">
        <ele>165.6</ele>
        <time>2026-08-23T07:49:53Z</time>
      </trkpt>
      <trkpt lat="44.60695" lon="0.87724">
        <ele>165.8</ele>
        <time>2026-08-23T07:49:54Z</time>
      </trkpt>
      <trkpt lat="44.60694" lon="0.87727">
        <ele>166</ele>
        <time>2026-08-23T07:49:55Z</time>
      </trkpt>
      <trkpt lat="44.60694" lon="0.8773">
        <ele>166.2</ele>
        <time>2026-08-23T07:49:56Z</time>
      </trkpt>
      <trkpt lat="44.60693" lon="0.87733">
        <ele>166.6</ele>
        <time>2026-08-23T07:49:57Z</time>
      </trkpt>
      <trkpt lat="44.60692" lon="0.87736">
        <ele>166.6</ele>
        <time>2026-08-23T07:49:58Z</time>
      </trkpt>
      <trkpt lat="44.60691" lon="0.87739">
        <ele>166.8</ele>
        <time>2026-08-23T07:49:59Z</time>
      </trkpt>
      <trkpt lat="44.6069" lon="0.87743">
        <ele>167.2</ele>
        <time>2026-08-23T07:50:00Z</time>
      </trkpt>
      <trkpt lat="44.60689" lon="0.87746">
        <ele>167.4</ele>
        <time>2026-08-23T07:50:01Z</time>
      </trkpt>
      <trkpt lat="44.60688" lon="0.87749">
        <ele>167.6</ele>
        <time>2026-08-23T07:50:02Z</time>
      </trkpt>
      <trkpt lat="44.60687" lon="0.87752">
        <ele>167.8</ele>
        <time>2026-08-23T07:50:03Z</time>
      </trkpt>
      <trkpt lat="44.60686" lon="0.87755">
        <ele>167.8</ele>
        <time>2026-08-23T07:50:04Z</time>
      </trkpt>
      <trkpt lat="44.60685" lon="0.87758">
        <ele>168.2</ele>
        <time>2026-08-23T07:50:05Z</time>
      </trkpt>
      <trkpt lat="44.60684" lon="0.8776">
        <ele>168.4</ele>
        <time>2026-08-23T07:50:06Z</time>
      </trkpt>
      <trkpt lat="44.60683" lon="0.87763">
        <ele>168.6</ele>
        <time>2026-08-23T07:50:07Z</time>
      </trkpt>
      <trkpt lat="44.60682" lon="0.87766">
        <ele>168.8</ele>
        <time>2026-08-23T07:50:08Z</time>
      </trkpt>
      <trkpt lat="44.60681" lon="0.87769">
        <ele>169.2</ele>
        <time>2026-08-23T07:50:09Z</time>
      </trkpt>
      <trkpt lat="44.6068" lon="0.87771">
        <ele>169.4</ele>
        <time>2026-08-23T07:50:10Z</time>
      </trkpt>
      <trkpt lat="44.60679" lon="0.87774">
        <ele>169.6</ele>
        <time>2026-08-23T07:50:11Z</time>
      </trkpt>
      <trkpt lat="44.60677" lon="0.87776">
        <ele>169.8</ele>
        <time>2026-08-23T07:50:12Z</time>
      </trkpt>
      <trkpt lat="44.60675" lon="0.87777">
        <ele>170</ele>
        <time>2026-08-23T07:50:13Z</time>
      </trkpt>
      <trkpt lat="44.60673" lon="0.87779">
        <ele>170.2</ele>
        <time>2026-08-23T07:50:14Z</time>
      </trkpt>
      <trkpt lat="44.60671" lon="0.87781">
        <ele>170.4</ele>
        <time>2026-08-23T07:50:15Z</time>
      </trkpt>
      <trkpt lat="44.6067" lon="0.87782">
        <ele>170.6</ele>
        <time>2026-08-23T07:50:16Z</time>
      </trkpt>
      <trkpt lat="44.60668" lon="0.87783">
        <ele>170.8</ele>
        <time>2026-08-23T07:50:17Z</time>
      </trkpt>
      <trkpt lat="44.60666" lon="0.87784">
        <ele>171.2</ele>
        <time>2026-08-23T07:50:18Z</time>
      </trkpt>
      <trkpt lat="44.60665" lon="0.87785">
        <ele>171.4</ele>
        <time>2026-08-23T07:50:19Z</time>
      </trkpt>
      <trkpt lat="44.60664" lon="0.87786">
        <ele>171.4</ele>
        <time>2026-08-23T07:50:20Z</time>
      </trkpt>
      <trkpt lat="44.60662" lon="0.87786">
        <ele>171.6</ele>
        <time>2026-08-23T07:50:21Z</time>
      </trkpt>
      <trkpt lat="44.60661" lon="0.87787">
        <ele>171.8</ele>
        <time>2026-08-23T07:50:22Z</time>
      </trkpt>
      <trkpt lat="44.60658" lon="0.87788">
        <ele>171.8</ele>
        <time>2026-08-23T07:50:23Z</time>
      </trkpt>
      <trkpt lat="44.60656" lon="0.87788">
        <ele>172</ele>
        <time>2026-08-23T07:50:24Z</time>
      </trkpt>
      <trkpt lat="44.60654" lon="0.87788">
        <ele>172.2</ele>
        <time>2026-08-23T07:50:25Z</time>
      </trkpt>
      <trkpt lat="44.60654" lon="0.87788">
        <ele>172.2</ele>
        <time>2026-08-23T07:50:26Z</time>
      </trkpt>
      <trkpt lat="44.60654" lon="0.87788">
        <ele>172.4</ele>
        <time>2026-08-23T07:50:27Z</time>
      </trkpt>
      <trkpt lat="44.60654" lon="0.87788">
        <ele>172.4</ele>
        <time>2026-08-23T07:50:28Z</time>
      </trkpt>
      <trkpt lat="44.60654" lon="0.87788">
        <ele>172.4</ele>
        <time>2026-08-23T07:50:29Z</time>
      </trkpt>
      <trkpt lat="44.60654" lon="0.87788">
        <ele>172.6</ele>
        <time>2026-08-23T07:50:30Z</time>
      </trkpt>
      <trkpt lat="44.60654" lon="0.87788">
        <ele>172.6</ele>
        <time>2026-08-23T07:50:31Z</time>
      </trkpt>
      <trkpt lat="44.60654" lon="0.87788">
        <ele>172.6</ele>
        <time>2026-08-23T07:50:32Z</time>
      </trkpt>
      <trkpt lat="44.60645" lon="0.87796">
        <ele>172.8</ele>
        <time>2026-08-23T07:50:45Z</time>
      </trkpt>
      <trkpt lat="44.60644" lon="0.87799">
        <ele>173</ele>
        <time>2026-08-23T07:50:46Z</time>
      </trkpt>
      <trkpt lat="44.60642" lon="0.87802">
        <ele>173.2</ele>
        <time>2026-08-23T07:50:47Z</time>
      </trkpt>
      <trkpt lat="44.60639" lon="0.87806">
        <ele>173.2</ele>
        <time>2026-08-23T07:50:48Z</time>
      </trkpt>
      <trkpt lat="44.60636" lon="0.87809">
        <ele>173.2</ele>
        <time>2026-08-23T07:50:49Z</time>
      </trkpt>
      <trkpt lat="44.60634" lon="0.87812">
        <ele>173.4</ele>
        <time>2026-08-23T07:50:50Z</time>
      </trkpt>
      <trkpt lat="44.60632" lon="0.87815">
        <ele>173.6</ele>
        <time>2026-08-23T07:50:51Z</time>
      </trkpt>
      <trkpt lat="44.60629" lon="0.87818">
        <ele>173.8</ele>
        <time>2026-08-23T07:50:52Z</time>
      </trkpt>
      <trkpt lat="44.60627" lon="0.87821">
        <ele>174.2</ele>
        <time>2026-08-23T07:50:53Z</time>
      </trkpt>
      <trkpt lat="44.60625" lon="0.87824">
        <ele>174.4</ele>
        <time>2026-08-23T07:50:54Z</time>
      </trkpt>
      <trkpt lat="44.60623" lon="0.87827">
        <ele>174.6</ele>
        <time>2026-08-23T07:50:55Z</time>
      </trkpt>
      <trkpt lat="44.60621" lon="0.8783">
        <ele>174.8</ele>
        <time>2026-08-23T07:50:56Z</time>
      </trkpt>
      <trkpt lat="44.60619" lon="0.87834">
        <ele>175.4</ele>
        <time>2026-08-23T07:50:57Z</time>
      </trkpt>
      <trkpt lat="44.60616" lon="0.87837">
        <ele>175.6</ele>
        <time>2026-08-23T07:50:58Z</time>
      </trkpt>
      <trkpt lat="44.60614" lon="0.87841">
        <ele>175.6</ele>
        <time>2026-08-23T07:50:59Z</time>
      </trkpt>
      <trkpt lat="44.60612" lon="0.87845">
        <ele>175.8</ele>
        <time>2026-08-23T07:51:00Z</time>
      </trkpt>
      <trkpt lat="44.6061" lon="0.87849">
        <ele>176</ele>
        <time>2026-08-23T07:51:01Z</time>
      </trkpt>
      <trkpt lat="44.60607" lon="0.87853">
        <ele>176.2</ele>
        <time>2026-08-23T07:51:02Z</time>
      </trkpt>
      <trkpt lat="44.60605" lon="0.87857">
        <ele>176.2</ele>
        <time>2026-08-23T07:51:03Z</time>
      </trkpt>
      <trkpt lat="44.60603" lon="0.87861">
        <ele>176.4</ele>
        <time>2026-08-23T07:51:04Z</time>
      </trkpt>
      <trkpt lat="44.60601" lon="0.87865">
        <ele>176.6</ele>
        <time>2026-08-23T07:51:05Z</time>
      </trkpt>
      <trkpt lat="44.60599" lon="0.87869">
        <ele>176.6</ele>
        <time>2026-08-23T07:51:06Z</time>
      </trkpt>
      <trkpt lat="44.60597" lon="0.87873">
        <ele>176.8</ele>
        <time>2026-08-23T07:51:07Z</time>
      </trkpt>
      <trkpt lat="44.60595" lon="0.87877">
        <ele>177.2</ele>
        <time>2026-08-23T07:51:08Z</time>
      </trkpt>
      <trkpt lat="44.60593" lon="0.87881">
        <ele>177.2</ele>
        <time>2026-08-23T07:51:09Z</time>
      </trkpt>
      <trkpt lat="44.60591" lon="0.87884">
        <ele>177.4</ele>
        <time>2026-08-23T07:51:10Z</time>
      </trkpt>
      <trkpt lat="44.6059" lon="0.87888">
        <ele>177.6</ele>
        <time>2026-08-23T07:51:11Z</time>
      </trkpt>
      <trkpt lat="44.60589" lon="0.87892">
        <ele>177.6</ele>
        <time>2026-08-23T07:51:12Z</time>
      </trkpt>
      <trkpt lat="44.60589" lon="0.87896">
        <ele>177.8</ele>
        <time>2026-08-23T07:51:13Z</time>
      </trkpt>
      <trkpt lat="44.6059" lon="0.87901">
        <ele>178</ele>
        <time>2026-08-23T07:51:14Z</time>
      </trkpt>
      <trkpt lat="44.60591" lon="0.87905">
        <ele>178.2</ele>
        <time>2026-08-23T07:51:15Z</time>
      </trkpt>
      <trkpt lat="44.60593" lon="0.87909">
        <ele>178.4</ele>
        <time>2026-08-23T07:51:16Z</time>
      </trkpt>
      <trkpt lat="44.60594" lon="0.87914">
        <ele>178.6</ele>
        <time>2026-08-23T07:51:17Z</time>
      </trkpt>
      <trkpt lat="44.60596" lon="0.87918">
        <ele>178.6</ele>
        <time>2026-08-23T07:51:18Z</time>
      </trkpt>
      <trkpt lat="44.60598" lon="0.87923">
        <ele>178.6</ele>
        <time>2026-08-23T07:51:19Z</time>
      </trkpt>
      <trkpt lat="44.606" lon="0.87927">
        <ele>178.8</ele>
        <time>2026-08-23T07:51:20Z</time>
      </trkpt>
      <trkpt lat="44.60601" lon="0.87932">
        <ele>179</ele>
        <time>2026-08-23T07:51:21Z</time>
      </trkpt>
      <trkpt lat="44.60602" lon="0.87937">
        <ele>179.4</ele>
        <time>2026-08-23T07:51:22Z</time>
      </trkpt>
      <trkpt lat="44.60604" lon="0.87943">
        <ele>179.6</ele>
        <time>2026-08-23T07:51:23Z</time>
      </trkpt>
      <trkpt lat="44.60605" lon="0.87949">
        <ele>179.6</ele>
        <time>2026-08-23T07:51:24Z</time>
      </trkpt>
      <trkpt lat="44.60607" lon="0.87955">
        <ele>179.8</ele>
        <time>2026-08-23T07:51:25Z</time>
      </trkpt>
      <trkpt lat="44.60609" lon="0.87962">
        <ele>180</ele>
        <time>2026-08-23T07:51:26Z</time>
      </trkpt>
      <trkpt lat="44.60611" lon="0.87968">
        <ele>180</ele>
        <time>2026-08-23T07:51:27Z</time>
      </trkpt>
      <trkpt lat="44.60613" lon="0.87974">
        <ele>180</ele>
        <time>2026-08-23T07:51:28Z</time>
      </trkpt>
      <trkpt lat="44.60616" lon="0.8798">
        <ele>179.8</ele>
        <time>2026-08-23T07:51:29Z</time>
      </trkpt>
      <trkpt lat="44.60618" lon="0.87985">
        <ele>179.8</ele>
        <time>2026-08-23T07:51:30Z</time>
      </trkpt>
      <trkpt lat="44.60621" lon="0.87991">
        <ele>179.6</ele>
        <time>2026-08-23T07:51:31Z</time>
      </trkpt>
      <trkpt lat="44.60624" lon="0.87996">
        <ele>179.6</ele>
        <time>2026-08-23T07:51:32Z</time>
      </trkpt>
      <trkpt lat="44.60626" lon="0.88001">
        <ele>179.6</ele>
        <time>2026-08-23T07:51:33Z</time>
      </trkpt>
      <trkpt lat="44.60629" lon="0.88005">
        <ele>179.6</ele>
        <time>2026-08-23T07:51:34Z</time>
      </trkpt>
      <trkpt lat="44.60631" lon="0.8801">
        <ele>179.6</ele>
        <time>2026-08-23T07:51:35Z</time>
      </trkpt>
      <trkpt lat="44.60633" lon="0.88014">
        <ele>179.6</ele>
        <time>2026-08-23T07:51:36Z</time>
      </trkpt>
      <trkpt lat="44.60636" lon="0.88019">
        <ele>179.8</ele>
        <time>2026-08-23T07:51:37Z</time>
      </trkpt>
      <trkpt lat="44.60638" lon="0.88023">
        <ele>180.2</ele>
        <time>2026-08-23T07:51:38Z</time>
      </trkpt>
      <trkpt lat="44.60639" lon="0.88027">
        <ele>180.6</ele>
        <time>2026-08-23T07:51:39Z</time>
      </trkpt>
      <trkpt lat="44.60641" lon="0.88031">
        <ele>180.6</ele>
        <time>2026-08-23T07:51:40Z</time>
      </trkpt>
      <trkpt lat="44.60643" lon="0.88035">
        <ele>180.8</ele>
        <time>2026-08-23T07:51:41Z</time>
      </trkpt>
      <trkpt lat="44.60644" lon="0.8804">
        <ele>181.4</ele>
        <time>2026-08-23T07:51:42Z</time>
      </trkpt>
      <trkpt lat="44.60646" lon="0.88044">
        <ele>181.6</ele>
        <time>2026-08-23T07:51:43Z</time>
      </trkpt>
      <trkpt lat="44.60648" lon="0.88048">
        <ele>182</ele>
        <time>2026-08-23T07:51:44Z</time>
      </trkpt>
      <trkpt lat="44.60649" lon="0.88052">
        <ele>182.4</ele>
        <time>2026-08-23T07:51:45Z</time>
      </trkpt>
      <trkpt lat="44.60651" lon="0.88057">
        <ele>182.6</ele>
        <time>2026-08-23T07:51:46Z</time>
      </trkpt>
      <trkpt lat="44.60653" lon="0.88061">
        <ele>182.8</ele>
        <time>2026-08-23T07:51:47Z</time>
      </trkpt>
      <trkpt lat="44.60655" lon="0.88065">
        <ele>183.2</ele>
        <time>2026-08-23T07:51:48Z</time>
      </trkpt>
      <trkpt lat="44.60658" lon="0.88069">
        <ele>183.2</ele>
        <time>2026-08-23T07:51:49Z</time>
      </trkpt>
      <trkpt lat="44.6066" lon="0.88073">
        <ele>183.4</ele>
        <time>2026-08-23T07:51:50Z</time>
      </trkpt>
      <trkpt lat="44.60662" lon="0.88077">
        <ele>183.6</ele>
        <time>2026-08-23T07:51:51Z</time>
      </trkpt>
      <trkpt lat="44.60665" lon="0.88082">
        <ele>183.8</ele>
        <time>2026-08-23T07:51:52Z</time>
      </trkpt>
      <trkpt lat="44.60667" lon="0.88086">
        <ele>183.8</ele>
        <time>2026-08-23T07:51:53Z</time>
      </trkpt>
      <trkpt lat="44.6067" lon="0.88091">
        <ele>184</ele>
        <time>2026-08-23T07:51:54Z</time>
      </trkpt>
      <trkpt lat="44.60672" lon="0.88096">
        <ele>184.2</ele>
        <time>2026-08-23T07:51:55Z</time>
      </trkpt>
      <trkpt lat="44.60675" lon="0.881">
        <ele>184.2</ele>
        <time>2026-08-23T07:51:56Z</time>
      </trkpt>
      <trkpt lat="44.60677" lon="0.88105">
        <ele>184.4</ele>
        <time>2026-08-23T07:51:57Z</time>
      </trkpt>
      <trkpt lat="44.6068" lon="0.88109">
        <ele>184.4</ele>
        <time>2026-08-23T07:51:58Z</time>
      </trkpt>
      <trkpt lat="44.60683" lon="0.88114">
        <ele>184.4</ele>
        <time>2026-08-23T07:51:59Z</time>
      </trkpt>
      <trkpt lat="44.60686" lon="0.88118">
        <ele>184.6</ele>
        <time>2026-08-23T07:52:00Z</time>
      </trkpt>
      <trkpt lat="44.60689" lon="0.88122">
        <ele>184.6</ele>
        <time>2026-08-23T07:52:01Z</time>
      </trkpt>
      <trkpt lat="44.60692" lon="0.88126">
        <ele>184.8</ele>
        <time>2026-08-23T07:52:02Z</time>
      </trkpt>
      <trkpt lat="44.60695" lon="0.8813">
        <ele>184.8</ele>
        <time>2026-08-23T07:52:03Z</time>
      </trkpt>
      <trkpt lat="44.60698" lon="0.88133">
        <ele>185</ele>
        <time>2026-08-23T07:52:04Z</time>
      </trkpt>
      <trkpt lat="44.60701" lon="0.88136">
        <ele>185.2</ele>
        <time>2026-08-23T07:52:05Z</time>
      </trkpt>
      <trkpt lat="44.60705" lon="0.88137">
        <ele>185.4</ele>
        <time>2026-08-23T07:52:06Z</time>
      </trkpt>
      <trkpt lat="44.60708" lon="0.88139">
        <ele>185.6</ele>
        <time>2026-08-23T07:52:07Z</time>
      </trkpt>
      <trkpt lat="44.60712" lon="0.8814">
        <ele>185.6</ele>
        <time>2026-08-23T07:52:08Z</time>
      </trkpt>
      <trkpt lat="44.60715" lon="0.88141">
        <ele>185.6</ele>
        <time>2026-08-23T07:52:09Z</time>
      </trkpt>
      <trkpt lat="44.60719" lon="0.88142">
        <ele>185.8</ele>
        <time>2026-08-23T07:52:10Z</time>
      </trkpt>
      <trkpt lat="44.60722" lon="0.88143">
        <ele>186.2</ele>
        <time>2026-08-23T07:52:11Z</time>
      </trkpt>
      <trkpt lat="44.60726" lon="0.88144">
        <ele>186.4</ele>
        <time>2026-08-23T07:52:12Z</time>
      </trkpt>
      <trkpt lat="44.60729" lon="0.88144">
        <ele>186.6</ele>
        <time>2026-08-23T07:52:13Z</time>
      </trkpt>
      <trkpt lat="44.60732" lon="0.88145">
        <ele>186.8</ele>
        <time>2026-08-23T07:52:14Z</time>
      </trkpt>
      <trkpt lat="44.60736" lon="0.88146">
        <ele>186.8</ele>
        <time>2026-08-23T07:52:15Z</time>
      </trkpt>
      <trkpt lat="44.60739" lon="0.88147">
        <ele>187</ele>
        <time>2026-08-23T07:52:16Z</time>
      </trkpt>
      <trkpt lat="44.60743" lon="0.88148">
        <ele>187.4</ele>
        <time>2026-08-23T07:52:17Z</time>
      </trkpt>
      <trkpt lat="44.60746" lon="0.8815">
        <ele>187.6</ele>
        <time>2026-08-23T07:52:18Z</time>
      </trkpt>
      <trkpt lat="44.6075" lon="0.88151">
        <ele>187.8</ele>
        <time>2026-08-23T07:52:19Z</time>
      </trkpt>
      <trkpt lat="44.60754" lon="0.88153">
        <ele>188.2</ele>
        <time>2026-08-23T07:52:20Z</time>
      </trkpt>
      <trkpt lat="44.60758" lon="0.88154">
        <ele>188.4</ele>
        <time>2026-08-23T07:52:21Z</time>
      </trkpt>
      <trkpt lat="44.60762" lon="0.88156">
        <ele>188.6</ele>
        <time>2026-08-23T07:52:22Z</time>
      </trkpt>
      <trkpt lat="44.60766" lon="0.88157">
        <ele>188.6</ele>
        <time>2026-08-23T07:52:23Z</time>
      </trkpt>
      <trkpt lat="44.6077" lon="0.88159">
        <ele>188.8</ele>
        <time>2026-08-23T07:52:24Z</time>
      </trkpt>
      <trkpt lat="44.60774" lon="0.8816">
        <ele>188.8</ele>
        <time>2026-08-23T07:52:25Z</time>
      </trkpt>
      <trkpt lat="44.60779" lon="0.88162">
        <ele>189</ele>
        <time>2026-08-23T07:52:26Z</time>
      </trkpt>
      <trkpt lat="44.60783" lon="0.88163">
        <ele>189</ele>
        <time>2026-08-23T07:52:27Z</time>
      </trkpt>
      <trkpt lat="44.60787" lon="0.88164">
        <ele>189</ele>
        <time>2026-08-23T07:52:28Z</time>
      </trkpt>
      <trkpt lat="44.60791" lon="0.88165">
        <ele>189</ele>
        <time>2026-08-23T07:52:29Z</time>
      </trkpt>
      <trkpt lat="44.60796" lon="0.88166">
        <ele>189.2</ele>
        <time>2026-08-23T07:52:30Z</time>
      </trkpt>
      <trkpt lat="44.608" lon="0.88166">
        <ele>189.2</ele>
        <time>2026-08-23T07:52:31Z</time>
      </trkpt>
      <trkpt lat="44.60804" lon="0.88167">
        <ele>189.4</ele>
        <time>2026-08-23T07:52:32Z</time>
      </trkpt>
      <trkpt lat="44.60808" lon="0.88167">
        <ele>189.4</ele>
        <time>2026-08-23T07:52:33Z</time>
      </trkpt>
      <trkpt lat="44.60811" lon="0.88168">
        <ele>189.4</ele>
        <time>2026-08-23T07:52:34Z</time>
      </trkpt>
      <trkpt lat="44.60815" lon="0.88168">
        <ele>189.4</ele>
        <time>2026-08-23T07:52:35Z</time>
      </trkpt>
      <trkpt lat="44.60819" lon="0.88168">
        <ele>189.6</ele>
        <time>2026-08-23T07:52:36Z</time>
      </trkpt>
      <trkpt lat="44.60823" lon="0.88168">
        <ele>189.6</ele>
        <time>2026-08-23T07:52:37Z</time>
      </trkpt>
      <trkpt lat="44.60826" lon="0.88168">
        <ele>189.8</ele>
        <time>2026-08-23T07:52:38Z</time>
      </trkpt>
      <trkpt lat="44.60829" lon="0.88168">
        <ele>190</ele>
        <time>2026-08-23T07:52:39Z</time>
      </trkpt>
      <trkpt lat="44.60833" lon="0.88168">
        <ele>190.2</ele>
        <time>2026-08-23T07:52:40Z</time>
      </trkpt>
      <trkpt lat="44.60836" lon="0.88168">
        <ele>190.4</ele>
        <time>2026-08-23T07:52:41Z</time>
      </trkpt>
      <trkpt lat="44.60839" lon="0.88168">
        <ele>190.8</ele>
        <time>2026-08-23T07:52:42Z</time>
      </trkpt>
      <trkpt lat="44.60842" lon="0.88169">
        <ele>191</ele>
        <time>2026-08-23T07:52:43Z</time>
      </trkpt>
      <trkpt lat="44.60844" lon="0.88169">
        <ele>191.4</ele>
        <time>2026-08-23T07:52:44Z</time>
      </trkpt>
      <trkpt lat="44.60844" lon="0.8817">
        <ele>191.6</ele>
        <time>2026-08-23T07:52:45Z</time>
      </trkpt>
      <trkpt lat="44.60845" lon="0.8817">
        <ele>191.6</ele>
        <time>2026-08-23T07:52:46Z</time>
      </trkpt>
      <trkpt lat="44.60845" lon="0.88169">
        <ele>191.8</ele>
        <time>2026-08-23T07:52:47Z</time>
      </trkpt>
      <trkpt lat="44.60845" lon="0.88169">
        <ele>192.2</ele>
        <time>2026-08-23T07:52:48Z</time>
      </trkpt>
      <trkpt lat="44.60844" lon="0.88169">
        <ele>192.4</ele>
        <time>2026-08-23T07:52:49Z</time>
      </trkpt>
      <trkpt lat="44.60844" lon="0.88169">
        <ele>192.4</ele>
        <time>2026-08-23T07:52:50Z</time>
      </trkpt>
      <trkpt lat="44.60843" lon="0.88169">
        <ele>192.6</ele>
        <time>2026-08-23T07:52:51Z</time>
      </trkpt>
      <trkpt lat="44.60843" lon="0.88171">
        <ele>192.6</ele>
        <time>2026-08-23T07:52:52Z</time>
      </trkpt>
      <trkpt lat="44.60842" lon="0.88172">
        <ele>192.6</ele>
        <time>2026-08-23T07:52:53Z</time>
      </trkpt>
      <trkpt lat="44.60842" lon="0.88174">
        <ele>192.6</ele>
        <time>2026-08-23T07:52:54Z</time>
      </trkpt>
      <trkpt lat="44.60842" lon="0.88178">
        <ele>192.6</ele>
        <time>2026-08-23T07:52:55Z</time>
      </trkpt>
      <trkpt lat="44.60842" lon="0.88181">
        <ele>192.6</ele>
        <time>2026-08-23T07:52:56Z</time>
      </trkpt>
      <trkpt lat="44.60842" lon="0.88184">
        <ele>192.6</ele>
        <time>2026-08-23T07:52:57Z</time>
      </trkpt>
      <trkpt lat="44.60842" lon="0.88188">
        <ele>192.6</ele>
        <time>2026-08-23T07:52:58Z</time>
      </trkpt>
      <trkpt lat="44.60842" lon="0.88191">
        <ele>192.8</ele>
        <time>2026-08-23T07:52:59Z</time>
      </trkpt>
      <trkpt lat="44.60842" lon="0.88198">
        <ele>192.8</ele>
        <time>2026-08-23T07:53:00Z</time>
      </trkpt>
      <trkpt lat="44.60841" lon="0.88202">
        <ele>192.8</ele>
        <time>2026-08-23T07:53:01Z</time>
      </trkpt>
      <trkpt lat="44.60841" lon="0.88207">
        <ele>193</ele>
        <time>2026-08-23T07:53:02Z</time>
      </trkpt>
      <trkpt lat="44.60841" lon="0.88212">
        <ele>193.2</ele>
        <time>2026-08-23T07:53:03Z</time>
      </trkpt>
      <trkpt lat="44.60841" lon="0.88217">
        <ele>193.4</ele>
        <time>2026-08-23T07:53:04Z</time>
      </trkpt>
      <trkpt lat="44.60841" lon="0.88222">
        <ele>193.6</ele>
        <time>2026-08-23T07:53:05Z</time>
      </trkpt>
      <trkpt lat="44.60841" lon="0.88227">
        <ele>193.6</ele>
        <time>2026-08-23T07:53:06Z</time>
      </trkpt>
      <trkpt lat="44.60841" lon="0.88232">
        <ele>193.8</ele>
        <time>2026-08-23T07:53:07Z</time>
      </trkpt>
      <trkpt lat="44.60841" lon="0.88237">
        <ele>193.8</ele>
        <time>2026-08-23T07:53:08Z</time>
      </trkpt>
      <trkpt lat="44.60841" lon="0.88242">
        <ele>194</ele>
        <time>2026-08-23T07:53:09Z</time>
      </trkpt>
      <trkpt lat="44.60841" lon="0.88247">
        <ele>194.2</ele>
        <time>2026-08-23T07:53:10Z</time>
      </trkpt>
      <trkpt lat="44.60841" lon="0.88252">
        <ele>194.4</ele>
        <time>2026-08-23T07:53:11Z</time>
      </trkpt>
      <trkpt lat="44.60841" lon="0.88257">
        <ele>194.4</ele>
        <time>2026-08-23T07:53:12Z</time>
      </trkpt>
      <trkpt lat="44.60841" lon="0.88262">
        <ele>194.6</ele>
        <time>2026-08-23T07:53:13Z</time>
      </trkpt>
      <trkpt lat="44.60841" lon="0.88267">
        <ele>194.6</ele>
        <time>2026-08-23T07:53:14Z</time>
      </trkpt>
      <trkpt lat="44.60841" lon="0.88272">
        <ele>194.6</ele>
        <time>2026-08-23T07:53:15Z</time>
      </trkpt>
      <trkpt lat="44.60841" lon="0.88277">
        <ele>194.8</ele>
        <time>2026-08-23T07:53:16Z</time>
      </trkpt>
      <trkpt lat="44.60841" lon="0.88282">
        <ele>195</ele>
        <time>2026-08-23T07:53:17Z</time>
      </trkpt>
      <trkpt lat="44.60841" lon="0.88287">
        <ele>195.2</ele>
        <time>2026-08-23T07:53:18Z</time>
      </trkpt>
      <trkpt lat="44.60841" lon="0.88292">
        <ele>195.4</ele>
        <time>2026-08-23T07:53:19Z</time>
      </trkpt>
      <trkpt lat="44.60841" lon="0.88296">
        <ele>195.4</ele>
        <time>2026-08-23T07:53:20Z</time>
      </trkpt>
      <trkpt lat="44.60841" lon="0.883">
        <ele>195.6</ele>
        <time>2026-08-23T07:53:21Z</time>
      </trkpt>
      <trkpt lat="44.60841" lon="0.88305">
        <ele>195.8</ele>
        <time>2026-08-23T07:53:22Z</time>
      </trkpt>
      <trkpt lat="44.60841" lon="0.88309">
        <ele>196</ele>
        <time>2026-08-23T07:53:23Z</time>
      </trkpt>
      <trkpt lat="44.60842" lon="0.88313">
        <ele>196.6</ele>
        <time>2026-08-23T07:53:24Z</time>
      </trkpt>
      <trkpt lat="44.60842" lon="0.88317">
        <ele>196.6</ele>
        <time>2026-08-23T07:53:25Z</time>
      </trkpt>
      <trkpt lat="44.60842" lon="0.8832">
        <ele>197</ele>
        <time>2026-08-23T07:53:26Z</time>
      </trkpt>
      <trkpt lat="44.60842" lon="0.88324">
        <ele>197.2</ele>
        <time>2026-08-23T07:53:27Z</time>
      </trkpt>
      <trkpt lat="44.60842" lon="0.88326">
        <ele>197.6</ele>
        <time>2026-08-23T07:53:28Z</time>
      </trkpt>
      <trkpt lat="44.60843" lon="0.88329">
        <ele>197.8</ele>
        <time>2026-08-23T07:53:29Z</time>
      </trkpt>
      <trkpt lat="44.60843" lon="0.88332">
        <ele>198.4</ele>
        <time>2026-08-23T07:53:30Z</time>
      </trkpt>
      <trkpt lat="44.60844" lon="0.88335">
        <ele>198.6</ele>
        <time>2026-08-23T07:53:31Z</time>
      </trkpt>
      <trkpt lat="44.60845" lon="0.88337">
        <ele>198.8</ele>
        <time>2026-08-23T07:53:32Z</time>
      </trkpt>
      <trkpt lat="44.60847" lon="0.88339">
        <ele>199.2</ele>
        <time>2026-08-23T07:53:33Z</time>
      </trkpt>
      <trkpt lat="44.6085" lon="0.88341">
        <ele>199.4</ele>
        <time>2026-08-23T07:53:34Z</time>
      </trkpt>
      <trkpt lat="44.60854" lon="0.88342">
        <ele>199.6</ele>
        <time>2026-08-23T07:53:35Z</time>
      </trkpt>
      <trkpt lat="44.60858" lon="0.88343">
        <ele>199.8</ele>
        <time>2026-08-23T07:53:36Z</time>
      </trkpt>
      <trkpt lat="44.60861" lon="0.88344">
        <ele>199.8</ele>
        <time>2026-08-23T07:53:37Z</time>
      </trkpt>
      <trkpt lat="44.60864" lon="0.88345">
        <ele>200</ele>
        <time>2026-08-23T07:53:38Z</time>
      </trkpt>
      <trkpt lat="44.60868" lon="0.88346">
        <ele>200.2</ele>
        <time>2026-08-23T07:53:39Z</time>
      </trkpt>
      <trkpt lat="44.60871" lon="0.88347">
        <ele>200.2</ele>
        <time>2026-08-23T07:53:40Z</time>
      </trkpt>
      <trkpt lat="44.60873" lon="0.88348">
        <ele>200.2</ele>
        <time>2026-08-23T07:53:41Z</time>
      </trkpt>
      <trkpt lat="44.60876" lon="0.88349">
        <ele>200.2</ele>
        <time>2026-08-23T07:53:42Z</time>
      </trkpt>
      <trkpt lat="44.60879" lon="0.8835">
        <ele>200.2</ele>
        <time>2026-08-23T07:53:43Z</time>
      </trkpt>
      <trkpt lat="44.60882" lon="0.88351">
        <ele>200.2</ele>
        <time>2026-08-23T07:53:44Z</time>
      </trkpt>
      <trkpt lat="44.60884" lon="0.88352">
        <ele>200.2</ele>
        <time>2026-08-23T07:53:45Z</time>
      </trkpt>
      <trkpt lat="44.60887" lon="0.88354">
        <ele>200.2</ele>
        <time>2026-08-23T07:53:46Z</time>
      </trkpt>
      <trkpt lat="44.6089" lon="0.88355">
        <ele>200.2</ele>
        <time>2026-08-23T07:53:47Z</time>
      </trkpt>
      <trkpt lat="44.60893" lon="0.88356">
        <ele>200.2</ele>
        <time>2026-08-23T07:53:48Z</time>
      </trkpt>
      <trkpt lat="44.60896" lon="0.88358">
        <ele>200.2</ele>
        <time>2026-08-23T07:53:49Z</time>
      </trkpt>
      <trkpt lat="44.60899" lon="0.88359">
        <ele>200.2</ele>
        <time>2026-08-23T07:53:50Z</time>
      </trkpt>
      <trkpt lat="44.60903" lon="0.8836">
        <ele>200.2</ele>
        <time>2026-08-23T07:53:51Z</time>
      </trkpt>
      <trkpt lat="44.60906" lon="0.88361">
        <ele>200</ele>
        <time>2026-08-23T07:53:52Z</time>
      </trkpt>
      <trkpt lat="44.60909" lon="0.88361">
        <ele>200</ele>
        <time>2026-08-23T07:53:53Z</time>
      </trkpt>
      <trkpt lat="44.60913" lon="0.88362">
        <ele>200</ele>
        <time>2026-08-23T07:53:54Z</time>
      </trkpt>
      <trkpt lat="44.60917" lon="0.88362">
        <ele>199.8</ele>
        <time>2026-08-23T07:53:55Z</time>
      </trkpt>
      <trkpt lat="44.60922" lon="0.88362">
        <ele>199.8</ele>
        <time>2026-08-23T07:53:56Z</time>
      </trkpt>
      <trkpt lat="44.60926" lon="0.88364">
        <ele>199.8</ele>
        <time>2026-08-23T07:53:57Z</time>
      </trkpt>
      <trkpt lat="44.60929" lon="0.88365">
        <ele>199.8</ele>
        <time>2026-08-23T07:53:58Z</time>
      </trkpt>
      <trkpt lat="44.60933" lon="0.88368">
        <ele>200</ele>
        <time>2026-08-23T07:53:59Z</time>
      </trkpt>
      <trkpt lat="44.60935" lon="0.88373">
        <ele>200</ele>
        <time>2026-08-23T07:54:00Z</time>
      </trkpt>
      <trkpt lat="44.60936" lon="0.88378">
        <ele>200.2</ele>
        <time>2026-08-23T07:54:01Z</time>
      </trkpt>
      <trkpt lat="44.60936" lon="0.88383">
        <ele>200.2</ele>
        <time>2026-08-23T07:54:02Z</time>
      </trkpt>
      <trkpt lat="44.60935" lon="0.88389">
        <ele>200.2</ele>
        <time>2026-08-23T07:54:03Z</time>
      </trkpt>
      <trkpt lat="44.60934" lon="0.88395">
        <ele>200.2</ele>
        <time>2026-08-23T07:54:04Z</time>
      </trkpt>
      <trkpt lat="44.60934" lon="0.88401">
        <ele>199.8</ele>
        <time>2026-08-23T07:54:05Z</time>
      </trkpt>
      <trkpt lat="44.60936" lon="0.88405">
        <ele>199.6</ele>
        <time>2026-08-23T07:54:06Z</time>
      </trkpt>
      <trkpt lat="44.60938" lon="0.88406">
        <ele>199.4</ele>
        <time>2026-08-23T07:54:07Z</time>
      </trkpt>
      <trkpt lat="44.60941" lon="0.88407">
        <ele>199</ele>
        <time>2026-08-23T07:54:08Z</time>
      </trkpt>
      <trkpt lat="44.60944" lon="0.88408">
        <ele>198.6</ele>
        <time>2026-08-23T07:54:09Z</time>
      </trkpt>
      <trkpt lat="44.60947" lon="0.88409">
        <ele>198.6</ele>
        <time>2026-08-23T07:54:10Z</time>
      </trkpt>
      <trkpt lat="44.60951" lon="0.88411">
        <ele>198.4</ele>
        <time>2026-08-23T07:54:11Z</time>
      </trkpt>
      <trkpt lat="44.60954" lon="0.88413">
        <ele>198.2</ele>
        <time>2026-08-23T07:54:12Z</time>
      </trkpt>
      <trkpt lat="44.60957" lon="0.88417">
        <ele>198.2</ele>
        <time>2026-08-23T07:54:13Z</time>
      </trkpt>
      <trkpt lat="44.6096" lon="0.88421">
        <ele>198.2</ele>
        <time>2026-08-23T07:54:14Z</time>
      </trkpt>
      <trkpt lat="44.60964" lon="0.88425">
        <ele>198</ele>
        <time>2026-08-23T07:54:15Z</time>
      </trkpt>
      <trkpt lat="44.60968" lon="0.8843">
        <ele>197.8</ele>
        <time>2026-08-23T07:54:16Z</time>
      </trkpt>
      <trkpt lat="44.60972" lon="0.88435">
        <ele>197.6</ele>
        <time>2026-08-23T07:54:17Z</time>
      </trkpt>
      <trkpt lat="44.60978" lon="0.88443">
        <ele>197.6</ele>
        <time>2026-08-23T07:54:18Z</time>
      </trkpt>
      <trkpt lat="44.60982" lon="0.8845">
        <ele>197.2</ele>
        <time>2026-08-23T07:54:19Z</time>
      </trkpt>
      <trkpt lat="44.60986" lon="0.88458">
        <ele>196.8</ele>
        <time>2026-08-23T07:54:20Z</time>
      </trkpt>
      <trkpt lat="44.6099" lon="0.88465">
        <ele>196.6</ele>
        <time>2026-08-23T07:54:21Z</time>
      </trkpt>
      <trkpt lat="44.60994" lon="0.88472">
        <ele>196.2</ele>
        <time>2026-08-23T07:54:22Z</time>
      </trkpt>
      <trkpt lat="44.60997" lon="0.88479">
        <ele>195.6</ele>
        <time>2026-08-23T07:54:23Z</time>
      </trkpt>
      <trkpt lat="44.61" lon="0.88484">
        <ele>195.2</ele>
        <time>2026-08-23T07:54:24Z</time>
      </trkpt>
      <trkpt lat="44.61002" lon="0.88487">
        <ele>194.8</ele>
        <time>2026-08-23T07:54:25Z</time>
      </trkpt>
      <trkpt lat="44.61004" lon="0.88491">
        <ele>194.6</ele>
        <time>2026-08-23T07:54:26Z</time>
      </trkpt>
      <trkpt lat="44.61004" lon="0.88495">
        <ele>194.2</ele>
        <time>2026-08-23T07:54:27Z</time>
      </trkpt>
      <trkpt lat="44.61004" lon="0.88499">
        <ele>193.8</ele>
        <time>2026-08-23T07:54:28Z</time>
      </trkpt>
      <trkpt lat="44.61004" lon="0.88504">
        <ele>193.6</ele>
        <time>2026-08-23T07:54:29Z</time>
      </trkpt>
      <trkpt lat="44.61005" lon="0.88509">
        <ele>193.6</ele>
        <time>2026-08-23T07:54:30Z</time>
      </trkpt>
      <trkpt lat="44.61007" lon="0.88514">
        <ele>193.4</ele>
        <time>2026-08-23T07:54:31Z</time>
      </trkpt>
      <trkpt lat="44.6101" lon="0.88518">
        <ele>193.4</ele>
        <time>2026-08-23T07:54:32Z</time>
      </trkpt>
      <trkpt lat="44.61013" lon="0.88522">
        <ele>193.2</ele>
        <time>2026-08-23T07:54:33Z</time>
      </trkpt>
      <trkpt lat="44.61016" lon="0.88527">
        <ele>193.2</ele>
        <time>2026-08-23T07:54:34Z</time>
      </trkpt>
      <trkpt lat="44.61019" lon="0.88531">
        <ele>193.2</ele>
        <time>2026-08-23T07:54:35Z</time>
      </trkpt>
      <trkpt lat="44.61022" lon="0.88536">
        <ele>192.8</ele>
        <time>2026-08-23T07:54:36Z</time>
      </trkpt>
      <trkpt lat="44.61024" lon="0.88541">
        <ele>192.6</ele>
        <time>2026-08-23T07:54:37Z</time>
      </trkpt>
      <trkpt lat="44.61027" lon="0.88546">
        <ele>192.6</ele>
        <time>2026-08-23T07:54:38Z</time>
      </trkpt>
      <trkpt lat="44.61029" lon="0.88552">
        <ele>192.4</ele>
        <time>2026-08-23T07:54:39Z</time>
      </trkpt>
      <trkpt lat="44.61032" lon="0.88557">
        <ele>192.2</ele>
        <time>2026-08-23T07:54:40Z</time>
      </trkpt>
      <trkpt lat="44.61035" lon="0.88563">
        <ele>191.8</ele>
        <time>2026-08-23T07:54:41Z</time>
      </trkpt>
      <trkpt lat="44.61039" lon="0.88569">
        <ele>191.6</ele>
        <time>2026-08-23T07:54:42Z</time>
        <extensions>
          <visugpx:TrkExtension xmlns:visugpx="https://www.visugpx.com/editgpx/">
            <visugpx:node>1</visugpx:node>
            </visugpx:TrkExtension>
        </extensions>
      </trkpt>
    </trkseg>
  </trk>
</gpx>